<?xml version='1.0' encoding='UTF-8'?><gpx version="1.1" creator="JPX - https://github.com/jenetics/jpx" xmlns="http://www.topografix.com/GPX/1/1"><trk><trkseg><trkpt lat="33.4348079" lon="9.0163767"><ele>62.00000000000001</ele><time>2026-04-22T15:05:12.82Z</time></trkpt><trkpt lat="33.4347748" lon="9.0162762"><ele>62.0</ele><time>2026-04-22T15:05:16.82Z</time></trkpt><trkpt lat="33.434724" lon="9.0162164"><ele>62.0</ele><time>2026-04-22T15:05:20.82Z</time></trkpt><trkpt lat="33.4346646" lon="9.016247"><ele>62.0</ele><time>2026-04-22T15:05:26.82Z</time></trkpt><trkpt lat="33.4345906" lon="9.0162454"><ele>62.00000000000001</ele><time>2026-04-22T15:05:32.82Z</time></trkpt><trkpt lat="33.4344746" lon="9.0162452"><ele>62.0</ele><time>2026-04-22T15:05:37.82Z</time></trkpt><trkpt lat="33.4343974" lon="9.0162487"><ele>63.0</ele><time>2026-04-22T15:05:40.82Z</time></trkpt><trkpt lat="33.4343586" lon="9.0163364"><ele>64.0</ele><time>2026-04-22T15:05:55.821Z</time></trkpt><trkpt lat="33.4343222" lon="9.0164036"><ele>65.0</ele><time>2026-04-22T15:06:03.82Z</time></trkpt><trkpt lat="33.434083" lon="9.0162694"><ele>66.0</ele><time>2026-04-22T15:06:17.958Z</time></trkpt><trkpt lat="33.4340665" lon="9.0161607"><ele>66.0</ele><time>2026-04-22T15:06:23.39Z</time></trkpt><trkpt lat="33.4342539" lon="9.0161828"><ele>66.0</ele><time>2026-04-22T15:06:29.82Z</time></trkpt><trkpt lat="33.4342894" lon="9.0162991"><ele>66.0</ele><time>2026-04-22T15:06:32.82Z</time></trkpt><trkpt lat="33.4343181" lon="9.0163701"><ele>66.0</ele><time>2026-04-22T15:06:36.82Z</time></trkpt><trkpt lat="33.4343514" lon="9.0164351"><ele>66.0</ele><time>2026-04-22T15:06:41.82Z</time></trkpt><trkpt lat="33.4344141" lon="9.0164559"><ele>66.0</ele><time>2026-04-22T15:06:45.82Z</time></trkpt><trkpt lat="33.4344686" lon="9.0164997"><ele>66.0</ele><time>2026-04-22T15:06:49.82Z</time></trkpt><trkpt lat="33.4345343" lon="9.0165441"><ele>66.0</ele><time>2026-04-22T15:06:55.82Z</time></trkpt><trkpt lat="33.4346017" lon="9.0165099"><ele>66.0</ele><time>2026-04-22T15:07:01.82Z</time></trkpt><trkpt lat="33.4346567" lon="9.0164567"><ele>66.0</ele><time>2026-04-22T15:10:44.819Z</time></trkpt><trkpt lat="33.4345967" lon="9.0165367"><ele>66.0</ele><time>2026-04-22T15:11:24.819Z</time></trkpt><trkpt lat="33.4345583" lon="9.0166783"><ele>65.85714285714286</ele><time>2026-04-22T15:11:26.819Z</time></trkpt><trkpt lat="33.43455" lon="9.0167533"><ele>65.71428571428572</ele><time>2026-04-22T15:11:27.819Z</time></trkpt><trkpt lat="33.4345433" lon="9.0168333"><ele>65.57142857142858</ele><time>2026-04-22T15:11:28.819Z</time></trkpt><trkpt lat="33.434545" lon="9.0169117"><ele>65.42857142857143</ele><time>2026-04-22T15:11:29.819Z</time></trkpt><trkpt lat="33.4345633" lon="9.0169867"><ele>65.28571428571429</ele><time>2026-04-22T15:11:30.82Z</time></trkpt><trkpt lat="33.43459" lon="9.017065"><ele>65.14285714285715</ele><time>2026-04-22T15:11:31.819Z</time></trkpt><trkpt lat="33.43462" lon="9.0171417"><ele>65.0</ele><time>2026-04-22T15:11:32.819Z</time></trkpt><trkpt lat="33.4346733" lon="9.0172583"><ele>64.4</ele><time>2026-04-22T15:11:34.819Z</time></trkpt><trkpt lat="33.4347233" lon="9.0173683"><ele>63.8</ele><time>2026-04-22T15:11:36.82Z</time></trkpt><trkpt lat="33.4347717" lon="9.01745"><ele>63.2</ele><time>2026-04-22T15:11:38.819Z</time></trkpt><trkpt lat="33.4348083" lon="9.0175283"><ele>62.6</ele><time>2026-04-22T15:11:41.819Z</time></trkpt><trkpt lat="33.4348567" lon="9.017625"><ele>62.0</ele><time>2026-04-22T15:11:46.819Z</time></trkpt><trkpt lat="33.4349017" lon="9.0177283"><ele>62.00000000000001</ele><time>2026-04-22T15:11:48.819Z</time></trkpt><trkpt lat="33.4349317" lon="9.0178117"><ele>62.0</ele><time>2026-04-22T15:11:50.819Z</time></trkpt><trkpt lat="33.4349267" lon="9.017905"><ele>62.0</ele><time>2026-04-22T15:11:53.819Z</time></trkpt><trkpt lat="33.434855" lon="9.0179617"><ele>62.0</ele><time>2026-04-22T15:11:55.819Z</time></trkpt><trkpt lat="33.4347367" lon="9.01801"><ele>62.00000000000001</ele><time>2026-04-22T15:11:57.819Z</time></trkpt><trkpt lat="33.4346683" lon="9.0180417"><ele>62.0</ele><time>2026-04-22T15:11:58.819Z</time></trkpt><trkpt lat="33.434605" lon="9.01807"><ele>62.0</ele><time>2026-04-22T15:11:59.819Z</time></trkpt><trkpt lat="33.4345417" lon="9.01809"><ele>62.0</ele><time>2026-04-22T15:12:00.819Z</time></trkpt><trkpt lat="33.43443" lon="9.0180567"><ele>62.0</ele><time>2026-04-22T15:12:02.819Z</time></trkpt><trkpt lat="33.4343317" lon="9.0179467"><ele>62.0</ele><time>2026-04-22T15:12:04.819Z</time></trkpt><trkpt lat="33.4342767" lon="9.0178617"><ele>62.0</ele><time>2026-04-22T15:12:05.819Z</time></trkpt><trkpt lat="33.4342183" lon="9.0177667"><ele>62.0</ele><time>2026-04-22T15:12:06.819Z</time></trkpt><trkpt lat="33.4341583" lon="9.0176867"><ele>62.0</ele><time>2026-04-22T15:12:07.819Z</time></trkpt><trkpt lat="33.4341083" lon="9.017595"><ele>62.0</ele><time>2026-04-22T15:12:08.819Z</time></trkpt><trkpt lat="33.4340483" lon="9.0175067"><ele>62.0</ele><time>2026-04-22T15:12:09.819Z</time></trkpt><trkpt lat="33.4339933" lon="9.0174183"><ele>62.0</ele><time>2026-04-22T15:12:10.819Z</time></trkpt><trkpt lat="33.4339367" lon="9.017325"><ele>62.2</ele><time>2026-04-22T15:12:11.818Z</time></trkpt><trkpt lat="33.4338817" lon="9.0172317"><ele>62.400000000000006</ele><time>2026-04-22T15:12:12.818Z</time></trkpt><trkpt lat="33.43382" lon="9.0171367"><ele>62.599999999999994</ele><time>2026-04-22T15:12:13.818Z</time></trkpt><trkpt lat="33.43375" lon="9.017045"><ele>62.8</ele><time>2026-04-22T15:12:14.818Z</time></trkpt><trkpt lat="33.4336717" lon="9.01695"><ele>63.0</ele><time>2026-04-22T15:12:15.818Z</time></trkpt><trkpt lat="33.4335817" lon="9.01686"><ele>63.0</ele><time>2026-04-22T15:12:16.818Z</time></trkpt><trkpt lat="33.43349" lon="9.0167633"><ele>63.0</ele><time>2026-04-22T15:12:17.818Z</time></trkpt><trkpt lat="33.433395" lon="9.0166683"><ele>63.0</ele><time>2026-04-22T15:12:18.818Z</time></trkpt><trkpt lat="33.4332967" lon="9.0165783"><ele>63.0</ele><time>2026-04-22T15:12:19.819Z</time></trkpt><trkpt lat="33.4331933" lon="9.0164867"><ele>63.0</ele><time>2026-04-22T15:12:20.818Z</time></trkpt><trkpt lat="33.4331" lon="9.016405"><ele>63.0</ele><time>2026-04-22T15:12:21.818Z</time></trkpt><trkpt lat="33.4329967" lon="9.0163267"><ele>63.0</ele><time>2026-04-22T15:12:22.818Z</time></trkpt><trkpt lat="33.4328983" lon="9.0162483"><ele>63.0</ele><time>2026-04-22T15:12:23.818Z</time></trkpt><trkpt lat="33.432795" lon="9.0161633"><ele>63.0</ele><time>2026-04-22T15:12:24.818Z</time></trkpt><trkpt lat="33.4327033" lon="9.0160733"><ele>63.0</ele><time>2026-04-22T15:12:25.819Z</time></trkpt><trkpt lat="33.43262" lon="9.0159817"><ele>63.0</ele><time>2026-04-22T15:12:26.819Z</time></trkpt><trkpt lat="33.4325367" lon="9.0158767"><ele>63.0</ele><time>2026-04-22T15:12:27.818Z</time></trkpt><trkpt lat="33.432455" lon="9.01576"><ele>63.0</ele><time>2026-04-22T15:12:28.818Z</time></trkpt><trkpt lat="33.4323783" lon="9.0156333"><ele>63.0</ele><time>2026-04-22T15:12:29.818Z</time></trkpt><trkpt lat="33.4323017" lon="9.0154983"><ele>63.0</ele><time>2026-04-22T15:12:30.818Z</time></trkpt><trkpt lat="33.43225" lon="9.0153617"><ele>63.0</ele><time>2026-04-22T15:12:31.819Z</time></trkpt><trkpt lat="33.4322133" lon="9.0152"><ele>63.0</ele><time>2026-04-22T15:12:32.818Z</time></trkpt><trkpt lat="33.4321867" lon="9.0150333"><ele>63.0</ele><time>2026-04-22T15:12:33.818Z</time></trkpt><trkpt lat="33.4321733" lon="9.0148667"><ele>63.0</ele><time>2026-04-22T15:12:34.818Z</time></trkpt><trkpt lat="33.4321683" lon="9.0147217"><ele>63.0</ele><time>2026-04-22T15:12:35.818Z</time></trkpt><trkpt lat="33.4321667" lon="9.0145883"><ele>63.0</ele><time>2026-04-22T15:12:36.818Z</time></trkpt><trkpt lat="33.43217" lon="9.0144567"><ele>63.0</ele><time>2026-04-22T15:12:37.818Z</time></trkpt><trkpt lat="33.4321767" lon="9.0143333"><ele>63.0</ele><time>2026-04-22T15:12:38.818Z</time></trkpt><trkpt lat="33.4321733" lon="9.0142267"><ele>63.0</ele><time>2026-04-22T15:12:39.818Z</time></trkpt><trkpt lat="33.4321717" lon="9.0141333"><ele>63.0</ele><time>2026-04-22T15:12:40.818Z</time></trkpt><trkpt lat="33.432185" lon="9.0140317"><ele>62.599999999999994</ele><time>2026-04-22T15:12:42.818Z</time></trkpt><trkpt lat="33.4320917" lon="9.0139767"><ele>62.199999999999996</ele><time>2026-04-22T15:12:48.818Z</time></trkpt><trkpt lat="33.4319617" lon="9.0139667"><ele>61.8</ele><time>2026-04-22T15:12:50.818Z</time></trkpt><trkpt lat="33.4318883" lon="9.0139467"><ele>61.4</ele><time>2026-04-22T15:12:51.818Z</time></trkpt><trkpt lat="33.4318083" lon="9.0139283"><ele>61.0</ele><time>2026-04-22T15:12:52.818Z</time></trkpt><trkpt lat="33.43172" lon="9.01391"><ele>61.0</ele><time>2026-04-22T15:12:53.818Z</time></trkpt><trkpt lat="33.43163" lon="9.0138817"><ele>60.99999999999999</ele><time>2026-04-22T15:12:54.818Z</time></trkpt><trkpt lat="33.43153" lon="9.013865"><ele>60.99999999999999</ele><time>2026-04-22T15:12:55.818Z</time></trkpt><trkpt lat="33.4314267" lon="9.0138433"><ele>61.0</ele><time>2026-04-22T15:12:56.818Z</time></trkpt><trkpt lat="33.431315" lon="9.0138367"><ele>61.0</ele><time>2026-04-22T15:12:57.818Z</time></trkpt><trkpt lat="33.431205" lon="9.0138217"><ele>61.25</ele><time>2026-04-22T15:12:58.818Z</time></trkpt><trkpt lat="33.4310883" lon="9.0138067"><ele>61.5</ele><time>2026-04-22T15:12:59.818Z</time></trkpt><trkpt lat="33.430965" lon="9.013795"><ele>61.75</ele><time>2026-04-22T15:13:00.818Z</time></trkpt><trkpt lat="33.4308433" lon="9.01378"><ele>62.0</ele><time>2026-04-22T15:13:01.818Z</time></trkpt><trkpt lat="33.4307167" lon="9.0137633"><ele>62.0</ele><time>2026-04-22T15:13:02.818Z</time></trkpt><trkpt lat="33.4305867" lon="9.0137467"><ele>62.0</ele><time>2026-04-22T15:13:03.818Z</time></trkpt><trkpt lat="33.4304517" lon="9.0137383"><ele>62.0</ele><time>2026-04-22T15:13:04.818Z</time></trkpt><trkpt lat="33.4303183" lon="9.0137233"><ele>62.0</ele><time>2026-04-22T15:13:05.818Z</time></trkpt><trkpt lat="33.430185" lon="9.0137"><ele>62.0</ele><time>2026-04-22T15:13:06.818Z</time></trkpt><trkpt lat="33.4300383" lon="9.0136833"><ele>62.0</ele><time>2026-04-22T15:13:07.818Z</time></trkpt><trkpt lat="33.4298883" lon="9.0136733"><ele>62.0</ele><time>2026-04-22T15:13:08.818Z</time></trkpt><trkpt lat="33.4297417" lon="9.013655"><ele>62.0</ele><time>2026-04-22T15:13:09.819Z</time></trkpt><trkpt lat="33.4295817" lon="9.0136383"><ele>63.0</ele><time>2026-04-22T15:13:10.818Z</time></trkpt><trkpt lat="33.4294183" lon="9.0136117"><ele>64.0</ele><time>2026-04-22T15:13:11.818Z</time></trkpt><trkpt lat="33.4292567" lon="9.0135867"><ele>65.0</ele><time>2026-04-22T15:13:12.818Z</time></trkpt><trkpt lat="33.4290933" lon="9.013555"><ele>65.0</ele><time>2026-04-22T15:13:13.818Z</time></trkpt><trkpt lat="33.4289217" lon="9.0135333"><ele>65.0</ele><time>2026-04-22T15:13:14.818Z</time></trkpt><trkpt lat="33.4287567" lon="9.0135067"><ele>65.0</ele><time>2026-04-22T15:13:15.818Z</time></trkpt><trkpt lat="33.4285933" lon="9.013485"><ele>66.0</ele><time>2026-04-22T15:13:16.818Z</time></trkpt><trkpt lat="33.428445" lon="9.01345"><ele>67.0</ele><time>2026-04-22T15:13:17.818Z</time></trkpt><trkpt lat="33.4282733" lon="9.0134217"><ele>68.0</ele><time>2026-04-22T15:13:18.818Z</time></trkpt><trkpt lat="33.4281" lon="9.0133983"><ele>68.0</ele><time>2026-04-22T15:13:19.818Z</time></trkpt><trkpt lat="33.4279267" lon="9.0133733"><ele>68.0</ele><time>2026-04-22T15:13:20.819Z</time></trkpt><trkpt lat="33.4277617" lon="9.0133433"><ele>68.0</ele><time>2026-04-22T15:13:21.818Z</time></trkpt><trkpt lat="33.427595" lon="9.0133117"><ele>68.0</ele><time>2026-04-22T15:13:22.818Z</time></trkpt><trkpt lat="33.4274233" lon="9.01328"><ele>68.0</ele><time>2026-04-22T15:13:23.818Z</time></trkpt><trkpt lat="33.4272433" lon="9.0132483"><ele>68.0</ele><time>2026-04-22T15:13:24.819Z</time></trkpt><trkpt lat="33.4270567" lon="9.0132183"><ele>67.66666666666667</ele><time>2026-04-22T15:13:25.818Z</time></trkpt><trkpt lat="33.4268833" lon="9.0131867"><ele>67.33333333333333</ele><time>2026-04-22T15:13:26.818Z</time></trkpt><trkpt lat="33.4267083" lon="9.01317"><ele>67.0</ele><time>2026-04-22T15:13:27.818Z</time></trkpt><trkpt lat="33.42653" lon="9.0131417"><ele>67.0</ele><time>2026-04-22T15:13:28.818Z</time></trkpt><trkpt lat="33.426345" lon="9.01312"><ele>67.0</ele><time>2026-04-22T15:13:29.818Z</time></trkpt><trkpt lat="33.4261583" lon="9.0131"><ele>67.0</ele><time>2026-04-22T15:13:30.818Z</time></trkpt><trkpt lat="33.4259833" lon="9.0130817"><ele>67.0</ele><time>2026-04-22T15:13:31.818Z</time></trkpt><trkpt lat="33.4257983" lon="9.0130667"><ele>67.0</ele><time>2026-04-22T15:13:32.818Z</time></trkpt><trkpt lat="33.4256183" lon="9.0130417"><ele>67.0</ele><time>2026-04-22T15:13:33.819Z</time></trkpt><trkpt lat="33.425435" lon="9.0130217"><ele>68.0</ele><time>2026-04-22T15:13:34.818Z</time></trkpt><trkpt lat="33.425255" lon="9.0129933"><ele>69.0</ele><time>2026-04-22T15:13:35.818Z</time></trkpt><trkpt lat="33.4250667" lon="9.01297"><ele>70.0</ele><time>2026-04-22T15:13:36.818Z</time></trkpt><trkpt lat="33.4248833" lon="9.012945"><ele>70.0</ele><time>2026-04-22T15:13:37.818Z</time></trkpt><trkpt lat="33.4246933" lon="9.0129233"><ele>70.0</ele><time>2026-04-22T15:13:38.818Z</time></trkpt><trkpt lat="33.4245067" lon="9.0128983"><ele>70.0</ele><time>2026-04-22T15:13:39.818Z</time></trkpt><trkpt lat="33.4243133" lon="9.0128717"><ele>69.33333333333333</ele><time>2026-04-22T15:13:40.818Z</time></trkpt><trkpt lat="33.4241267" lon="9.0128417"><ele>68.66666666666667</ele><time>2026-04-22T15:13:41.818Z</time></trkpt><trkpt lat="33.4239383" lon="9.0128067"><ele>68.0</ele><time>2026-04-22T15:13:42.818Z</time></trkpt><trkpt lat="33.4237517" lon="9.01276"><ele>68.0</ele><time>2026-04-22T15:13:43.818Z</time></trkpt><trkpt lat="33.4235717" lon="9.0127033"><ele>68.0</ele><time>2026-04-22T15:13:44.818Z</time></trkpt><trkpt lat="33.423385" lon="9.012645"><ele>68.0</ele><time>2026-04-22T15:13:45.818Z</time></trkpt><trkpt lat="33.4231967" lon="9.0125917"><ele>68.0</ele><time>2026-04-22T15:13:46.818Z</time></trkpt><trkpt lat="33.4230117" lon="9.0125417"><ele>68.0</ele><time>2026-04-22T15:13:47.818Z</time></trkpt><trkpt lat="33.422825" lon="9.012485"><ele>68.0</ele><time>2026-04-22T15:13:48.818Z</time></trkpt><trkpt lat="33.4226283" lon="9.012435"><ele>68.0</ele><time>2026-04-22T15:13:49.819Z</time></trkpt><trkpt lat="33.4224267" lon="9.0124033"><ele>68.0</ele><time>2026-04-22T15:13:50.818Z</time></trkpt><trkpt lat="33.422225" lon="9.01237"><ele>68.0</ele><time>2026-04-22T15:13:51.818Z</time></trkpt><trkpt lat="33.4220217" lon="9.01235"><ele>67.33333333333334</ele><time>2026-04-22T15:13:52.818Z</time></trkpt><trkpt lat="33.42181" lon="9.0123333"><ele>66.66666666666667</ele><time>2026-04-22T15:13:53.818Z</time></trkpt><trkpt lat="33.4216" lon="9.01232"><ele>66.0</ele><time>2026-04-22T15:13:54.818Z</time></trkpt><trkpt lat="33.4214" lon="9.01231"><ele>65.33333333333333</ele><time>2026-04-22T15:13:55.818Z</time></trkpt><trkpt lat="33.4211917" lon="9.0123083"><ele>64.66666666666666</ele><time>2026-04-22T15:13:56.818Z</time></trkpt><trkpt lat="33.420985" lon="9.0123117"><ele>64.0</ele><time>2026-04-22T15:13:57.819Z</time></trkpt><trkpt lat="33.4207817" lon="9.01231"><ele>64.0</ele><time>2026-04-22T15:13:58.818Z</time></trkpt><trkpt lat="33.42058" lon="9.0123083"><ele>64.0</ele><time>2026-04-22T15:13:59.818Z</time></trkpt><trkpt lat="33.4203767" lon="9.0123033"><ele>64.0</ele><time>2026-04-22T15:14:00.818Z</time></trkpt><trkpt lat="33.4201683" lon="9.012285"><ele>64.0</ele><time>2026-04-22T15:14:01.818Z</time></trkpt><trkpt lat="33.4199633" lon="9.0122517"><ele>64.0</ele><time>2026-04-22T15:14:02.818Z</time></trkpt><trkpt lat="33.4197617" lon="9.0122067"><ele>64.0</ele><time>2026-04-22T15:14:03.818Z</time></trkpt><trkpt lat="33.4195617" lon="9.012145"><ele>64.0</ele><time>2026-04-22T15:14:04.818Z</time></trkpt><trkpt lat="33.4193617" lon="9.0120783"><ele>64.0</ele><time>2026-04-22T15:14:05.818Z</time></trkpt><trkpt lat="33.419165" lon="9.0120117"><ele>64.0</ele><time>2026-04-22T15:14:06.818Z</time></trkpt><trkpt lat="33.418965" lon="9.0119517"><ele>64.66666666666666</ele><time>2026-04-22T15:14:07.818Z</time></trkpt><trkpt lat="33.41876" lon="9.011885"><ele>65.33333333333333</ele><time>2026-04-22T15:14:08.818Z</time></trkpt><trkpt lat="33.418555" lon="9.0118133"><ele>66.0</ele><time>2026-04-22T15:14:09.818Z</time></trkpt><trkpt lat="33.4183433" lon="9.01175"><ele>66.0</ele><time>2026-04-22T15:14:10.818Z</time></trkpt><trkpt lat="33.41813" lon="9.0116733"><ele>66.0</ele><time>2026-04-22T15:14:11.818Z</time></trkpt><trkpt lat="33.4179167" lon="9.011605"><ele>66.0</ele><time>2026-04-22T15:14:12.818Z</time></trkpt><trkpt lat="33.4177067" lon="9.011525"><ele>65.0</ele><time>2026-04-22T15:14:13.818Z</time></trkpt><trkpt lat="33.4174917" lon="9.0114533"><ele>64.0</ele><time>2026-04-22T15:14:14.818Z</time></trkpt><trkpt lat="33.4172783" lon="9.0113783"><ele>63.0</ele><time>2026-04-22T15:14:15.818Z</time></trkpt><trkpt lat="33.4170667" lon="9.0113067"><ele>63.0</ele><time>2026-04-22T15:14:16.818Z</time></trkpt><trkpt lat="33.416855" lon="9.01123"><ele>63.0</ele><time>2026-04-22T15:14:17.819Z</time></trkpt><trkpt lat="33.416635" lon="9.0111467"><ele>63.0</ele><time>2026-04-22T15:14:18.818Z</time></trkpt><trkpt lat="33.416415" lon="9.0110533"><ele>63.0</ele><time>2026-04-22T15:14:19.818Z</time></trkpt><trkpt lat="33.4161967" lon="9.010955"><ele>63.5</ele><time>2026-04-22T15:14:20.819Z</time></trkpt><trkpt lat="33.4159767" lon="9.0108633"><ele>64.0</ele><time>2026-04-22T15:14:21.818Z</time></trkpt><trkpt lat="33.4157517" lon="9.0107633"><ele>64.0</ele><time>2026-04-22T15:14:22.818Z</time></trkpt><trkpt lat="33.4155233" lon="9.0106633"><ele>64.0</ele><time>2026-04-22T15:14:23.818Z</time></trkpt><trkpt lat="33.415295" lon="9.0105617"><ele>65.0</ele><time>2026-04-22T15:14:24.818Z</time></trkpt><trkpt lat="33.4150783" lon="9.0104517"><ele>66.0</ele><time>2026-04-22T15:14:25.818Z</time></trkpt><trkpt lat="33.4148617" lon="9.010355"><ele>66.5</ele><time>2026-04-22T15:14:26.818Z</time></trkpt><trkpt lat="33.414645" lon="9.0102617"><ele>67.0</ele><time>2026-04-22T15:14:27.818Z</time></trkpt><trkpt lat="33.4144283" lon="9.0101667"><ele>67.0</ele><time>2026-04-22T15:14:28.818Z</time></trkpt><trkpt lat="33.4142067" lon="9.01008"><ele>67.0</ele><time>2026-04-22T15:14:29.818Z</time></trkpt><trkpt lat="33.4139883" lon="9.0099883"><ele>66.0</ele><time>2026-04-22T15:14:30.818Z</time></trkpt><trkpt lat="33.41376" lon="9.0098867"><ele>65.0</ele><time>2026-04-22T15:14:31.818Z</time></trkpt><trkpt lat="33.41354" lon="9.0097833"><ele>65.0</ele><time>2026-04-22T15:14:32.819Z</time></trkpt><trkpt lat="33.413325" lon="9.0096517"><ele>65.0</ele><time>2026-04-22T15:14:33.818Z</time></trkpt><trkpt lat="33.413115" lon="9.0095133"><ele>65.0</ele><time>2026-04-22T15:14:34.818Z</time></trkpt><trkpt lat="33.412905" lon="9.0093833"><ele>65.0</ele><time>2026-04-22T15:14:35.818Z</time></trkpt><trkpt lat="33.4126983" lon="9.0092617"><ele>64.5</ele><time>2026-04-22T15:14:36.818Z</time></trkpt><trkpt lat="33.4124917" lon="9.0091367"><ele>64.0</ele><time>2026-04-22T15:14:37.818Z</time></trkpt><trkpt lat="33.412275" lon="9.0090167"><ele>65.0</ele><time>2026-04-22T15:14:38.818Z</time></trkpt><trkpt lat="33.4120667" lon="9.0089017"><ele>66.0</ele><time>2026-04-22T15:14:39.818Z</time></trkpt><trkpt lat="33.41185" lon="9.0087867"><ele>66.0</ele><time>2026-04-22T15:14:40.818Z</time></trkpt><trkpt lat="33.41164" lon="9.0086867"><ele>66.0</ele><time>2026-04-22T15:14:41.819Z</time></trkpt><trkpt lat="33.4114317" lon="9.0085733"><ele>66.0</ele><time>2026-04-22T15:14:42.818Z</time></trkpt><trkpt lat="33.4112183" lon="9.0084783"><ele>66.0</ele><time>2026-04-22T15:14:43.818Z</time></trkpt><trkpt lat="33.4110233" lon="9.008365"><ele>66.0</ele><time>2026-04-22T15:14:44.818Z</time></trkpt><trkpt lat="33.4108217" lon="9.0082583"><ele>66.0</ele><time>2026-04-22T15:14:45.818Z</time></trkpt><trkpt lat="33.4106017" lon="9.00818"><ele>66.0</ele><time>2026-04-22T15:14:46.818Z</time></trkpt><trkpt lat="33.4103917" lon="9.0081033"><ele>66.0</ele><time>2026-04-22T15:14:47.818Z</time></trkpt><trkpt lat="33.4101717" lon="9.0080317"><ele>66.0</ele><time>2026-04-22T15:14:48.818Z</time></trkpt><trkpt lat="33.409955" lon="9.0079533"><ele>66.0</ele><time>2026-04-22T15:14:49.818Z</time></trkpt><trkpt lat="33.4097467" lon="9.00788"><ele>66.0</ele><time>2026-04-22T15:14:50.818Z</time></trkpt><trkpt lat="33.4095417" lon="9.0078"><ele>65.5</ele><time>2026-04-22T15:14:51.819Z</time></trkpt><trkpt lat="33.4093233" lon="9.0077233"><ele>65.0</ele><time>2026-04-22T15:14:52.818Z</time></trkpt><trkpt lat="33.4091033" lon="9.00764"><ele>65.0</ele><time>2026-04-22T15:14:53.818Z</time></trkpt><trkpt lat="33.40889" lon="9.0075683"><ele>65.0</ele><time>2026-04-22T15:14:54.818Z</time></trkpt><trkpt lat="33.408675" lon="9.007485"><ele>65.0</ele><time>2026-04-22T15:14:55.818Z</time></trkpt><trkpt lat="33.408465" lon="9.0073967"><ele>65.0</ele><time>2026-04-22T15:14:56.818Z</time></trkpt><trkpt lat="33.40825" lon="9.0073183"><ele>65.0</ele><time>2026-04-22T15:14:57.818Z</time></trkpt><trkpt lat="33.4080433" lon="9.0072417"><ele>65.0</ele><time>2026-04-22T15:14:58.818Z</time></trkpt><trkpt lat="33.40784" lon="9.00716"><ele>65.0</ele><time>2026-04-22T15:14:59.818Z</time></trkpt><trkpt lat="33.40763" lon="9.0070683"><ele>65.0</ele><time>2026-04-22T15:15:00.818Z</time></trkpt><trkpt lat="33.40743" lon="9.0069883"><ele>65.0</ele><time>2026-04-22T15:15:01.818Z</time></trkpt><trkpt lat="33.40722" lon="9.006915"><ele>64.33333333333334</ele><time>2026-04-22T15:15:02.818Z</time></trkpt><trkpt lat="33.40701" lon="9.00684"><ele>63.66666666666667</ele><time>2026-04-22T15:15:03.819Z</time></trkpt><trkpt lat="33.4067967" lon="9.0067667"><ele>63.0</ele><time>2026-04-22T15:15:04.818Z</time></trkpt><trkpt lat="33.4065917" lon="9.0066933"><ele>63.66666666666667</ele><time>2026-04-22T15:15:05.818Z</time></trkpt><trkpt lat="33.40639" lon="9.0066183"><ele>64.33333333333334</ele><time>2026-04-22T15:15:06.818Z</time></trkpt><trkpt lat="33.4061883" lon="9.006555"><ele>65.0</ele><time>2026-04-22T15:15:07.818Z</time></trkpt><trkpt lat="33.405995" lon="9.006495"><ele>65.0</ele><time>2026-04-22T15:15:08.818Z</time></trkpt><trkpt lat="33.4058117" lon="9.00645"><ele>65.0</ele><time>2026-04-22T15:15:09.818Z</time></trkpt><trkpt lat="33.4056533" lon="9.0064417"><ele>65.0</ele><time>2026-04-22T15:15:10.818Z</time></trkpt><trkpt lat="33.4055033" lon="9.0064667"><ele>65.0</ele><time>2026-04-22T15:15:11.818Z</time></trkpt><trkpt lat="33.4053867" lon="9.0065367"><ele>65.0</ele><time>2026-04-22T15:15:12.818Z</time></trkpt><trkpt lat="33.4052967" lon="9.00665"><ele>65.0</ele><time>2026-04-22T15:15:13.818Z</time></trkpt><trkpt lat="33.4052267" lon="9.006785"><ele>65.0</ele><time>2026-04-22T15:15:14.818Z</time></trkpt><trkpt lat="33.4051817" lon="9.0069433"><ele>65.0</ele><time>2026-04-22T15:15:15.818Z</time></trkpt><trkpt lat="33.4051617" lon="9.0071167"><ele>65.0</ele><time>2026-04-22T15:15:16.818Z</time></trkpt><trkpt lat="33.4051467" lon="9.0072817"><ele>65.0</ele><time>2026-04-22T15:15:17.818Z</time></trkpt><trkpt lat="33.4051283" lon="9.0074517"><ele>65.0</ele><time>2026-04-22T15:15:18.818Z</time></trkpt><trkpt lat="33.4051183" lon="9.0076317"><ele>65.0</ele><time>2026-04-22T15:15:19.818Z</time></trkpt><trkpt lat="33.4051017" lon="9.0078067"><ele>65.0</ele><time>2026-04-22T15:15:20.818Z</time></trkpt><trkpt lat="33.4050683" lon="9.007975"><ele>65.0</ele><time>2026-04-22T15:15:21.818Z</time></trkpt><trkpt lat="33.405015" lon="9.00813"><ele>65.0</ele><time>2026-04-22T15:15:22.818Z</time></trkpt><trkpt lat="33.40494" lon="9.00826"><ele>65.0</ele><time>2026-04-22T15:15:23.818Z</time></trkpt><trkpt lat="33.404845" lon="9.0083617"><ele>65.0</ele><time>2026-04-22T15:15:24.818Z</time></trkpt><trkpt lat="33.4047333" lon="9.0084467"><ele>65.0</ele><time>2026-04-22T15:15:25.818Z</time></trkpt><trkpt lat="33.40461" lon="9.0085233"><ele>65.0</ele><time>2026-04-22T15:15:26.818Z</time></trkpt><trkpt lat="33.4044733" lon="9.0085917"><ele>65.0</ele><time>2026-04-22T15:15:27.818Z</time></trkpt><trkpt lat="33.4043333" lon="9.0086467"><ele>65.0</ele><time>2026-04-22T15:15:28.819Z</time></trkpt><trkpt lat="33.40419" lon="9.0087133"><ele>65.0</ele><time>2026-04-22T15:15:29.818Z</time></trkpt><trkpt lat="33.40404" lon="9.0087733"><ele>65.0</ele><time>2026-04-22T15:15:30.818Z</time></trkpt><trkpt lat="33.4038967" lon="9.00883"><ele>65.0</ele><time>2026-04-22T15:15:31.818Z</time></trkpt><trkpt lat="33.4037483" lon="9.0088733"><ele>65.0</ele><time>2026-04-22T15:15:32.818Z</time></trkpt><trkpt lat="33.4035983" lon="9.0088967"><ele>65.0</ele><time>2026-04-22T15:15:33.818Z</time></trkpt><trkpt lat="33.40344" lon="9.0089133"><ele>65.0</ele><time>2026-04-22T15:15:34.818Z</time></trkpt><trkpt lat="33.4032717" lon="9.0089267"><ele>65.0</ele><time>2026-04-22T15:15:35.818Z</time></trkpt><trkpt lat="33.4030883" lon="9.008935"><ele>65.0</ele><time>2026-04-22T15:15:36.819Z</time></trkpt><trkpt lat="33.40292" lon="9.0089417"><ele>65.0</ele><time>2026-04-22T15:15:37.818Z</time></trkpt><trkpt lat="33.402755" lon="9.008945"><ele>65.0</ele><time>2026-04-22T15:15:38.818Z</time></trkpt><trkpt lat="33.4025817" lon="9.00895"><ele>65.0</ele><time>2026-04-22T15:15:39.818Z</time></trkpt><trkpt lat="33.4024033" lon="9.0089617"><ele>65.0</ele><time>2026-04-22T15:15:40.818Z</time></trkpt><trkpt lat="33.4022217" lon="9.0089733"><ele>65.0</ele><time>2026-04-22T15:15:41.818Z</time></trkpt><trkpt lat="33.4020333" lon="9.008995"><ele>64.33333333333334</ele><time>2026-04-22T15:15:42.818Z</time></trkpt><trkpt lat="33.4018467" lon="9.0089983"><ele>63.66666666666667</ele><time>2026-04-22T15:15:43.818Z</time></trkpt><trkpt lat="33.4016567" lon="9.0090017"><ele>63.0</ele><time>2026-04-22T15:15:44.818Z</time></trkpt><trkpt lat="33.40146" lon="9.00902"><ele>63.33333333333333</ele><time>2026-04-22T15:15:45.818Z</time></trkpt><trkpt lat="33.4012667" lon="9.0090267"><ele>63.666666666666664</ele><time>2026-04-22T15:15:46.818Z</time></trkpt><trkpt lat="33.40108" lon="9.0090333"><ele>64.0</ele><time>2026-04-22T15:15:47.818Z</time></trkpt><trkpt lat="33.4008933" lon="9.0090317"><ele>64.0</ele><time>2026-04-22T15:15:48.818Z</time></trkpt><trkpt lat="33.4007067" lon="9.0090267"><ele>64.0</ele><time>2026-04-22T15:15:49.818Z</time></trkpt><trkpt lat="33.4005217" lon="9.009"><ele>64.0</ele><time>2026-04-22T15:15:50.818Z</time></trkpt><trkpt lat="33.40034" lon="9.0089783"><ele>63.33333333333333</ele><time>2026-04-22T15:15:51.818Z</time></trkpt><trkpt lat="33.4001483" lon="9.0089567"><ele>62.66666666666667</ele><time>2026-04-22T15:15:52.818Z</time></trkpt><trkpt lat="33.3999483" lon="9.0089283"><ele>62.0</ele><time>2026-04-22T15:15:53.818Z</time></trkpt><trkpt lat="33.3997483" lon="9.0089017"><ele>62.66666666666667</ele><time>2026-04-22T15:15:54.818Z</time></trkpt><trkpt lat="33.3995617" lon="9.0088683"><ele>63.33333333333333</ele><time>2026-04-22T15:15:55.818Z</time></trkpt><trkpt lat="33.3993767" lon="9.008845"><ele>64.0</ele><time>2026-04-22T15:15:56.818Z</time></trkpt><trkpt lat="33.39918" lon="9.0088283"><ele>64.0</ele><time>2026-04-22T15:15:57.818Z</time></trkpt><trkpt lat="33.3989767" lon="9.0088233"><ele>64.0</ele><time>2026-04-22T15:15:58.818Z</time></trkpt><trkpt lat="33.39878" lon="9.008825"><ele>64.0</ele><time>2026-04-22T15:15:59.818Z</time></trkpt><trkpt lat="33.39858" lon="9.0088333"><ele>64.0</ele><time>2026-04-22T15:16:00.818Z</time></trkpt><trkpt lat="33.398375" lon="9.0088317"><ele>64.0</ele><time>2026-04-22T15:16:01.819Z</time></trkpt><trkpt lat="33.3981783" lon="9.0088367"><ele>64.0</ele><time>2026-04-22T15:16:02.818Z</time></trkpt><trkpt lat="33.3979667" lon="9.0088317"><ele>64.0</ele><time>2026-04-22T15:16:03.818Z</time></trkpt><trkpt lat="33.3977567" lon="9.0088233"><ele>64.0</ele><time>2026-04-22T15:16:04.818Z</time></trkpt><trkpt lat="33.39755" lon="9.00881"><ele>64.0</ele><time>2026-04-22T15:16:05.818Z</time></trkpt><trkpt lat="33.3973383" lon="9.0087967"><ele>64.33333333333333</ele><time>2026-04-22T15:16:06.817Z</time></trkpt><trkpt lat="33.3971233" lon="9.0087833"><ele>64.66666666666667</ele><time>2026-04-22T15:16:07.817Z</time></trkpt><trkpt lat="33.3969083" lon="9.0087867"><ele>65.0</ele><time>2026-04-22T15:16:08.817Z</time></trkpt><trkpt lat="33.396695" lon="9.0087817"><ele>65.0</ele><time>2026-04-22T15:16:09.818Z</time></trkpt><trkpt lat="33.3964817" lon="9.0087783"><ele>65.0</ele><time>2026-04-22T15:16:10.817Z</time></trkpt><trkpt lat="33.396265" lon="9.0087833"><ele>65.0</ele><time>2026-04-22T15:16:11.817Z</time></trkpt><trkpt lat="33.3960533" lon="9.00878"><ele>65.33333333333334</ele><time>2026-04-22T15:16:12.817Z</time></trkpt><trkpt lat="33.3958367" lon="9.0087683"><ele>65.66666666666667</ele><time>2026-04-22T15:16:13.817Z</time></trkpt><trkpt lat="33.3956117" lon="9.00876"><ele>66.0</ele><time>2026-04-22T15:16:14.817Z</time></trkpt><trkpt lat="33.395395" lon="9.0087633"><ele>64.66666666666667</ele><time>2026-04-22T15:16:15.817Z</time></trkpt><trkpt lat="33.39517" lon="9.0087633"><ele>63.333333333333336</ele><time>2026-04-22T15:16:16.817Z</time></trkpt><trkpt lat="33.39495" lon="9.0087633"><ele>62.0</ele><time>2026-04-22T15:16:17.817Z</time></trkpt><trkpt lat="33.3947233" lon="9.0087517"><ele>61.0</ele><time>2026-04-22T15:16:18.817Z</time></trkpt><trkpt lat="33.3944967" lon="9.0087467"><ele>60.0</ele><time>2026-04-22T15:16:19.818Z</time></trkpt><trkpt lat="33.3942733" lon="9.0087517"><ele>60.0</ele><time>2026-04-22T15:16:20.817Z</time></trkpt><trkpt lat="33.3940517" lon="9.008765"><ele>60.0</ele><time>2026-04-22T15:16:21.817Z</time></trkpt><trkpt lat="33.3938317" lon="9.0087817"><ele>60.0</ele><time>2026-04-22T15:16:22.817Z</time></trkpt><trkpt lat="33.3936033" lon="9.0088183"><ele>61.66666666666667</ele><time>2026-04-22T15:16:23.817Z</time></trkpt><trkpt lat="33.3933917" lon="9.00885"><ele>63.333333333333336</ele><time>2026-04-22T15:16:24.818Z</time></trkpt><trkpt lat="33.3931917" lon="9.0088933"><ele>65.0</ele><time>2026-04-22T15:16:25.817Z</time></trkpt><trkpt lat="33.393" lon="9.0089367"><ele>65.0</ele><time>2026-04-22T15:16:26.818Z</time></trkpt><trkpt lat="33.392805" lon="9.00898"><ele>65.0</ele><time>2026-04-22T15:16:27.817Z</time></trkpt><trkpt lat="33.3926083" lon="9.009015"><ele>65.0</ele><time>2026-04-22T15:16:28.817Z</time></trkpt><trkpt lat="33.3924133" lon="9.00907"><ele>65.0</ele><time>2026-04-22T15:16:29.817Z</time></trkpt><trkpt lat="33.39223" lon="9.0091383"><ele>65.0</ele><time>2026-04-22T15:16:30.817Z</time></trkpt><trkpt lat="33.392055" lon="9.0092217"><ele>65.0</ele><time>2026-04-22T15:16:31.817Z</time></trkpt><trkpt lat="33.3918717" lon="9.009305"><ele>63.0</ele><time>2026-04-22T15:16:32.817Z</time></trkpt><trkpt lat="33.391695" lon="9.0093867"><ele>61.0</ele><time>2026-04-22T15:16:33.817Z</time></trkpt><trkpt lat="33.3915183" lon="9.00947"><ele>59.0</ele><time>2026-04-22T15:16:34.818Z</time></trkpt><trkpt lat="33.3913483" lon="9.0095583"><ele>60.0</ele><time>2026-04-22T15:16:35.817Z</time></trkpt><trkpt lat="33.3911733" lon="9.0096517"><ele>61.0</ele><time>2026-04-22T15:16:36.817Z</time></trkpt><trkpt lat="33.3909967" lon="9.00975"><ele>62.0</ele><time>2026-04-22T15:16:37.817Z</time></trkpt><trkpt lat="33.390825" lon="9.00985"><ele>62.0</ele><time>2026-04-22T15:16:38.818Z</time></trkpt><trkpt lat="33.3906533" lon="9.009955"><ele>62.0</ele><time>2026-04-22T15:16:39.817Z</time></trkpt><trkpt lat="33.3904883" lon="9.0100533"><ele>62.0</ele><time>2026-04-22T15:16:40.817Z</time></trkpt><trkpt lat="33.3903267" lon="9.0101633"><ele>63.0</ele><time>2026-04-22T15:16:41.817Z</time></trkpt><trkpt lat="33.39017" lon="9.01028"><ele>64.0</ele><time>2026-04-22T15:16:42.817Z</time></trkpt><trkpt lat="33.3900167" lon="9.010395"><ele>65.0</ele><time>2026-04-22T15:16:43.817Z</time></trkpt><trkpt lat="33.3898633" lon="9.010515"><ele>65.0</ele><time>2026-04-22T15:16:44.817Z</time></trkpt><trkpt lat="33.3897117" lon="9.0106483"><ele>65.0</ele><time>2026-04-22T15:16:45.817Z</time></trkpt><trkpt lat="33.389565" lon="9.0107917"><ele>65.0</ele><time>2026-04-22T15:16:46.818Z</time></trkpt><trkpt lat="33.38942" lon="9.0109233"><ele>64.66666666666667</ele><time>2026-04-22T15:16:47.817Z</time></trkpt><trkpt lat="33.3892667" lon="9.0110633"><ele>64.33333333333333</ele><time>2026-04-22T15:16:48.817Z</time></trkpt><trkpt lat="33.3891233" lon="9.0112033"><ele>64.0</ele><time>2026-04-22T15:16:49.817Z</time></trkpt><trkpt lat="33.3889833" lon="9.01135"><ele>64.0</ele><time>2026-04-22T15:16:50.817Z</time></trkpt><trkpt lat="33.3888483" lon="9.0115067"><ele>64.0</ele><time>2026-04-22T15:16:51.817Z</time></trkpt><trkpt lat="33.3887117" lon="9.0116683"><ele>64.0</ele><time>2026-04-22T15:16:52.817Z</time></trkpt><trkpt lat="33.3885883" lon="9.01185"><ele>63.666666666666664</ele><time>2026-04-22T15:16:53.818Z</time></trkpt><trkpt lat="33.388475" lon="9.012015"><ele>63.33333333333333</ele><time>2026-04-22T15:16:54.817Z</time></trkpt><trkpt lat="33.38838" lon="9.0121633"><ele>63.0</ele><time>2026-04-22T15:16:55.817Z</time></trkpt><trkpt lat="33.3882933" lon="9.012295"><ele>63.0</ele><time>2026-04-22T15:16:56.817Z</time></trkpt><trkpt lat="33.3882117" lon="9.012395"><ele>63.0</ele><time>2026-04-22T15:16:57.817Z</time></trkpt><trkpt lat="33.3881517" lon="9.0124717"><ele>63.0</ele><time>2026-04-22T15:16:58.817Z</time></trkpt><trkpt lat="33.388105" lon="9.01253"><ele>63.0</ele><time>2026-04-22T15:16:59.817Z</time></trkpt><trkpt lat="33.3880517" lon="9.012595"><ele>63.0</ele><time>2026-04-22T15:17:01.817Z</time></trkpt><trkpt lat="33.3879867" lon="9.0126633"><ele>63.0</ele><time>2026-04-22T15:17:11.817Z</time></trkpt><trkpt lat="33.387925" lon="9.012695"><ele>63.4</ele><time>2026-04-22T15:17:12.817Z</time></trkpt><trkpt lat="33.38786" lon="9.0127267"><ele>63.8</ele><time>2026-04-22T15:17:13.817Z</time></trkpt><trkpt lat="33.3877617" lon="9.01277"><ele>64.2</ele><time>2026-04-22T15:17:15.817Z</time></trkpt><trkpt lat="33.38764" lon="9.0128217"><ele>64.6</ele><time>2026-04-22T15:17:17.817Z</time></trkpt><trkpt lat="33.38757" lon="9.0128617"><ele>65.0</ele><time>2026-04-22T15:17:18.817Z</time></trkpt><trkpt lat="33.3874917" lon="9.012915"><ele>65.0</ele><time>2026-04-22T15:17:19.817Z</time></trkpt><trkpt lat="33.3874033" lon="9.0129717"><ele>65.0</ele><time>2026-04-22T15:17:20.817Z</time></trkpt><trkpt lat="33.3873133" lon="9.0130233"><ele>65.0</ele><time>2026-04-22T15:17:21.817Z</time></trkpt><trkpt lat="33.3872217" lon="9.01309"><ele>65.0</ele><time>2026-04-22T15:17:22.817Z</time></trkpt><trkpt lat="33.38713" lon="9.01315"><ele>65.0</ele><time>2026-04-22T15:17:23.817Z</time></trkpt><trkpt lat="33.38705" lon="9.0132033"><ele>64.83333333333334</ele><time>2026-04-22T15:17:24.818Z</time></trkpt><trkpt lat="33.3869817" lon="9.0132567"><ele>64.66666666666667</ele><time>2026-04-22T15:17:25.817Z</time></trkpt><trkpt lat="33.386905" lon="9.013295"><ele>64.5</ele><time>2026-04-22T15:17:26.817Z</time></trkpt><trkpt lat="33.386825" lon="9.0133233"><ele>64.33333333333333</ele><time>2026-04-22T15:17:27.817Z</time></trkpt><trkpt lat="33.3867533" lon="9.01334"><ele>64.16666666666666</ele><time>2026-04-22T15:17:28.818Z</time></trkpt><trkpt lat="33.38668" lon="9.0133533"><ele>64.0</ele><time>2026-04-22T15:17:29.817Z</time></trkpt><trkpt lat="33.3866117" lon="9.0133583"><ele>64.0</ele><time>2026-04-22T15:17:30.817Z</time></trkpt><trkpt lat="33.3865383" lon="9.0133717"><ele>64.0</ele><time>2026-04-22T15:17:31.817Z</time></trkpt><trkpt lat="33.386435" lon="9.0133833"><ele>64.0</ele><time>2026-04-22T15:17:33.817Z</time></trkpt><trkpt lat="33.3863367" lon="9.01339"><ele>64.0</ele><time>2026-04-22T15:17:35.818Z</time></trkpt><trkpt lat="33.3862283" lon="9.0134117"><ele>64.0</ele><time>2026-04-22T15:17:37.817Z</time></trkpt><trkpt lat="33.386105" lon="9.0134467"><ele>64.66666666666666</ele><time>2026-04-22T15:17:39.817Z</time></trkpt><trkpt lat="33.3860367" lon="9.0134717"><ele>65.33333333333333</ele><time>2026-04-22T15:17:40.817Z</time></trkpt><trkpt lat="33.3859633" lon="9.0134917"><ele>66.0</ele><time>2026-04-22T15:17:41.817Z</time></trkpt><trkpt lat="33.3858883" lon="9.0135217"><ele>66.66666666666667</ele><time>2026-04-22T15:17:42.817Z</time></trkpt><trkpt lat="33.3858133" lon="9.0135483"><ele>67.33333333333334</ele><time>2026-04-22T15:17:43.817Z</time></trkpt><trkpt lat="33.38574" lon="9.0135717"><ele>68.0</ele><time>2026-04-22T15:17:44.817Z</time></trkpt><trkpt lat="33.3856683" lon="9.01359"><ele>68.0</ele><time>2026-04-22T15:17:45.817Z</time></trkpt><trkpt lat="33.38559" lon="9.0136017"><ele>68.0</ele><time>2026-04-22T15:17:46.817Z</time></trkpt><trkpt lat="33.3855133" lon="9.0136267"><ele>68.0</ele><time>2026-04-22T15:17:47.817Z</time></trkpt><trkpt lat="33.38545" lon="9.013645"><ele>68.0</ele><time>2026-04-22T15:17:48.817Z</time></trkpt><trkpt lat="33.3853683" lon="9.0136883"><ele>68.0</ele><time>2026-04-22T15:17:50.817Z</time></trkpt><trkpt lat="33.3854383" lon="9.0137067"><ele>68.0</ele><time>2026-04-22T15:18:37.817Z</time></trkpt><trkpt lat="33.385515" lon="9.01365"><ele>68.0</ele><time>2026-04-22T15:18:39.817Z</time></trkpt><trkpt lat="33.38561" lon="9.0136167"><ele>68.0</ele><time>2026-04-22T15:18:41.817Z</time></trkpt><trkpt lat="33.3857133" lon="9.0135967"><ele>68.0</ele><time>2026-04-22T15:18:43.817Z</time></trkpt><trkpt lat="33.3858083" lon="9.0135633"><ele>68.0</ele><time>2026-04-22T15:18:45.817Z</time></trkpt><trkpt lat="33.3859067" lon="9.013515"><ele>68.0</ele><time>2026-04-22T15:18:47.817Z</time></trkpt><trkpt lat="33.386005" lon="9.0134583"><ele>68.0</ele><time>2026-04-22T15:18:49.817Z</time></trkpt><trkpt lat="33.3861233" lon="9.0134133"><ele>68.0</ele><time>2026-04-22T15:18:51.817Z</time></trkpt><trkpt lat="33.38624" lon="9.0133783"><ele>68.0</ele><time>2026-04-22T15:18:53.817Z</time></trkpt><trkpt lat="33.386325" lon="9.0133517"><ele>68.0</ele><time>2026-04-22T15:18:55.817Z</time></trkpt><trkpt lat="33.3864" lon="9.0133417"><ele>68.0</ele><time>2026-04-22T15:18:57.817Z</time></trkpt><trkpt lat="33.3864733" lon="9.0133333"><ele>67.16666666666667</ele><time>2026-04-22T15:18:59.817Z</time></trkpt><trkpt lat="33.3865433" lon="9.0133217"><ele>66.33333333333334</ele><time>2026-04-22T15:19:01.817Z</time></trkpt><trkpt lat="33.386615" lon="9.0133117"><ele>65.5</ele><time>2026-04-22T15:19:03.817Z</time></trkpt><trkpt lat="33.3867167" lon="9.0133117"><ele>64.66666666666667</ele><time>2026-04-22T15:19:05.817Z</time></trkpt><trkpt lat="33.3867933" lon="9.013305"><ele>63.833333333333336</ele><time>2026-04-22T15:19:07.817Z</time></trkpt><trkpt lat="33.386855" lon="9.01328"><ele>63.0</ele><time>2026-04-22T15:20:02.816Z</time></trkpt><trkpt lat="33.3869533" lon="9.01322"><ele>63.0</ele><time>2026-04-22T15:20:04.816Z</time></trkpt><trkpt lat="33.387035" lon="9.0131733"><ele>63.0</ele><time>2026-04-22T15:20:06.816Z</time></trkpt><trkpt lat="33.387125" lon="9.0131133"><ele>63.0</ele><time>2026-04-22T15:20:08.816Z</time></trkpt><trkpt lat="33.387185" lon="9.01308"><ele>63.0</ele><time>2026-04-22T15:20:09.816Z</time></trkpt><trkpt lat="33.3872417" lon="9.0130267"><ele>63.0</ele><time>2026-04-22T15:20:10.817Z</time></trkpt><trkpt lat="33.3873033" lon="9.012985"><ele>63.0</ele><time>2026-04-22T15:20:11.816Z</time></trkpt><trkpt lat="33.3874183" lon="9.0129333"><ele>63.333333333333336</ele><time>2026-04-22T15:20:13.816Z</time></trkpt><trkpt lat="33.3874817" lon="9.0129167"><ele>63.66666666666667</ele><time>2026-04-22T15:20:14.816Z</time></trkpt><trkpt lat="33.3875483" lon="9.0128917"><ele>64.0</ele><time>2026-04-22T15:20:15.816Z</time></trkpt><trkpt lat="33.387625" lon="9.0128617"><ele>64.33333333333334</ele><time>2026-04-22T15:20:16.816Z</time></trkpt><trkpt lat="33.3877167" lon="9.0128383"><ele>64.66666666666667</ele><time>2026-04-22T15:20:17.816Z</time></trkpt><trkpt lat="33.3877933" lon="9.0128117"><ele>65.0</ele><time>2026-04-22T15:20:18.817Z</time></trkpt><trkpt lat="33.3878883" lon="9.0127917"><ele>65.00000000000001</ele><time>2026-04-22T15:20:20.816Z</time></trkpt><trkpt lat="33.3878883" lon="9.0128717"><ele>65.0</ele><time>2026-04-22T15:20:32.817Z</time></trkpt><trkpt lat="33.38784" lon="9.012955"><ele>65.0</ele><time>2026-04-22T15:20:36.816Z</time></trkpt><trkpt lat="33.3878" lon="9.0130217"><ele>65.0</ele><time>2026-04-22T15:20:39.816Z</time></trkpt><trkpt lat="33.387775" lon="9.0130967"><ele>65.0</ele><time>2026-04-22T15:20:42.816Z</time></trkpt><trkpt lat="33.3877383" lon="9.0131717"><ele>65.00000000000001</ele><time>2026-04-22T15:20:45.816Z</time></trkpt><trkpt lat="33.3876967" lon="9.0132467"><ele>65.0</ele><time>2026-04-22T15:20:47.816Z</time></trkpt><trkpt lat="33.3876567" lon="9.013325"><ele>65.0</ele><time>2026-04-22T15:20:49.816Z</time></trkpt><trkpt lat="33.3876233" lon="9.01339"><ele>65.0</ele><time>2026-04-22T15:20:51.816Z</time></trkpt><trkpt lat="33.387585" lon="9.0134617"><ele>65.0</ele><time>2026-04-22T15:20:53.816Z</time></trkpt><trkpt lat="33.3875467" lon="9.0135533"><ele>65.0</ele><time>2026-04-22T15:20:55.816Z</time></trkpt><trkpt lat="33.3874883" lon="9.0136817"><ele>65.0</ele><time>2026-04-22T15:20:57.816Z</time></trkpt><trkpt lat="33.38745" lon="9.0137567"><ele>65.0</ele><time>2026-04-22T15:20:58.816Z</time></trkpt><trkpt lat="33.3874117" lon="9.0138383"><ele>65.0</ele><time>2026-04-22T15:20:59.816Z</time></trkpt><trkpt lat="33.3873683" lon="9.0139233"><ele>65.0</ele><time>2026-04-22T15:21:00.816Z</time></trkpt><trkpt lat="33.3873233" lon="9.0140167"><ele>65.0</ele><time>2026-04-22T15:21:01.816Z</time></trkpt><trkpt lat="33.3872767" lon="9.01412"><ele>65.0</ele><time>2026-04-22T15:21:02.816Z</time></trkpt><trkpt lat="33.3872267" lon="9.0142333"><ele>65.0</ele><time>2026-04-22T15:21:03.817Z</time></trkpt><trkpt lat="33.3871783" lon="9.0143517"><ele>66.0</ele><time>2026-04-22T15:21:04.816Z</time></trkpt><trkpt lat="33.3871333" lon="9.0144733"><ele>67.0</ele><time>2026-04-22T15:21:05.816Z</time></trkpt><trkpt lat="33.3870833" lon="9.01459"><ele>68.0</ele><time>2026-04-22T15:21:06.816Z</time></trkpt><trkpt lat="33.3870367" lon="9.0147283"><ele>69.0</ele><time>2026-04-22T15:21:07.816Z</time></trkpt><trkpt lat="33.3869833" lon="9.0148633"><ele>68.25</ele><time>2026-04-22T15:21:08.816Z</time></trkpt><trkpt lat="33.38693" lon="9.0149983"><ele>67.5</ele><time>2026-04-22T15:21:09.816Z</time></trkpt><trkpt lat="33.38688" lon="9.0151483"><ele>66.75</ele><time>2026-04-22T15:21:10.816Z</time></trkpt><trkpt lat="33.38682" lon="9.0153067"><ele>66.0</ele><time>2026-04-22T15:21:11.816Z</time></trkpt><trkpt lat="33.38677" lon="9.0154583"><ele>66.0</ele><time>2026-04-22T15:21:12.816Z</time></trkpt><trkpt lat="33.38672" lon="9.01561"><ele>66.0</ele><time>2026-04-22T15:21:13.816Z</time></trkpt><trkpt lat="33.386665" lon="9.0157517"><ele>66.0</ele><time>2026-04-22T15:21:14.817Z</time></trkpt><trkpt lat="33.3866083" lon="9.0159083"><ele>66.0</ele><time>2026-04-22T15:21:15.816Z</time></trkpt><trkpt lat="33.386545" lon="9.0160583"><ele>66.0</ele><time>2026-04-22T15:21:16.816Z</time></trkpt><trkpt lat="33.386485" lon="9.0162083"><ele>66.0</ele><time>2026-04-22T15:21:17.817Z</time></trkpt><trkpt lat="33.3864283" lon="9.0163633"><ele>66.0</ele><time>2026-04-22T15:21:18.816Z</time></trkpt><trkpt lat="33.386375" lon="9.0165283"><ele>66.0</ele><time>2026-04-22T15:21:19.816Z</time></trkpt><trkpt lat="33.38633" lon="9.0166983"><ele>66.0</ele><time>2026-04-22T15:21:20.816Z</time></trkpt><trkpt lat="33.3862833" lon="9.016855"><ele>66.0</ele><time>2026-04-22T15:21:21.816Z</time></trkpt><trkpt lat="33.3862333" lon="9.0170117"><ele>66.0</ele><time>2026-04-22T15:21:22.816Z</time></trkpt><trkpt lat="33.3861883" lon="9.017185"><ele>66.0</ele><time>2026-04-22T15:21:23.816Z</time></trkpt><trkpt lat="33.3861367" lon="9.017345"><ele>67.0</ele><time>2026-04-22T15:21:24.816Z</time></trkpt><trkpt lat="33.386095" lon="9.0175317"><ele>68.0</ele><time>2026-04-22T15:21:25.817Z</time></trkpt><trkpt lat="33.3860517" lon="9.0177117"><ele>69.0</ele><time>2026-04-22T15:21:26.816Z</time></trkpt><trkpt lat="33.3860017" lon="9.0178883"><ele>69.0</ele><time>2026-04-22T15:21:27.816Z</time></trkpt><trkpt lat="33.38596" lon="9.0180733"><ele>69.0</ele><time>2026-04-22T15:21:28.816Z</time></trkpt><trkpt lat="33.3859133" lon="9.0182633"><ele>69.0</ele><time>2026-04-22T15:21:29.816Z</time></trkpt><trkpt lat="33.385875" lon="9.0184567"><ele>69.0</ele><time>2026-04-22T15:21:30.816Z</time></trkpt><trkpt lat="33.3858367" lon="9.0186433"><ele>69.0</ele><time>2026-04-22T15:21:31.816Z</time></trkpt><trkpt lat="33.3858067" lon="9.01884"><ele>69.0</ele><time>2026-04-22T15:21:32.816Z</time></trkpt><trkpt lat="33.38577" lon="9.0190367"><ele>69.0</ele><time>2026-04-22T15:21:33.816Z</time></trkpt><trkpt lat="33.3857283" lon="9.0192333"><ele>69.0</ele><time>2026-04-22T15:21:34.816Z</time></trkpt><trkpt lat="33.38571" lon="9.0194417"><ele>69.0</ele><time>2026-04-22T15:21:35.816Z</time></trkpt><trkpt lat="33.3857117" lon="9.0196567"><ele>69.0</ele><time>2026-04-22T15:21:36.816Z</time></trkpt><trkpt lat="33.3856967" lon="9.0198667"><ele>69.0</ele><time>2026-04-22T15:21:37.816Z</time></trkpt><trkpt lat="33.3856883" lon="9.020075"><ele>69.0</ele><time>2026-04-22T15:21:38.816Z</time></trkpt><trkpt lat="33.3856783" lon="9.02029"><ele>68.66666666666667</ele><time>2026-04-22T15:21:39.816Z</time></trkpt><trkpt lat="33.3856583" lon="9.020495"><ele>68.33333333333334</ele><time>2026-04-22T15:21:40.817Z</time></trkpt><trkpt lat="33.385645" lon="9.020695"><ele>68.0</ele><time>2026-04-22T15:21:41.816Z</time></trkpt><trkpt lat="33.385635" lon="9.0209217"><ele>67.66666666666667</ele><time>2026-04-22T15:21:42.816Z</time></trkpt><trkpt lat="33.3856367" lon="9.021155"><ele>67.33333333333333</ele><time>2026-04-22T15:21:43.817Z</time></trkpt><trkpt lat="33.3856283" lon="9.0213817"><ele>67.0</ele><time>2026-04-22T15:21:44.816Z</time></trkpt><trkpt lat="33.3856267" lon="9.0216017"><ele>67.66666666666666</ele><time>2026-04-22T15:21:45.816Z</time></trkpt><trkpt lat="33.3856367" lon="9.0218167"><ele>68.33333333333333</ele><time>2026-04-22T15:21:46.816Z</time></trkpt><trkpt lat="33.3856517" lon="9.0220433"><ele>69.0</ele><time>2026-04-22T15:21:47.816Z</time></trkpt><trkpt lat="33.385675" lon="9.0222733"><ele>69.33333333333333</ele><time>2026-04-22T15:21:48.816Z</time></trkpt><trkpt lat="33.3857017" lon="9.022505"><ele>69.66666666666666</ele><time>2026-04-22T15:21:49.816Z</time></trkpt><trkpt lat="33.38573" lon="9.0227317"><ele>70.0</ele><time>2026-04-22T15:21:50.816Z</time></trkpt><trkpt lat="33.38576" lon="9.0229533"><ele>70.0</ele><time>2026-04-22T15:21:51.816Z</time></trkpt><trkpt lat="33.3857967" lon="9.0231967"><ele>70.0</ele><time>2026-04-22T15:21:52.816Z</time></trkpt><trkpt lat="33.3858383" lon="9.0234233"><ele>70.0</ele><time>2026-04-22T15:21:53.816Z</time></trkpt><trkpt lat="33.3858867" lon="9.0236483"><ele>70.0</ele><time>2026-04-22T15:21:54.816Z</time></trkpt><trkpt lat="33.385935" lon="9.0238783"><ele>70.0</ele><time>2026-04-22T15:21:55.816Z</time></trkpt><trkpt lat="33.3859883" lon="9.0240983"><ele>70.0</ele><time>2026-04-22T15:21:56.816Z</time></trkpt><trkpt lat="33.3860283" lon="9.0243133"><ele>70.0</ele><time>2026-04-22T15:21:57.816Z</time></trkpt><trkpt lat="33.386075" lon="9.02454"><ele>70.0</ele><time>2026-04-22T15:21:58.816Z</time></trkpt><trkpt lat="33.3861233" lon="9.0247567"><ele>70.0</ele><time>2026-04-22T15:21:59.816Z</time></trkpt><trkpt lat="33.38617" lon="9.0249817"><ele>70.0</ele><time>2026-04-22T15:22:00.816Z</time></trkpt><trkpt lat="33.386205" lon="9.025205"><ele>70.0</ele><time>2026-04-22T15:22:01.816Z</time></trkpt><trkpt lat="33.38624" lon="9.0254317"><ele>70.0</ele><time>2026-04-22T15:22:02.816Z</time></trkpt><trkpt lat="33.3862633" lon="9.02566"><ele>70.0</ele><time>2026-04-22T15:22:03.816Z</time></trkpt><trkpt lat="33.3863017" lon="9.0258883"><ele>70.0</ele><time>2026-04-22T15:22:04.816Z</time></trkpt><trkpt lat="33.386315" lon="9.0261167"><ele>70.0</ele><time>2026-04-22T15:22:05.816Z</time></trkpt><trkpt lat="33.3863383" lon="9.026345"><ele>70.0</ele><time>2026-04-22T15:22:06.816Z</time></trkpt><trkpt lat="33.38635" lon="9.0265767"><ele>70.0</ele><time>2026-04-22T15:22:07.816Z</time></trkpt><trkpt lat="33.3863667" lon="9.0268"><ele>70.0</ele><time>2026-04-22T15:22:08.817Z</time></trkpt><trkpt lat="33.3863833" lon="9.0270283"><ele>70.0</ele><time>2026-04-22T15:22:09.816Z</time></trkpt><trkpt lat="33.3863933" lon="9.0272533"><ele>70.0</ele><time>2026-04-22T15:22:10.816Z</time></trkpt><trkpt lat="33.3864" lon="9.027485"><ele>70.0</ele><time>2026-04-22T15:22:11.816Z</time></trkpt><trkpt lat="33.386395" lon="9.0277117"><ele>69.66666666666666</ele><time>2026-04-22T15:22:12.816Z</time></trkpt><trkpt lat="33.38639" lon="9.027945"><ele>69.33333333333333</ele><time>2026-04-22T15:22:13.816Z</time></trkpt><trkpt lat="33.386385" lon="9.0281867"><ele>69.0</ele><time>2026-04-22T15:22:14.816Z</time></trkpt><trkpt lat="33.386355" lon="9.028405"><ele>69.0</ele><time>2026-04-22T15:22:15.816Z</time></trkpt><trkpt lat="33.386345" lon="9.028625"><ele>69.0</ele><time>2026-04-22T15:22:16.816Z</time></trkpt><trkpt lat="33.3863383" lon="9.0288533"><ele>69.0</ele><time>2026-04-22T15:22:17.816Z</time></trkpt><trkpt lat="33.3863233" lon="9.0290767"><ele>69.66666666666667</ele><time>2026-04-22T15:22:18.816Z</time></trkpt><trkpt lat="33.3863217" lon="9.0293183"><ele>70.33333333333334</ele><time>2026-04-22T15:22:19.816Z</time></trkpt><trkpt lat="33.3863017" lon="9.029545"><ele>71.0</ele><time>2026-04-22T15:22:20.816Z</time></trkpt><trkpt lat="33.38627" lon="9.02977"><ele>71.66666666666667</ele><time>2026-04-22T15:22:21.816Z</time></trkpt><trkpt lat="33.38626" lon="9.0300067"><ele>72.33333333333333</ele><time>2026-04-22T15:22:22.816Z</time></trkpt><trkpt lat="33.3862533" lon="9.030245"><ele>73.0</ele><time>2026-04-22T15:22:23.817Z</time></trkpt><trkpt lat="33.38624" lon="9.0304817"><ele>73.0</ele><time>2026-04-22T15:22:24.816Z</time></trkpt><trkpt lat="33.3862217" lon="9.0307133"><ele>73.0</ele><time>2026-04-22T15:22:25.816Z</time></trkpt><trkpt lat="33.3862083" lon="9.0309533"><ele>73.0</ele><time>2026-04-22T15:22:26.816Z</time></trkpt><trkpt lat="33.386195" lon="9.0311833"><ele>72.0</ele><time>2026-04-22T15:22:27.816Z</time></trkpt><trkpt lat="33.386175" lon="9.03141"><ele>71.0</ele><time>2026-04-22T15:22:28.816Z</time></trkpt><trkpt lat="33.3861583" lon="9.031645"><ele>70.0</ele><time>2026-04-22T15:22:29.816Z</time></trkpt><trkpt lat="33.386145" lon="9.0318867"><ele>70.0</ele><time>2026-04-22T15:22:30.816Z</time></trkpt><trkpt lat="33.386125" lon="9.0321183"><ele>70.0</ele><time>2026-04-22T15:22:31.816Z</time></trkpt><trkpt lat="33.386105" lon="9.032355"><ele>70.0</ele><time>2026-04-22T15:22:32.816Z</time></trkpt><trkpt lat="33.38609" lon="9.0325933"><ele>70.33333333333333</ele><time>2026-04-22T15:22:33.816Z</time></trkpt><trkpt lat="33.3860833" lon="9.03284"><ele>70.66666666666667</ele><time>2026-04-22T15:22:34.817Z</time></trkpt><trkpt lat="33.386065" lon="9.033085"><ele>71.0</ele><time>2026-04-22T15:22:35.816Z</time></trkpt><trkpt lat="33.386045" lon="9.0333217"><ele>71.0</ele><time>2026-04-22T15:22:36.816Z</time></trkpt><trkpt lat="33.3860233" lon="9.0335567"><ele>71.0</ele><time>2026-04-22T15:22:37.816Z</time></trkpt><trkpt lat="33.38601" lon="9.0338033"><ele>71.0</ele><time>2026-04-22T15:22:38.816Z</time></trkpt><trkpt lat="33.3859983" lon="9.03406"><ele>71.0</ele><time>2026-04-22T15:22:39.817Z</time></trkpt><trkpt lat="33.3859817" lon="9.0343133"><ele>71.0</ele><time>2026-04-22T15:22:40.816Z</time></trkpt><trkpt lat="33.3859633" lon="9.0345683"><ele>71.0</ele><time>2026-04-22T15:22:41.816Z</time></trkpt><trkpt lat="33.3859433" lon="9.0348267"><ele>71.66666666666667</ele><time>2026-04-22T15:22:42.816Z</time></trkpt><trkpt lat="33.38593" lon="9.03509"><ele>72.33333333333333</ele><time>2026-04-22T15:22:43.816Z</time></trkpt><trkpt lat="33.3859133" lon="9.0353517"><ele>73.0</ele><time>2026-04-22T15:22:44.816Z</time></trkpt><trkpt lat="33.3859017" lon="9.0356083"><ele>72.66666666666666</ele><time>2026-04-22T15:22:45.816Z</time></trkpt><trkpt lat="33.3858867" lon="9.0358667"><ele>72.33333333333333</ele><time>2026-04-22T15:22:46.817Z</time></trkpt><trkpt lat="33.38586" lon="9.0361233"><ele>72.0</ele><time>2026-04-22T15:22:47.816Z</time></trkpt><trkpt lat="33.3858383" lon="9.0363867"><ele>71.5</ele><time>2026-04-22T15:22:48.816Z</time></trkpt><trkpt lat="33.3858183" lon="9.0366667"><ele>71.0</ele><time>2026-04-22T15:22:49.816Z</time></trkpt><trkpt lat="33.3858017" lon="9.0369267"><ele>71.0</ele><time>2026-04-22T15:22:50.816Z</time></trkpt><trkpt lat="33.3857833" lon="9.0371967"><ele>71.0</ele><time>2026-04-22T15:22:51.816Z</time></trkpt><trkpt lat="33.38576" lon="9.03747"><ele>71.33333333333334</ele><time>2026-04-22T15:22:52.816Z</time></trkpt><trkpt lat="33.38574" lon="9.0377267"><ele>71.66666666666667</ele><time>2026-04-22T15:22:53.817Z</time></trkpt><trkpt lat="33.3857117" lon="9.0379983"><ele>72.0</ele><time>2026-04-22T15:22:54.816Z</time></trkpt><trkpt lat="33.385695" lon="9.03827"><ele>70.5</ele><time>2026-04-22T15:22:55.816Z</time></trkpt><trkpt lat="33.3856833" lon="9.03854"><ele>69.0</ele><time>2026-04-22T15:22:56.816Z</time></trkpt><trkpt lat="33.3856717" lon="9.0388117"><ele>69.0</ele><time>2026-04-22T15:22:57.816Z</time></trkpt><trkpt lat="33.3856567" lon="9.03909"><ele>69.0</ele><time>2026-04-22T15:22:58.815Z</time></trkpt><trkpt lat="33.3856383" lon="9.0393667"><ele>70.0</ele><time>2026-04-22T15:22:59.815Z</time></trkpt><trkpt lat="33.38562" lon="9.0396517"><ele>71.0</ele><time>2026-04-22T15:23:00.815Z</time></trkpt><trkpt lat="33.3856" lon="9.0399233"><ele>71.5</ele><time>2026-04-22T15:23:01.815Z</time></trkpt><trkpt lat="33.38558" lon="9.0402"><ele>72.0</ele><time>2026-04-22T15:23:02.815Z</time></trkpt><trkpt lat="33.38556" lon="9.040475"><ele>72.0</ele><time>2026-04-22T15:23:03.815Z</time></trkpt><trkpt lat="33.3855467" lon="9.0407517"><ele>72.0</ele><time>2026-04-22T15:23:04.815Z</time></trkpt><trkpt lat="33.3855283" lon="9.041025"><ele>71.5</ele><time>2026-04-22T15:23:05.816Z</time></trkpt><trkpt lat="33.385515" lon="9.0413"><ele>71.0</ele><time>2026-04-22T15:23:06.815Z</time></trkpt><trkpt lat="33.3855" lon="9.0415683"><ele>72.5</ele><time>2026-04-22T15:23:07.815Z</time></trkpt><trkpt lat="33.385485" lon="9.0418383"><ele>74.0</ele><time>2026-04-22T15:23:08.815Z</time></trkpt><trkpt lat="33.3854617" lon="9.0421217"><ele>74.0</ele><time>2026-04-22T15:23:09.815Z</time></trkpt><trkpt lat="33.38546" lon="9.0424133"><ele>74.0</ele><time>2026-04-22T15:23:10.816Z</time></trkpt><trkpt lat="33.385445" lon="9.0426933"><ele>72.5</ele><time>2026-04-22T15:23:11.815Z</time></trkpt><trkpt lat="33.3854233" lon="9.0429683"><ele>71.0</ele><time>2026-04-22T15:23:12.815Z</time></trkpt><trkpt lat="33.3853967" lon="9.0432383"><ele>70.5</ele><time>2026-04-22T15:23:13.815Z</time></trkpt><trkpt lat="33.385375" lon="9.04351"><ele>70.0</ele><time>2026-04-22T15:23:14.816Z</time></trkpt><trkpt lat="33.3853633" lon="9.043785"><ele>70.0</ele><time>2026-04-22T15:23:15.815Z</time></trkpt><trkpt lat="33.3853517" lon="9.0440567"><ele>70.0</ele><time>2026-04-22T15:23:16.815Z</time></trkpt><trkpt lat="33.3853267" lon="9.04434"><ele>70.5</ele><time>2026-04-22T15:23:17.815Z</time></trkpt><trkpt lat="33.3853233" lon="9.04462"><ele>71.0</ele><time>2026-04-22T15:23:18.815Z</time></trkpt><trkpt lat="33.3853133" lon="9.0448967"><ele>71.0</ele><time>2026-04-22T15:23:19.815Z</time></trkpt><trkpt lat="33.3853133" lon="9.0451717"><ele>71.0</ele><time>2026-04-22T15:23:20.815Z</time></trkpt><trkpt lat="33.3853083" lon="9.045455"><ele>71.0</ele><time>2026-04-22T15:23:21.815Z</time></trkpt><trkpt lat="33.3853017" lon="9.0457283"><ele>71.0</ele><time>2026-04-22T15:23:22.815Z</time></trkpt><trkpt lat="33.385305" lon="9.0460067"><ele>70.5</ele><time>2026-04-22T15:23:23.815Z</time></trkpt><trkpt lat="33.3853167" lon="9.046285"><ele>70.0</ele><time>2026-04-22T15:23:24.815Z</time></trkpt><trkpt lat="33.3853317" lon="9.0465567"><ele>70.0</ele><time>2026-04-22T15:23:25.815Z</time></trkpt><trkpt lat="33.38535" lon="9.0468367"><ele>70.0</ele><time>2026-04-22T15:23:26.815Z</time></trkpt><trkpt lat="33.3853733" lon="9.047115"><ele>70.0</ele><time>2026-04-22T15:23:27.816Z</time></trkpt><trkpt lat="33.3854033" lon="9.0473917"><ele>70.0</ele><time>2026-04-22T15:23:28.815Z</time></trkpt><trkpt lat="33.385435" lon="9.0476667"><ele>70.5</ele><time>2026-04-22T15:23:29.815Z</time></trkpt><trkpt lat="33.3854667" lon="9.0479333"><ele>71.0</ele><time>2026-04-22T15:23:30.815Z</time></trkpt><trkpt lat="33.3855017" lon="9.0482033"><ele>72.0</ele><time>2026-04-22T15:23:31.815Z</time></trkpt><trkpt lat="33.3855417" lon="9.0484767"><ele>73.0</ele><time>2026-04-22T15:23:32.815Z</time></trkpt><trkpt lat="33.3855717" lon="9.0487517"><ele>73.0</ele><time>2026-04-22T15:23:33.815Z</time></trkpt><trkpt lat="33.3856067" lon="9.04903"><ele>73.0</ele><time>2026-04-22T15:23:34.815Z</time></trkpt><trkpt lat="33.3856383" lon="9.0492983"><ele>73.5</ele><time>2026-04-22T15:23:35.815Z</time></trkpt><trkpt lat="33.3856717" lon="9.0495733"><ele>74.0</ele><time>2026-04-22T15:23:36.815Z</time></trkpt><trkpt lat="33.3856983" lon="9.0498583"><ele>74.5</ele><time>2026-04-22T15:23:37.815Z</time></trkpt><trkpt lat="33.3857233" lon="9.05014"><ele>75.0</ele><time>2026-04-22T15:23:38.816Z</time></trkpt><trkpt lat="33.3857383" lon="9.0504167"><ele>75.0</ele><time>2026-04-22T15:23:39.815Z</time></trkpt><trkpt lat="33.3857433" lon="9.050685"><ele>75.0</ele><time>2026-04-22T15:23:40.815Z</time></trkpt><trkpt lat="33.385745" lon="9.05096"><ele>73.5</ele><time>2026-04-22T15:23:41.815Z</time></trkpt><trkpt lat="33.3857433" lon="9.0512433"><ele>72.0</ele><time>2026-04-22T15:23:42.815Z</time></trkpt><trkpt lat="33.385735" lon="9.0515267"><ele>71.5</ele><time>2026-04-22T15:23:43.815Z</time></trkpt><trkpt lat="33.3857233" lon="9.0518"><ele>71.0</ele><time>2026-04-22T15:23:44.815Z</time></trkpt><trkpt lat="33.3857017" lon="9.05207"><ele>71.0</ele><time>2026-04-22T15:23:45.815Z</time></trkpt><trkpt lat="33.3856783" lon="9.05234"><ele>71.0</ele><time>2026-04-22T15:23:46.815Z</time></trkpt><trkpt lat="33.3856417" lon="9.05262"><ele>72.0</ele><time>2026-04-22T15:23:47.815Z</time></trkpt><trkpt lat="33.385605" lon="9.0529033"><ele>73.0</ele><time>2026-04-22T15:23:48.815Z</time></trkpt><trkpt lat="33.3855733" lon="9.05318"><ele>73.0</ele><time>2026-04-22T15:23:49.815Z</time></trkpt><trkpt lat="33.3855317" lon="9.0534633"><ele>73.0</ele><time>2026-04-22T15:23:50.815Z</time></trkpt><trkpt lat="33.3854833" lon="9.0537483"><ele>73.0</ele><time>2026-04-22T15:23:51.815Z</time></trkpt><trkpt lat="33.3854267" lon="9.0540333"><ele>73.0</ele><time>2026-04-22T15:23:52.815Z</time></trkpt><trkpt lat="33.3853683" lon="9.054315"><ele>73.5</ele><time>2026-04-22T15:23:53.815Z</time></trkpt><trkpt lat="33.3853083" lon="9.054595"><ele>74.0</ele><time>2026-04-22T15:23:54.815Z</time></trkpt><trkpt lat="33.3852483" lon="9.0548683"><ele>75.5</ele><time>2026-04-22T15:23:55.815Z</time></trkpt><trkpt lat="33.385185" lon="9.0551533"><ele>77.0</ele><time>2026-04-22T15:23:56.815Z</time></trkpt><trkpt lat="33.3851183" lon="9.05543"><ele>77.0</ele><time>2026-04-22T15:23:57.815Z</time></trkpt><trkpt lat="33.3850583" lon="9.0557"><ele>77.0</ele><time>2026-04-22T15:23:58.815Z</time></trkpt><trkpt lat="33.384995" lon="9.0559717"><ele>77.0</ele><time>2026-04-22T15:23:59.815Z</time></trkpt><trkpt lat="33.38493" lon="9.0562533"><ele>77.0</ele><time>2026-04-22T15:24:00.816Z</time></trkpt><trkpt lat="33.3848667" lon="9.0565283"><ele>77.5</ele><time>2026-04-22T15:24:01.815Z</time></trkpt><trkpt lat="33.3847983" lon="9.056805"><ele>78.0</ele><time>2026-04-22T15:24:02.816Z</time></trkpt><trkpt lat="33.3847383" lon="9.0570817"><ele>78.0</ele><time>2026-04-22T15:24:03.815Z</time></trkpt><trkpt lat="33.38467" lon="9.0573633"><ele>78.0</ele><time>2026-04-22T15:24:04.815Z</time></trkpt><trkpt lat="33.3846117" lon="9.05763"><ele>77.0</ele><time>2026-04-22T15:24:05.815Z</time></trkpt><trkpt lat="33.3845483" lon="9.0579067"><ele>76.0</ele><time>2026-04-22T15:24:06.815Z</time></trkpt><trkpt lat="33.3844867" lon="9.0581767"><ele>77.0</ele><time>2026-04-22T15:24:07.815Z</time></trkpt><trkpt lat="33.3844283" lon="9.0584467"><ele>78.0</ele><time>2026-04-22T15:24:08.816Z</time></trkpt><trkpt lat="33.3843633" lon="9.0587117"><ele>78.0</ele><time>2026-04-22T15:24:09.815Z</time></trkpt><trkpt lat="33.3842983" lon="9.058985"><ele>78.0</ele><time>2026-04-22T15:24:10.815Z</time></trkpt><trkpt lat="33.3842383" lon="9.0592617"><ele>77.0</ele><time>2026-04-22T15:24:11.815Z</time></trkpt><trkpt lat="33.3841667" lon="9.05952"><ele>76.0</ele><time>2026-04-22T15:24:12.815Z</time></trkpt><trkpt lat="33.3840783" lon="9.0597783"><ele>76.33333333333333</ele><time>2026-04-22T15:24:13.815Z</time></trkpt><trkpt lat="33.3839733" lon="9.0600117"><ele>76.66666666666667</ele><time>2026-04-22T15:24:14.815Z</time></trkpt><trkpt lat="33.3838633" lon="9.0602267"><ele>77.0</ele><time>2026-04-22T15:24:15.815Z</time></trkpt><trkpt lat="33.3837533" lon="9.0604317"><ele>77.33333333333334</ele><time>2026-04-22T15:24:16.815Z</time></trkpt><trkpt lat="33.3836317" lon="9.0606017"><ele>77.66666666666667</ele><time>2026-04-22T15:24:17.815Z</time></trkpt><trkpt lat="33.3834917" lon="9.0607733"><ele>78.0</ele><time>2026-04-22T15:24:18.815Z</time></trkpt><trkpt lat="33.3833467" lon="9.0609417"><ele>78.33333333333333</ele><time>2026-04-22T15:24:19.815Z</time></trkpt><trkpt lat="33.3831967" lon="9.061105"><ele>78.66666666666666</ele><time>2026-04-22T15:24:20.815Z</time></trkpt><trkpt lat="33.383045" lon="9.0612567"><ele>79.0</ele><time>2026-04-22T15:24:21.815Z</time></trkpt><trkpt lat="33.3828917" lon="9.0614167"><ele>78.66666666666666</ele><time>2026-04-22T15:24:22.816Z</time></trkpt><trkpt lat="33.3827283" lon="9.0615667"><ele>78.33333333333333</ele><time>2026-04-22T15:24:23.816Z</time></trkpt><trkpt lat="33.38256" lon="9.0617167"><ele>78.0</ele><time>2026-04-22T15:24:24.815Z</time></trkpt><trkpt lat="33.3823883" lon="9.061865"><ele>78.0</ele><time>2026-04-22T15:24:25.816Z</time></trkpt><trkpt lat="33.38221" lon="9.0620117"><ele>78.0</ele><time>2026-04-22T15:24:26.815Z</time></trkpt><trkpt lat="33.3820367" lon="9.0621667"><ele>78.0</ele><time>2026-04-22T15:24:27.816Z</time></trkpt><trkpt lat="33.38186" lon="9.06232"><ele>78.0</ele><time>2026-04-22T15:24:28.815Z</time></trkpt><trkpt lat="33.381675" lon="9.0624733"><ele>78.0</ele><time>2026-04-22T15:24:29.815Z</time></trkpt><trkpt lat="33.3814983" lon="9.06262"><ele>78.0</ele><time>2026-04-22T15:24:30.815Z</time></trkpt><trkpt lat="33.381325" lon="9.062775"><ele>78.0</ele><time>2026-04-22T15:24:31.815Z</time></trkpt><trkpt lat="33.38115" lon="9.0629233"><ele>78.0</ele><time>2026-04-22T15:24:32.815Z</time></trkpt><trkpt lat="33.38099" lon="9.0630833"><ele>78.0</ele><time>2026-04-22T15:24:33.815Z</time></trkpt><trkpt lat="33.3808367" lon="9.0632483"><ele>77.66666666666667</ele><time>2026-04-22T15:24:34.815Z</time></trkpt><trkpt lat="33.3806883" lon="9.0634183"><ele>77.33333333333334</ele><time>2026-04-22T15:24:35.815Z</time></trkpt><trkpt lat="33.380545" lon="9.0636017"><ele>77.0</ele><time>2026-04-22T15:24:36.815Z</time></trkpt><trkpt lat="33.3804017" lon="9.0637967"><ele>77.66666666666667</ele><time>2026-04-22T15:24:37.815Z</time></trkpt><trkpt lat="33.38027" lon="9.0639983"><ele>78.33333333333333</ele><time>2026-04-22T15:24:38.815Z</time></trkpt><trkpt lat="33.3801433" lon="9.06421"><ele>79.0</ele><time>2026-04-22T15:24:39.815Z</time></trkpt><trkpt lat="33.38002" lon="9.0644233"><ele>79.0</ele><time>2026-04-22T15:24:40.815Z</time></trkpt><trkpt lat="33.3798983" lon="9.06465"><ele>79.0</ele><time>2026-04-22T15:24:41.815Z</time></trkpt><trkpt lat="33.379785" lon="9.064875"><ele>79.0</ele><time>2026-04-22T15:24:42.815Z</time></trkpt><trkpt lat="33.3796833" lon="9.0651083"><ele>79.0</ele><time>2026-04-22T15:24:43.815Z</time></trkpt><trkpt lat="33.3795917" lon="9.06534"><ele>79.0</ele><time>2026-04-22T15:24:44.815Z</time></trkpt><trkpt lat="33.3795067" lon="9.0655717"><ele>79.0</ele><time>2026-04-22T15:24:45.815Z</time></trkpt><trkpt lat="33.3794267" lon="9.0658183"><ele>78.33333333333333</ele><time>2026-04-22T15:24:46.815Z</time></trkpt><trkpt lat="33.3793567" lon="9.0660533"><ele>77.66666666666667</ele><time>2026-04-22T15:24:47.815Z</time></trkpt><trkpt lat="33.379285" lon="9.0663017"><ele>77.0</ele><time>2026-04-22T15:24:48.815Z</time></trkpt><trkpt lat="33.3792283" lon="9.0665583"><ele>76.0</ele><time>2026-04-22T15:24:49.815Z</time></trkpt><trkpt lat="33.3791917" lon="9.0668117"><ele>75.0</ele><time>2026-04-22T15:24:50.815Z</time></trkpt><trkpt lat="33.3791633" lon="9.0670633"><ele>74.0</ele><time>2026-04-22T15:24:51.815Z</time></trkpt><trkpt lat="33.3791433" lon="9.06732"><ele>73.66666666666667</ele><time>2026-04-22T15:24:52.815Z</time></trkpt><trkpt lat="33.3791267" lon="9.067575"><ele>73.33333333333333</ele><time>2026-04-22T15:24:53.815Z</time></trkpt><trkpt lat="33.3791117" lon="9.0678233"><ele>73.0</ele><time>2026-04-22T15:24:54.815Z</time></trkpt><trkpt lat="33.3791083" lon="9.0680733"><ele>73.33333333333333</ele><time>2026-04-22T15:24:55.815Z</time></trkpt><trkpt lat="33.3791183" lon="9.0683333"><ele>73.66666666666667</ele><time>2026-04-22T15:24:56.815Z</time></trkpt><trkpt lat="33.379135" lon="9.0685917"><ele>74.0</ele><time>2026-04-22T15:24:57.815Z</time></trkpt><trkpt lat="33.37916" lon="9.0688483"><ele>74.0</ele><time>2026-04-22T15:24:58.815Z</time></trkpt><trkpt lat="33.3791783" lon="9.0691033"><ele>74.0</ele><time>2026-04-22T15:24:59.815Z</time></trkpt><trkpt lat="33.3791983" lon="9.0693733"><ele>74.0</ele><time>2026-04-22T15:25:00.815Z</time></trkpt><trkpt lat="33.3792233" lon="9.069635"><ele>74.0</ele><time>2026-04-22T15:25:01.815Z</time></trkpt><trkpt lat="33.3792383" lon="9.0698933"><ele>74.0</ele><time>2026-04-22T15:25:02.815Z</time></trkpt><trkpt lat="33.3792383" lon="9.0701567"><ele>74.0</ele><time>2026-04-22T15:25:03.815Z</time></trkpt><trkpt lat="33.379245" lon="9.070415"><ele>75.0</ele><time>2026-04-22T15:25:04.815Z</time></trkpt><trkpt lat="33.3792633" lon="9.0706733"><ele>76.0</ele><time>2026-04-22T15:25:05.815Z</time></trkpt><trkpt lat="33.3792867" lon="9.0709317"><ele>77.0</ele><time>2026-04-22T15:25:06.816Z</time></trkpt><trkpt lat="33.3793083" lon="9.071195"><ele>77.0</ele><time>2026-04-22T15:25:07.815Z</time></trkpt><trkpt lat="33.3793317" lon="9.0714583"><ele>77.0</ele><time>2026-04-22T15:25:08.815Z</time></trkpt><trkpt lat="33.3793483" lon="9.0717267"><ele>77.0</ele><time>2026-04-22T15:25:09.815Z</time></trkpt><trkpt lat="33.3793633" lon="9.0719983"><ele>76.5</ele><time>2026-04-22T15:25:10.816Z</time></trkpt><trkpt lat="33.3793817" lon="9.07227"><ele>76.0</ele><time>2026-04-22T15:25:11.815Z</time></trkpt><trkpt lat="33.3793983" lon="9.0725383"><ele>76.33333333333333</ele><time>2026-04-22T15:25:12.815Z</time></trkpt><trkpt lat="33.3794183" lon="9.0728017"><ele>76.66666666666667</ele><time>2026-04-22T15:25:13.815Z</time></trkpt><trkpt lat="33.37944" lon="9.0730733"><ele>77.0</ele><time>2026-04-22T15:25:14.815Z</time></trkpt><trkpt lat="33.379465" lon="9.07334"><ele>77.0</ele><time>2026-04-22T15:25:15.815Z</time></trkpt><trkpt lat="33.3794833" lon="9.07361"><ele>77.0</ele><time>2026-04-22T15:25:16.815Z</time></trkpt><trkpt lat="33.3795067" lon="9.0738817"><ele>75.33333333333334</ele><time>2026-04-22T15:25:17.815Z</time></trkpt><trkpt lat="33.3795333" lon="9.07414"><ele>73.66666666666667</ele><time>2026-04-22T15:25:18.815Z</time></trkpt><trkpt lat="33.3795467" lon="9.074395"><ele>72.0</ele><time>2026-04-22T15:25:19.815Z</time></trkpt><trkpt lat="33.37956" lon="9.0746633"><ele>72.0</ele><time>2026-04-22T15:25:20.815Z</time></trkpt><trkpt lat="33.3795783" lon="9.0749217"><ele>72.0</ele><time>2026-04-22T15:25:21.815Z</time></trkpt><trkpt lat="33.3795917" lon="9.0751817"><ele>72.0</ele><time>2026-04-22T15:25:22.815Z</time></trkpt><trkpt lat="33.379605" lon="9.07544"><ele>72.33333333333333</ele><time>2026-04-22T15:25:23.815Z</time></trkpt><trkpt lat="33.3796333" lon="9.075705"><ele>72.66666666666666</ele><time>2026-04-22T15:25:24.815Z</time></trkpt><trkpt lat="33.37965" lon="9.07596"><ele>73.0</ele><time>2026-04-22T15:25:25.815Z</time></trkpt><trkpt lat="33.3796567" lon="9.07622"><ele>73.0</ele><time>2026-04-22T15:25:26.815Z</time></trkpt><trkpt lat="33.3796583" lon="9.0764583"><ele>73.0</ele><time>2026-04-22T15:25:27.815Z</time></trkpt><trkpt lat="33.3796517" lon="9.0767033"><ele>73.0</ele><time>2026-04-22T15:25:28.815Z</time></trkpt><trkpt lat="33.3796383" lon="9.0769567"><ele>74.0</ele><time>2026-04-22T15:25:29.815Z</time></trkpt><trkpt lat="33.3796183" lon="9.07721"><ele>75.0</ele><time>2026-04-22T15:25:30.815Z</time></trkpt><trkpt lat="33.3795833" lon="9.0774467"><ele>76.0</ele><time>2026-04-22T15:25:31.815Z</time></trkpt><trkpt lat="33.3795483" lon="9.0777033"><ele>76.66666666666666</ele><time>2026-04-22T15:25:32.815Z</time></trkpt><trkpt lat="33.3795017" lon="9.07795"><ele>77.33333333333333</ele><time>2026-04-22T15:25:33.815Z</time></trkpt><trkpt lat="33.3794467" lon="9.0781933"><ele>78.0</ele><time>2026-04-22T15:25:34.815Z</time></trkpt><trkpt lat="33.3793767" lon="9.0784367"><ele>78.33333333333333</ele><time>2026-04-22T15:25:35.815Z</time></trkpt><trkpt lat="33.379305" lon="9.0786783"><ele>78.66666666666666</ele><time>2026-04-22T15:25:36.815Z</time></trkpt><trkpt lat="33.3792317" lon="9.0789217"><ele>79.0</ele><time>2026-04-22T15:25:37.816Z</time></trkpt><trkpt lat="33.3791467" lon="9.0791567"><ele>79.33333333333333</ele><time>2026-04-22T15:25:38.815Z</time></trkpt><trkpt lat="33.379055" lon="9.079395"><ele>79.66666666666667</ele><time>2026-04-22T15:25:39.816Z</time></trkpt><trkpt lat="33.3789667" lon="9.0796383"><ele>80.0</ele><time>2026-04-22T15:25:40.815Z</time></trkpt><trkpt lat="33.37888" lon="9.079875"><ele>79.0</ele><time>2026-04-22T15:25:41.815Z</time></trkpt><trkpt lat="33.3787883" lon="9.08011"><ele>78.0</ele><time>2026-04-22T15:25:42.815Z</time></trkpt><trkpt lat="33.378695" lon="9.0803567"><ele>77.0</ele><time>2026-04-22T15:25:43.815Z</time></trkpt><trkpt lat="33.3785983" lon="9.0806083"><ele>77.33333333333334</ele><time>2026-04-22T15:25:44.815Z</time></trkpt><trkpt lat="33.3785133" lon="9.0808533"><ele>77.66666666666667</ele><time>2026-04-22T15:25:45.815Z</time></trkpt><trkpt lat="33.3784217" lon="9.0811"><ele>78.0</ele><time>2026-04-22T15:25:46.815Z</time></trkpt><trkpt lat="33.3783367" lon="9.081355"><ele>78.0</ele><time>2026-04-22T15:25:47.815Z</time></trkpt><trkpt lat="33.37826" lon="9.0815967"><ele>78.0</ele><time>2026-04-22T15:25:48.815Z</time></trkpt><trkpt lat="33.3781883" lon="9.08184"><ele>78.0</ele><time>2026-04-22T15:25:49.815Z</time></trkpt><trkpt lat="33.3781267" lon="9.0820917"><ele>78.0</ele><time>2026-04-22T15:25:50.815Z</time></trkpt><trkpt lat="33.37808" lon="9.0823333"><ele>78.0</ele><time>2026-04-22T15:25:51.815Z</time></trkpt><trkpt lat="33.3780417" lon="9.08259"><ele>78.0</ele><time>2026-04-22T15:25:52.815Z</time></trkpt><trkpt lat="33.378015" lon="9.0828367"><ele>78.0</ele><time>2026-04-22T15:25:53.815Z</time></trkpt><trkpt lat="33.378005" lon="9.0830833"><ele>78.0</ele><time>2026-04-22T15:25:54.816Z</time></trkpt><trkpt lat="33.3780033" lon="9.0833417"><ele>78.0</ele><time>2026-04-22T15:25:55.815Z</time></trkpt><trkpt lat="33.37801" lon="9.0836033"><ele>78.66666666666667</ele><time>2026-04-22T15:25:56.816Z</time></trkpt><trkpt lat="33.3780283" lon="9.0838617"><ele>79.33333333333334</ele><time>2026-04-22T15:25:57.816Z</time></trkpt><trkpt lat="33.3780567" lon="9.0841233"><ele>80.0</ele><time>2026-04-22T15:25:58.815Z</time></trkpt><trkpt lat="33.3780817" lon="9.08439"><ele>77.33333333333334</ele><time>2026-04-22T15:25:59.815Z</time></trkpt><trkpt lat="33.37811" lon="9.0846533"><ele>74.66666666666667</ele><time>2026-04-22T15:26:00.815Z</time></trkpt><trkpt lat="33.3781367" lon="9.0849117"><ele>72.0</ele><time>2026-04-22T15:26:01.814Z</time></trkpt><trkpt lat="33.3781667" lon="9.0851667"><ele>72.33333333333333</ele><time>2026-04-22T15:26:02.814Z</time></trkpt><trkpt lat="33.3781933" lon="9.0854217"><ele>72.66666666666666</ele><time>2026-04-22T15:26:03.814Z</time></trkpt><trkpt lat="33.3782233" lon="9.0856783"><ele>73.0</ele><time>2026-04-22T15:26:04.814Z</time></trkpt><trkpt lat="33.3782567" lon="9.0859333"><ele>73.0</ele><time>2026-04-22T15:26:05.814Z</time></trkpt><trkpt lat="33.3782833" lon="9.0861883"><ele>73.0</ele><time>2026-04-22T15:26:06.814Z</time></trkpt><trkpt lat="33.3783083" lon="9.0864367"><ele>73.0</ele><time>2026-04-22T15:26:07.814Z</time></trkpt><trkpt lat="33.3783367" lon="9.0866817"><ele>73.66666666666666</ele><time>2026-04-22T15:26:08.814Z</time></trkpt><trkpt lat="33.3783617" lon="9.08693"><ele>74.33333333333333</ele><time>2026-04-22T15:26:09.814Z</time></trkpt><trkpt lat="33.37839" lon="9.0871767"><ele>75.0</ele><time>2026-04-22T15:26:10.814Z</time></trkpt><trkpt lat="33.3784167" lon="9.0874217"><ele>75.33333333333333</ele><time>2026-04-22T15:26:11.814Z</time></trkpt><trkpt lat="33.3784517" lon="9.0876717"><ele>75.66666666666666</ele><time>2026-04-22T15:26:12.814Z</time></trkpt><trkpt lat="33.37848" lon="9.0879183"><ele>76.0</ele><time>2026-04-22T15:26:13.814Z</time></trkpt><trkpt lat="33.3785017" lon="9.088175"><ele>75.66666666666666</ele><time>2026-04-22T15:26:14.814Z</time></trkpt><trkpt lat="33.3785283" lon="9.0884283"><ele>75.33333333333333</ele><time>2026-04-22T15:26:15.814Z</time></trkpt><trkpt lat="33.378565" lon="9.08869"><ele>75.0</ele><time>2026-04-22T15:26:16.814Z</time></trkpt><trkpt lat="33.3786017" lon="9.0889467"><ele>75.0</ele><time>2026-04-22T15:26:17.814Z</time></trkpt><trkpt lat="33.3786383" lon="9.089215"><ele>75.0</ele><time>2026-04-22T15:26:18.814Z</time></trkpt><trkpt lat="33.3786633" lon="9.0894733"><ele>75.0</ele><time>2026-04-22T15:26:19.814Z</time></trkpt><trkpt lat="33.3786933" lon="9.0897383"><ele>74.66666666666667</ele><time>2026-04-22T15:26:20.814Z</time></trkpt><trkpt lat="33.3787233" lon="9.0900067"><ele>74.33333333333334</ele><time>2026-04-22T15:26:21.814Z</time></trkpt><trkpt lat="33.3787517" lon="9.090265"><ele>74.0</ele><time>2026-04-22T15:26:22.814Z</time></trkpt><trkpt lat="33.378775" lon="9.0905267"><ele>74.0</ele><time>2026-04-22T15:26:23.814Z</time></trkpt><trkpt lat="33.378805" lon="9.090795"><ele>74.0</ele><time>2026-04-22T15:26:24.814Z</time></trkpt><trkpt lat="33.3788317" lon="9.09106"><ele>74.0</ele><time>2026-04-22T15:26:25.814Z</time></trkpt><trkpt lat="33.3788583" lon="9.0913567"><ele>72.0</ele><time>2026-04-22T15:26:26.814Z</time></trkpt><trkpt lat="33.3788883" lon="9.0916467"><ele>70.0</ele><time>2026-04-22T15:26:27.814Z</time></trkpt><trkpt lat="33.378925" lon="9.0919183"><ele>70.0</ele><time>2026-04-22T15:26:28.814Z</time></trkpt><trkpt lat="33.3789683" lon="9.09219"><ele>70.0</ele><time>2026-04-22T15:26:29.814Z</time></trkpt><trkpt lat="33.379015" lon="9.092455"><ele>71.33333333333333</ele><time>2026-04-22T15:26:30.814Z</time></trkpt><trkpt lat="33.3790617" lon="9.0927067"><ele>72.66666666666667</ele><time>2026-04-22T15:26:31.814Z</time></trkpt><trkpt lat="33.3791217" lon="9.0929633"><ele>74.0</ele><time>2026-04-22T15:26:32.814Z</time></trkpt><trkpt lat="33.3791967" lon="9.0932117"><ele>74.66666666666667</ele><time>2026-04-22T15:26:33.815Z</time></trkpt><trkpt lat="33.3792783" lon="9.0934583"><ele>75.33333333333333</ele><time>2026-04-22T15:26:34.814Z</time></trkpt><trkpt lat="33.3793533" lon="9.0937067"><ele>76.0</ele><time>2026-04-22T15:26:35.814Z</time></trkpt><trkpt lat="33.3794417" lon="9.0939583"><ele>76.0</ele><time>2026-04-22T15:26:36.814Z</time></trkpt><trkpt lat="33.379525" lon="9.0942067"><ele>76.0</ele><time>2026-04-22T15:26:37.814Z</time></trkpt><trkpt lat="33.3796083" lon="9.09445"><ele>76.0</ele><time>2026-04-22T15:26:38.814Z</time></trkpt><trkpt lat="33.3796917" lon="9.09469"><ele>76.66666666666666</ele><time>2026-04-22T15:26:39.814Z</time></trkpt><trkpt lat="33.3797783" lon="9.094935"><ele>77.33333333333333</ele><time>2026-04-22T15:26:40.814Z</time></trkpt><trkpt lat="33.3798633" lon="9.09518"><ele>78.0</ele><time>2026-04-22T15:26:41.815Z</time></trkpt><trkpt lat="33.3799483" lon="9.0954333"><ele>78.0</ele><time>2026-04-22T15:26:42.814Z</time></trkpt><trkpt lat="33.3800267" lon="9.0956867"><ele>78.0</ele><time>2026-04-22T15:26:43.814Z</time></trkpt><trkpt lat="33.38012" lon="9.0959417"><ele>77.5</ele><time>2026-04-22T15:26:44.814Z</time></trkpt><trkpt lat="33.380215" lon="9.0961933"><ele>77.0</ele><time>2026-04-22T15:26:45.814Z</time></trkpt><trkpt lat="33.380305" lon="9.0964467"><ele>76.5</ele><time>2026-04-22T15:26:46.814Z</time></trkpt><trkpt lat="33.3803883" lon="9.0967"><ele>76.0</ele><time>2026-04-22T15:26:47.814Z</time></trkpt><trkpt lat="33.3804733" lon="9.0969467"><ele>75.66666666666666</ele><time>2026-04-22T15:26:48.815Z</time></trkpt><trkpt lat="33.3805567" lon="9.0971883"><ele>75.33333333333333</ele><time>2026-04-22T15:26:49.814Z</time></trkpt><trkpt lat="33.3806433" lon="9.0974383"><ele>75.0</ele><time>2026-04-22T15:26:50.814Z</time></trkpt><trkpt lat="33.3807267" lon="9.0976883"><ele>75.0</ele><time>2026-04-22T15:26:51.814Z</time></trkpt><trkpt lat="33.38081" lon="9.0979483"><ele>75.0</ele><time>2026-04-22T15:26:52.814Z</time></trkpt><trkpt lat="33.3808933" lon="9.098205"><ele>75.0</ele><time>2026-04-22T15:26:53.814Z</time></trkpt><trkpt lat="33.3809667" lon="9.0984567"><ele>75.0</ele><time>2026-04-22T15:26:54.814Z</time></trkpt><trkpt lat="33.3810417" lon="9.0987017"><ele>75.0</ele><time>2026-04-22T15:26:55.814Z</time></trkpt><trkpt lat="33.381125" lon="9.0989533"><ele>75.33333333333333</ele><time>2026-04-22T15:26:56.814Z</time></trkpt><trkpt lat="33.3811933" lon="9.0992067"><ele>75.66666666666666</ele><time>2026-04-22T15:26:57.814Z</time></trkpt><trkpt lat="33.3812667" lon="9.0994533"><ele>76.0</ele><time>2026-04-22T15:26:58.814Z</time></trkpt><trkpt lat="33.3813367" lon="9.0997017"><ele>76.0</ele><time>2026-04-22T15:26:59.814Z</time></trkpt><trkpt lat="33.3813917" lon="9.0999583"><ele>76.0</ele><time>2026-04-22T15:27:00.814Z</time></trkpt><trkpt lat="33.38144" lon="9.10022"><ele>76.0</ele><time>2026-04-22T15:27:01.814Z</time></trkpt><trkpt lat="33.3814883" lon="9.1004817"><ele>76.0</ele><time>2026-04-22T15:27:02.814Z</time></trkpt><trkpt lat="33.38153" lon="9.10074"><ele>76.0</ele><time>2026-04-22T15:27:03.814Z</time></trkpt><trkpt lat="33.38157" lon="9.100995"><ele>76.0</ele><time>2026-04-22T15:27:04.814Z</time></trkpt><trkpt lat="33.3815983" lon="9.1012533"><ele>75.66666666666666</ele><time>2026-04-22T15:27:05.814Z</time></trkpt><trkpt lat="33.3816317" lon="9.1015033"><ele>75.33333333333333</ele><time>2026-04-22T15:27:06.814Z</time></trkpt><trkpt lat="33.3816717" lon="9.1017617"><ele>75.0</ele><time>2026-04-22T15:27:07.814Z</time></trkpt><trkpt lat="33.3816967" lon="9.1020333"><ele>76.0</ele><time>2026-04-22T15:27:08.814Z</time></trkpt><trkpt lat="33.3817" lon="9.1022967"><ele>77.0</ele><time>2026-04-22T15:27:09.814Z</time></trkpt><trkpt lat="33.3816967" lon="9.1025533"><ele>78.0</ele><time>2026-04-22T15:27:10.814Z</time></trkpt><trkpt lat="33.3817067" lon="9.1028217"><ele>78.66666666666667</ele><time>2026-04-22T15:27:11.814Z</time></trkpt><trkpt lat="33.3817083" lon="9.1030933"><ele>79.33333333333334</ele><time>2026-04-22T15:27:12.814Z</time></trkpt><trkpt lat="33.3816983" lon="9.1033583"><ele>80.0</ele><time>2026-04-22T15:27:13.814Z</time></trkpt><trkpt lat="33.3816817" lon="9.1036233"><ele>78.33333333333334</ele><time>2026-04-22T15:27:14.814Z</time></trkpt><trkpt lat="33.381655" lon="9.103885"><ele>76.66666666666667</ele><time>2026-04-22T15:27:15.814Z</time></trkpt><trkpt lat="33.3816233" lon="9.1041417"><ele>75.0</ele><time>2026-04-22T15:27:16.814Z</time></trkpt><trkpt lat="33.3815933" lon="9.1044017"><ele>75.33333333333333</ele><time>2026-04-22T15:27:17.814Z</time></trkpt><trkpt lat="33.3815567" lon="9.1046583"><ele>75.66666666666666</ele><time>2026-04-22T15:27:18.814Z</time></trkpt><trkpt lat="33.3815167" lon="9.1049183"><ele>76.0</ele><time>2026-04-22T15:27:19.814Z</time></trkpt><trkpt lat="33.3814767" lon="9.1051833"><ele>76.0</ele><time>2026-04-22T15:27:20.815Z</time></trkpt><trkpt lat="33.3814317" lon="9.1054467"><ele>76.0</ele><time>2026-04-22T15:27:21.814Z</time></trkpt><trkpt lat="33.3813767" lon="9.1057083"><ele>75.5</ele><time>2026-04-22T15:27:22.814Z</time></trkpt><trkpt lat="33.381315" lon="9.1059733"><ele>75.0</ele><time>2026-04-22T15:27:23.814Z</time></trkpt><trkpt lat="33.3812483" lon="9.1062317"><ele>75.0</ele><time>2026-04-22T15:27:24.814Z</time></trkpt><trkpt lat="33.381175" lon="9.106475"><ele>75.0</ele><time>2026-04-22T15:27:25.814Z</time></trkpt><trkpt lat="33.3810917" lon="9.106715"><ele>75.0</ele><time>2026-04-22T15:27:26.815Z</time></trkpt><trkpt lat="33.381" lon="9.106955"><ele>75.0</ele><time>2026-04-22T15:27:27.814Z</time></trkpt><trkpt lat="33.3809067" lon="9.1071933"><ele>75.0</ele><time>2026-04-22T15:27:28.814Z</time></trkpt><trkpt lat="33.38082" lon="9.107435"><ele>75.0</ele><time>2026-04-22T15:27:29.814Z</time></trkpt><trkpt lat="33.3807283" lon="9.107675"><ele>75.66666666666667</ele><time>2026-04-22T15:27:30.814Z</time></trkpt><trkpt lat="33.3806367" lon="9.107915"><ele>76.33333333333334</ele><time>2026-04-22T15:27:31.814Z</time></trkpt><trkpt lat="33.3805417" lon="9.108155"><ele>77.0</ele><time>2026-04-22T15:27:32.814Z</time></trkpt><trkpt lat="33.3804483" lon="9.1083967"><ele>77.0</ele><time>2026-04-22T15:27:33.814Z</time></trkpt><trkpt lat="33.3803483" lon="9.1086317"><ele>77.0</ele><time>2026-04-22T15:27:34.815Z</time></trkpt><trkpt lat="33.3802467" lon="9.10887"><ele>77.0</ele><time>2026-04-22T15:27:35.814Z</time></trkpt><trkpt lat="33.3801467" lon="9.10911"><ele>77.0</ele><time>2026-04-22T15:27:36.814Z</time></trkpt><trkpt lat="33.3800467" lon="9.109345"><ele>77.0</ele><time>2026-04-22T15:27:37.814Z</time></trkpt><trkpt lat="33.3799533" lon="9.1095933"><ele>77.0</ele><time>2026-04-22T15:27:38.814Z</time></trkpt><trkpt lat="33.379855" lon="9.1098333"><ele>77.5</ele><time>2026-04-22T15:27:39.814Z</time></trkpt><trkpt lat="33.3797567" lon="9.11008"><ele>78.0</ele><time>2026-04-22T15:27:40.814Z</time></trkpt><trkpt lat="33.3796633" lon="9.110335"><ele>78.5</ele><time>2026-04-22T15:27:41.814Z</time></trkpt><trkpt lat="33.3795667" lon="9.1105883"><ele>79.0</ele><time>2026-04-22T15:27:42.814Z</time></trkpt><trkpt lat="33.3794717" lon="9.1108333"><ele>77.0</ele><time>2026-04-22T15:27:43.814Z</time></trkpt><trkpt lat="33.3793683" lon="9.111075"><ele>75.0</ele><time>2026-04-22T15:27:44.814Z</time></trkpt><trkpt lat="33.379265" lon="9.1113117"><ele>75.0</ele><time>2026-04-22T15:27:45.814Z</time></trkpt><trkpt lat="33.37917" lon="9.111565"><ele>75.0</ele><time>2026-04-22T15:27:46.814Z</time></trkpt><trkpt lat="33.3790833" lon="9.1117917"><ele>75.0</ele><time>2026-04-22T15:27:47.814Z</time></trkpt><trkpt lat="33.378975" lon="9.112025"><ele>75.33333333333333</ele><time>2026-04-22T15:27:48.814Z</time></trkpt><trkpt lat="33.3788667" lon="9.11226"><ele>75.66666666666666</ele><time>2026-04-22T15:27:49.814Z</time></trkpt><trkpt lat="33.3787667" lon="9.112495"><ele>76.0</ele><time>2026-04-22T15:27:50.815Z</time></trkpt><trkpt lat="33.3786483" lon="9.112725"><ele>76.33333333333333</ele><time>2026-04-22T15:27:51.814Z</time></trkpt><trkpt lat="33.3785417" lon="9.1129517"><ele>76.66666666666667</ele><time>2026-04-22T15:27:52.814Z</time></trkpt><trkpt lat="33.378435" lon="9.11318"><ele>77.0</ele><time>2026-04-22T15:27:53.814Z</time></trkpt><trkpt lat="33.3783233" lon="9.11341"><ele>77.0</ele><time>2026-04-22T15:27:54.814Z</time></trkpt><trkpt lat="33.3782117" lon="9.1136383"><ele>77.0</ele><time>2026-04-22T15:27:55.814Z</time></trkpt><trkpt lat="33.3780817" lon="9.113865"><ele>77.0</ele><time>2026-04-22T15:27:56.814Z</time></trkpt><trkpt lat="33.3779567" lon="9.1140883"><ele>77.0</ele><time>2026-04-22T15:27:57.814Z</time></trkpt><trkpt lat="33.3778267" lon="9.1143083"><ele>77.0</ele><time>2026-04-22T15:27:58.814Z</time></trkpt><trkpt lat="33.3776917" lon="9.114525"><ele>77.0</ele><time>2026-04-22T15:27:59.814Z</time></trkpt><trkpt lat="33.37757" lon="9.114755"><ele>77.33333333333334</ele><time>2026-04-22T15:28:00.814Z</time></trkpt><trkpt lat="33.377445" lon="9.1149783"><ele>77.66666666666667</ele><time>2026-04-22T15:28:01.814Z</time></trkpt><trkpt lat="33.3773167" lon="9.1151983"><ele>78.0</ele><time>2026-04-22T15:28:02.814Z</time></trkpt><trkpt lat="33.3771933" lon="9.11542"><ele>78.0</ele><time>2026-04-22T15:28:03.814Z</time></trkpt><trkpt lat="33.3770683" lon="9.1156417"><ele>78.0</ele><time>2026-04-22T15:28:04.814Z</time></trkpt><trkpt lat="33.3769417" lon="9.1158667"><ele>77.66666666666667</ele><time>2026-04-22T15:28:05.814Z</time></trkpt><trkpt lat="33.3768233" lon="9.1160917"><ele>77.33333333333334</ele><time>2026-04-22T15:28:06.814Z</time></trkpt><trkpt lat="33.3766967" lon="9.1163083"><ele>77.0</ele><time>2026-04-22T15:28:07.814Z</time></trkpt><trkpt lat="33.3765667" lon="9.116525"><ele>77.0</ele><time>2026-04-22T15:28:08.814Z</time></trkpt><trkpt lat="33.3764383" lon="9.1167417"><ele>77.0</ele><time>2026-04-22T15:28:09.814Z</time></trkpt><trkpt lat="33.3763083" lon="9.1169633"><ele>77.0</ele><time>2026-04-22T15:28:10.814Z</time></trkpt><trkpt lat="33.3761783" lon="9.1171767"><ele>77.0</ele><time>2026-04-22T15:28:11.814Z</time></trkpt><trkpt lat="33.376045" lon="9.1173817"><ele>77.0</ele><time>2026-04-22T15:28:12.815Z</time></trkpt><trkpt lat="33.3759083" lon="9.117595"><ele>77.0</ele><time>2026-04-22T15:28:13.814Z</time></trkpt><trkpt lat="33.37577" lon="9.1178067"><ele>77.0</ele><time>2026-04-22T15:28:14.814Z</time></trkpt><trkpt lat="33.37563" lon="9.1180183"><ele>77.0</ele><time>2026-04-22T15:28:15.814Z</time></trkpt><trkpt lat="33.3754983" lon="9.1182233"><ele>77.0</ele><time>2026-04-22T15:28:16.814Z</time></trkpt><trkpt lat="33.3753733" lon="9.1184367"><ele>77.33333333333334</ele><time>2026-04-22T15:28:17.814Z</time></trkpt><trkpt lat="33.375245" lon="9.1186517"><ele>77.66666666666667</ele><time>2026-04-22T15:28:18.814Z</time></trkpt><trkpt lat="33.3751117" lon="9.1188583"><ele>78.0</ele><time>2026-04-22T15:28:19.814Z</time></trkpt><trkpt lat="33.3749783" lon="9.1190633"><ele>78.0</ele><time>2026-04-22T15:28:20.814Z</time></trkpt><trkpt lat="33.3748417" lon="9.1192633"><ele>78.0</ele><time>2026-04-22T15:28:21.814Z</time></trkpt><trkpt lat="33.3747033" lon="9.1194667"><ele>78.0</ele><time>2026-04-22T15:28:22.814Z</time></trkpt><trkpt lat="33.3745633" lon="9.1196717"><ele>78.33333333333333</ele><time>2026-04-22T15:28:23.815Z</time></trkpt><trkpt lat="33.3744233" lon="9.1198783"><ele>78.66666666666666</ele><time>2026-04-22T15:28:24.814Z</time></trkpt><trkpt lat="33.374275" lon="9.1200767"><ele>79.0</ele><time>2026-04-22T15:28:25.814Z</time></trkpt><trkpt lat="33.3741317" lon="9.1202783"><ele>79.0</ele><time>2026-04-22T15:28:26.814Z</time></trkpt><trkpt lat="33.37399" lon="9.120475"><ele>79.0</ele><time>2026-04-22T15:28:27.814Z</time></trkpt><trkpt lat="33.3738467" lon="9.1206733"><ele>79.0</ele><time>2026-04-22T15:28:28.814Z</time></trkpt><trkpt lat="33.3736967" lon="9.1208767"><ele>79.66666666666666</ele><time>2026-04-22T15:28:29.814Z</time></trkpt><trkpt lat="33.3735533" lon="9.1210733"><ele>80.33333333333333</ele><time>2026-04-22T15:28:30.814Z</time></trkpt><trkpt lat="33.3734" lon="9.12127"><ele>81.0</ele><time>2026-04-22T15:28:31.814Z</time></trkpt><trkpt lat="33.3732483" lon="9.121475"><ele>80.5</ele><time>2026-04-22T15:28:32.814Z</time></trkpt><trkpt lat="33.373095" lon="9.1216817"><ele>80.0</ele><time>2026-04-22T15:28:33.814Z</time></trkpt><trkpt lat="33.3729383" lon="9.1218833"><ele>78.5</ele><time>2026-04-22T15:28:34.814Z</time></trkpt><trkpt lat="33.37278" lon="9.122085"><ele>77.0</ele><time>2026-04-22T15:28:35.814Z</time></trkpt><trkpt lat="33.3726283" lon="9.1222933"><ele>77.5</ele><time>2026-04-22T15:28:36.814Z</time></trkpt><trkpt lat="33.372475" lon="9.1225"><ele>78.0</ele><time>2026-04-22T15:28:37.814Z</time></trkpt><trkpt lat="33.3723133" lon="9.122705"><ele>80.5</ele><time>2026-04-22T15:28:38.814Z</time></trkpt><trkpt lat="33.3721483" lon="9.1229067"><ele>83.0</ele><time>2026-04-22T15:28:39.815Z</time></trkpt><trkpt lat="33.3719867" lon="9.123105"><ele>80.5</ele><time>2026-04-22T15:28:40.814Z</time></trkpt><trkpt lat="33.3718267" lon="9.1233067"><ele>78.0</ele><time>2026-04-22T15:28:41.814Z</time></trkpt><trkpt lat="33.3716567" lon="9.123515"><ele>78.0</ele><time>2026-04-22T15:28:42.814Z</time></trkpt><trkpt lat="33.3714883" lon="9.1237233"><ele>78.0</ele><time>2026-04-22T15:28:43.814Z</time></trkpt><trkpt lat="33.3713217" lon="9.123925"><ele>79.0</ele><time>2026-04-22T15:28:44.814Z</time></trkpt><trkpt lat="33.3711633" lon="9.1241283"><ele>80.0</ele><time>2026-04-22T15:28:45.814Z</time></trkpt><trkpt lat="33.3710083" lon="9.1243183"><ele>80.0</ele><time>2026-04-22T15:28:46.814Z</time></trkpt><trkpt lat="33.3708467" lon="9.124515"><ele>80.0</ele><time>2026-04-22T15:28:47.814Z</time></trkpt><trkpt lat="33.3706817" lon="9.12471"><ele>79.0</ele><time>2026-04-22T15:28:48.814Z</time></trkpt><trkpt lat="33.3705167" lon="9.124895"><ele>78.0</ele><time>2026-04-22T15:28:49.814Z</time></trkpt><trkpt lat="33.3703483" lon="9.1250833"><ele>80.0</ele><time>2026-04-22T15:28:50.814Z</time></trkpt><trkpt lat="33.37018" lon="9.12526"><ele>82.0</ele><time>2026-04-22T15:28:51.814Z</time></trkpt><trkpt lat="33.37001" lon="9.1254433"><ele>82.0</ele><time>2026-04-22T15:28:52.814Z</time></trkpt><trkpt lat="33.369835" lon="9.1256317"><ele>82.0</ele><time>2026-04-22T15:28:53.814Z</time></trkpt><trkpt lat="33.3696633" lon="9.125815"><ele>81.5</ele><time>2026-04-22T15:28:54.814Z</time></trkpt><trkpt lat="33.3694867" lon="9.1259917"><ele>81.0</ele><time>2026-04-22T15:28:55.814Z</time></trkpt><trkpt lat="33.369325" lon="9.12617"><ele>81.0</ele><time>2026-04-22T15:28:56.814Z</time></trkpt><trkpt lat="33.3691533" lon="9.1263417"><ele>81.0</ele><time>2026-04-22T15:28:57.814Z</time></trkpt><trkpt lat="33.36898" lon="9.1265167"><ele>79.5</ele><time>2026-04-22T15:28:58.814Z</time></trkpt><trkpt lat="33.3688033" lon="9.1266883"><ele>78.0</ele><time>2026-04-22T15:28:59.815Z</time></trkpt><trkpt lat="33.3686383" lon="9.1268683"><ele>78.0</ele><time>2026-04-22T15:29:00.814Z</time></trkpt><trkpt lat="33.3684617" lon="9.1270417"><ele>78.0</ele><time>2026-04-22T15:29:01.814Z</time></trkpt><trkpt lat="33.3682883" lon="9.1272183"><ele>78.0</ele><time>2026-04-22T15:29:02.813Z</time></trkpt><trkpt lat="33.3681183" lon="9.1274"><ele>78.0</ele><time>2026-04-22T15:29:03.813Z</time></trkpt><trkpt lat="33.3679483" lon="9.12758"><ele>78.0</ele><time>2026-04-22T15:29:04.813Z</time></trkpt><trkpt lat="33.3677733" lon="9.1277583"><ele>78.0</ele><time>2026-04-22T15:29:05.813Z</time></trkpt><trkpt lat="33.3675967" lon="9.1279383"><ele>78.0</ele><time>2026-04-22T15:29:06.813Z</time></trkpt><trkpt lat="33.367425" lon="9.1281133"><ele>78.0</ele><time>2026-04-22T15:29:07.813Z</time></trkpt><trkpt lat="33.3672517" lon="9.1282917"><ele>79.0</ele><time>2026-04-22T15:29:08.813Z</time></trkpt><trkpt lat="33.3670783" lon="9.128465"><ele>80.0</ele><time>2026-04-22T15:29:09.814Z</time></trkpt><trkpt lat="33.3669017" lon="9.1286383"><ele>80.0</ele><time>2026-04-22T15:29:10.813Z</time></trkpt><trkpt lat="33.3667317" lon="9.128815"><ele>80.0</ele><time>2026-04-22T15:29:11.813Z</time></trkpt><trkpt lat="33.366555" lon="9.1289967"><ele>80.0</ele><time>2026-04-22T15:29:12.813Z</time></trkpt><trkpt lat="33.3663833" lon="9.12918"><ele>80.0</ele><time>2026-04-22T15:29:13.813Z</time></trkpt><trkpt lat="33.366215" lon="9.1293733"><ele>80.0</ele><time>2026-04-22T15:29:14.813Z</time></trkpt><trkpt lat="33.3660417" lon="9.1295567"><ele>80.0</ele><time>2026-04-22T15:29:15.813Z</time></trkpt><trkpt lat="33.3658683" lon="9.1297333"><ele>79.0</ele><time>2026-04-22T15:29:16.813Z</time></trkpt><trkpt lat="33.365695" lon="9.12991"><ele>78.0</ele><time>2026-04-22T15:29:17.813Z</time></trkpt><trkpt lat="33.365515" lon="9.13009"><ele>78.0</ele><time>2026-04-22T15:29:18.813Z</time></trkpt><trkpt lat="33.3653417" lon="9.1302683"><ele>78.0</ele><time>2026-04-22T15:29:19.813Z</time></trkpt><trkpt lat="33.365165" lon="9.1304417"><ele>78.0</ele><time>2026-04-22T15:29:20.813Z</time></trkpt><trkpt lat="33.364985" lon="9.1306167"><ele>78.0</ele><time>2026-04-22T15:29:21.813Z</time></trkpt><trkpt lat="33.3648033" lon="9.1307933"><ele>78.5</ele><time>2026-04-22T15:29:22.813Z</time></trkpt><trkpt lat="33.364625" lon="9.1309717"><ele>79.0</ele><time>2026-04-22T15:29:23.813Z</time></trkpt><trkpt lat="33.3644517" lon="9.1311517"><ele>79.0</ele><time>2026-04-22T15:29:24.813Z</time></trkpt><trkpt lat="33.3642867" lon="9.131335"><ele>79.0</ele><time>2026-04-22T15:29:25.813Z</time></trkpt><trkpt lat="33.3641117" lon="9.131515"><ele>79.0</ele><time>2026-04-22T15:29:26.813Z</time></trkpt><trkpt lat="33.36394" lon="9.131695"><ele>79.0</ele><time>2026-04-22T15:29:27.813Z</time></trkpt><trkpt lat="33.3637583" lon="9.1318733"><ele>79.0</ele><time>2026-04-22T15:29:28.813Z</time></trkpt><trkpt lat="33.3635833" lon="9.132055"><ele>79.0</ele><time>2026-04-22T15:29:29.813Z</time></trkpt><trkpt lat="33.3634083" lon="9.1322283"><ele>79.0</ele><time>2026-04-22T15:29:30.813Z</time></trkpt><trkpt lat="33.3632367" lon="9.132405"><ele>79.0</ele><time>2026-04-22T15:29:31.814Z</time></trkpt><trkpt lat="33.363065" lon="9.13258"><ele>78.0</ele><time>2026-04-22T15:29:32.814Z</time></trkpt><trkpt lat="33.3628917" lon="9.13275"><ele>77.0</ele><time>2026-04-22T15:29:33.813Z</time></trkpt><trkpt lat="33.3627183" lon="9.1329267"><ele>77.0</ele><time>2026-04-22T15:29:34.814Z</time></trkpt><trkpt lat="33.3625483" lon="9.13311"><ele>77.0</ele><time>2026-04-22T15:29:35.813Z</time></trkpt><trkpt lat="33.362385" lon="9.1332933"><ele>77.0</ele><time>2026-04-22T15:29:36.813Z</time></trkpt><trkpt lat="33.362215" lon="9.1334783"><ele>77.0</ele><time>2026-04-22T15:29:37.814Z</time></trkpt><trkpt lat="33.362045" lon="9.1336617"><ele>77.0</ele><time>2026-04-22T15:29:38.813Z</time></trkpt><trkpt lat="33.3618833" lon="9.1338433"><ele>77.0</ele><time>2026-04-22T15:29:39.813Z</time></trkpt><trkpt lat="33.3616967" lon="9.1340033"><ele>79.0</ele><time>2026-04-22T15:29:40.813Z</time></trkpt><trkpt lat="33.361545" lon="9.1341833"><ele>81.0</ele><time>2026-04-22T15:29:41.813Z</time></trkpt><trkpt lat="33.3613933" lon="9.1343667"><ele>83.0</ele><time>2026-04-22T15:29:42.813Z</time></trkpt><trkpt lat="33.3612433" lon="9.1345417"><ele>83.0</ele><time>2026-04-22T15:29:43.814Z</time></trkpt><trkpt lat="33.361095" lon="9.134725"><ele>83.0</ele><time>2026-04-22T15:29:44.814Z</time></trkpt><trkpt lat="33.3609417" lon="9.1349117"><ele>83.0</ele><time>2026-04-22T15:29:45.813Z</time></trkpt><trkpt lat="33.3607933" lon="9.13509"><ele>83.0</ele><time>2026-04-22T15:29:46.813Z</time></trkpt><trkpt lat="33.3606517" lon="9.1352717"><ele>83.0</ele><time>2026-04-22T15:29:47.813Z</time></trkpt><trkpt lat="33.3605067" lon="9.13546"><ele>83.0</ele><time>2026-04-22T15:29:48.814Z</time></trkpt><trkpt lat="33.360355" lon="9.1356417"><ele>83.33333333333334</ele><time>2026-04-22T15:29:49.814Z</time></trkpt><trkpt lat="33.3602033" lon="9.13583"><ele>83.66666666666667</ele><time>2026-04-22T15:29:50.813Z</time></trkpt><trkpt lat="33.3600467" lon="9.1360067"><ele>84.0</ele><time>2026-04-22T15:29:51.814Z</time></trkpt><trkpt lat="33.3598867" lon="9.1361817"><ele>84.0</ele><time>2026-04-22T15:29:52.814Z</time></trkpt><trkpt lat="33.3597267" lon="9.1363683"><ele>84.0</ele><time>2026-04-22T15:29:53.813Z</time></trkpt><trkpt lat="33.359555" lon="9.13655"><ele>82.0</ele><time>2026-04-22T15:29:54.813Z</time></trkpt><trkpt lat="33.3593883" lon="9.1367333"><ele>80.0</ele><time>2026-04-22T15:29:55.813Z</time></trkpt><trkpt lat="33.3592183" lon="9.1369267"><ele>80.0</ele><time>2026-04-22T15:29:56.813Z</time></trkpt><trkpt lat="33.3590517" lon="9.1371233"><ele>80.0</ele><time>2026-04-22T15:29:57.813Z</time></trkpt><trkpt lat="33.3588767" lon="9.1373167"><ele>81.5</ele><time>2026-04-22T15:29:58.813Z</time></trkpt><trkpt lat="33.358705" lon="9.137515"><ele>83.0</ele><time>2026-04-22T15:29:59.813Z</time></trkpt><trkpt lat="33.35853" lon="9.1376967"><ele>83.0</ele><time>2026-04-22T15:30:00.813Z</time></trkpt><trkpt lat="33.3583567" lon="9.1378883"><ele>83.0</ele><time>2026-04-22T15:30:01.813Z</time></trkpt><trkpt lat="33.358175" lon="9.13808"><ele>84.5</ele><time>2026-04-22T15:30:02.814Z</time></trkpt><trkpt lat="33.3579967" lon="9.1382717"><ele>86.0</ele><time>2026-04-22T15:30:03.813Z</time></trkpt><trkpt lat="33.3578217" lon="9.13846"><ele>86.0</ele><time>2026-04-22T15:30:04.813Z</time></trkpt><trkpt lat="33.3576433" lon="9.13864"><ele>86.0</ele><time>2026-04-22T15:30:05.813Z</time></trkpt><trkpt lat="33.3574683" lon="9.1388133"><ele>86.0</ele><time>2026-04-22T15:30:06.813Z</time></trkpt><trkpt lat="33.3572967" lon="9.1389917"><ele>86.0</ele><time>2026-04-22T15:30:07.813Z</time></trkpt><trkpt lat="33.3571067" lon="9.1391667"><ele>86.0</ele><time>2026-04-22T15:30:08.813Z</time></trkpt><trkpt lat="33.3569233" lon="9.1393433"><ele>86.0</ele><time>2026-04-22T15:30:09.814Z</time></trkpt><trkpt lat="33.3567417" lon="9.139525"><ele>86.0</ele><time>2026-04-22T15:30:10.813Z</time></trkpt><trkpt lat="33.35657" lon="9.1397033"><ele>86.0</ele><time>2026-04-22T15:30:11.813Z</time></trkpt><trkpt lat="33.3563917" lon="9.1398833"><ele>85.0</ele><time>2026-04-22T15:30:12.813Z</time></trkpt><trkpt lat="33.3562067" lon="9.14006"><ele>84.0</ele><time>2026-04-22T15:30:13.813Z</time></trkpt><trkpt lat="33.3560217" lon="9.1402333"><ele>84.0</ele><time>2026-04-22T15:30:14.813Z</time></trkpt><trkpt lat="33.3558367" lon="9.1404"><ele>84.0</ele><time>2026-04-22T15:30:15.813Z</time></trkpt><trkpt lat="33.3556533" lon="9.1405733"><ele>83.5</ele><time>2026-04-22T15:30:16.813Z</time></trkpt><trkpt lat="33.355465" lon="9.1407383"><ele>83.0</ele><time>2026-04-22T15:30:17.813Z</time></trkpt><trkpt lat="33.3552817" lon="9.1409033"><ele>83.0</ele><time>2026-04-22T15:30:18.813Z</time></trkpt><trkpt lat="33.355105" lon="9.1410783"><ele>83.0</ele><time>2026-04-22T15:30:19.813Z</time></trkpt><trkpt lat="33.354925" lon="9.141255"><ele>83.0</ele><time>2026-04-22T15:30:20.813Z</time></trkpt><trkpt lat="33.354745" lon="9.14142"><ele>83.0</ele><time>2026-04-22T15:30:21.813Z</time></trkpt><trkpt lat="33.3545583" lon="9.1415883"><ele>82.5</ele><time>2026-04-22T15:30:22.813Z</time></trkpt><trkpt lat="33.35437" lon="9.1417517"><ele>82.0</ele><time>2026-04-22T15:30:23.813Z</time></trkpt><trkpt lat="33.3541783" lon="9.14191"><ele>82.0</ele><time>2026-04-22T15:30:24.813Z</time></trkpt><trkpt lat="33.3539833" lon="9.142075"><ele>82.0</ele><time>2026-04-22T15:30:25.813Z</time></trkpt><trkpt lat="33.3537817" lon="9.1422333"><ele>82.5</ele><time>2026-04-22T15:30:26.813Z</time></trkpt><trkpt lat="33.35358" lon="9.1423833"><ele>83.0</ele><time>2026-04-22T15:30:27.813Z</time></trkpt><trkpt lat="33.3533833" lon="9.14254"><ele>83.0</ele><time>2026-04-22T15:30:28.813Z</time></trkpt><trkpt lat="33.3531883" lon="9.1427"><ele>83.0</ele><time>2026-04-22T15:30:29.814Z</time></trkpt><trkpt lat="33.3529867" lon="9.1428617"><ele>83.0</ele><time>2026-04-22T15:30:30.813Z</time></trkpt><trkpt lat="33.3527933" lon="9.1430217"><ele>83.0</ele><time>2026-04-22T15:30:31.813Z</time></trkpt><trkpt lat="33.3525933" lon="9.1431717"><ele>83.5</ele><time>2026-04-22T15:30:32.813Z</time></trkpt><trkpt lat="33.3523933" lon="9.1433217"><ele>84.0</ele><time>2026-04-22T15:30:33.813Z</time></trkpt><trkpt lat="33.352195" lon="9.1434667"><ele>84.0</ele><time>2026-04-22T15:30:34.813Z</time></trkpt><trkpt lat="33.3520017" lon="9.1436217"><ele>84.0</ele><time>2026-04-22T15:30:35.813Z</time></trkpt><trkpt lat="33.3518033" lon="9.1437683"><ele>84.0</ele><time>2026-04-22T15:30:36.813Z</time></trkpt><trkpt lat="33.3516067" lon="9.1439333"><ele>84.0</ele><time>2026-04-22T15:30:37.813Z</time></trkpt><trkpt lat="33.351415" lon="9.144085"><ele>83.5</ele><time>2026-04-22T15:30:38.813Z</time></trkpt><trkpt lat="33.3512233" lon="9.1442533"><ele>83.0</ele><time>2026-04-22T15:30:39.813Z</time></trkpt><trkpt lat="33.35103" lon="9.1444217"><ele>83.0</ele><time>2026-04-22T15:30:40.813Z</time></trkpt><trkpt lat="33.3508467" lon="9.144595"><ele>83.0</ele><time>2026-04-22T15:30:41.813Z</time></trkpt><trkpt lat="33.3506633" lon="9.144765"><ele>82.5</ele><time>2026-04-22T15:30:42.813Z</time></trkpt><trkpt lat="33.35048" lon="9.14493"><ele>82.0</ele><time>2026-04-22T15:30:43.813Z</time></trkpt><trkpt lat="33.3502983" lon="9.1451017"><ele>82.0</ele><time>2026-04-22T15:30:44.813Z</time></trkpt><trkpt lat="33.3501167" lon="9.1452867"><ele>82.0</ele><time>2026-04-22T15:30:45.813Z</time></trkpt><trkpt lat="33.34994" lon="9.1454733"><ele>82.0</ele><time>2026-04-22T15:30:46.813Z</time></trkpt><trkpt lat="33.349765" lon="9.14566"><ele>82.0</ele><time>2026-04-22T15:30:47.813Z</time></trkpt><trkpt lat="33.3495883" lon="9.1458483"><ele>83.5</ele><time>2026-04-22T15:30:48.813Z</time></trkpt><trkpt lat="33.3494067" lon="9.1460383"><ele>85.0</ele><time>2026-04-22T15:30:49.813Z</time></trkpt><trkpt lat="33.34923" lon="9.1462283"><ele>85.0</ele><time>2026-04-22T15:30:50.813Z</time></trkpt><trkpt lat="33.3490567" lon="9.1464167"><ele>85.0</ele><time>2026-04-22T15:30:51.813Z</time></trkpt><trkpt lat="33.3488833" lon="9.1466033"><ele>84.0</ele><time>2026-04-22T15:30:52.813Z</time></trkpt><trkpt lat="33.3487167" lon="9.146795"><ele>83.0</ele><time>2026-04-22T15:30:53.813Z</time></trkpt><trkpt lat="33.3485417" lon="9.1469833"><ele>83.0</ele><time>2026-04-22T15:30:54.813Z</time></trkpt><trkpt lat="33.3483783" lon="9.14717"><ele>83.0</ele><time>2026-04-22T15:30:55.813Z</time></trkpt><trkpt lat="33.3482167" lon="9.1473633"><ele>84.5</ele><time>2026-04-22T15:30:56.814Z</time></trkpt><trkpt lat="33.3480483" lon="9.1475633"><ele>86.0</ele><time>2026-04-22T15:30:57.813Z</time></trkpt><trkpt lat="33.3478783" lon="9.14776"><ele>86.0</ele><time>2026-04-22T15:30:58.814Z</time></trkpt><trkpt lat="33.3476967" lon="9.147945"><ele>86.0</ele><time>2026-04-22T15:30:59.813Z</time></trkpt><trkpt lat="33.347525" lon="9.1481317"><ele>86.0</ele><time>2026-04-22T15:31:00.813Z</time></trkpt><trkpt lat="33.3473517" lon="9.14831"><ele>86.0</ele><time>2026-04-22T15:31:01.814Z</time></trkpt><trkpt lat="33.3471733" lon="9.1484967"><ele>87.0</ele><time>2026-04-22T15:31:02.813Z</time></trkpt><trkpt lat="33.3469983" lon="9.1486883"><ele>88.0</ele><time>2026-04-22T15:31:03.813Z</time></trkpt><trkpt lat="33.3468183" lon="9.1488767"><ele>87.0</ele><time>2026-04-22T15:31:04.813Z</time></trkpt><trkpt lat="33.346635" lon="9.149075"><ele>86.0</ele><time>2026-04-22T15:31:05.813Z</time></trkpt><trkpt lat="33.3464617" lon="9.14927"><ele>84.5</ele><time>2026-04-22T15:31:06.813Z</time></trkpt><trkpt lat="33.3462883" lon="9.1494633"><ele>83.0</ele><time>2026-04-22T15:31:07.813Z</time></trkpt><trkpt lat="33.3461167" lon="9.1496517"><ele>83.0</ele><time>2026-04-22T15:31:08.813Z</time></trkpt><trkpt lat="33.34594" lon="9.1498383"><ele>83.0</ele><time>2026-04-22T15:31:09.813Z</time></trkpt><trkpt lat="33.34576" lon="9.15002"><ele>84.5</ele><time>2026-04-22T15:31:10.813Z</time></trkpt><trkpt lat="33.3455833" lon="9.1502067"><ele>86.0</ele><time>2026-04-22T15:31:11.813Z</time></trkpt><trkpt lat="33.3454067" lon="9.150395"><ele>86.0</ele><time>2026-04-22T15:31:12.814Z</time></trkpt><trkpt lat="33.34524" lon="9.1505817"><ele>86.0</ele><time>2026-04-22T15:31:13.813Z</time></trkpt><trkpt lat="33.34506" lon="9.1507683"><ele>86.0</ele><time>2026-04-22T15:31:14.813Z</time></trkpt><trkpt lat="33.3448933" lon="9.150965"><ele>86.0</ele><time>2026-04-22T15:31:15.813Z</time></trkpt><trkpt lat="33.3447233" lon="9.1511533"><ele>84.5</ele><time>2026-04-22T15:31:16.813Z</time></trkpt><trkpt lat="33.3445533" lon="9.151345"><ele>83.0</ele><time>2026-04-22T15:31:17.813Z</time></trkpt><trkpt lat="33.344385" lon="9.1515283"><ele>83.0</ele><time>2026-04-22T15:31:18.813Z</time></trkpt><trkpt lat="33.3442083" lon="9.15172"><ele>83.0</ele><time>2026-04-22T15:31:19.813Z</time></trkpt><trkpt lat="33.3440317" lon="9.1519083"><ele>84.5</ele><time>2026-04-22T15:31:20.814Z</time></trkpt><trkpt lat="33.3438633" lon="9.1521017"><ele>86.0</ele><time>2026-04-22T15:31:21.813Z</time></trkpt><trkpt lat="33.3436917" lon="9.152295"><ele>85.5</ele><time>2026-04-22T15:31:22.813Z</time></trkpt><trkpt lat="33.343515" lon="9.1524817"><ele>85.0</ele><time>2026-04-22T15:31:23.813Z</time></trkpt><trkpt lat="33.34334" lon="9.15267"><ele>85.0</ele><time>2026-04-22T15:31:24.813Z</time></trkpt><trkpt lat="33.343165" lon="9.15285"><ele>85.0</ele><time>2026-04-22T15:31:25.814Z</time></trkpt><trkpt lat="33.3429833" lon="9.15304"><ele>86.0</ele><time>2026-04-22T15:31:26.814Z</time></trkpt><trkpt lat="33.3428033" lon="9.1532283"><ele>87.0</ele><time>2026-04-22T15:31:27.813Z</time></trkpt><trkpt lat="33.3426267" lon="9.15342"><ele>87.0</ele><time>2026-04-22T15:31:28.813Z</time></trkpt><trkpt lat="33.3424433" lon="9.15361"><ele>87.0</ele><time>2026-04-22T15:31:29.813Z</time></trkpt><trkpt lat="33.3422683" lon="9.1538"><ele>86.5</ele><time>2026-04-22T15:31:30.813Z</time></trkpt><trkpt lat="33.3420917" lon="9.1540033"><ele>86.0</ele><time>2026-04-22T15:31:31.813Z</time></trkpt><trkpt lat="33.3419133" lon="9.1541917"><ele>85.5</ele><time>2026-04-22T15:31:32.813Z</time></trkpt><trkpt lat="33.3417383" lon="9.15439"><ele>85.0</ele><time>2026-04-22T15:31:33.813Z</time></trkpt><trkpt lat="33.3415667" lon="9.154585"><ele>85.0</ele><time>2026-04-22T15:31:34.813Z</time></trkpt><trkpt lat="33.3413967" lon="9.1547883"><ele>85.0</ele><time>2026-04-22T15:31:35.813Z</time></trkpt><trkpt lat="33.3412167" lon="9.1549833"><ele>84.5</ele><time>2026-04-22T15:31:36.813Z</time></trkpt><trkpt lat="33.3410417" lon="9.155175"><ele>84.0</ele><time>2026-04-22T15:31:37.813Z</time></trkpt><trkpt lat="33.3408683" lon="9.155365"><ele>84.0</ele><time>2026-04-22T15:31:38.813Z</time></trkpt><trkpt lat="33.340705" lon="9.1555567"><ele>84.0</ele><time>2026-04-22T15:31:39.813Z</time></trkpt><trkpt lat="33.3405367" lon="9.1557517"><ele>84.5</ele><time>2026-04-22T15:31:40.813Z</time></trkpt><trkpt lat="33.3403633" lon="9.1559433"><ele>85.0</ele><time>2026-04-22T15:31:41.813Z</time></trkpt><trkpt lat="33.3401767" lon="9.1561383"><ele>85.0</ele><time>2026-04-22T15:31:42.813Z</time></trkpt><trkpt lat="33.3400017" lon="9.156335"><ele>85.0</ele><time>2026-04-22T15:31:43.813Z</time></trkpt><trkpt lat="33.33983" lon="9.1565217"><ele>86.5</ele><time>2026-04-22T15:31:44.813Z</time></trkpt><trkpt lat="33.339655" lon="9.1567117"><ele>88.0</ele><time>2026-04-22T15:31:45.814Z</time></trkpt><trkpt lat="33.3394817" lon="9.156905"><ele>88.0</ele><time>2026-04-22T15:31:46.813Z</time></trkpt><trkpt lat="33.3393083" lon="9.15709"><ele>88.0</ele><time>2026-04-22T15:31:47.813Z</time></trkpt><trkpt lat="33.3391283" lon="9.157275"><ele>88.0</ele><time>2026-04-22T15:31:48.813Z</time></trkpt><trkpt lat="33.338955" lon="9.157465"><ele>88.0</ele><time>2026-04-22T15:31:49.813Z</time></trkpt><trkpt lat="33.338775" lon="9.157655"><ele>86.5</ele><time>2026-04-22T15:31:50.813Z</time></trkpt><trkpt lat="33.338595" lon="9.1578417"><ele>85.0</ele><time>2026-04-22T15:31:51.813Z</time></trkpt><trkpt lat="33.3384167" lon="9.1580367"><ele>85.5</ele><time>2026-04-22T15:31:52.813Z</time></trkpt><trkpt lat="33.3382433" lon="9.1582267"><ele>86.0</ele><time>2026-04-22T15:31:53.813Z</time></trkpt><trkpt lat="33.3380633" lon="9.158415"><ele>86.0</ele><time>2026-04-22T15:31:54.813Z</time></trkpt><trkpt lat="33.3379" lon="9.158605"><ele>86.0</ele><time>2026-04-22T15:31:55.813Z</time></trkpt><trkpt lat="33.337735" lon="9.158795"><ele>86.0</ele><time>2026-04-22T15:31:56.813Z</time></trkpt><trkpt lat="33.33756" lon="9.1589883"><ele>86.0</ele><time>2026-04-22T15:31:57.813Z</time></trkpt><trkpt lat="33.3373917" lon="9.1591733"><ele>85.5</ele><time>2026-04-22T15:31:58.813Z</time></trkpt><trkpt lat="33.3372317" lon="9.1593583"><ele>85.0</ele><time>2026-04-22T15:31:59.814Z</time></trkpt><trkpt lat="33.337065" lon="9.159555"><ele>84.5</ele><time>2026-04-22T15:32:00.813Z</time></trkpt><trkpt lat="33.336885" lon="9.1597483"><ele>84.0</ele><time>2026-04-22T15:32:01.812Z</time></trkpt><trkpt lat="33.3367217" lon="9.1599467"><ele>84.0</ele><time>2026-04-22T15:32:02.813Z</time></trkpt><trkpt lat="33.3365483" lon="9.1601467"><ele>84.0</ele><time>2026-04-22T15:32:03.813Z</time></trkpt><trkpt lat="33.336385" lon="9.1603433"><ele>84.0</ele><time>2026-04-22T15:32:04.812Z</time></trkpt><trkpt lat="33.3362233" lon="9.1605467"><ele>84.0</ele><time>2026-04-22T15:32:05.812Z</time></trkpt><trkpt lat="33.33606" lon="9.160745"><ele>83.0</ele><time>2026-04-22T15:32:06.812Z</time></trkpt><trkpt lat="33.3359017" lon="9.1609533"><ele>82.0</ele><time>2026-04-22T15:32:07.812Z</time></trkpt><trkpt lat="33.3357467" lon="9.1611667"><ele>82.0</ele><time>2026-04-22T15:32:08.812Z</time></trkpt><trkpt lat="33.3356" lon="9.161385"><ele>82.0</ele><time>2026-04-22T15:32:09.813Z</time></trkpt><trkpt lat="33.3354467" lon="9.1616083"><ele>84.5</ele><time>2026-04-22T15:32:10.812Z</time></trkpt><trkpt lat="33.3352883" lon="9.1618283"><ele>87.0</ele><time>2026-04-22T15:32:11.812Z</time></trkpt><trkpt lat="33.33514" lon="9.16205"><ele>87.0</ele><time>2026-04-22T15:32:12.812Z</time></trkpt><trkpt lat="33.3350083" lon="9.1622767"><ele>87.0</ele><time>2026-04-22T15:32:13.812Z</time></trkpt><trkpt lat="33.3348767" lon="9.16251"><ele>88.0</ele><time>2026-04-22T15:32:14.812Z</time></trkpt><trkpt lat="33.3347467" lon="9.1627433"><ele>89.0</ele><time>2026-04-22T15:32:15.812Z</time></trkpt><trkpt lat="33.33462" lon="9.16297"><ele>86.5</ele><time>2026-04-22T15:32:16.812Z</time></trkpt><trkpt lat="33.334485" lon="9.1631983"><ele>84.0</ele><time>2026-04-22T15:32:17.812Z</time></trkpt><trkpt lat="33.3343583" lon="9.1634267"><ele>84.0</ele><time>2026-04-22T15:32:18.813Z</time></trkpt><trkpt lat="33.3342317" lon="9.1636567"><ele>84.0</ele><time>2026-04-22T15:32:19.812Z</time></trkpt><trkpt lat="33.3341117" lon="9.1638933"><ele>84.0</ele><time>2026-04-22T15:32:20.812Z</time></trkpt><trkpt lat="33.334" lon="9.1641317"><ele>84.0</ele><time>2026-04-22T15:32:21.812Z</time></trkpt><trkpt lat="33.3338867" lon="9.1643733"><ele>84.33333333333333</ele><time>2026-04-22T15:32:22.812Z</time></trkpt><trkpt lat="33.33378" lon="9.1646167"><ele>84.66666666666666</ele><time>2026-04-22T15:32:23.812Z</time></trkpt><trkpt lat="33.3336783" lon="9.16485"><ele>85.0</ele><time>2026-04-22T15:32:24.812Z</time></trkpt><trkpt lat="33.3335767" lon="9.16509"><ele>87.0</ele><time>2026-04-22T15:32:25.812Z</time></trkpt><trkpt lat="33.3334733" lon="9.16533"><ele>89.0</ele><time>2026-04-22T15:32:26.812Z</time></trkpt><trkpt lat="33.3333683" lon="9.16557"><ele>88.5</ele><time>2026-04-22T15:32:27.812Z</time></trkpt><trkpt lat="33.3332733" lon="9.1658117"><ele>88.0</ele><time>2026-04-22T15:32:28.812Z</time></trkpt><trkpt lat="33.3331867" lon="9.1660683"><ele>88.0</ele><time>2026-04-22T15:32:29.812Z</time></trkpt><trkpt lat="33.3331067" lon="9.166325"><ele>88.0</ele><time>2026-04-22T15:32:30.812Z</time></trkpt><trkpt lat="33.3330217" lon="9.1665767"><ele>86.66666666666666</ele><time>2026-04-22T15:32:31.812Z</time></trkpt><trkpt lat="33.3329433" lon="9.166825"><ele>85.33333333333333</ele><time>2026-04-22T15:32:32.812Z</time></trkpt><trkpt lat="33.33286" lon="9.1670733"><ele>84.0</ele><time>2026-04-22T15:32:33.813Z</time></trkpt><trkpt lat="33.3327767" lon="9.167335"><ele>83.0</ele><time>2026-04-22T15:32:34.812Z</time></trkpt><trkpt lat="33.3326883" lon="9.167585"><ele>82.0</ele><time>2026-04-22T15:32:35.812Z</time></trkpt><trkpt lat="33.3325917" lon="9.1678317"><ele>82.0</ele><time>2026-04-22T15:32:36.812Z</time></trkpt><trkpt lat="33.332505" lon="9.1680833"><ele>82.0</ele><time>2026-04-22T15:32:37.812Z</time></trkpt><trkpt lat="33.3324183" lon="9.1683417"><ele>84.0</ele><time>2026-04-22T15:32:38.812Z</time></trkpt><trkpt lat="33.33233" lon="9.1685967"><ele>86.0</ele><time>2026-04-22T15:32:39.812Z</time></trkpt><trkpt lat="33.3322483" lon="9.168855"><ele>87.0</ele><time>2026-04-22T15:32:40.813Z</time></trkpt><trkpt lat="33.3321617" lon="9.1691133"><ele>88.0</ele><time>2026-04-22T15:32:41.812Z</time></trkpt><trkpt lat="33.332075" lon="9.169375"><ele>88.0</ele><time>2026-04-22T15:32:42.812Z</time></trkpt><trkpt lat="33.3319983" lon="9.169625"><ele>88.0</ele><time>2026-04-22T15:32:43.813Z</time></trkpt><trkpt lat="33.3319133" lon="9.1698783"><ele>88.5</ele><time>2026-04-22T15:32:44.812Z</time></trkpt><trkpt lat="33.3318217" lon="9.1701383"><ele>89.0</ele><time>2026-04-22T15:32:45.812Z</time></trkpt><trkpt lat="33.331735" lon="9.1703967"><ele>89.0</ele><time>2026-04-22T15:32:46.812Z</time></trkpt><trkpt lat="33.331645" lon="9.1706567"><ele>89.0</ele><time>2026-04-22T15:32:47.812Z</time></trkpt><trkpt lat="33.3315517" lon="9.1709167"><ele>89.0</ele><time>2026-04-22T15:32:48.812Z</time></trkpt><trkpt lat="33.3314633" lon="9.1711817"><ele>89.0</ele><time>2026-04-22T15:32:49.812Z</time></trkpt><trkpt lat="33.3313717" lon="9.17144"><ele>89.0</ele><time>2026-04-22T15:32:50.812Z</time></trkpt><trkpt lat="33.3312867" lon="9.1716933"><ele>89.0</ele><time>2026-04-22T15:32:51.812Z</time></trkpt><trkpt lat="33.331195" lon="9.1719517"><ele>89.0</ele><time>2026-04-22T15:32:52.813Z</time></trkpt><trkpt lat="33.33111" lon="9.172205"><ele>89.0</ele><time>2026-04-22T15:32:53.812Z</time></trkpt><trkpt lat="33.3310217" lon="9.1724567"><ele>89.0</ele><time>2026-04-22T15:32:54.812Z</time></trkpt><trkpt lat="33.3309267" lon="9.17271"><ele>89.0</ele><time>2026-04-22T15:32:55.812Z</time></trkpt><trkpt lat="33.3308233" lon="9.1729633"><ele>89.5</ele><time>2026-04-22T15:32:56.812Z</time></trkpt><trkpt lat="33.330725" lon="9.1732217"><ele>90.0</ele><time>2026-04-22T15:32:57.812Z</time></trkpt><trkpt lat="33.3306233" lon="9.1734783"><ele>89.5</ele><time>2026-04-22T15:32:58.812Z</time></trkpt><trkpt lat="33.3305267" lon="9.1737283"><ele>89.0</ele><time>2026-04-22T15:32:59.812Z</time></trkpt><trkpt lat="33.330425" lon="9.1739783"><ele>87.5</ele><time>2026-04-22T15:33:00.812Z</time></trkpt><trkpt lat="33.3303183" lon="9.1742317"><ele>86.0</ele><time>2026-04-22T15:33:01.812Z</time></trkpt><trkpt lat="33.3302017" lon="9.174485"><ele>86.0</ele><time>2026-04-22T15:33:02.812Z</time></trkpt><trkpt lat="33.3300783" lon="9.17473"><ele>86.0</ele><time>2026-04-22T15:33:03.812Z</time></trkpt><trkpt lat="33.3299583" lon="9.1749733"><ele>87.0</ele><time>2026-04-22T15:33:04.812Z</time></trkpt><trkpt lat="33.329845" lon="9.1752183"><ele>88.0</ele><time>2026-04-22T15:33:05.812Z</time></trkpt><trkpt lat="33.329715" lon="9.175465"><ele>86.0</ele><time>2026-04-22T15:33:06.812Z</time></trkpt><trkpt lat="33.329585" lon="9.1757067"><ele>84.0</ele><time>2026-04-22T15:33:07.812Z</time></trkpt><trkpt lat="33.329455" lon="9.1759467"><ele>84.0</ele><time>2026-04-22T15:33:08.812Z</time></trkpt><trkpt lat="33.3293183" lon="9.1761883"><ele>84.0</ele><time>2026-04-22T15:33:09.812Z</time></trkpt><trkpt lat="33.3291833" lon="9.1764283"><ele>83.5</ele><time>2026-04-22T15:33:10.812Z</time></trkpt><trkpt lat="33.3290433" lon="9.176655"><ele>83.0</ele><time>2026-04-22T15:33:11.812Z</time></trkpt><trkpt lat="33.3288967" lon="9.1768767"><ele>84.5</ele><time>2026-04-22T15:33:12.812Z</time></trkpt><trkpt lat="33.3287533" lon="9.1770883"><ele>86.0</ele><time>2026-04-22T15:33:13.812Z</time></trkpt><trkpt lat="33.3286067" lon="9.17731"><ele>88.5</ele><time>2026-04-22T15:33:14.812Z</time></trkpt><trkpt lat="33.3284633" lon="9.17753"><ele>91.0</ele><time>2026-04-22T15:33:15.812Z</time></trkpt><trkpt lat="33.3283083" lon="9.1777567"><ele>91.0</ele><time>2026-04-22T15:33:16.812Z</time></trkpt><trkpt lat="33.3281567" lon="9.1779733"><ele>91.0</ele><time>2026-04-22T15:33:17.812Z</time></trkpt><trkpt lat="33.3279983" lon="9.1781833"><ele>91.0</ele><time>2026-04-22T15:33:18.812Z</time></trkpt><trkpt lat="33.3278367" lon="9.1783917"><ele>91.0</ele><time>2026-04-22T15:33:19.812Z</time></trkpt><trkpt lat="33.3276733" lon="9.1786017"><ele>91.0</ele><time>2026-04-22T15:33:20.812Z</time></trkpt><trkpt lat="33.3275133" lon="9.1788133"><ele>91.0</ele><time>2026-04-22T15:33:21.812Z</time></trkpt><trkpt lat="33.3273433" lon="9.1790217"><ele>91.5</ele><time>2026-04-22T15:33:22.812Z</time></trkpt><trkpt lat="33.327165" lon="9.17922"><ele>92.0</ele><time>2026-04-22T15:33:23.812Z</time></trkpt><trkpt lat="33.326995" lon="9.1794133"><ele>92.0</ele><time>2026-04-22T15:33:24.812Z</time></trkpt><trkpt lat="33.326825" lon="9.179615"><ele>92.0</ele><time>2026-04-22T15:33:25.812Z</time></trkpt><trkpt lat="33.3266383" lon="9.1798067"><ele>92.5</ele><time>2026-04-22T15:33:26.812Z</time></trkpt><trkpt lat="33.3264533" lon="9.1799983"><ele>93.0</ele><time>2026-04-22T15:33:27.812Z</time></trkpt><trkpt lat="33.32627" lon="9.1801833"><ele>92.0</ele><time>2026-04-22T15:33:28.812Z</time></trkpt><trkpt lat="33.3260833" lon="9.1803667"><ele>91.0</ele><time>2026-04-22T15:33:29.812Z</time></trkpt><trkpt lat="33.3259033" lon="9.1805533"><ele>91.0</ele><time>2026-04-22T15:33:30.812Z</time></trkpt><trkpt lat="33.3257233" lon="9.1807417"><ele>91.0</ele><time>2026-04-22T15:33:31.812Z</time></trkpt><trkpt lat="33.325545" lon="9.18093"><ele>91.0</ele><time>2026-04-22T15:33:32.812Z</time></trkpt><trkpt lat="33.32537" lon="9.1811217"><ele>91.0</ele><time>2026-04-22T15:33:33.812Z</time></trkpt><trkpt lat="33.3251933" lon="9.1813117"><ele>91.0</ele><time>2026-04-22T15:33:34.812Z</time></trkpt><trkpt lat="33.3250183" lon="9.1815"><ele>91.0</ele><time>2026-04-22T15:33:35.812Z</time></trkpt><trkpt lat="33.324835" lon="9.1816817"><ele>91.0</ele><time>2026-04-22T15:33:36.812Z</time></trkpt><trkpt lat="33.3246533" lon="9.181865"><ele>91.0</ele><time>2026-04-22T15:33:37.813Z</time></trkpt><trkpt lat="33.3244733" lon="9.18205"><ele>91.0</ele><time>2026-04-22T15:33:38.812Z</time></trkpt><trkpt lat="33.3243017" lon="9.1822383"><ele>91.0</ele><time>2026-04-22T15:33:39.812Z</time></trkpt><trkpt lat="33.3241217" lon="9.1824267"><ele>90.0</ele><time>2026-04-22T15:33:40.812Z</time></trkpt><trkpt lat="33.32395" lon="9.1826183"><ele>89.0</ele><time>2026-04-22T15:33:41.812Z</time></trkpt><trkpt lat="33.3237717" lon="9.1827983"><ele>89.0</ele><time>2026-04-22T15:33:42.813Z</time></trkpt><trkpt lat="33.3235883" lon="9.1829767"><ele>89.0</ele><time>2026-04-22T15:33:43.812Z</time></trkpt><trkpt lat="33.3234083" lon="9.1831633"><ele>89.0</ele><time>2026-04-22T15:33:44.812Z</time></trkpt><trkpt lat="33.3232367" lon="9.1833517"><ele>89.0</ele><time>2026-04-22T15:33:45.812Z</time></trkpt><trkpt lat="33.3230483" lon="9.1835367"><ele>89.0</ele><time>2026-04-22T15:33:46.812Z</time></trkpt><trkpt lat="33.32286" lon="9.18372"><ele>89.0</ele><time>2026-04-22T15:33:47.812Z</time></trkpt><trkpt lat="33.3226783" lon="9.183915"><ele>90.5</ele><time>2026-04-22T15:33:48.812Z</time></trkpt><trkpt lat="33.322495" lon="9.184095"><ele>92.0</ele><time>2026-04-22T15:33:49.813Z</time></trkpt><trkpt lat="33.3223133" lon="9.18428"><ele>91.5</ele><time>2026-04-22T15:33:50.812Z</time></trkpt><trkpt lat="33.3221333" lon="9.1844633"><ele>91.0</ele><time>2026-04-22T15:33:51.812Z</time></trkpt><trkpt lat="33.3219483" lon="9.18465"><ele>91.0</ele><time>2026-04-22T15:33:52.812Z</time></trkpt><trkpt lat="33.3217683" lon="9.1848367"><ele>91.0</ele><time>2026-04-22T15:33:53.812Z</time></trkpt><trkpt lat="33.3215783" lon="9.185025"><ele>90.0</ele><time>2026-04-22T15:33:54.812Z</time></trkpt><trkpt lat="33.3213933" lon="9.1852133"><ele>89.0</ele><time>2026-04-22T15:33:55.812Z</time></trkpt><trkpt lat="33.321215" lon="9.1854017"><ele>89.0</ele><time>2026-04-22T15:33:56.812Z</time></trkpt><trkpt lat="33.3210383" lon="9.1855883"><ele>89.0</ele><time>2026-04-22T15:33:57.813Z</time></trkpt><trkpt lat="33.320855" lon="9.1857783"><ele>90.0</ele><time>2026-04-22T15:33:58.812Z</time></trkpt><trkpt lat="33.3206783" lon="9.185965"><ele>91.0</ele><time>2026-04-22T15:33:59.812Z</time></trkpt><trkpt lat="33.3204983" lon="9.186155"><ele>92.0</ele><time>2026-04-22T15:34:00.813Z</time></trkpt><trkpt lat="33.3203233" lon="9.186345"><ele>93.0</ele><time>2026-04-22T15:34:01.812Z</time></trkpt><trkpt lat="33.32014" lon="9.1865283"><ele>93.0</ele><time>2026-04-22T15:34:02.812Z</time></trkpt><trkpt lat="33.3199567" lon="9.1867083"><ele>93.0</ele><time>2026-04-22T15:34:03.812Z</time></trkpt><trkpt lat="33.3197833" lon="9.1868883"><ele>94.0</ele><time>2026-04-22T15:34:04.812Z</time></trkpt><trkpt lat="33.3196083" lon="9.1870683"><ele>95.0</ele><time>2026-04-22T15:34:05.813Z</time></trkpt><trkpt lat="33.3194317" lon="9.18725"><ele>93.0</ele><time>2026-04-22T15:34:06.812Z</time></trkpt><trkpt lat="33.319255" lon="9.1874367"><ele>91.0</ele><time>2026-04-22T15:34:07.812Z</time></trkpt><trkpt lat="33.31908" lon="9.1876267"><ele>91.0</ele><time>2026-04-22T15:34:08.812Z</time></trkpt><trkpt lat="33.3189067" lon="9.1878133"><ele>91.0</ele><time>2026-04-22T15:34:09.812Z</time></trkpt><trkpt lat="33.3187267" lon="9.1880067"><ele>91.0</ele><time>2026-04-22T15:34:10.812Z</time></trkpt><trkpt lat="33.3185467" lon="9.1881983"><ele>91.0</ele><time>2026-04-22T15:34:11.812Z</time></trkpt><trkpt lat="33.31837" lon="9.18838"><ele>91.0</ele><time>2026-04-22T15:34:12.812Z</time></trkpt><trkpt lat="33.3181933" lon="9.1885583"><ele>91.0</ele><time>2026-04-22T15:34:13.812Z</time></trkpt><trkpt lat="33.3180167" lon="9.188735"><ele>90.5</ele><time>2026-04-22T15:34:14.812Z</time></trkpt><trkpt lat="33.317835" lon="9.1889167"><ele>90.0</ele><time>2026-04-22T15:34:15.812Z</time></trkpt><trkpt lat="33.3176667" lon="9.1890967"><ele>90.0</ele><time>2026-04-22T15:34:16.812Z</time></trkpt><trkpt lat="33.3174983" lon="9.1892817"><ele>90.0</ele><time>2026-04-22T15:34:17.812Z</time></trkpt><trkpt lat="33.3173167" lon="9.18947"><ele>90.0</ele><time>2026-04-22T15:34:18.812Z</time></trkpt><trkpt lat="33.317135" lon="9.18965"><ele>90.0</ele><time>2026-04-22T15:34:19.812Z</time></trkpt><trkpt lat="33.3169567" lon="9.189835"><ele>90.5</ele><time>2026-04-22T15:34:20.812Z</time></trkpt><trkpt lat="33.3167783" lon="9.1900217"><ele>91.0</ele><time>2026-04-22T15:34:21.812Z</time></trkpt><trkpt lat="33.3165967" lon="9.1902033"><ele>91.0</ele><time>2026-04-22T15:34:22.812Z</time></trkpt><trkpt lat="33.3164233" lon="9.19039"><ele>91.0</ele><time>2026-04-22T15:34:23.812Z</time></trkpt><trkpt lat="33.3162517" lon="9.1905733"><ele>91.0</ele><time>2026-04-22T15:34:24.812Z</time></trkpt><trkpt lat="33.316075" lon="9.1907567"><ele>91.0</ele><time>2026-04-22T15:34:25.812Z</time></trkpt><trkpt lat="33.3158967" lon="9.190935"><ele>91.0</ele><time>2026-04-22T15:34:26.812Z</time></trkpt><trkpt lat="33.315725" lon="9.19112"><ele>91.0</ele><time>2026-04-22T15:34:27.812Z</time></trkpt><trkpt lat="33.31554" lon="9.1913083"><ele>91.5</ele><time>2026-04-22T15:34:28.812Z</time></trkpt><trkpt lat="33.3153667" lon="9.19149"><ele>92.0</ele><time>2026-04-22T15:34:29.812Z</time></trkpt><trkpt lat="33.3151917" lon="9.19167"><ele>91.0</ele><time>2026-04-22T15:34:30.812Z</time></trkpt><trkpt lat="33.3150167" lon="9.19185"><ele>90.0</ele><time>2026-04-22T15:34:31.812Z</time></trkpt><trkpt lat="33.3148433" lon="9.19204"><ele>90.0</ele><time>2026-04-22T15:34:32.812Z</time></trkpt><trkpt lat="33.3146667" lon="9.192225"><ele>90.0</ele><time>2026-04-22T15:34:33.812Z</time></trkpt><trkpt lat="33.31449" lon="9.192405"><ele>90.5</ele><time>2026-04-22T15:34:34.812Z</time></trkpt><trkpt lat="33.314315" lon="9.1925783"><ele>91.0</ele><time>2026-04-22T15:34:35.812Z</time></trkpt><trkpt lat="33.3141417" lon="9.1927533"><ele>91.0</ele><time>2026-04-22T15:34:36.812Z</time></trkpt><trkpt lat="33.31397" lon="9.1929283"><ele>91.0</ele><time>2026-04-22T15:34:37.812Z</time></trkpt><trkpt lat="33.3137983" lon="9.1931033"><ele>91.5</ele><time>2026-04-22T15:34:38.812Z</time></trkpt><trkpt lat="33.3136267" lon="9.1932783"><ele>92.0</ele><time>2026-04-22T15:34:39.812Z</time></trkpt><trkpt lat="33.3134583" lon="9.1934617"><ele>92.0</ele><time>2026-04-22T15:34:40.813Z</time></trkpt><trkpt lat="33.3132817" lon="9.1936383"><ele>92.0</ele><time>2026-04-22T15:34:41.812Z</time></trkpt><trkpt lat="33.3131067" lon="9.1938167"><ele>91.5</ele><time>2026-04-22T15:34:42.812Z</time></trkpt><trkpt lat="33.31293" lon="9.1939967"><ele>91.0</ele><time>2026-04-22T15:34:43.812Z</time></trkpt><trkpt lat="33.3127583" lon="9.1941783"><ele>91.0</ele><time>2026-04-22T15:34:44.812Z</time></trkpt><trkpt lat="33.3125783" lon="9.19436"><ele>91.0</ele><time>2026-04-22T15:34:45.812Z</time></trkpt><trkpt lat="33.3123967" lon="9.19455"><ele>90.0</ele><time>2026-04-22T15:34:46.812Z</time></trkpt><trkpt lat="33.3122167" lon="9.1947367"><ele>89.0</ele><time>2026-04-22T15:34:47.812Z</time></trkpt><trkpt lat="33.3120367" lon="9.194915"><ele>88.5</ele><time>2026-04-22T15:34:48.812Z</time></trkpt><trkpt lat="33.3118567" lon="9.1951017"><ele>88.0</ele><time>2026-04-22T15:34:49.812Z</time></trkpt><trkpt lat="33.311675" lon="9.1952867"><ele>88.0</ele><time>2026-04-22T15:34:50.812Z</time></trkpt><trkpt lat="33.3114967" lon="9.1954567"><ele>88.0</ele><time>2026-04-22T15:34:51.812Z</time></trkpt><trkpt lat="33.31133" lon="9.1956417"><ele>88.33333333333333</ele><time>2026-04-22T15:34:52.812Z</time></trkpt><trkpt lat="33.3111683" lon="9.195815"><ele>88.66666666666667</ele><time>2026-04-22T15:34:53.812Z</time></trkpt><trkpt lat="33.3110067" lon="9.19599"><ele>89.0</ele><time>2026-04-22T15:34:54.812Z</time></trkpt><trkpt lat="33.3108383" lon="9.1961533"><ele>89.0</ele><time>2026-04-22T15:34:55.812Z</time></trkpt><trkpt lat="33.3106667" lon="9.1963283"><ele>89.0</ele><time>2026-04-22T15:34:56.813Z</time></trkpt><trkpt lat="33.3104917" lon="9.1965"><ele>90.0</ele><time>2026-04-22T15:34:57.812Z</time></trkpt><trkpt lat="33.3103133" lon="9.19668"><ele>91.0</ele><time>2026-04-22T15:34:58.811Z</time></trkpt><trkpt lat="33.3101317" lon="9.1968517"><ele>91.0</ele><time>2026-04-22T15:34:59.812Z</time></trkpt><trkpt lat="33.3099533" lon="9.1970317"><ele>91.0</ele><time>2026-04-22T15:35:00.812Z</time></trkpt><trkpt lat="33.309765" lon="9.1972067"><ele>92.5</ele><time>2026-04-22T15:35:01.812Z</time></trkpt><trkpt lat="33.309575" lon="9.1973783"><ele>94.0</ele><time>2026-04-22T15:35:02.811Z</time></trkpt><trkpt lat="33.3093817" lon="9.19755"><ele>94.0</ele><time>2026-04-22T15:35:03.811Z</time></trkpt><trkpt lat="33.3091833" lon="9.19772"><ele>94.0</ele><time>2026-04-22T15:35:04.811Z</time></trkpt><trkpt lat="33.3089883" lon="9.19789"><ele>93.0</ele><time>2026-04-22T15:35:05.811Z</time></trkpt><trkpt lat="33.3087967" lon="9.1980683"><ele>92.0</ele><time>2026-04-22T15:35:06.812Z</time></trkpt><trkpt lat="33.3086067" lon="9.1982367"><ele>92.0</ele><time>2026-04-22T15:35:07.811Z</time></trkpt><trkpt lat="33.30842" lon="9.1984017"><ele>92.0</ele><time>2026-04-22T15:35:08.811Z</time></trkpt><trkpt lat="33.3082167" lon="9.198555"><ele>92.0</ele><time>2026-04-22T15:35:09.811Z</time></trkpt><trkpt lat="33.3080133" lon="9.1987067"><ele>92.0</ele><time>2026-04-22T15:35:10.811Z</time></trkpt><trkpt lat="33.3078117" lon="9.198865"><ele>92.0</ele><time>2026-04-22T15:35:11.811Z</time></trkpt><trkpt lat="33.3076167" lon="9.1990283"><ele>92.0</ele><time>2026-04-22T15:35:12.811Z</time></trkpt><trkpt lat="33.307425" lon="9.199185"><ele>92.0</ele><time>2026-04-22T15:35:13.811Z</time></trkpt><trkpt lat="33.30723" lon="9.1993433"><ele>92.0</ele><time>2026-04-22T15:35:14.811Z</time></trkpt><trkpt lat="33.3070417" lon="9.1994983"><ele>92.0</ele><time>2026-04-22T15:35:15.811Z</time></trkpt><trkpt lat="33.3068517" lon="9.19965"><ele>92.0</ele><time>2026-04-22T15:35:16.811Z</time></trkpt><trkpt lat="33.3066683" lon="9.1998"><ele>92.0</ele><time>2026-04-22T15:35:17.811Z</time></trkpt><trkpt lat="33.3064833" lon="9.1999583"><ele>92.0</ele><time>2026-04-22T15:35:18.811Z</time></trkpt><trkpt lat="33.306295" lon="9.200115"><ele>92.0</ele><time>2026-04-22T15:35:19.811Z</time></trkpt><trkpt lat="33.3061117" lon="9.2002767"><ele>92.0</ele><time>2026-04-22T15:35:20.811Z</time></trkpt><trkpt lat="33.3059233" lon="9.200435"><ele>92.0</ele><time>2026-04-22T15:35:21.811Z</time></trkpt><trkpt lat="33.3057367" lon="9.2005983"><ele>92.0</ele><time>2026-04-22T15:35:22.811Z</time></trkpt><trkpt lat="33.3055433" lon="9.20076"><ele>91.5</ele><time>2026-04-22T15:35:23.811Z</time></trkpt><trkpt lat="33.3053433" lon="9.200915"><ele>91.0</ele><time>2026-04-22T15:35:24.811Z</time></trkpt><trkpt lat="33.3051517" lon="9.2010817"><ele>91.0</ele><time>2026-04-22T15:35:25.811Z</time></trkpt><trkpt lat="33.3049533" lon="9.2012433"><ele>91.0</ele><time>2026-04-22T15:35:26.811Z</time></trkpt><trkpt lat="33.3047633" lon="9.2014133"><ele>91.5</ele><time>2026-04-22T15:35:27.811Z</time></trkpt><trkpt lat="33.304565" lon="9.2015783"><ele>92.0</ele><time>2026-04-22T15:35:28.811Z</time></trkpt><trkpt lat="33.3043667" lon="9.2017417"><ele>92.0</ele><time>2026-04-22T15:35:29.811Z</time></trkpt><trkpt lat="33.3041667" lon="9.2019033"><ele>92.0</ele><time>2026-04-22T15:35:30.811Z</time></trkpt><trkpt lat="33.3039667" lon="9.2020667"><ele>92.0</ele><time>2026-04-22T15:35:31.811Z</time></trkpt><trkpt lat="33.3037667" lon="9.2022217"><ele>92.0</ele><time>2026-04-22T15:35:32.811Z</time></trkpt><trkpt lat="33.3035683" lon="9.2023767"><ele>92.0</ele><time>2026-04-22T15:35:33.811Z</time></trkpt><trkpt lat="33.30337" lon="9.202535"><ele>92.0</ele><time>2026-04-22T15:35:34.811Z</time></trkpt><trkpt lat="33.3031733" lon="9.2026867"><ele>92.0</ele><time>2026-04-22T15:35:35.811Z</time></trkpt><trkpt lat="33.30298" lon="9.2028367"><ele>92.0</ele><time>2026-04-22T15:35:36.811Z</time></trkpt><trkpt lat="33.3027833" lon="9.20299"><ele>92.0</ele><time>2026-04-22T15:35:37.811Z</time></trkpt><trkpt lat="33.30259" lon="9.20314"><ele>92.0</ele><time>2026-04-22T15:35:38.811Z</time></trkpt><trkpt lat="33.3023967" lon="9.2032883"><ele>91.5</ele><time>2026-04-22T15:35:39.811Z</time></trkpt><trkpt lat="33.3022067" lon="9.2034333"><ele>91.0</ele><time>2026-04-22T15:35:40.811Z</time></trkpt><trkpt lat="33.3020217" lon="9.203585"><ele>91.0</ele><time>2026-04-22T15:35:41.811Z</time></trkpt><trkpt lat="33.301835" lon="9.2037467"><ele>91.0</ele><time>2026-04-22T15:35:42.811Z</time></trkpt><trkpt lat="33.3016483" lon="9.2038983"><ele>90.5</ele><time>2026-04-22T15:35:43.812Z</time></trkpt><trkpt lat="33.3014583" lon="9.2040517"><ele>90.0</ele><time>2026-04-22T15:35:44.812Z</time></trkpt><trkpt lat="33.301275" lon="9.204205"><ele>89.66666666666667</ele><time>2026-04-22T15:35:45.811Z</time></trkpt><trkpt lat="33.3010883" lon="9.204355"><ele>89.33333333333334</ele><time>2026-04-22T15:35:46.811Z</time></trkpt><trkpt lat="33.3009033" lon="9.2045067"><ele>89.0</ele><time>2026-04-22T15:35:47.812Z</time></trkpt><trkpt lat="33.3007183" lon="9.2046567"><ele>89.5</ele><time>2026-04-22T15:35:48.811Z</time></trkpt><trkpt lat="33.3005283" lon="9.2048117"><ele>90.0</ele><time>2026-04-22T15:35:49.811Z</time></trkpt><trkpt lat="33.3003383" lon="9.2049633"><ele>90.0</ele><time>2026-04-22T15:35:50.811Z</time></trkpt><trkpt lat="33.300145" lon="9.205115"><ele>90.0</ele><time>2026-04-22T15:35:51.811Z</time></trkpt><trkpt lat="33.2999583" lon="9.2052667"><ele>90.0</ele><time>2026-04-22T15:35:52.811Z</time></trkpt><trkpt lat="33.2997667" lon="9.205415"><ele>90.0</ele><time>2026-04-22T15:35:53.811Z</time></trkpt><trkpt lat="33.2995717" lon="9.2055567"><ele>90.5</ele><time>2026-04-22T15:35:54.812Z</time></trkpt><trkpt lat="33.2993767" lon="9.205705"><ele>91.0</ele><time>2026-04-22T15:35:55.811Z</time></trkpt><trkpt lat="33.2991933" lon="9.2058517"><ele>91.0</ele><time>2026-04-22T15:35:56.811Z</time></trkpt><trkpt lat="33.2990033" lon="9.2060017"><ele>91.0</ele><time>2026-04-22T15:35:57.811Z</time></trkpt><trkpt lat="33.298815" lon="9.20615"><ele>91.0</ele><time>2026-04-22T15:35:58.811Z</time></trkpt><trkpt lat="33.298625" lon="9.206295"><ele>91.0</ele><time>2026-04-22T15:35:59.811Z</time></trkpt><trkpt lat="33.298435" lon="9.2064383"><ele>91.5</ele><time>2026-04-22T15:36:00.811Z</time></trkpt><trkpt lat="33.2982417" lon="9.2065767"><ele>92.0</ele><time>2026-04-22T15:36:01.811Z</time></trkpt><trkpt lat="33.2980517" lon="9.20673"><ele>92.5</ele><time>2026-04-22T15:36:02.811Z</time></trkpt><trkpt lat="33.2978617" lon="9.2068833"><ele>93.0</ele><time>2026-04-22T15:36:03.811Z</time></trkpt><trkpt lat="33.29767" lon="9.20703"><ele>93.0</ele><time>2026-04-22T15:36:04.811Z</time></trkpt><trkpt lat="33.2974783" lon="9.2071783"><ele>93.0</ele><time>2026-04-22T15:36:05.811Z</time></trkpt><trkpt lat="33.2972883" lon="9.2073267"><ele>93.33333333333333</ele><time>2026-04-22T15:36:06.811Z</time></trkpt><trkpt lat="33.2971083" lon="9.2074783"><ele>93.66666666666666</ele><time>2026-04-22T15:36:07.811Z</time></trkpt><trkpt lat="33.29693" lon="9.2076333"><ele>94.0</ele><time>2026-04-22T15:36:08.811Z</time></trkpt><trkpt lat="33.2967483" lon="9.2077783"><ele>94.0</ele><time>2026-04-22T15:36:09.811Z</time></trkpt><trkpt lat="33.296565" lon="9.207925"><ele>94.0</ele><time>2026-04-22T15:36:10.811Z</time></trkpt><trkpt lat="33.2963817" lon="9.2080733"><ele>94.0</ele><time>2026-04-22T15:36:11.811Z</time></trkpt><trkpt lat="33.296205" lon="9.2082283"><ele>94.33333333333333</ele><time>2026-04-22T15:36:12.811Z</time></trkpt><trkpt lat="33.2960183" lon="9.2083783"><ele>94.66666666666667</ele><time>2026-04-22T15:36:13.811Z</time></trkpt><trkpt lat="33.295835" lon="9.2085283"><ele>95.0</ele><time>2026-04-22T15:36:14.811Z</time></trkpt><trkpt lat="33.295645" lon="9.2086917"><ele>96.5</ele><time>2026-04-22T15:36:15.811Z</time></trkpt><trkpt lat="33.2954617" lon="9.2088533"><ele>98.0</ele><time>2026-04-22T15:36:16.811Z</time></trkpt><trkpt lat="33.295285" lon="9.2090167"><ele>98.0</ele><time>2026-04-22T15:36:17.812Z</time></trkpt><trkpt lat="33.295105" lon="9.209165"><ele>98.0</ele><time>2026-04-22T15:36:18.811Z</time></trkpt><trkpt lat="33.2949317" lon="9.2093233"><ele>98.0</ele><time>2026-04-22T15:36:19.811Z</time></trkpt><trkpt lat="33.294735" lon="9.2094667"><ele>97.66666666666666</ele><time>2026-04-22T15:36:20.811Z</time></trkpt><trkpt lat="33.2945633" lon="9.2096267"><ele>97.33333333333334</ele><time>2026-04-22T15:36:21.811Z</time></trkpt><trkpt lat="33.294385" lon="9.2097783"><ele>97.0</ele><time>2026-04-22T15:36:22.811Z</time></trkpt><trkpt lat="33.294205" lon="9.20994"><ele>97.5</ele><time>2026-04-22T15:36:23.812Z</time></trkpt><trkpt lat="33.2940233" lon="9.2101"><ele>98.0</ele><time>2026-04-22T15:36:24.811Z</time></trkpt><trkpt lat="33.29384" lon="9.2102683"><ele>98.0</ele><time>2026-04-22T15:36:25.811Z</time></trkpt><trkpt lat="33.2936533" lon="9.2104333"><ele>98.0</ele><time>2026-04-22T15:36:26.811Z</time></trkpt><trkpt lat="33.2934733" lon="9.2106083"><ele>96.5</ele><time>2026-04-22T15:36:27.811Z</time></trkpt><trkpt lat="33.2932933" lon="9.210775"><ele>95.0</ele><time>2026-04-22T15:36:28.812Z</time></trkpt><trkpt lat="33.293115" lon="9.2109383"><ele>94.0</ele><time>2026-04-22T15:36:29.812Z</time></trkpt><trkpt lat="33.2929317" lon="9.2111"><ele>93.0</ele><time>2026-04-22T15:36:30.811Z</time></trkpt><trkpt lat="33.29275" lon="9.211255"><ele>93.0</ele><time>2026-04-22T15:36:31.811Z</time></trkpt><trkpt lat="33.2925767" lon="9.21142"><ele>93.0</ele><time>2026-04-22T15:36:32.811Z</time></trkpt><trkpt lat="33.2924" lon="9.2115833"><ele>93.0</ele><time>2026-04-22T15:36:33.811Z</time></trkpt><trkpt lat="33.2922233" lon="9.2117483"><ele>92.33333333333333</ele><time>2026-04-22T15:36:34.811Z</time></trkpt><trkpt lat="33.2920433" lon="9.2119017"><ele>91.66666666666666</ele><time>2026-04-22T15:36:35.811Z</time></trkpt><trkpt lat="33.29187" lon="9.2120633"><ele>91.0</ele><time>2026-04-22T15:36:36.811Z</time></trkpt><trkpt lat="33.2916983" lon="9.2122267"><ele>91.0</ele><time>2026-04-22T15:36:37.811Z</time></trkpt><trkpt lat="33.291525" lon="9.2123883"><ele>91.0</ele><time>2026-04-22T15:36:38.811Z</time></trkpt><trkpt lat="33.291345" lon="9.2125483"><ele>91.0</ele><time>2026-04-22T15:36:39.811Z</time></trkpt><trkpt lat="33.2911767" lon="9.2127083"><ele>91.5</ele><time>2026-04-22T15:36:40.812Z</time></trkpt><trkpt lat="33.2909967" lon="9.2128717"><ele>92.0</ele><time>2026-04-22T15:36:41.811Z</time></trkpt><trkpt lat="33.2908183" lon="9.2130333"><ele>91.66666666666667</ele><time>2026-04-22T15:36:42.811Z</time></trkpt><trkpt lat="33.2906417" lon="9.213205"><ele>91.33333333333333</ele><time>2026-04-22T15:36:43.811Z</time></trkpt><trkpt lat="33.2904717" lon="9.2133733"><ele>91.0</ele><time>2026-04-22T15:36:44.811Z</time></trkpt><trkpt lat="33.2903" lon="9.2135467"><ele>91.0</ele><time>2026-04-22T15:36:45.811Z</time></trkpt><trkpt lat="33.29013" lon="9.2137233"><ele>91.0</ele><time>2026-04-22T15:36:46.811Z</time></trkpt><trkpt lat="33.2899583" lon="9.2138967"><ele>90.66666666666666</ele><time>2026-04-22T15:36:47.811Z</time></trkpt><trkpt lat="33.2897833" lon="9.2140683"><ele>90.33333333333333</ele><time>2026-04-22T15:36:48.811Z</time></trkpt><trkpt lat="33.28962" lon="9.214245"><ele>90.0</ele><time>2026-04-22T15:36:49.811Z</time></trkpt><trkpt lat="33.28945" lon="9.2144167"><ele>90.0</ele><time>2026-04-22T15:36:50.811Z</time></trkpt><trkpt lat="33.2892783" lon="9.214595"><ele>90.0</ele><time>2026-04-22T15:36:51.811Z</time></trkpt><trkpt lat="33.2891067" lon="9.2147717"><ele>90.5</ele><time>2026-04-22T15:36:52.811Z</time></trkpt><trkpt lat="33.288935" lon="9.214955"><ele>91.0</ele><time>2026-04-22T15:36:53.811Z</time></trkpt><trkpt lat="33.2887683" lon="9.215135"><ele>91.0</ele><time>2026-04-22T15:36:54.811Z</time></trkpt><trkpt lat="33.2886017" lon="9.2153217"><ele>91.0</ele><time>2026-04-22T15:36:55.811Z</time></trkpt><trkpt lat="33.288435" lon="9.21551"><ele>90.5</ele><time>2026-04-22T15:36:56.811Z</time></trkpt><trkpt lat="33.2882633" lon="9.2156917"><ele>90.0</ele><time>2026-04-22T15:36:57.811Z</time></trkpt><trkpt lat="33.2880917" lon="9.21587"><ele>91.5</ele><time>2026-04-22T15:36:58.811Z</time></trkpt><trkpt lat="33.2879233" lon="9.2160483"><ele>93.0</ele><time>2026-04-22T15:36:59.811Z</time></trkpt><trkpt lat="33.2877533" lon="9.2162283"><ele>93.0</ele><time>2026-04-22T15:37:00.811Z</time></trkpt><trkpt lat="33.28758" lon="9.2164133"><ele>93.0</ele><time>2026-04-22T15:37:01.811Z</time></trkpt><trkpt lat="33.28742" lon="9.21661"><ele>92.5</ele><time>2026-04-22T15:37:02.811Z</time></trkpt><trkpt lat="33.287255" lon="9.216795"><ele>92.0</ele><time>2026-04-22T15:37:03.812Z</time></trkpt><trkpt lat="33.2870883" lon="9.2169767"><ele>92.0</ele><time>2026-04-22T15:37:04.811Z</time></trkpt><trkpt lat="33.2869283" lon="9.2171583"><ele>92.0</ele><time>2026-04-22T15:37:05.811Z</time></trkpt><trkpt lat="33.2867633" lon="9.2173317"><ele>92.0</ele><time>2026-04-22T15:37:06.811Z</time></trkpt><trkpt lat="33.28659" lon="9.2175183"><ele>90.5</ele><time>2026-04-22T15:37:07.811Z</time></trkpt><trkpt lat="33.286425" lon="9.217695"><ele>89.0</ele><time>2026-04-22T15:37:08.812Z</time></trkpt><trkpt lat="33.2862533" lon="9.2178767"><ele>89.0</ele><time>2026-04-22T15:37:09.811Z</time></trkpt><trkpt lat="33.2860833" lon="9.2180517"><ele>89.0</ele><time>2026-04-22T15:37:10.811Z</time></trkpt><trkpt lat="33.285915" lon="9.2182283"><ele>89.0</ele><time>2026-04-22T15:37:11.811Z</time></trkpt><trkpt lat="33.285745" lon="9.2184083"><ele>90.0</ele><time>2026-04-22T15:37:12.812Z</time></trkpt><trkpt lat="33.2855767" lon="9.218595"><ele>91.0</ele><time>2026-04-22T15:37:13.811Z</time></trkpt><trkpt lat="33.285405" lon="9.2187767"><ele>91.0</ele><time>2026-04-22T15:37:14.811Z</time></trkpt><trkpt lat="33.2852433" lon="9.21896"><ele>91.0</ele><time>2026-04-22T15:37:15.811Z</time></trkpt><trkpt lat="33.2850783" lon="9.219145"><ele>91.0</ele><time>2026-04-22T15:37:16.811Z</time></trkpt><trkpt lat="33.2849067" lon="9.2193333"><ele>91.5</ele><time>2026-04-22T15:37:17.811Z</time></trkpt><trkpt lat="33.2847433" lon="9.2195317"><ele>92.0</ele><time>2026-04-22T15:37:18.811Z</time></trkpt><trkpt lat="33.2845833" lon="9.2197283"><ele>92.5</ele><time>2026-04-22T15:37:19.811Z</time></trkpt><trkpt lat="33.28442" lon="9.2199217"><ele>93.0</ele><time>2026-04-22T15:37:20.811Z</time></trkpt><trkpt lat="33.284265" lon="9.2201167"><ele>93.0</ele><time>2026-04-22T15:37:21.811Z</time></trkpt><trkpt lat="33.2841017" lon="9.22031"><ele>93.0</ele><time>2026-04-22T15:37:22.812Z</time></trkpt><trkpt lat="33.2839417" lon="9.2204983"><ele>92.0</ele><time>2026-04-22T15:37:23.811Z</time></trkpt><trkpt lat="33.2837783" lon="9.2206883"><ele>91.0</ele><time>2026-04-22T15:37:24.811Z</time></trkpt><trkpt lat="33.2836183" lon="9.2208767"><ele>91.0</ele><time>2026-04-22T15:37:25.811Z</time></trkpt><trkpt lat="33.2834617" lon="9.2210633"><ele>91.0</ele><time>2026-04-22T15:37:26.811Z</time></trkpt><trkpt lat="33.2833033" lon="9.2212583"><ele>91.0</ele><time>2026-04-22T15:37:27.811Z</time></trkpt><trkpt lat="33.2831467" lon="9.2214583"><ele>91.0</ele><time>2026-04-22T15:37:28.811Z</time></trkpt><trkpt lat="33.282995" lon="9.221655"><ele>91.0</ele><time>2026-04-22T15:37:29.811Z</time></trkpt><trkpt lat="33.2828367" lon="9.2218383"><ele>91.0</ele><time>2026-04-22T15:37:30.811Z</time></trkpt><trkpt lat="33.282675" lon="9.2220317"><ele>91.0</ele><time>2026-04-22T15:37:31.811Z</time></trkpt><trkpt lat="33.2825183" lon="9.222225"><ele>91.0</ele><time>2026-04-22T15:37:32.811Z</time></trkpt><trkpt lat="33.28236" lon="9.2224167"><ele>91.33333333333333</ele><time>2026-04-22T15:37:33.811Z</time></trkpt><trkpt lat="33.2822067" lon="9.2225983"><ele>91.66666666666667</ele><time>2026-04-22T15:37:34.811Z</time></trkpt><trkpt lat="33.2820383" lon="9.2227783"><ele>92.0</ele><time>2026-04-22T15:37:35.811Z</time></trkpt><trkpt lat="33.2818683" lon="9.2229583"><ele>92.0</ele><time>2026-04-22T15:37:36.811Z</time></trkpt><trkpt lat="33.281705" lon="9.2231483"><ele>92.0</ele><time>2026-04-22T15:37:37.811Z</time></trkpt><trkpt lat="33.28155" lon="9.2233367"><ele>92.0</ele><time>2026-04-22T15:37:38.811Z</time></trkpt><trkpt lat="33.28139" lon="9.223525"><ele>92.0</ele><time>2026-04-22T15:37:39.811Z</time></trkpt><trkpt lat="33.28123" lon="9.223715"><ele>92.0</ele><time>2026-04-22T15:37:40.811Z</time></trkpt><trkpt lat="33.2810883" lon="9.2239067"><ele>92.0</ele><time>2026-04-22T15:37:41.811Z</time></trkpt><trkpt lat="33.2809483" lon="9.2240767"><ele>91.66666666666667</ele><time>2026-04-22T15:37:42.811Z</time></trkpt><trkpt lat="33.280825" lon="9.2242383"><ele>91.33333333333333</ele><time>2026-04-22T15:37:43.811Z</time></trkpt><trkpt lat="33.2807083" lon="9.2243983"><ele>91.0</ele><time>2026-04-22T15:37:44.812Z</time></trkpt><trkpt lat="33.2805817" lon="9.22456"><ele>91.0</ele><time>2026-04-22T15:37:45.811Z</time></trkpt><trkpt lat="33.2804617" lon="9.224735"><ele>91.0</ele><time>2026-04-22T15:37:46.811Z</time></trkpt><trkpt lat="33.2803533" lon="9.2249167"><ele>91.0</ele><time>2026-04-22T15:37:47.811Z</time></trkpt><trkpt lat="33.280245" lon="9.22511"><ele>91.0</ele><time>2026-04-22T15:37:48.811Z</time></trkpt><trkpt lat="33.2801317" lon="9.2253083"><ele>91.0</ele><time>2026-04-22T15:37:49.811Z</time></trkpt><trkpt lat="33.28002" lon="9.22551"><ele>91.0</ele><time>2026-04-22T15:37:50.811Z</time></trkpt><trkpt lat="33.2799117" lon="9.22572"><ele>91.66666666666666</ele><time>2026-04-22T15:37:51.811Z</time></trkpt><trkpt lat="33.2797933" lon="9.2259217"><ele>92.33333333333333</ele><time>2026-04-22T15:37:52.811Z</time></trkpt><trkpt lat="33.2796717" lon="9.2261317"><ele>93.0</ele><time>2026-04-22T15:37:53.811Z</time></trkpt><trkpt lat="33.279535" lon="9.2263317"><ele>92.66666666666667</ele><time>2026-04-22T15:37:54.811Z</time></trkpt><trkpt lat="33.2793967" lon="9.2265283"><ele>92.33333333333334</ele><time>2026-04-22T15:37:55.811Z</time></trkpt><trkpt lat="33.2792667" lon="9.2267317"><ele>92.0</ele><time>2026-04-22T15:37:56.811Z</time></trkpt><trkpt lat="33.2791283" lon="9.2269417"><ele>92.0</ele><time>2026-04-22T15:37:57.811Z</time></trkpt><trkpt lat="33.2789867" lon="9.2271483"><ele>92.0</ele><time>2026-04-22T15:37:58.812Z</time></trkpt><trkpt lat="33.2788467" lon="9.22736"><ele>92.0</ele><time>2026-04-22T15:37:59.811Z</time></trkpt><trkpt lat="33.27871" lon="9.22757"><ele>92.66666666666667</ele><time>2026-04-22T15:38:00.811Z</time></trkpt><trkpt lat="33.2785833" lon="9.22778"><ele>93.33333333333333</ele><time>2026-04-22T15:38:01.811Z</time></trkpt><trkpt lat="33.2784533" lon="9.227985"><ele>94.0</ele><time>2026-04-22T15:38:02.811Z</time></trkpt><trkpt lat="33.2783233" lon="9.228185"><ele>94.0</ele><time>2026-04-22T15:38:03.81Z</time></trkpt><trkpt lat="33.2781883" lon="9.2283933"><ele>94.0</ele><time>2026-04-22T15:38:04.811Z</time></trkpt><trkpt lat="33.2780567" lon="9.228595"><ele>94.0</ele><time>2026-04-22T15:38:05.81Z</time></trkpt><trkpt lat="33.2779233" lon="9.228795"><ele>95.0</ele><time>2026-04-22T15:38:06.81Z</time></trkpt><trkpt lat="33.27779" lon="9.2290033"><ele>96.0</ele><time>2026-04-22T15:38:07.81Z</time></trkpt><trkpt lat="33.2776483" lon="9.2292133"><ele>97.0</ele><time>2026-04-22T15:38:08.81Z</time></trkpt><trkpt lat="33.2775033" lon="9.2294167"><ele>97.0</ele><time>2026-04-22T15:38:09.81Z</time></trkpt><trkpt lat="33.27737" lon="9.2296317"><ele>97.0</ele><time>2026-04-22T15:38:10.81Z</time></trkpt><trkpt lat="33.277235" lon="9.2298367"><ele>97.0</ele><time>2026-04-22T15:38:11.81Z</time></trkpt><trkpt lat="33.2770983" lon="9.2300433"><ele>97.0</ele><time>2026-04-22T15:38:12.81Z</time></trkpt><trkpt lat="33.2769717" lon="9.2302567"><ele>97.0</ele><time>2026-04-22T15:38:13.81Z</time></trkpt><trkpt lat="33.2768433" lon="9.2304667"><ele>97.0</ele><time>2026-04-22T15:38:14.81Z</time></trkpt><trkpt lat="33.2767117" lon="9.2306817"><ele>97.0</ele><time>2026-04-22T15:38:15.81Z</time></trkpt><trkpt lat="33.2765733" lon="9.2308967"><ele>97.0</ele><time>2026-04-22T15:38:16.81Z</time></trkpt><trkpt lat="33.276435" lon="9.23111"><ele>97.33333333333334</ele><time>2026-04-22T15:38:17.81Z</time></trkpt><trkpt lat="33.276295" lon="9.231315"><ele>97.66666666666666</ele><time>2026-04-22T15:38:18.81Z</time></trkpt><trkpt lat="33.2761583" lon="9.231525"><ele>98.0</ele><time>2026-04-22T15:38:19.81Z</time></trkpt><trkpt lat="33.276015" lon="9.231735"><ele>99.0</ele><time>2026-04-22T15:38:20.81Z</time></trkpt><trkpt lat="33.2758633" lon="9.23194"><ele>100.0</ele><time>2026-04-22T15:38:21.81Z</time></trkpt><trkpt lat="33.2757167" lon="9.2321433"><ele>99.33333333333334</ele><time>2026-04-22T15:38:22.81Z</time></trkpt><trkpt lat="33.27557" lon="9.23235"><ele>98.66666666666666</ele><time>2026-04-22T15:38:23.81Z</time></trkpt><trkpt lat="33.27542" lon="9.23254"><ele>98.0</ele><time>2026-04-22T15:38:24.81Z</time></trkpt><trkpt lat="33.27527" lon="9.232745"><ele>98.0</ele><time>2026-04-22T15:38:25.81Z</time></trkpt><trkpt lat="33.2751183" lon="9.2329433"><ele>98.0</ele><time>2026-04-22T15:38:26.811Z</time></trkpt><trkpt lat="33.2749583" lon="9.233135"><ele>97.33333333333333</ele><time>2026-04-22T15:38:27.81Z</time></trkpt><trkpt lat="33.2748067" lon="9.2333283"><ele>96.66666666666666</ele><time>2026-04-22T15:38:28.811Z</time></trkpt><trkpt lat="33.27465" lon="9.2335133"><ele>96.0</ele><time>2026-04-22T15:38:29.81Z</time></trkpt><trkpt lat="33.2744867" lon="9.2336933"><ele>96.0</ele><time>2026-04-22T15:38:30.81Z</time></trkpt><trkpt lat="33.274325" lon="9.233875"><ele>96.0</ele><time>2026-04-22T15:38:31.81Z</time></trkpt><trkpt lat="33.2741667" lon="9.23404"><ele>96.0</ele><time>2026-04-22T15:38:32.81Z</time></trkpt><trkpt lat="33.27401" lon="9.234205"><ele>96.33333333333334</ele><time>2026-04-22T15:38:33.81Z</time></trkpt><trkpt lat="33.2738517" lon="9.23437"><ele>96.66666666666667</ele><time>2026-04-22T15:38:34.81Z</time></trkpt><trkpt lat="33.2736917" lon="9.2345367"><ele>97.0</ele><time>2026-04-22T15:38:35.811Z</time></trkpt><trkpt lat="33.27354" lon="9.2347067"><ele>97.0</ele><time>2026-04-22T15:38:36.81Z</time></trkpt><trkpt lat="33.27338" lon="9.2348783"><ele>97.0</ele><time>2026-04-22T15:38:37.81Z</time></trkpt><trkpt lat="33.2732233" lon="9.2350467"><ele>97.0</ele><time>2026-04-22T15:38:38.81Z</time></trkpt><trkpt lat="33.273065" lon="9.2352117"><ele>97.0</ele><time>2026-04-22T15:38:39.81Z</time></trkpt><trkpt lat="33.2729" lon="9.2353733"><ele>97.0</ele><time>2026-04-22T15:38:40.81Z</time></trkpt><trkpt lat="33.27273" lon="9.2355367"><ele>97.0</ele><time>2026-04-22T15:38:41.81Z</time></trkpt><trkpt lat="33.2725633" lon="9.2356933"><ele>97.0</ele><time>2026-04-22T15:38:42.81Z</time></trkpt><trkpt lat="33.2723967" lon="9.23586"><ele>97.0</ele><time>2026-04-22T15:38:43.81Z</time></trkpt><trkpt lat="33.2722317" lon="9.23603"><ele>97.0</ele><time>2026-04-22T15:38:44.81Z</time></trkpt><trkpt lat="33.2720667" lon="9.236205"><ele>97.0</ele><time>2026-04-22T15:38:45.81Z</time></trkpt><trkpt lat="33.2718983" lon="9.23638"><ele>97.0</ele><time>2026-04-22T15:38:46.81Z</time></trkpt><trkpt lat="33.2717233" lon="9.2365517"><ele>97.0</ele><time>2026-04-22T15:38:47.811Z</time></trkpt><trkpt lat="33.2715433" lon="9.2367317"><ele>97.5</ele><time>2026-04-22T15:38:48.81Z</time></trkpt><trkpt lat="33.2713667" lon="9.2369017"><ele>98.0</ele><time>2026-04-22T15:38:49.81Z</time></trkpt><trkpt lat="33.2711933" lon="9.237085"><ele>98.0</ele><time>2026-04-22T15:38:50.81Z</time></trkpt><trkpt lat="33.2710183" lon="9.23726"><ele>98.0</ele><time>2026-04-22T15:38:51.81Z</time></trkpt><trkpt lat="33.2708467" lon="9.2374467"><ele>97.5</ele><time>2026-04-22T15:38:52.81Z</time></trkpt><trkpt lat="33.27067" lon="9.2376233"><ele>97.0</ele><time>2026-04-22T15:38:53.81Z</time></trkpt><trkpt lat="33.2704983" lon="9.2378"><ele>96.5</ele><time>2026-04-22T15:38:54.81Z</time></trkpt><trkpt lat="33.2703233" lon="9.2379733"><ele>96.0</ele><time>2026-04-22T15:38:55.81Z</time></trkpt><trkpt lat="33.2701567" lon="9.23815"><ele>96.0</ele><time>2026-04-22T15:38:56.81Z</time></trkpt><trkpt lat="33.269985" lon="9.238325"><ele>96.0</ele><time>2026-04-22T15:38:57.81Z</time></trkpt><trkpt lat="33.269815" lon="9.2384983"><ele>96.0</ele><time>2026-04-22T15:38:58.81Z</time></trkpt><trkpt lat="33.269645" lon="9.23867"><ele>97.5</ele><time>2026-04-22T15:38:59.81Z</time></trkpt><trkpt lat="33.269475" lon="9.23885"><ele>99.0</ele><time>2026-04-22T15:39:00.81Z</time></trkpt><trkpt lat="33.269305" lon="9.2390267"><ele>99.0</ele><time>2026-04-22T15:39:01.81Z</time></trkpt><trkpt lat="33.2691317" lon="9.2391933"><ele>99.0</ele><time>2026-04-22T15:39:02.81Z</time></trkpt><trkpt lat="33.268955" lon="9.2393633"><ele>99.0</ele><time>2026-04-22T15:39:03.81Z</time></trkpt><trkpt lat="33.2687783" lon="9.2395367"><ele>99.0</ele><time>2026-04-22T15:39:04.81Z</time></trkpt><trkpt lat="33.268605" lon="9.239715"><ele>99.0</ele><time>2026-04-22T15:39:05.81Z</time></trkpt><trkpt lat="33.2684317" lon="9.2398967"><ele>99.0</ele><time>2026-04-22T15:39:06.81Z</time></trkpt><trkpt lat="33.268255" lon="9.240075"><ele>99.0</ele><time>2026-04-22T15:39:07.81Z</time></trkpt><trkpt lat="33.26807" lon="9.2402533"><ele>98.0</ele><time>2026-04-22T15:39:08.81Z</time></trkpt><trkpt lat="33.2678967" lon="9.24044"><ele>97.0</ele><time>2026-04-22T15:39:09.81Z</time></trkpt><trkpt lat="33.267715" lon="9.2406167"><ele>97.5</ele><time>2026-04-22T15:39:10.81Z</time></trkpt><trkpt lat="33.2675383" lon="9.2408017"><ele>98.0</ele><time>2026-04-22T15:39:11.81Z</time></trkpt><trkpt lat="33.2673583" lon="9.2409817"><ele>98.5</ele><time>2026-04-22T15:39:12.81Z</time></trkpt><trkpt lat="33.267175" lon="9.2411583"><ele>99.0</ele><time>2026-04-22T15:39:13.81Z</time></trkpt><trkpt lat="33.266995" lon="9.2413367"><ele>101.5</ele><time>2026-04-22T15:39:14.81Z</time></trkpt><trkpt lat="33.2668167" lon="9.2415133"><ele>104.0</ele><time>2026-04-22T15:39:15.81Z</time></trkpt><trkpt lat="33.2666383" lon="9.2416967"><ele>104.0</ele><time>2026-04-22T15:39:16.81Z</time></trkpt><trkpt lat="33.2664617" lon="9.24188"><ele>104.0</ele><time>2026-04-22T15:39:17.81Z</time></trkpt><trkpt lat="33.2662783" lon="9.24206"><ele>102.0</ele><time>2026-04-22T15:39:18.81Z</time></trkpt><trkpt lat="33.266095" lon="9.2422317"><ele>100.0</ele><time>2026-04-22T15:39:19.81Z</time></trkpt><trkpt lat="33.265915" lon="9.24242"><ele>100.0</ele><time>2026-04-22T15:39:20.81Z</time></trkpt><trkpt lat="33.26574" lon="9.2426067"><ele>100.0</ele><time>2026-04-22T15:39:21.81Z</time></trkpt><trkpt lat="33.26556" lon="9.24279"><ele>100.0</ele><time>2026-04-22T15:39:22.81Z</time></trkpt><trkpt lat="33.2653833" lon="9.2429733"><ele>100.0</ele><time>2026-04-22T15:39:23.81Z</time></trkpt><trkpt lat="33.2652167" lon="9.243145"><ele>100.0</ele><time>2026-04-22T15:39:24.81Z</time></trkpt><trkpt lat="33.265055" lon="9.24331"><ele>100.0</ele><time>2026-04-22T15:39:25.81Z</time></trkpt><trkpt lat="33.2649017" lon="9.2434633"><ele>100.0</ele><time>2026-04-22T15:39:26.81Z</time></trkpt><trkpt lat="33.26475" lon="9.2436117"><ele>100.0</ele><time>2026-04-22T15:39:27.81Z</time></trkpt><trkpt lat="33.2646083" lon="9.24376"><ele>100.0</ele><time>2026-04-22T15:39:28.81Z</time></trkpt><trkpt lat="33.2644733" lon="9.2438983"><ele>100.0</ele><time>2026-04-22T15:39:29.81Z</time></trkpt><trkpt lat="33.2643367" lon="9.24403"><ele>100.0</ele><time>2026-04-22T15:39:30.81Z</time></trkpt><trkpt lat="33.264205" lon="9.2441567"><ele>100.0</ele><time>2026-04-22T15:39:31.81Z</time></trkpt><trkpt lat="33.26408" lon="9.244275"><ele>100.0</ele><time>2026-04-22T15:39:32.81Z</time></trkpt><trkpt lat="33.2639617" lon="9.24439"><ele>100.0</ele><time>2026-04-22T15:39:33.81Z</time></trkpt><trkpt lat="33.263845" lon="9.2445017"><ele>100.0</ele><time>2026-04-22T15:39:34.81Z</time></trkpt><trkpt lat="33.263735" lon="9.244615"><ele>100.0</ele><time>2026-04-22T15:39:35.81Z</time></trkpt><trkpt lat="33.2636317" lon="9.2447267"><ele>100.0</ele><time>2026-04-22T15:39:36.81Z</time></trkpt><trkpt lat="33.263535" lon="9.2448267"><ele>100.0</ele><time>2026-04-22T15:39:37.81Z</time></trkpt><trkpt lat="33.2634333" lon="9.24493"><ele>100.0</ele><time>2026-04-22T15:39:38.811Z</time></trkpt><trkpt lat="33.2633333" lon="9.2450317"><ele>100.0</ele><time>2026-04-22T15:39:39.81Z</time></trkpt><trkpt lat="33.2632267" lon="9.2451333"><ele>100.0</ele><time>2026-04-22T15:39:40.81Z</time></trkpt><trkpt lat="33.26313" lon="9.2452383"><ele>99.75</ele><time>2026-04-22T15:39:41.81Z</time></trkpt><trkpt lat="33.2630317" lon="9.245345"><ele>99.5</ele><time>2026-04-22T15:39:42.81Z</time></trkpt><trkpt lat="33.262935" lon="9.24545"><ele>99.25</ele><time>2026-04-22T15:39:43.81Z</time></trkpt><trkpt lat="33.2628233" lon="9.2455533"><ele>99.0</ele><time>2026-04-22T15:39:44.81Z</time></trkpt><trkpt lat="33.2627117" lon="9.2456567"><ele>99.0</ele><time>2026-04-22T15:39:45.81Z</time></trkpt><trkpt lat="33.2626083" lon="9.2457683"><ele>99.0</ele><time>2026-04-22T15:39:46.81Z</time></trkpt><trkpt lat="33.262505" lon="9.2458717"><ele>99.0</ele><time>2026-04-22T15:39:47.81Z</time></trkpt><trkpt lat="33.2624017" lon="9.24598"><ele>99.0</ele><time>2026-04-22T15:39:48.81Z</time></trkpt><trkpt lat="33.262295" lon="9.2460867"><ele>99.0</ele><time>2026-04-22T15:39:49.811Z</time></trkpt><trkpt lat="33.262185" lon="9.24619"><ele>99.0</ele><time>2026-04-22T15:39:50.81Z</time></trkpt><trkpt lat="33.2620783" lon="9.2462917"><ele>99.0</ele><time>2026-04-22T15:39:51.811Z</time></trkpt><trkpt lat="33.261985" lon="9.24639"><ele>99.0</ele><time>2026-04-22T15:39:52.81Z</time></trkpt><trkpt lat="33.2618933" lon="9.2464867"><ele>99.0</ele><time>2026-04-22T15:39:53.81Z</time></trkpt><trkpt lat="33.2618033" lon="9.2465817"><ele>99.0</ele><time>2026-04-22T15:39:54.81Z</time></trkpt><trkpt lat="33.26172" lon="9.24667"><ele>99.0</ele><time>2026-04-22T15:39:55.81Z</time></trkpt><trkpt lat="33.2616433" lon="9.2467483"><ele>99.0</ele><time>2026-04-22T15:39:56.81Z</time></trkpt><trkpt lat="33.2615683" lon="9.2468233"><ele>99.0</ele><time>2026-04-22T15:39:57.81Z</time></trkpt><trkpt lat="33.2615083" lon="9.2469"><ele>99.0</ele><time>2026-04-22T15:39:58.81Z</time></trkpt><trkpt lat="33.2614583" lon="9.246965"><ele>99.0</ele><time>2026-04-22T15:39:59.81Z</time></trkpt><trkpt lat="33.2614167" lon="9.2470283"><ele>99.0</ele><time>2026-04-22T15:40:00.811Z</time></trkpt><trkpt lat="33.2613583" lon="9.2471117"><ele>99.0</ele><time>2026-04-22T15:40:02.811Z</time></trkpt><trkpt lat="33.26129" lon="9.24711"><ele>99.0</ele><time>2026-04-22T15:43:02.81Z</time></trkpt><trkpt lat="33.261245" lon="9.2471633"><ele>99.0</ele><time>2026-04-22T15:43:06.809Z</time></trkpt><trkpt lat="33.2613083" lon="9.24714"><ele>99.0</ele><time>2026-04-22T15:43:09.809Z</time></trkpt><trkpt lat="33.2613733" lon="9.24711"><ele>99.0</ele><time>2026-04-22T15:43:14.809Z</time></trkpt><trkpt lat="33.2614367" lon="9.2471"><ele>99.0</ele><time>2026-04-22T16:06:00.8Z</time></trkpt><trkpt lat="33.2615267" lon="9.2470133"><ele>99.0</ele><time>2026-04-22T16:06:02.8Z</time></trkpt><trkpt lat="33.2615833" lon="9.246955"><ele>99.0</ele><time>2026-04-22T16:06:03.8Z</time></trkpt><trkpt lat="33.2616383" lon="9.2468917"><ele>99.0</ele><time>2026-04-22T16:06:04.8Z</time></trkpt><trkpt lat="33.2616983" lon="9.24682"><ele>99.0</ele><time>2026-04-22T16:06:05.8Z</time></trkpt><trkpt lat="33.26176" lon="9.2467483"><ele>99.0</ele><time>2026-04-22T16:06:06.8Z</time></trkpt><trkpt lat="33.2618333" lon="9.246665"><ele>99.0</ele><time>2026-04-22T16:06:07.8Z</time></trkpt><trkpt lat="33.2619133" lon="9.2465833"><ele>99.0</ele><time>2026-04-22T16:06:08.8Z</time></trkpt><trkpt lat="33.2619983" lon="9.2464983"><ele>99.0</ele><time>2026-04-22T16:06:09.8Z</time></trkpt><trkpt lat="33.2620867" lon="9.24641"><ele>99.0</ele><time>2026-04-22T16:06:10.8Z</time></trkpt><trkpt lat="33.26218" lon="9.246315"><ele>99.0</ele><time>2026-04-22T16:06:11.801Z</time></trkpt><trkpt lat="33.2622767" lon="9.246205"><ele>99.0</ele><time>2026-04-22T16:06:12.8Z</time></trkpt><trkpt lat="33.2623783" lon="9.2460867"><ele>99.0</ele><time>2026-04-22T16:06:13.8Z</time></trkpt><trkpt lat="33.262485" lon="9.245975"><ele>99.0</ele><time>2026-04-22T16:06:14.8Z</time></trkpt><trkpt lat="33.2626" lon="9.2458717"><ele>99.0</ele><time>2026-04-22T16:06:15.8Z</time></trkpt><trkpt lat="33.2627083" lon="9.2457533"><ele>99.0</ele><time>2026-04-22T16:06:16.8Z</time></trkpt><trkpt lat="33.262825" lon="9.245635"><ele>99.0</ele><time>2026-04-22T16:06:17.8Z</time></trkpt><trkpt lat="33.2629433" lon="9.2455167"><ele>99.33333333333334</ele><time>2026-04-22T16:06:18.8Z</time></trkpt><trkpt lat="33.26307" lon="9.2453917"><ele>99.66666666666667</ele><time>2026-04-22T16:06:19.8Z</time></trkpt><trkpt lat="33.2632" lon="9.2452633"><ele>100.0</ele><time>2026-04-22T16:06:20.8Z</time></trkpt><trkpt lat="33.2633283" lon="9.2451183"><ele>100.0</ele><time>2026-04-22T16:06:21.8Z</time></trkpt><trkpt lat="33.2634667" lon="9.2449817"><ele>100.0</ele><time>2026-04-22T16:06:22.8Z</time></trkpt><trkpt lat="33.2636033" lon="9.2448517"><ele>100.0</ele><time>2026-04-22T16:06:23.8Z</time></trkpt><trkpt lat="33.2637383" lon="9.2447183"><ele>100.0</ele><time>2026-04-22T16:06:24.8Z</time></trkpt><trkpt lat="33.26388" lon="9.2445733"><ele>100.0</ele><time>2026-04-22T16:06:25.8Z</time></trkpt><trkpt lat="33.2640233" lon="9.24442"><ele>100.0</ele><time>2026-04-22T16:06:26.8Z</time></trkpt><trkpt lat="33.2641667" lon="9.2442717"><ele>100.0</ele><time>2026-04-22T16:06:27.8Z</time></trkpt><trkpt lat="33.2643083" lon="9.2441167"><ele>100.0</ele><time>2026-04-22T16:06:28.8Z</time></trkpt><trkpt lat="33.264455" lon="9.2439717"><ele>100.0</ele><time>2026-04-22T16:06:29.8Z</time></trkpt><trkpt lat="33.2646" lon="9.2438267"><ele>100.0</ele><time>2026-04-22T16:06:30.8Z</time></trkpt><trkpt lat="33.2647467" lon="9.24368"><ele>100.0</ele><time>2026-04-22T16:06:31.801Z</time></trkpt><trkpt lat="33.26489" lon="9.2435317"><ele>100.0</ele><time>2026-04-22T16:06:32.8Z</time></trkpt><trkpt lat="33.265035" lon="9.243395"><ele>100.0</ele><time>2026-04-22T16:06:33.8Z</time></trkpt><trkpt lat="33.265185" lon="9.2432433"><ele>100.0</ele><time>2026-04-22T16:06:34.8Z</time></trkpt><trkpt lat="33.2653367" lon="9.243095"><ele>100.0</ele><time>2026-04-22T16:06:35.8Z</time></trkpt><trkpt lat="33.2654883" lon="9.242945"><ele>100.0</ele><time>2026-04-22T16:06:36.8Z</time></trkpt><trkpt lat="33.2656367" lon="9.2428033"><ele>100.0</ele><time>2026-04-22T16:06:37.8Z</time></trkpt><trkpt lat="33.2657883" lon="9.2426417"><ele>100.0</ele><time>2026-04-22T16:06:38.8Z</time></trkpt><trkpt lat="33.2659433" lon="9.2424817"><ele>100.0</ele><time>2026-04-22T16:06:39.8Z</time></trkpt><trkpt lat="33.2661" lon="9.2423133"><ele>100.0</ele><time>2026-04-22T16:06:40.8Z</time></trkpt><trkpt lat="33.26626" lon="9.2421533"><ele>100.0</ele><time>2026-04-22T16:06:41.8Z</time></trkpt><trkpt lat="33.2664167" lon="9.2419983"><ele>101.33333333333334</ele><time>2026-04-22T16:06:42.8Z</time></trkpt><trkpt lat="33.266575" lon="9.24184"><ele>102.66666666666666</ele><time>2026-04-22T16:06:43.801Z</time></trkpt><trkpt lat="33.2667367" lon="9.2416717"><ele>104.0</ele><time>2026-04-22T16:06:44.8Z</time></trkpt><trkpt lat="33.26691" lon="9.2415"><ele>102.33333333333333</ele><time>2026-04-22T16:06:45.8Z</time></trkpt><trkpt lat="33.2670817" lon="9.2413383"><ele>100.66666666666666</ele><time>2026-04-22T16:06:46.8Z</time></trkpt><trkpt lat="33.2672433" lon="9.2411683"><ele>99.0</ele><time>2026-04-22T16:06:47.8Z</time></trkpt><trkpt lat="33.26741" lon="9.2409917"><ele>98.66666666666666</ele><time>2026-04-22T16:06:48.8Z</time></trkpt><trkpt lat="33.2675783" lon="9.2408233"><ele>98.33333333333333</ele><time>2026-04-22T16:06:49.801Z</time></trkpt><trkpt lat="33.2677467" lon="9.24066"><ele>98.0</ele><time>2026-04-22T16:06:50.8Z</time></trkpt><trkpt lat="33.2679117" lon="9.2404933"><ele>97.66666666666666</ele><time>2026-04-22T16:06:51.8Z</time></trkpt><trkpt lat="33.2680783" lon="9.240325"><ele>97.33333333333334</ele><time>2026-04-22T16:06:52.8Z</time></trkpt><trkpt lat="33.2682467" lon="9.240155"><ele>97.0</ele><time>2026-04-22T16:06:53.8Z</time></trkpt><trkpt lat="33.268425" lon="9.2399883"><ele>98.0</ele><time>2026-04-22T16:06:54.8Z</time></trkpt><trkpt lat="33.2685983" lon="9.239815"><ele>99.0</ele><time>2026-04-22T16:06:55.8Z</time></trkpt><trkpt lat="33.26877" lon="9.23964"><ele>99.0</ele><time>2026-04-22T16:06:56.8Z</time></trkpt><trkpt lat="33.26894" lon="9.2394583"><ele>99.0</ele><time>2026-04-22T16:06:57.8Z</time></trkpt><trkpt lat="33.26911" lon="9.2392883"><ele>99.0</ele><time>2026-04-22T16:06:58.8Z</time></trkpt><trkpt lat="33.2692833" lon="9.23911"><ele>99.0</ele><time>2026-04-22T16:06:59.8Z</time></trkpt><trkpt lat="33.2694567" lon="9.2389333"><ele>99.0</ele><time>2026-04-22T16:07:00.8Z</time></trkpt><trkpt lat="33.2696233" lon="9.2387617"><ele>99.0</ele><time>2026-04-22T16:07:01.8Z</time></trkpt><trkpt lat="33.2697933" lon="9.23859"><ele>99.0</ele><time>2026-04-22T16:07:02.8Z</time></trkpt><trkpt lat="33.26997" lon="9.23842"><ele>99.0</ele><time>2026-04-22T16:07:03.8Z</time></trkpt><trkpt lat="33.2701433" lon="9.2382433"><ele>99.0</ele><time>2026-04-22T16:07:04.8Z</time></trkpt><trkpt lat="33.2703167" lon="9.23806"><ele>99.0</ele><time>2026-04-22T16:07:05.8Z</time></trkpt><trkpt lat="33.2704917" lon="9.2378867"><ele>99.0</ele><time>2026-04-22T16:07:06.8Z</time></trkpt><trkpt lat="33.2706633" lon="9.23772"><ele>99.0</ele><time>2026-04-22T16:07:07.801Z</time></trkpt><trkpt lat="33.2708417" lon="9.2375383"><ele>98.5</ele><time>2026-04-22T16:07:08.8Z</time></trkpt><trkpt lat="33.271015" lon="9.23735"><ele>98.0</ele><time>2026-04-22T16:07:09.8Z</time></trkpt><trkpt lat="33.2711933" lon="9.237165"><ele>98.0</ele><time>2026-04-22T16:07:10.801Z</time></trkpt><trkpt lat="33.2713717" lon="9.23699"><ele>98.0</ele><time>2026-04-22T16:07:11.8Z</time></trkpt><trkpt lat="33.2715483" lon="9.236815"><ele>97.5</ele><time>2026-04-22T16:07:12.8Z</time></trkpt><trkpt lat="33.2717233" lon="9.2366283"><ele>97.0</ele><time>2026-04-22T16:07:13.8Z</time></trkpt><trkpt lat="33.2718983" lon="9.236445"><ele>97.0</ele><time>2026-04-22T16:07:14.801Z</time></trkpt><trkpt lat="33.272065" lon="9.23628"><ele>97.0</ele><time>2026-04-22T16:07:15.8Z</time></trkpt><trkpt lat="33.27223" lon="9.2361217"><ele>97.0</ele><time>2026-04-22T16:07:16.8Z</time></trkpt><trkpt lat="33.27239" lon="9.23598"><ele>97.0</ele><time>2026-04-22T16:07:17.8Z</time></trkpt><trkpt lat="33.272555" lon="9.23582"><ele>97.0</ele><time>2026-04-22T16:07:18.8Z</time></trkpt><trkpt lat="33.272715" lon="9.2356617"><ele>97.0</ele><time>2026-04-22T16:07:19.8Z</time></trkpt><trkpt lat="33.2728783" lon="9.235485"><ele>97.0</ele><time>2026-04-22T16:07:20.8Z</time></trkpt><trkpt lat="33.2730417" lon="9.2353183"><ele>97.0</ele><time>2026-04-22T16:07:21.8Z</time></trkpt><trkpt lat="33.273195" lon="9.23516"><ele>97.0</ele><time>2026-04-22T16:07:22.8Z</time></trkpt><trkpt lat="33.2733433" lon="9.235015"><ele>97.0</ele><time>2026-04-22T16:07:23.8Z</time></trkpt><trkpt lat="33.2734817" lon="9.2348717"><ele>97.0</ele><time>2026-04-22T16:07:24.801Z</time></trkpt><trkpt lat="33.27362" lon="9.2347267"><ele>97.0</ele><time>2026-04-22T16:07:25.8Z</time></trkpt><trkpt lat="33.2737567" lon="9.2345817"><ele>97.0</ele><time>2026-04-22T16:07:26.8Z</time></trkpt><trkpt lat="33.2738917" lon="9.2344383"><ele>97.0</ele><time>2026-04-22T16:07:27.8Z</time></trkpt><trkpt lat="33.27403" lon="9.234285"><ele>97.0</ele><time>2026-04-22T16:07:28.8Z</time></trkpt><trkpt lat="33.2741667" lon="9.2341283"><ele>96.66666666666667</ele><time>2026-04-22T16:07:29.8Z</time></trkpt><trkpt lat="33.2743033" lon="9.2339717"><ele>96.33333333333334</ele><time>2026-04-22T16:07:30.8Z</time></trkpt><trkpt lat="33.27444" lon="9.2338033"><ele>96.0</ele><time>2026-04-22T16:07:31.8Z</time></trkpt><trkpt lat="33.2745817" lon="9.2336367"><ele>96.0</ele><time>2026-04-22T16:07:32.8Z</time></trkpt><trkpt lat="33.2747233" lon="9.23347"><ele>96.0</ele><time>2026-04-22T16:07:33.8Z</time></trkpt><trkpt lat="33.2748633" lon="9.233295"><ele>96.0</ele><time>2026-04-22T16:07:34.8Z</time></trkpt><trkpt lat="33.27501" lon="9.2330983"><ele>96.66666666666666</ele><time>2026-04-22T16:07:35.8Z</time></trkpt><trkpt lat="33.27516" lon="9.2329083"><ele>97.33333333333333</ele><time>2026-04-22T16:07:36.801Z</time></trkpt><trkpt lat="33.2753083" lon="9.2327183"><ele>98.0</ele><time>2026-04-22T16:07:37.8Z</time></trkpt><trkpt lat="33.2754617" lon="9.2325217"><ele>98.0</ele><time>2026-04-22T16:07:38.8Z</time></trkpt><trkpt lat="33.275605" lon="9.2323317"><ele>98.0</ele><time>2026-04-22T16:07:39.8Z</time></trkpt><trkpt lat="33.2757433" lon="9.2321367"><ele>98.0</ele><time>2026-04-22T16:07:40.8Z</time></trkpt><trkpt lat="33.2758817" lon="9.2319433"><ele>98.0</ele><time>2026-04-22T16:07:41.8Z</time></trkpt><trkpt lat="33.276025" lon="9.2317467"><ele>98.0</ele><time>2026-04-22T16:07:42.801Z</time></trkpt><trkpt lat="33.2761633" lon="9.23155"><ele>98.0</ele><time>2026-04-22T16:07:43.801Z</time></trkpt><trkpt lat="33.2763067" lon="9.2313433"><ele>97.66666666666666</ele><time>2026-04-22T16:07:44.8Z</time></trkpt><trkpt lat="33.2764433" lon="9.231135"><ele>97.33333333333334</ele><time>2026-04-22T16:07:45.8Z</time></trkpt><trkpt lat="33.2765783" lon="9.2309367"><ele>97.0</ele><time>2026-04-22T16:07:46.8Z</time></trkpt><trkpt lat="33.2767167" lon="9.230735"><ele>97.0</ele><time>2026-04-22T16:07:47.8Z</time></trkpt><trkpt lat="33.2768567" lon="9.2305217"><ele>97.0</ele><time>2026-04-22T16:07:48.8Z</time></trkpt><trkpt lat="33.27699" lon="9.2303117"><ele>97.0</ele><time>2026-04-22T16:07:49.8Z</time></trkpt><trkpt lat="33.2771217" lon="9.2301067"><ele>97.0</ele><time>2026-04-22T16:07:50.8Z</time></trkpt><trkpt lat="33.27726" lon="9.2299"><ele>97.0</ele><time>2026-04-22T16:07:51.8Z</time></trkpt><trkpt lat="33.2773967" lon="9.229685"><ele>97.0</ele><time>2026-04-22T16:07:52.8Z</time></trkpt><trkpt lat="33.27753" lon="9.2294783"><ele>97.0</ele><time>2026-04-22T16:07:53.8Z</time></trkpt><trkpt lat="33.2776633" lon="9.2292817"><ele>97.0</ele><time>2026-04-22T16:07:54.8Z</time></trkpt><trkpt lat="33.277795" lon="9.229075"><ele>97.0</ele><time>2026-04-22T16:07:55.8Z</time></trkpt><trkpt lat="33.2779233" lon="9.2288733"><ele>96.66666666666667</ele><time>2026-04-22T16:07:56.8Z</time></trkpt><trkpt lat="33.27805" lon="9.2286683"><ele>96.33333333333334</ele><time>2026-04-22T16:07:57.8Z</time></trkpt><trkpt lat="33.2781867" lon="9.228465"><ele>96.0</ele><time>2026-04-22T16:07:58.801Z</time></trkpt><trkpt lat="33.27832" lon="9.2282583"><ele>95.66666666666667</ele><time>2026-04-22T16:07:59.8Z</time></trkpt><trkpt lat="33.2784533" lon="9.2280567"><ele>95.33333333333334</ele><time>2026-04-22T16:08:00.8Z</time></trkpt><trkpt lat="33.2785883" lon="9.2278483"><ele>95.0</ele><time>2026-04-22T16:08:01.8Z</time></trkpt><trkpt lat="33.2787283" lon="9.2276383"><ele>95.0</ele><time>2026-04-22T16:08:02.8Z</time></trkpt><trkpt lat="33.2788633" lon="9.2274283"><ele>95.0</ele><time>2026-04-22T16:08:03.8Z</time></trkpt><trkpt lat="33.2790067" lon="9.2272233"><ele>95.0</ele><time>2026-04-22T16:08:04.8Z</time></trkpt><trkpt lat="33.2791433" lon="9.227015"><ele>93.5</ele><time>2026-04-22T16:08:05.8Z</time></trkpt><trkpt lat="33.27929" lon="9.2268067"><ele>92.0</ele><time>2026-04-22T16:08:06.8Z</time></trkpt><trkpt lat="33.2794317" lon="9.22659"><ele>93.0</ele><time>2026-04-22T16:08:07.8Z</time></trkpt><trkpt lat="33.279565" lon="9.2263733"><ele>94.0</ele><time>2026-04-22T16:08:08.8Z</time></trkpt><trkpt lat="33.2796967" lon="9.2261483"><ele>93.66666666666666</ele><time>2026-04-22T16:08:09.8Z</time></trkpt><trkpt lat="33.2798317" lon="9.2259367"><ele>93.33333333333333</ele><time>2026-04-22T16:08:10.8Z</time></trkpt><trkpt lat="33.2799517" lon="9.2257167"><ele>93.0</ele><time>2026-04-22T16:08:11.8Z</time></trkpt><trkpt lat="33.28008" lon="9.2254983"><ele>92.33333333333333</ele><time>2026-04-22T16:08:12.801Z</time></trkpt><trkpt lat="33.2802083" lon="9.2252733"><ele>91.66666666666666</ele><time>2026-04-22T16:08:13.801Z</time></trkpt><trkpt lat="33.2803417" lon="9.2250617"><ele>91.0</ele><time>2026-04-22T16:08:14.801Z</time></trkpt><trkpt lat="33.2804733" lon="9.2248467"><ele>90.0</ele><time>2026-04-22T16:08:15.8Z</time></trkpt><trkpt lat="33.2806117" lon="9.2246383"><ele>89.0</ele><time>2026-04-22T16:08:16.8Z</time></trkpt><trkpt lat="33.280755" lon="9.224425"><ele>89.0</ele><time>2026-04-22T16:08:17.8Z</time></trkpt><trkpt lat="33.280905" lon="9.22422"><ele>89.0</ele><time>2026-04-22T16:08:18.8Z</time></trkpt><trkpt lat="33.2810533" lon="9.2240183"><ele>89.33333333333334</ele><time>2026-04-22T16:08:19.8Z</time></trkpt><trkpt lat="33.281205" lon="9.2238267"><ele>89.66666666666667</ele><time>2026-04-22T16:08:20.8Z</time></trkpt><trkpt lat="33.2813617" lon="9.22363"><ele>90.0</ele><time>2026-04-22T16:08:21.8Z</time></trkpt><trkpt lat="33.281515" lon="9.2234367"><ele>90.0</ele><time>2026-04-22T16:08:22.8Z</time></trkpt><trkpt lat="33.2816733" lon="9.2232467"><ele>90.0</ele><time>2026-04-22T16:08:23.8Z</time></trkpt><trkpt lat="33.2818383" lon="9.2230583"><ele>90.33333333333333</ele><time>2026-04-22T16:08:24.8Z</time></trkpt><trkpt lat="33.2819983" lon="9.2228733"><ele>90.66666666666666</ele><time>2026-04-22T16:08:25.8Z</time></trkpt><trkpt lat="33.2821583" lon="9.222685"><ele>91.0</ele><time>2026-04-22T16:08:26.8Z</time></trkpt><trkpt lat="33.282315" lon="9.222485"><ele>91.0</ele><time>2026-04-22T16:08:27.8Z</time></trkpt><trkpt lat="33.28248" lon="9.2223067"><ele>91.0</ele><time>2026-04-22T16:08:28.8Z</time></trkpt><trkpt lat="33.2826367" lon="9.2221167"><ele>91.0</ele><time>2026-04-22T16:08:29.8Z</time></trkpt><trkpt lat="33.2827967" lon="9.2219283"><ele>91.0</ele><time>2026-04-22T16:08:30.8Z</time></trkpt><trkpt lat="33.2829533" lon="9.22174"><ele>91.0</ele><time>2026-04-22T16:08:31.8Z</time></trkpt><trkpt lat="33.2831167" lon="9.2215533"><ele>91.0</ele><time>2026-04-22T16:08:32.801Z</time></trkpt><trkpt lat="33.2832783" lon="9.2213617"><ele>91.0</ele><time>2026-04-22T16:08:33.801Z</time></trkpt><trkpt lat="33.2834367" lon="9.2211733"><ele>91.0</ele><time>2026-04-22T16:08:34.8Z</time></trkpt><trkpt lat="33.2835983" lon="9.220985"><ele>91.0</ele><time>2026-04-22T16:08:35.8Z</time></trkpt><trkpt lat="33.2837567" lon="9.2207967"><ele>91.0</ele><time>2026-04-22T16:08:36.8Z</time></trkpt><trkpt lat="33.2839167" lon="9.2206033"><ele>91.0</ele><time>2026-04-22T16:08:37.8Z</time></trkpt><trkpt lat="33.2840733" lon="9.2204117"><ele>91.66666666666666</ele><time>2026-04-22T16:08:38.8Z</time></trkpt><trkpt lat="33.284235" lon="9.2202267"><ele>92.33333333333333</ele><time>2026-04-22T16:08:39.801Z</time></trkpt><trkpt lat="33.2843933" lon="9.220035"><ele>93.0</ele><time>2026-04-22T16:08:40.8Z</time></trkpt><trkpt lat="33.284545" lon="9.219845"><ele>92.66666666666667</ele><time>2026-04-22T16:08:41.8Z</time></trkpt><trkpt lat="33.2847" lon="9.2196567"><ele>92.33333333333334</ele><time>2026-04-22T16:08:42.799Z</time></trkpt><trkpt lat="33.2848567" lon="9.2194733"><ele>92.0</ele><time>2026-04-22T16:08:43.799Z</time></trkpt><trkpt lat="33.2850117" lon="9.2192867"><ele>91.66666666666667</ele><time>2026-04-22T16:08:44.799Z</time></trkpt><trkpt lat="33.285175" lon="9.219105"><ele>91.33333333333333</ele><time>2026-04-22T16:08:45.799Z</time></trkpt><trkpt lat="33.2853317" lon="9.2189233"><ele>91.0</ele><time>2026-04-22T16:08:46.799Z</time></trkpt><trkpt lat="33.28549" lon="9.21874"><ele>90.33333333333333</ele><time>2026-04-22T16:08:47.799Z</time></trkpt><trkpt lat="33.2856467" lon="9.21856"><ele>89.66666666666667</ele><time>2026-04-22T16:08:48.799Z</time></trkpt><trkpt lat="33.285805" lon="9.2183867"><ele>89.0</ele><time>2026-04-22T16:08:49.799Z</time></trkpt><trkpt lat="33.285965" lon="9.2182183"><ele>89.0</ele><time>2026-04-22T16:08:50.8Z</time></trkpt><trkpt lat="33.2861233" lon="9.2180483"><ele>89.0</ele><time>2026-04-22T16:08:51.799Z</time></trkpt><trkpt lat="33.2862917" lon="9.21788"><ele>89.0</ele><time>2026-04-22T16:08:52.799Z</time></trkpt><trkpt lat="33.2864567" lon="9.2177"><ele>90.0</ele><time>2026-04-22T16:08:53.799Z</time></trkpt><trkpt lat="33.2866233" lon="9.21753"><ele>91.0</ele><time>2026-04-22T16:08:54.799Z</time></trkpt><trkpt lat="33.2867833" lon="9.2173483"><ele>92.0</ele><time>2026-04-22T16:08:55.799Z</time></trkpt><trkpt lat="33.2869467" lon="9.217165"><ele>92.0</ele><time>2026-04-22T16:08:56.799Z</time></trkpt><trkpt lat="33.287115" lon="9.2169833"><ele>92.0</ele><time>2026-04-22T16:08:57.799Z</time></trkpt><trkpt lat="33.287285" lon="9.21681"><ele>92.0</ele><time>2026-04-22T16:08:58.799Z</time></trkpt><trkpt lat="33.28745" lon="9.2166283"><ele>92.0</ele><time>2026-04-22T16:08:59.799Z</time></trkpt><trkpt lat="33.2876133" lon="9.216455"><ele>92.0</ele><time>2026-04-22T16:09:00.799Z</time></trkpt><trkpt lat="33.287775" lon="9.2162667"><ele>92.33333333333334</ele><time>2026-04-22T16:09:01.799Z</time></trkpt><trkpt lat="33.287945" lon="9.2160883"><ele>92.66666666666667</ele><time>2026-04-22T16:09:02.799Z</time></trkpt><trkpt lat="33.2881133" lon="9.2159133"><ele>93.0</ele><time>2026-04-22T16:09:03.799Z</time></trkpt><trkpt lat="33.288285" lon="9.2157433"><ele>92.0</ele><time>2026-04-22T16:09:04.799Z</time></trkpt><trkpt lat="33.2884533" lon="9.2155683"><ele>91.0</ele><time>2026-04-22T16:09:05.799Z</time></trkpt><trkpt lat="33.288625" lon="9.2153833"><ele>91.0</ele><time>2026-04-22T16:09:06.799Z</time></trkpt><trkpt lat="33.2887967" lon="9.2152"><ele>91.0</ele><time>2026-04-22T16:09:07.799Z</time></trkpt><trkpt lat="33.288965" lon="9.2150167"><ele>91.0</ele><time>2026-04-22T16:09:08.799Z</time></trkpt><trkpt lat="33.2891317" lon="9.2148383"><ele>91.0</ele><time>2026-04-22T16:09:09.799Z</time></trkpt><trkpt lat="33.2892967" lon="9.2146617"><ele>91.0</ele><time>2026-04-22T16:09:10.799Z</time></trkpt><trkpt lat="33.2894667" lon="9.2144883"><ele>90.5</ele><time>2026-04-22T16:09:11.799Z</time></trkpt><trkpt lat="33.289635" lon="9.2143083"><ele>90.0</ele><time>2026-04-22T16:09:12.799Z</time></trkpt><trkpt lat="33.2898117" lon="9.214135"><ele>90.33333333333333</ele><time>2026-04-22T16:09:13.799Z</time></trkpt><trkpt lat="33.28998" lon="9.21396"><ele>90.66666666666666</ele><time>2026-04-22T16:09:14.799Z</time></trkpt><trkpt lat="33.2901517" lon="9.213785"><ele>91.0</ele><time>2026-04-22T16:09:15.799Z</time></trkpt><trkpt lat="33.2903183" lon="9.2136117"><ele>91.0</ele><time>2026-04-22T16:09:16.8Z</time></trkpt><trkpt lat="33.290495" lon="9.21345"><ele>91.0</ele><time>2026-04-22T16:09:17.799Z</time></trkpt><trkpt lat="33.290665" lon="9.2132833"><ele>91.0</ele><time>2026-04-22T16:09:18.799Z</time></trkpt><trkpt lat="33.2908483" lon="9.213125"><ele>91.33333333333333</ele><time>2026-04-22T16:09:19.799Z</time></trkpt><trkpt lat="33.2910183" lon="9.2129567"><ele>91.66666666666667</ele><time>2026-04-22T16:09:20.799Z</time></trkpt><trkpt lat="33.29119" lon="9.21279"><ele>92.0</ele><time>2026-04-22T16:09:21.799Z</time></trkpt><trkpt lat="33.2913667" lon="9.2126183"><ele>91.66666666666667</ele><time>2026-04-22T16:09:22.799Z</time></trkpt><trkpt lat="33.29154" lon="9.212465"><ele>91.33333333333333</ele><time>2026-04-22T16:09:23.799Z</time></trkpt><trkpt lat="33.2917117" lon="9.2123017"><ele>91.0</ele><time>2026-04-22T16:09:24.8Z</time></trkpt><trkpt lat="33.2918917" lon="9.2121333"><ele>91.0</ele><time>2026-04-22T16:09:25.799Z</time></trkpt><trkpt lat="33.29206" lon="9.2119667"><ele>91.0</ele><time>2026-04-22T16:09:26.799Z</time></trkpt><trkpt lat="33.2922367" lon="9.2118017"><ele>91.0</ele><time>2026-04-22T16:09:27.799Z</time></trkpt><trkpt lat="33.2924167" lon="9.2116383"><ele>92.0</ele><time>2026-04-22T16:09:28.799Z</time></trkpt><trkpt lat="33.2925917" lon="9.2114633"><ele>93.0</ele><time>2026-04-22T16:09:29.799Z</time></trkpt><trkpt lat="33.29277" lon="9.2113"><ele>93.0</ele><time>2026-04-22T16:09:30.799Z</time></trkpt><trkpt lat="33.292945" lon="9.2111433"><ele>93.0</ele><time>2026-04-22T16:09:31.799Z</time></trkpt><trkpt lat="33.2931233" lon="9.2109817"><ele>93.0</ele><time>2026-04-22T16:09:32.799Z</time></trkpt><trkpt lat="33.2933167" lon="9.2108283"><ele>93.66666666666667</ele><time>2026-04-22T16:09:33.799Z</time></trkpt><trkpt lat="33.2934967" lon="9.2106717"><ele>94.33333333333334</ele><time>2026-04-22T16:09:34.799Z</time></trkpt><trkpt lat="33.29367" lon="9.2105083"><ele>95.0</ele><time>2026-04-22T16:09:35.799Z</time></trkpt><trkpt lat="33.2938467" lon="9.2103533"><ele>95.0</ele><time>2026-04-22T16:09:36.799Z</time></trkpt><trkpt lat="33.2940217" lon="9.2101933"><ele>95.0</ele><time>2026-04-22T16:09:37.799Z</time></trkpt><trkpt lat="33.2942017" lon="9.21003"><ele>95.0</ele><time>2026-04-22T16:09:38.799Z</time></trkpt><trkpt lat="33.2943817" lon="9.2098767"><ele>95.66666666666667</ele><time>2026-04-22T16:09:39.799Z</time></trkpt><trkpt lat="33.2945617" lon="9.2097133"><ele>96.33333333333334</ele><time>2026-04-22T16:09:40.799Z</time></trkpt><trkpt lat="33.29474" lon="9.2095583"><ele>97.0</ele><time>2026-04-22T16:09:41.799Z</time></trkpt><trkpt lat="33.294925" lon="9.2094017"><ele>97.33333333333334</ele><time>2026-04-22T16:09:42.799Z</time></trkpt><trkpt lat="33.29511" lon="9.2092533"><ele>97.66666666666666</ele><time>2026-04-22T16:09:43.799Z</time></trkpt><trkpt lat="33.2952867" lon="9.209095"><ele>98.0</ele><time>2026-04-22T16:09:44.799Z</time></trkpt><trkpt lat="33.2954567" lon="9.20894"><ele>97.0</ele><time>2026-04-22T16:09:45.799Z</time></trkpt><trkpt lat="33.2956317" lon="9.20879"><ele>96.0</ele><time>2026-04-22T16:09:46.799Z</time></trkpt><trkpt lat="33.2958033" lon="9.2086417"><ele>95.0</ele><time>2026-04-22T16:09:47.799Z</time></trkpt><trkpt lat="33.2959883" lon="9.2085"><ele>95.0</ele><time>2026-04-22T16:09:48.799Z</time></trkpt><trkpt lat="33.2961767" lon="9.2083383"><ele>95.0</ele><time>2026-04-22T16:09:49.799Z</time></trkpt><trkpt lat="33.2963633" lon="9.208185"><ele>94.66666666666667</ele><time>2026-04-22T16:09:50.799Z</time></trkpt><trkpt lat="33.29654" lon="9.20803"><ele>94.33333333333333</ele><time>2026-04-22T16:09:51.799Z</time></trkpt><trkpt lat="33.296725" lon="9.2078817"><ele>94.0</ele><time>2026-04-22T16:09:52.799Z</time></trkpt><trkpt lat="33.2969033" lon="9.2077283"><ele>94.0</ele><time>2026-04-22T16:09:53.799Z</time></trkpt><trkpt lat="33.2970767" lon="9.2075933"><ele>94.0</ele><time>2026-04-22T16:09:54.799Z</time></trkpt><trkpt lat="33.2972533" lon="9.2074633"><ele>94.0</ele><time>2026-04-22T16:09:55.799Z</time></trkpt><trkpt lat="33.297435" lon="9.2073283"><ele>93.66666666666666</ele><time>2026-04-22T16:09:56.799Z</time></trkpt><trkpt lat="33.2976117" lon="9.2071917"><ele>93.33333333333333</ele><time>2026-04-22T16:09:57.799Z</time></trkpt><trkpt lat="33.2977833" lon="9.2070617"><ele>93.0</ele><time>2026-04-22T16:09:58.799Z</time></trkpt><trkpt lat="33.29796" lon="9.2069217"><ele>92.66666666666667</ele><time>2026-04-22T16:09:59.799Z</time></trkpt><trkpt lat="33.2981417" lon="9.206785"><ele>92.33333333333334</ele><time>2026-04-22T16:10:00.8Z</time></trkpt><trkpt lat="33.2983267" lon="9.2066417"><ele>92.0</ele><time>2026-04-22T16:10:01.799Z</time></trkpt><trkpt lat="33.29851" lon="9.20649"><ele>91.66666666666667</ele><time>2026-04-22T16:10:02.799Z</time></trkpt><trkpt lat="33.2986967" lon="9.2063383"><ele>91.33333333333333</ele><time>2026-04-22T16:10:03.799Z</time></trkpt><trkpt lat="33.2988817" lon="9.2061967"><ele>91.0</ele><time>2026-04-22T16:10:04.8Z</time></trkpt><trkpt lat="33.2990683" lon="9.206055"><ele>91.0</ele><time>2026-04-22T16:10:05.799Z</time></trkpt><trkpt lat="33.29926" lon="9.205905"><ele>91.0</ele><time>2026-04-22T16:10:06.799Z</time></trkpt><trkpt lat="33.2994483" lon="9.2057583"><ele>90.66666666666666</ele><time>2026-04-22T16:10:07.8Z</time></trkpt><trkpt lat="33.29963" lon="9.20561"><ele>90.33333333333333</ele><time>2026-04-22T16:10:08.8Z</time></trkpt><trkpt lat="33.299815" lon="9.2054633"><ele>90.0</ele><time>2026-04-22T16:10:09.799Z</time></trkpt><trkpt lat="33.300005" lon="9.2053183"><ele>90.0</ele><time>2026-04-22T16:10:10.799Z</time></trkpt><trkpt lat="33.30019" lon="9.2051767"><ele>90.0</ele><time>2026-04-22T16:10:11.799Z</time></trkpt><trkpt lat="33.3003783" lon="9.2050417"><ele>90.0</ele><time>2026-04-22T16:10:12.799Z</time></trkpt><trkpt lat="33.300565" lon="9.2049017"><ele>89.66666666666667</ele><time>2026-04-22T16:10:13.799Z</time></trkpt><trkpt lat="33.30075" lon="9.20476"><ele>89.33333333333334</ele><time>2026-04-22T16:10:14.799Z</time></trkpt><trkpt lat="33.3009317" lon="9.2046133"><ele>89.0</ele><time>2026-04-22T16:10:15.799Z</time></trkpt><trkpt lat="33.3011183" lon="9.2044567"><ele>89.0</ele><time>2026-04-22T16:10:16.799Z</time></trkpt><trkpt lat="33.3013017" lon="9.20431"><ele>89.0</ele><time>2026-04-22T16:10:17.799Z</time></trkpt><trkpt lat="33.3014833" lon="9.204165"><ele>89.0</ele><time>2026-04-22T16:10:18.799Z</time></trkpt><trkpt lat="33.3016717" lon="9.2040117"><ele>90.0</ele><time>2026-04-22T16:10:19.8Z</time></trkpt><trkpt lat="33.3018633" lon="9.2038583"><ele>91.0</ele><time>2026-04-22T16:10:20.799Z</time></trkpt><trkpt lat="33.30205" lon="9.203705"><ele>91.0</ele><time>2026-04-22T16:10:21.799Z</time></trkpt><trkpt lat="33.3022417" lon="9.2035517"><ele>91.0</ele><time>2026-04-22T16:10:22.799Z</time></trkpt><trkpt lat="33.3024267" lon="9.2034033"><ele>91.5</ele><time>2026-04-22T16:10:23.799Z</time></trkpt><trkpt lat="33.3026167" lon="9.2032567"><ele>92.0</ele><time>2026-04-22T16:10:24.799Z</time></trkpt><trkpt lat="33.3028067" lon="9.203095"><ele>92.0</ele><time>2026-04-22T16:10:25.799Z</time></trkpt><trkpt lat="33.3029967" lon="9.2029433"><ele>92.0</ele><time>2026-04-22T16:10:26.799Z</time></trkpt><trkpt lat="33.30319" lon="9.202795"><ele>92.0</ele><time>2026-04-22T16:10:27.799Z</time></trkpt><trkpt lat="33.3033817" lon="9.202645"><ele>92.0</ele><time>2026-04-22T16:10:28.799Z</time></trkpt><trkpt lat="33.3035717" lon="9.2025033"><ele>92.0</ele><time>2026-04-22T16:10:29.799Z</time></trkpt><trkpt lat="33.30376" lon="9.2023517"><ele>92.0</ele><time>2026-04-22T16:10:30.799Z</time></trkpt><trkpt lat="33.30395" lon="9.2022067"><ele>92.0</ele><time>2026-04-22T16:10:31.799Z</time></trkpt><trkpt lat="33.304135" lon="9.2020617"><ele>92.0</ele><time>2026-04-22T16:10:32.799Z</time></trkpt><trkpt lat="33.304315" lon="9.2019183"><ele>92.0</ele><time>2026-04-22T16:10:33.799Z</time></trkpt><trkpt lat="33.3044983" lon="9.2017617"><ele>92.0</ele><time>2026-04-22T16:10:34.799Z</time></trkpt><trkpt lat="33.3046767" lon="9.2015967"><ele>92.0</ele><time>2026-04-22T16:10:35.799Z</time></trkpt><trkpt lat="33.3048567" lon="9.201435"><ele>91.5</ele><time>2026-04-22T16:10:36.799Z</time></trkpt><trkpt lat="33.30504" lon="9.2012767"><ele>91.0</ele><time>2026-04-22T16:10:37.8Z</time></trkpt><trkpt lat="33.3052217" lon="9.2011117"><ele>91.0</ele><time>2026-04-22T16:10:38.799Z</time></trkpt><trkpt lat="33.3054017" lon="9.2009583"><ele>91.0</ele><time>2026-04-22T16:10:39.799Z</time></trkpt><trkpt lat="33.30559" lon="9.200805"><ele>91.0</ele><time>2026-04-22T16:10:40.799Z</time></trkpt><trkpt lat="33.30578" lon="9.200655"><ele>91.33333333333333</ele><time>2026-04-22T16:10:41.799Z</time></trkpt><trkpt lat="33.305965" lon="9.2005017"><ele>91.66666666666667</ele><time>2026-04-22T16:10:42.8Z</time></trkpt><trkpt lat="33.306145" lon="9.200345"><ele>92.0</ele><time>2026-04-22T16:10:43.799Z</time></trkpt><trkpt lat="33.3063333" lon="9.200195"><ele>91.5</ele><time>2026-04-22T16:10:44.799Z</time></trkpt><trkpt lat="33.306525" lon="9.2000483"><ele>91.0</ele><time>2026-04-22T16:10:45.799Z</time></trkpt><trkpt lat="33.3067133" lon="9.1998967"><ele>91.5</ele><time>2026-04-22T16:10:46.799Z</time></trkpt><trkpt lat="33.306905" lon="9.1997317"><ele>92.0</ele><time>2026-04-22T16:10:47.799Z</time></trkpt><trkpt lat="33.3070983" lon="9.1995733"><ele>92.0</ele><time>2026-04-22T16:10:48.799Z</time></trkpt><trkpt lat="33.3072967" lon="9.1994117"><ele>92.0</ele><time>2026-04-22T16:10:49.8Z</time></trkpt><trkpt lat="33.3074917" lon="9.199255"><ele>92.0</ele><time>2026-04-22T16:10:50.799Z</time></trkpt><trkpt lat="33.3076833" lon="9.1990967"><ele>92.0</ele><time>2026-04-22T16:10:51.799Z</time></trkpt><trkpt lat="33.307875" lon="9.1989383"><ele>92.0</ele><time>2026-04-22T16:10:52.799Z</time></trkpt><trkpt lat="33.3080667" lon="9.1987833"><ele>92.0</ele><time>2026-04-22T16:10:53.799Z</time></trkpt><trkpt lat="33.3082567" lon="9.1986317"><ele>92.0</ele><time>2026-04-22T16:10:54.799Z</time></trkpt><trkpt lat="33.308445" lon="9.19848"><ele>92.0</ele><time>2026-04-22T16:10:55.799Z</time></trkpt><trkpt lat="33.308625" lon="9.1983333"><ele>92.0</ele><time>2026-04-22T16:10:56.799Z</time></trkpt><trkpt lat="33.3088117" lon="9.198175"><ele>93.0</ele><time>2026-04-22T16:10:57.799Z</time></trkpt><trkpt lat="33.308995" lon="9.19802"><ele>94.0</ele><time>2026-04-22T16:10:58.799Z</time></trkpt><trkpt lat="33.3091717" lon="9.1978517"><ele>94.0</ele><time>2026-04-22T16:10:59.799Z</time></trkpt><trkpt lat="33.3093517" lon="9.197675"><ele>94.0</ele><time>2026-04-22T16:11:00.799Z</time></trkpt><trkpt lat="33.3095317" lon="9.1975"><ele>92.5</ele><time>2026-04-22T16:11:01.799Z</time></trkpt><trkpt lat="33.3097117" lon="9.1973283"><ele>91.0</ele><time>2026-04-22T16:11:02.799Z</time></trkpt><trkpt lat="33.309885" lon="9.1971567"><ele>91.0</ele><time>2026-04-22T16:11:03.799Z</time></trkpt><trkpt lat="33.3100633" lon="9.1969867"><ele>91.0</ele><time>2026-04-22T16:11:04.799Z</time></trkpt><trkpt lat="33.310235" lon="9.1968167"><ele>91.0</ele><time>2026-04-22T16:11:05.799Z</time></trkpt><trkpt lat="33.3104067" lon="9.1966467"><ele>91.0</ele><time>2026-04-22T16:11:06.799Z</time></trkpt><trkpt lat="33.3105783" lon="9.19647"><ele>91.0</ele><time>2026-04-22T16:11:07.799Z</time></trkpt><trkpt lat="33.3107517" lon="9.19629"><ele>90.0</ele><time>2026-04-22T16:11:08.8Z</time></trkpt><trkpt lat="33.3109267" lon="9.1960967"><ele>89.0</ele><time>2026-04-22T16:11:09.799Z</time></trkpt><trkpt lat="33.3111" lon="9.1959183"><ele>89.0</ele><time>2026-04-22T16:11:10.799Z</time></trkpt><trkpt lat="33.3112783" lon="9.1957433"><ele>89.0</ele><time>2026-04-22T16:11:11.8Z</time></trkpt><trkpt lat="33.31145" lon="9.1955633"><ele>88.66666666666667</ele><time>2026-04-22T16:11:12.799Z</time></trkpt><trkpt lat="33.3116217" lon="9.195385"><ele>88.33333333333333</ele><time>2026-04-22T16:11:13.799Z</time></trkpt><trkpt lat="33.3117883" lon="9.1952117"><ele>88.0</ele><time>2026-04-22T16:11:14.799Z</time></trkpt><trkpt lat="33.3119617" lon="9.1950317"><ele>88.0</ele><time>2026-04-22T16:11:15.799Z</time></trkpt><trkpt lat="33.31213" lon="9.1948567"><ele>88.0</ele><time>2026-04-22T16:11:16.799Z</time></trkpt><trkpt lat="33.3123017" lon="9.19469"><ele>88.0</ele><time>2026-04-22T16:11:17.799Z</time></trkpt><trkpt lat="33.312475" lon="9.1945183"><ele>89.5</ele><time>2026-04-22T16:11:18.799Z</time></trkpt><trkpt lat="33.3126433" lon="9.1943383"><ele>91.0</ele><time>2026-04-22T16:11:19.799Z</time></trkpt><trkpt lat="33.3128117" lon="9.19416"><ele>90.5</ele><time>2026-04-22T16:11:20.8Z</time></trkpt><trkpt lat="33.3129867" lon="9.193985"><ele>90.0</ele><time>2026-04-22T16:11:21.799Z</time></trkpt><trkpt lat="33.3131667" lon="9.1937983"><ele>91.0</ele><time>2026-04-22T16:11:22.8Z</time></trkpt><trkpt lat="33.3133417" lon="9.1936233"><ele>92.0</ele><time>2026-04-22T16:11:23.799Z</time></trkpt><trkpt lat="33.3135083" lon="9.1934467"><ele>92.0</ele><time>2026-04-22T16:11:24.8Z</time></trkpt><trkpt lat="33.3136783" lon="9.1932733"><ele>92.0</ele><time>2026-04-22T16:11:25.799Z</time></trkpt><trkpt lat="33.3138583" lon="9.193095"><ele>91.5</ele><time>2026-04-22T16:11:26.799Z</time></trkpt><trkpt lat="33.3140417" lon="9.1929167"><ele>91.0</ele><time>2026-04-22T16:11:27.799Z</time></trkpt><trkpt lat="33.3142167" lon="9.1927267"><ele>91.0</ele><time>2026-04-22T16:11:28.799Z</time></trkpt><trkpt lat="33.3144033" lon="9.19254"><ele>91.0</ele><time>2026-04-22T16:11:29.799Z</time></trkpt><trkpt lat="33.3145867" lon="9.1923683"><ele>90.5</ele><time>2026-04-22T16:11:30.799Z</time></trkpt><trkpt lat="33.3147583" lon="9.1921917"><ele>90.0</ele><time>2026-04-22T16:11:31.799Z</time></trkpt><trkpt lat="33.31494" lon="9.1920167"><ele>90.0</ele><time>2026-04-22T16:11:32.799Z</time></trkpt><trkpt lat="33.3151167" lon="9.191835"><ele>90.0</ele><time>2026-04-22T16:11:33.799Z</time></trkpt><trkpt lat="33.3152933" lon="9.1916533"><ele>90.5</ele><time>2026-04-22T16:11:34.799Z</time></trkpt><trkpt lat="33.31546" lon="9.1914633"><ele>91.0</ele><time>2026-04-22T16:11:35.799Z</time></trkpt><trkpt lat="33.31563" lon="9.19128"><ele>91.0</ele><time>2026-04-22T16:11:36.799Z</time></trkpt><trkpt lat="33.3158" lon="9.1911033"><ele>91.0</ele><time>2026-04-22T16:11:37.798Z</time></trkpt><trkpt lat="33.3159733" lon="9.1909217"><ele>91.0</ele><time>2026-04-22T16:11:38.798Z</time></trkpt><trkpt lat="33.316145" lon="9.190735"><ele>91.0</ele><time>2026-04-22T16:11:39.798Z</time></trkpt><trkpt lat="33.316325" lon="9.190555"><ele>91.0</ele><time>2026-04-22T16:11:40.798Z</time></trkpt><trkpt lat="33.3165033" lon="9.1903733"><ele>91.0</ele><time>2026-04-22T16:11:41.798Z</time></trkpt><trkpt lat="33.316675" lon="9.1901933"><ele>91.0</ele><time>2026-04-22T16:11:42.798Z</time></trkpt><trkpt lat="33.3168517" lon="9.19001"><ele>91.0</ele><time>2026-04-22T16:11:43.799Z</time></trkpt><trkpt lat="33.3170233" lon="9.18983"><ele>90.5</ele><time>2026-04-22T16:11:44.798Z</time></trkpt><trkpt lat="33.3171967" lon="9.18965"><ele>90.0</ele><time>2026-04-22T16:11:45.798Z</time></trkpt><trkpt lat="33.31737" lon="9.18947"><ele>90.0</ele><time>2026-04-22T16:11:46.798Z</time></trkpt><trkpt lat="33.317545" lon="9.1892833"><ele>90.0</ele><time>2026-04-22T16:11:47.798Z</time></trkpt><trkpt lat="33.3177217" lon="9.1890967"><ele>90.0</ele><time>2026-04-22T16:11:48.798Z</time></trkpt><trkpt lat="33.3178967" lon="9.1889183"><ele>90.0</ele><time>2026-04-22T16:11:49.798Z</time></trkpt><trkpt lat="33.3180767" lon="9.1887333"><ele>90.5</ele><time>2026-04-22T16:11:50.798Z</time></trkpt><trkpt lat="33.3182533" lon="9.188545"><ele>91.0</ele><time>2026-04-22T16:11:51.798Z</time></trkpt><trkpt lat="33.318435" lon="9.18836"><ele>91.0</ele><time>2026-04-22T16:11:52.798Z</time></trkpt><trkpt lat="33.3186117" lon="9.18818"><ele>91.0</ele><time>2026-04-22T16:11:53.798Z</time></trkpt><trkpt lat="33.31879" lon="9.1879933"><ele>91.0</ele><time>2026-04-22T16:11:54.798Z</time></trkpt><trkpt lat="33.318955" lon="9.18781"><ele>91.0</ele><time>2026-04-22T16:11:55.798Z</time></trkpt><trkpt lat="33.3191367" lon="9.187635"><ele>91.0</ele><time>2026-04-22T16:11:56.798Z</time></trkpt><trkpt lat="33.3193083" lon="9.187455"><ele>91.0</ele><time>2026-04-22T16:11:57.798Z</time></trkpt><trkpt lat="33.319485" lon="9.1872733"><ele>92.0</ele><time>2026-04-22T16:11:58.799Z</time></trkpt><trkpt lat="33.319665" lon="9.1870917"><ele>93.0</ele><time>2026-04-22T16:11:59.798Z</time></trkpt><trkpt lat="33.3198367" lon="9.18691"><ele>93.0</ele><time>2026-04-22T16:12:00.798Z</time></trkpt><trkpt lat="33.3200133" lon="9.1867233"><ele>93.0</ele><time>2026-04-22T16:12:01.798Z</time></trkpt><trkpt lat="33.3201867" lon="9.18654"><ele>93.0</ele><time>2026-04-22T16:12:02.798Z</time></trkpt><trkpt lat="33.320365" lon="9.186365"><ele>93.0</ele><time>2026-04-22T16:12:03.798Z</time></trkpt><trkpt lat="33.3205433" lon="9.1861867"><ele>92.0</ele><time>2026-04-22T16:12:04.798Z</time></trkpt><trkpt lat="33.320715" lon="9.186005"><ele>91.0</ele><time>2026-04-22T16:12:05.799Z</time></trkpt><trkpt lat="33.3208867" lon="9.1858267"><ele>90.0</ele><time>2026-04-22T16:12:06.798Z</time></trkpt><trkpt lat="33.3210583" lon="9.1856417"><ele>89.0</ele><time>2026-04-22T16:12:07.798Z</time></trkpt><trkpt lat="33.3212267" lon="9.185465"><ele>90.0</ele><time>2026-04-22T16:12:08.798Z</time></trkpt><trkpt lat="33.3214" lon="9.1852883"><ele>91.0</ele><time>2026-04-22T16:12:09.798Z</time></trkpt><trkpt lat="33.3215717" lon="9.185115"><ele>91.0</ele><time>2026-04-22T16:12:10.798Z</time></trkpt><trkpt lat="33.3217433" lon="9.1849317"><ele>91.0</ele><time>2026-04-22T16:12:11.798Z</time></trkpt><trkpt lat="33.3219233" lon="9.1847517"><ele>91.0</ele><time>2026-04-22T16:12:12.798Z</time></trkpt><trkpt lat="33.3221" lon="9.18457"><ele>91.0</ele><time>2026-04-22T16:12:13.798Z</time></trkpt><trkpt lat="33.32228" lon="9.184385"><ele>91.5</ele><time>2026-04-22T16:12:14.798Z</time></trkpt><trkpt lat="33.3224567" lon="9.1842"><ele>92.0</ele><time>2026-04-22T16:12:15.798Z</time></trkpt><trkpt lat="33.3226267" lon="9.18402"><ele>90.5</ele><time>2026-04-22T16:12:16.798Z</time></trkpt><trkpt lat="33.3227983" lon="9.1838383"><ele>89.0</ele><time>2026-04-22T16:12:17.798Z</time></trkpt><trkpt lat="33.3229717" lon="9.1836567"><ele>89.0</ele><time>2026-04-22T16:12:18.798Z</time></trkpt><trkpt lat="33.3231583" lon="9.18348"><ele>89.0</ele><time>2026-04-22T16:12:19.798Z</time></trkpt><trkpt lat="33.3233367" lon="9.1832883"><ele>89.0</ele><time>2026-04-22T16:12:20.798Z</time></trkpt><trkpt lat="33.3235167" lon="9.1831"><ele>89.0</ele><time>2026-04-22T16:12:21.798Z</time></trkpt><trkpt lat="33.3236933" lon="9.1829083"><ele>89.0</ele><time>2026-04-22T16:12:22.798Z</time></trkpt><trkpt lat="33.323865" lon="9.18272"><ele>89.0</ele><time>2026-04-22T16:12:23.798Z</time></trkpt><trkpt lat="33.32403" lon="9.1825317"><ele>88.5</ele><time>2026-04-22T16:12:24.798Z</time></trkpt><trkpt lat="33.324205" lon="9.182355"><ele>88.0</ele><time>2026-04-22T16:12:25.798Z</time></trkpt><trkpt lat="33.324375" lon="9.182175"><ele>89.5</ele><time>2026-04-22T16:12:26.798Z</time></trkpt><trkpt lat="33.32455" lon="9.1819933"><ele>91.0</ele><time>2026-04-22T16:12:27.798Z</time></trkpt><trkpt lat="33.3247267" lon="9.181815"><ele>91.0</ele><time>2026-04-22T16:12:28.798Z</time></trkpt><trkpt lat="33.3248983" lon="9.1816317"><ele>91.0</ele><time>2026-04-22T16:12:29.798Z</time></trkpt><trkpt lat="33.3250783" lon="9.1814533"><ele>91.0</ele><time>2026-04-22T16:12:30.798Z</time></trkpt><trkpt lat="33.3252533" lon="9.18127"><ele>91.0</ele><time>2026-04-22T16:12:31.798Z</time></trkpt><trkpt lat="33.3254283" lon="9.1810883"><ele>90.0</ele><time>2026-04-22T16:12:32.798Z</time></trkpt><trkpt lat="33.3256083" lon="9.18091"><ele>89.0</ele><time>2026-04-22T16:12:33.798Z</time></trkpt><trkpt lat="33.32579" lon="9.1807283"><ele>90.0</ele><time>2026-04-22T16:12:34.798Z</time></trkpt><trkpt lat="33.325965" lon="9.180555"><ele>91.0</ele><time>2026-04-22T16:12:35.799Z</time></trkpt><trkpt lat="33.3261417" lon="9.1803867"><ele>91.0</ele><time>2026-04-22T16:12:36.798Z</time></trkpt><trkpt lat="33.3263167" lon="9.1802033"><ele>91.0</ele><time>2026-04-22T16:12:37.798Z</time></trkpt><trkpt lat="33.326485" lon="9.180015"><ele>91.5</ele><time>2026-04-22T16:12:38.799Z</time></trkpt><trkpt lat="33.3266533" lon="9.1798267"><ele>92.0</ele><time>2026-04-22T16:12:39.798Z</time></trkpt><trkpt lat="33.3268283" lon="9.1796417"><ele>92.0</ele><time>2026-04-22T16:12:40.798Z</time></trkpt><trkpt lat="33.3269967" lon="9.1794567"><ele>92.0</ele><time>2026-04-22T16:12:41.798Z</time></trkpt><trkpt lat="33.3271717" lon="9.17926"><ele>91.5</ele><time>2026-04-22T16:12:42.798Z</time></trkpt><trkpt lat="33.3273483" lon="9.1790683"><ele>91.0</ele><time>2026-04-22T16:12:43.798Z</time></trkpt><trkpt lat="33.327515" lon="9.1788717"><ele>91.0</ele><time>2026-04-22T16:12:44.798Z</time></trkpt><trkpt lat="33.327675" lon="9.17867"><ele>91.0</ele><time>2026-04-22T16:12:45.798Z</time></trkpt><trkpt lat="33.327835" lon="9.1784633"><ele>91.0</ele><time>2026-04-22T16:12:46.798Z</time></trkpt><trkpt lat="33.327985" lon="9.178255"><ele>91.0</ele><time>2026-04-22T16:12:47.798Z</time></trkpt><trkpt lat="33.3281367" lon="9.1780517"><ele>91.0</ele><time>2026-04-22T16:12:48.798Z</time></trkpt><trkpt lat="33.3282867" lon="9.1778467"><ele>91.0</ele><time>2026-04-22T16:12:49.798Z</time></trkpt><trkpt lat="33.32844" lon="9.1776317"><ele>91.0</ele><time>2026-04-22T16:12:50.798Z</time></trkpt><trkpt lat="33.3285933" lon="9.1774133"><ele>91.0</ele><time>2026-04-22T16:12:51.798Z</time></trkpt><trkpt lat="33.3287367" lon="9.17719"><ele>88.5</ele><time>2026-04-22T16:12:52.798Z</time></trkpt><trkpt lat="33.3288833" lon="9.1769667"><ele>86.0</ele><time>2026-04-22T16:12:53.798Z</time></trkpt><trkpt lat="33.3290233" lon="9.1767433"><ele>85.0</ele><time>2026-04-22T16:12:54.798Z</time></trkpt><trkpt lat="33.3291583" lon="9.17651"><ele>84.0</ele><time>2026-04-22T16:12:55.798Z</time></trkpt><trkpt lat="33.329295" lon="9.1762767"><ele>84.0</ele><time>2026-04-22T16:12:56.798Z</time></trkpt><trkpt lat="33.32943" lon="9.1760417"><ele>84.0</ele><time>2026-04-22T16:12:57.798Z</time></trkpt><trkpt lat="33.3295567" lon="9.1758017"><ele>86.0</ele><time>2026-04-22T16:12:58.799Z</time></trkpt><trkpt lat="33.3296817" lon="9.1755633"><ele>88.0</ele><time>2026-04-22T16:12:59.799Z</time></trkpt><trkpt lat="33.3298" lon="9.175325"><ele>89.0</ele><time>2026-04-22T16:13:00.798Z</time></trkpt><trkpt lat="33.32992" lon="9.1750867"><ele>90.0</ele><time>2026-04-22T16:13:01.798Z</time></trkpt><trkpt lat="33.3300417" lon="9.174845"><ele>88.0</ele><time>2026-04-22T16:13:02.798Z</time></trkpt><trkpt lat="33.330175" lon="9.1746083"><ele>86.0</ele><time>2026-04-22T16:13:03.798Z</time></trkpt><trkpt lat="33.330295" lon="9.17437"><ele>86.0</ele><time>2026-04-22T16:13:04.798Z</time></trkpt><trkpt lat="33.33041" lon="9.1741183"><ele>86.0</ele><time>2026-04-22T16:13:05.798Z</time></trkpt><trkpt lat="33.3305233" lon="9.1738767"><ele>88.0</ele><time>2026-04-22T16:13:06.798Z</time></trkpt><trkpt lat="33.330625" lon="9.1736267"><ele>90.0</ele><time>2026-04-22T16:13:07.798Z</time></trkpt><trkpt lat="33.3307267" lon="9.1733667"><ele>89.5</ele><time>2026-04-22T16:13:08.798Z</time></trkpt><trkpt lat="33.3308217" lon="9.1731133"><ele>89.0</ele><time>2026-04-22T16:13:09.798Z</time></trkpt><trkpt lat="33.3309133" lon="9.1728533"><ele>89.0</ele><time>2026-04-22T16:13:10.798Z</time></trkpt><trkpt lat="33.331005" lon="9.172605"><ele>89.0</ele><time>2026-04-22T16:13:11.798Z</time></trkpt><trkpt lat="33.3310933" lon="9.17235"><ele>89.0</ele><time>2026-04-22T16:13:12.798Z</time></trkpt><trkpt lat="33.33118" lon="9.1720933"><ele>89.0</ele><time>2026-04-22T16:13:13.798Z</time></trkpt><trkpt lat="33.331275" lon="9.1718283"><ele>89.0</ele><time>2026-04-22T16:13:14.798Z</time></trkpt><trkpt lat="33.33136" lon="9.1715667"><ele>89.0</ele><time>2026-04-22T16:13:15.799Z</time></trkpt><trkpt lat="33.3314467" lon="9.17131"><ele>89.0</ele><time>2026-04-22T16:13:16.798Z</time></trkpt><trkpt lat="33.331535" lon="9.1710517"><ele>89.0</ele><time>2026-04-22T16:13:17.799Z</time></trkpt><trkpt lat="33.3316267" lon="9.1707933"><ele>89.0</ele><time>2026-04-22T16:13:18.798Z</time></trkpt><trkpt lat="33.331715" lon="9.170535"><ele>89.0</ele><time>2026-04-22T16:13:19.798Z</time></trkpt><trkpt lat="33.3317983" lon="9.1702733"><ele>89.0</ele><time>2026-04-22T16:13:20.798Z</time></trkpt><trkpt lat="33.33188" lon="9.170015"><ele>89.0</ele><time>2026-04-22T16:13:21.798Z</time></trkpt><trkpt lat="33.3319683" lon="9.169755"><ele>88.5</ele><time>2026-04-22T16:13:22.798Z</time></trkpt><trkpt lat="33.3320617" lon="9.169495"><ele>88.0</ele><time>2026-04-22T16:13:23.798Z</time></trkpt><trkpt lat="33.332155" lon="9.1692367"><ele>87.0</ele><time>2026-04-22T16:13:24.798Z</time></trkpt><trkpt lat="33.3322433" lon="9.1689733"><ele>86.0</ele><time>2026-04-22T16:13:25.798Z</time></trkpt><trkpt lat="33.332335" lon="9.16871"><ele>86.0</ele><time>2026-04-22T16:13:26.798Z</time></trkpt><trkpt lat="33.332425" lon="9.168455"><ele>86.0</ele><time>2026-04-22T16:13:27.798Z</time></trkpt><trkpt lat="33.3325183" lon="9.1681967"><ele>84.0</ele><time>2026-04-22T16:13:28.798Z</time></trkpt><trkpt lat="33.3326083" lon="9.1679317"><ele>82.0</ele><time>2026-04-22T16:13:29.798Z</time></trkpt><trkpt lat="33.3326967" lon="9.1676683"><ele>82.0</ele><time>2026-04-22T16:13:30.798Z</time></trkpt><trkpt lat="33.3327833" lon="9.1674017"><ele>82.0</ele><time>2026-04-22T16:13:31.798Z</time></trkpt><trkpt lat="33.3328667" lon="9.1671417"><ele>83.0</ele><time>2026-04-22T16:13:32.798Z</time></trkpt><trkpt lat="33.3329517" lon="9.1668833"><ele>84.0</ele><time>2026-04-22T16:13:33.798Z</time></trkpt><trkpt lat="33.3330367" lon="9.1666267"><ele>86.0</ele><time>2026-04-22T16:13:34.798Z</time></trkpt><trkpt lat="33.333125" lon="9.1663683"><ele>88.0</ele><time>2026-04-22T16:13:35.798Z</time></trkpt><trkpt lat="33.333215" lon="9.166105"><ele>88.0</ele><time>2026-04-22T16:13:36.798Z</time></trkpt><trkpt lat="33.33331" lon="9.1658533"><ele>88.0</ele><time>2026-04-22T16:13:37.798Z</time></trkpt><trkpt lat="33.3334017" lon="9.165605"><ele>88.33333333333333</ele><time>2026-04-22T16:13:38.798Z</time></trkpt><trkpt lat="33.3334983" lon="9.1653733"><ele>88.66666666666667</ele><time>2026-04-22T16:13:39.798Z</time></trkpt><trkpt lat="33.3336017" lon="9.165125"><ele>89.0</ele><time>2026-04-22T16:13:40.798Z</time></trkpt><trkpt lat="33.3337033" lon="9.1648817"><ele>87.0</ele><time>2026-04-22T16:13:41.798Z</time></trkpt><trkpt lat="33.3338117" lon="9.1646433"><ele>85.0</ele><time>2026-04-22T16:13:42.798Z</time></trkpt><trkpt lat="33.3339217" lon="9.164395"><ele>84.66666666666666</ele><time>2026-04-22T16:13:43.799Z</time></trkpt><trkpt lat="33.33403" lon="9.1641617"><ele>84.33333333333333</ele><time>2026-04-22T16:13:44.798Z</time></trkpt><trkpt lat="33.3341433" lon="9.16393"><ele>84.0</ele><time>2026-04-22T16:13:45.798Z</time></trkpt><trkpt lat="33.33426" lon="9.1636967"><ele>84.0</ele><time>2026-04-22T16:13:46.798Z</time></trkpt><trkpt lat="33.3343833" lon="9.1634633"><ele>84.0</ele><time>2026-04-22T16:13:47.798Z</time></trkpt><trkpt lat="33.3345017" lon="9.1632317"><ele>83.5</ele><time>2026-04-22T16:13:48.798Z</time></trkpt><trkpt lat="33.3346233" lon="9.1630033"><ele>83.0</ele><time>2026-04-22T16:13:49.798Z</time></trkpt><trkpt lat="33.3347517" lon="9.1627833"><ele>85.0</ele><time>2026-04-22T16:13:50.798Z</time></trkpt><trkpt lat="33.3348833" lon="9.1625583"><ele>87.0</ele><time>2026-04-22T16:13:51.798Z</time></trkpt><trkpt lat="33.3350217" lon="9.16234"><ele>87.0</ele><time>2026-04-22T16:13:52.799Z</time></trkpt><trkpt lat="33.33516" lon="9.1621217"><ele>87.0</ele><time>2026-04-22T16:13:53.798Z</time></trkpt><trkpt lat="33.3353017" lon="9.1619"><ele>87.0</ele><time>2026-04-22T16:13:54.798Z</time></trkpt><trkpt lat="33.335445" lon="9.16169"><ele>87.0</ele><time>2026-04-22T16:13:55.798Z</time></trkpt><trkpt lat="33.33559" lon="9.1614833"><ele>85.33333333333333</ele><time>2026-04-22T16:13:56.799Z</time></trkpt><trkpt lat="33.3357317" lon="9.1612767"><ele>83.66666666666666</ele><time>2026-04-22T16:13:57.798Z</time></trkpt><trkpt lat="33.3358783" lon="9.1610733"><ele>82.0</ele><time>2026-04-22T16:13:58.798Z</time></trkpt><trkpt lat="33.3360283" lon="9.1608683"><ele>83.0</ele><time>2026-04-22T16:13:59.798Z</time></trkpt><trkpt lat="33.3361783" lon="9.1606667"><ele>84.0</ele><time>2026-04-22T16:14:00.798Z</time></trkpt><trkpt lat="33.3363333" lon="9.160465"><ele>83.5</ele><time>2026-04-22T16:14:01.799Z</time></trkpt><trkpt lat="33.3364933" lon="9.1602633"><ele>83.0</ele><time>2026-04-22T16:14:02.798Z</time></trkpt><trkpt lat="33.3366533" lon="9.160065"><ele>83.0</ele><time>2026-04-22T16:14:03.798Z</time></trkpt><trkpt lat="33.33682" lon="9.1598733"><ele>83.0</ele><time>2026-04-22T16:14:04.798Z</time></trkpt><trkpt lat="33.336985" lon="9.1596817"><ele>83.5</ele><time>2026-04-22T16:14:05.798Z</time></trkpt><trkpt lat="33.3371583" lon="9.1594883"><ele>84.0</ele><time>2026-04-22T16:14:06.798Z</time></trkpt><trkpt lat="33.3373283" lon="9.1592967"><ele>84.5</ele><time>2026-04-22T16:14:07.798Z</time></trkpt><trkpt lat="33.3374967" lon="9.1591067"><ele>85.0</ele><time>2026-04-22T16:14:08.798Z</time></trkpt><trkpt lat="33.33766" lon="9.1589233"><ele>85.5</ele><time>2026-04-22T16:14:09.798Z</time></trkpt><trkpt lat="33.3378267" lon="9.1587383"><ele>86.0</ele><time>2026-04-22T16:14:10.798Z</time></trkpt><trkpt lat="33.3379917" lon="9.158555"><ele>86.0</ele><time>2026-04-22T16:14:11.799Z</time></trkpt><trkpt lat="33.3381617" lon="9.1583667"><ele>86.0</ele><time>2026-04-22T16:14:12.798Z</time></trkpt><trkpt lat="33.3383233" lon="9.15819"><ele>85.5</ele><time>2026-04-22T16:14:13.799Z</time></trkpt><trkpt lat="33.3384983" lon="9.1580117"><ele>85.0</ele><time>2026-04-22T16:14:14.798Z</time></trkpt><trkpt lat="33.3386667" lon="9.157825"><ele>85.0</ele><time>2026-04-22T16:14:15.798Z</time></trkpt><trkpt lat="33.338835" lon="9.1576433"><ele>85.0</ele><time>2026-04-22T16:14:16.799Z</time></trkpt><trkpt lat="33.3390033" lon="9.1574567"><ele>86.5</ele><time>2026-04-22T16:14:17.798Z</time></trkpt><trkpt lat="33.3391717" lon="9.15727"><ele>88.0</ele><time>2026-04-22T16:14:18.798Z</time></trkpt><trkpt lat="33.3393383" lon="9.1570733"><ele>88.0</ele><time>2026-04-22T16:14:19.798Z</time></trkpt><trkpt lat="33.3395067" lon="9.1568883"><ele>88.0</ele><time>2026-04-22T16:14:20.798Z</time></trkpt><trkpt lat="33.33967" lon="9.1567083"><ele>87.0</ele><time>2026-04-22T16:14:21.799Z</time></trkpt><trkpt lat="33.3398333" lon="9.1565283"><ele>86.0</ele><time>2026-04-22T16:14:22.798Z</time></trkpt><trkpt lat="33.34" lon="9.156345"><ele>85.0</ele><time>2026-04-22T16:14:23.798Z</time></trkpt><trkpt lat="33.3401733" lon="9.1561617"><ele>85.0</ele><time>2026-04-22T16:14:24.798Z</time></trkpt><trkpt lat="33.3403467" lon="9.1559783"><ele>85.0</ele><time>2026-04-22T16:14:25.799Z</time></trkpt><trkpt lat="33.34052" lon="9.1557883"><ele>84.5</ele><time>2026-04-22T16:14:26.798Z</time></trkpt><trkpt lat="33.34069" lon="9.1556017"><ele>84.0</ele><time>2026-04-22T16:14:27.798Z</time></trkpt><trkpt lat="33.34086" lon="9.1554133"><ele>84.0</ele><time>2026-04-22T16:14:28.798Z</time></trkpt><trkpt lat="33.34104" lon="9.1552267"><ele>84.0</ele><time>2026-04-22T16:14:29.798Z</time></trkpt><trkpt lat="33.3412133" lon="9.155035"><ele>84.5</ele><time>2026-04-22T16:14:30.798Z</time></trkpt><trkpt lat="33.3413817" lon="9.1548517"><ele>85.0</ele><time>2026-04-22T16:14:31.798Z</time></trkpt><trkpt lat="33.3415517" lon="9.154665"><ele>85.0</ele><time>2026-04-22T16:14:32.798Z</time></trkpt><trkpt lat="33.3417267" lon="9.1544767"><ele>85.0</ele><time>2026-04-22T16:14:33.798Z</time></trkpt><trkpt lat="33.3418917" lon="9.15429"><ele>85.0</ele><time>2026-04-22T16:14:34.798Z</time></trkpt><trkpt lat="33.3420567" lon="9.154105"><ele>85.0</ele><time>2026-04-22T16:14:35.798Z</time></trkpt><trkpt lat="33.3422233" lon="9.1539233"><ele>85.66666666666666</ele><time>2026-04-22T16:14:36.798Z</time></trkpt><trkpt lat="33.3423833" lon="9.153735"><ele>86.33333333333333</ele><time>2026-04-22T16:14:37.798Z</time></trkpt><trkpt lat="33.3425483" lon="9.153555"><ele>87.0</ele><time>2026-04-22T16:14:38.798Z</time></trkpt><trkpt lat="33.34272" lon="9.153375"><ele>86.0</ele><time>2026-04-22T16:14:39.798Z</time></trkpt><trkpt lat="33.34289" lon="9.1531867"><ele>85.0</ele><time>2026-04-22T16:14:40.799Z</time></trkpt><trkpt lat="33.3430567" lon="9.1530017"><ele>85.0</ele><time>2026-04-22T16:14:41.798Z</time></trkpt><trkpt lat="33.34322" lon="9.1528183"><ele>85.0</ele><time>2026-04-22T16:14:42.798Z</time></trkpt><trkpt lat="33.3433917" lon="9.1526383"><ele>85.0</ele><time>2026-04-22T16:14:43.797Z</time></trkpt><trkpt lat="33.3435633" lon="9.1524517"><ele>85.0</ele><time>2026-04-22T16:14:44.797Z</time></trkpt><trkpt lat="33.343735" lon="9.1522783"><ele>84.33333333333333</ele><time>2026-04-22T16:14:45.797Z</time></trkpt><trkpt lat="33.3439017" lon="9.1520917"><ele>83.66666666666667</ele><time>2026-04-22T16:14:46.797Z</time></trkpt><trkpt lat="33.3440633" lon="9.1519167"><ele>83.0</ele><time>2026-04-22T16:14:47.797Z</time></trkpt><trkpt lat="33.3442267" lon="9.1517333"><ele>83.0</ele><time>2026-04-22T16:14:48.797Z</time></trkpt><trkpt lat="33.3443983" lon="9.15155"><ele>83.0</ele><time>2026-04-22T16:14:49.797Z</time></trkpt><trkpt lat="33.3445683" lon="9.1513783"><ele>84.0</ele><time>2026-04-22T16:14:50.797Z</time></trkpt><trkpt lat="33.3447317" lon="9.1512"><ele>85.0</ele><time>2026-04-22T16:14:51.797Z</time></trkpt><trkpt lat="33.3448917" lon="9.15102"><ele>86.0</ele><time>2026-04-22T16:14:52.797Z</time></trkpt><trkpt lat="33.34506" lon="9.1508417"><ele>86.0</ele><time>2026-04-22T16:14:53.797Z</time></trkpt><trkpt lat="33.3452317" lon="9.150665"><ele>86.0</ele><time>2026-04-22T16:14:54.797Z</time></trkpt><trkpt lat="33.3453917" lon="9.150485"><ele>86.0</ele><time>2026-04-22T16:14:55.797Z</time></trkpt><trkpt lat="33.3455517" lon="9.1503"><ele>86.66666666666667</ele><time>2026-04-22T16:14:56.797Z</time></trkpt><trkpt lat="33.3457117" lon="9.1501167"><ele>87.33333333333333</ele><time>2026-04-22T16:14:57.797Z</time></trkpt><trkpt lat="33.34588" lon="9.1499417"><ele>88.0</ele><time>2026-04-22T16:14:58.798Z</time></trkpt><trkpt lat="33.3460467" lon="9.149755"><ele>87.0</ele><time>2026-04-22T16:14:59.797Z</time></trkpt><trkpt lat="33.3462183" lon="9.14956"><ele>86.0</ele><time>2026-04-22T16:15:00.797Z</time></trkpt><trkpt lat="33.3463833" lon="9.1493733"><ele>86.0</ele><time>2026-04-22T16:15:01.797Z</time></trkpt><trkpt lat="33.34655" lon="9.149185"><ele>86.0</ele><time>2026-04-22T16:15:02.797Z</time></trkpt><trkpt lat="33.3467133" lon="9.1490017"><ele>86.66666666666667</ele><time>2026-04-22T16:15:03.797Z</time></trkpt><trkpt lat="33.3468783" lon="9.1488183"><ele>87.33333333333333</ele><time>2026-04-22T16:15:04.797Z</time></trkpt><trkpt lat="33.347045" lon="9.1486417"><ele>88.0</ele><time>2026-04-22T16:15:05.797Z</time></trkpt><trkpt lat="33.3472067" lon="9.14846"><ele>87.0</ele><time>2026-04-22T16:15:06.797Z</time></trkpt><trkpt lat="33.347375" lon="9.1482833"><ele>86.0</ele><time>2026-04-22T16:15:07.797Z</time></trkpt><trkpt lat="33.3475567" lon="9.1480967"><ele>86.0</ele><time>2026-04-22T16:15:08.797Z</time></trkpt><trkpt lat="33.3477233" lon="9.1479167"><ele>86.0</ele><time>2026-04-22T16:15:09.797Z</time></trkpt><trkpt lat="33.3478767" lon="9.14774"><ele>86.0</ele><time>2026-04-22T16:15:10.797Z</time></trkpt><trkpt lat="33.3480383" lon="9.1475567"><ele>86.0</ele><time>2026-04-22T16:15:11.797Z</time></trkpt><trkpt lat="33.3481983" lon="9.1473883"><ele>86.0</ele><time>2026-04-22T16:15:12.797Z</time></trkpt><trkpt lat="33.3483617" lon="9.1472083"><ele>86.0</ele><time>2026-04-22T16:15:13.797Z</time></trkpt><trkpt lat="33.34852" lon="9.1470333"><ele>85.66666666666667</ele><time>2026-04-22T16:15:14.797Z</time></trkpt><trkpt lat="33.3486867" lon="9.146855"><ele>85.33333333333333</ele><time>2026-04-22T16:15:15.797Z</time></trkpt><trkpt lat="33.3488433" lon="9.1466717"><ele>85.0</ele><time>2026-04-22T16:15:16.797Z</time></trkpt><trkpt lat="33.3489983" lon="9.146495"><ele>85.0</ele><time>2026-04-22T16:15:17.797Z</time></trkpt><trkpt lat="33.3491583" lon="9.1463183"><ele>85.0</ele><time>2026-04-22T16:15:18.797Z</time></trkpt><trkpt lat="33.349325" lon="9.146135"><ele>85.0</ele><time>2026-04-22T16:15:19.798Z</time></trkpt><trkpt lat="33.34949" lon="9.14596"><ele>85.0</ele><time>2026-04-22T16:15:20.797Z</time></trkpt><trkpt lat="33.3496633" lon="9.1457733"><ele>85.0</ele><time>2026-04-22T16:15:21.797Z</time></trkpt><trkpt lat="33.34983" lon="9.1455933"><ele>84.0</ele><time>2026-04-22T16:15:22.797Z</time></trkpt><trkpt lat="33.34999" lon="9.1454217"><ele>83.0</ele><time>2026-04-22T16:15:23.797Z</time></trkpt><trkpt lat="33.3501517" lon="9.1452517"><ele>82.0</ele><time>2026-04-22T16:15:24.797Z</time></trkpt><trkpt lat="33.350325" lon="9.145085"><ele>82.0</ele><time>2026-04-22T16:15:25.797Z</time></trkpt><trkpt lat="33.3505067" lon="9.1449217"><ele>82.0</ele><time>2026-04-22T16:15:26.797Z</time></trkpt><trkpt lat="33.3506883" lon="9.1447717"><ele>82.0</ele><time>2026-04-22T16:15:27.797Z</time></trkpt><trkpt lat="33.3508683" lon="9.1446183"><ele>82.33333333333333</ele><time>2026-04-22T16:15:28.797Z</time></trkpt><trkpt lat="33.35104" lon="9.1444583"><ele>82.66666666666667</ele><time>2026-04-22T16:15:29.797Z</time></trkpt><trkpt lat="33.3512167" lon="9.1443067"><ele>83.0</ele><time>2026-04-22T16:15:30.797Z</time></trkpt><trkpt lat="33.3514" lon="9.1441617"><ele>83.33333333333334</ele><time>2026-04-22T16:15:31.797Z</time></trkpt><trkpt lat="33.3515817" lon="9.144015"><ele>83.66666666666667</ele><time>2026-04-22T16:15:32.797Z</time></trkpt><trkpt lat="33.3517633" lon="9.143865"><ele>84.0</ele><time>2026-04-22T16:15:33.798Z</time></trkpt><trkpt lat="33.351945" lon="9.1437183"><ele>84.0</ele><time>2026-04-22T16:15:34.797Z</time></trkpt><trkpt lat="33.3521217" lon="9.1435733"><ele>84.0</ele><time>2026-04-22T16:15:35.797Z</time></trkpt><trkpt lat="33.3523083" lon="9.1434283"><ele>84.0</ele><time>2026-04-22T16:15:36.797Z</time></trkpt><trkpt lat="33.3525" lon="9.1432783"><ele>83.5</ele><time>2026-04-22T16:15:37.797Z</time></trkpt><trkpt lat="33.3527067" lon="9.1431317"><ele>83.0</ele><time>2026-04-22T16:15:38.797Z</time></trkpt><trkpt lat="33.3529017" lon="9.142985"><ele>83.0</ele><time>2026-04-22T16:15:39.797Z</time></trkpt><trkpt lat="33.3530867" lon="9.1428317"><ele>83.0</ele><time>2026-04-22T16:15:40.797Z</time></trkpt><trkpt lat="33.353275" lon="9.1426917"><ele>83.0</ele><time>2026-04-22T16:15:41.797Z</time></trkpt><trkpt lat="33.3534683" lon="9.1425517"><ele>83.0</ele><time>2026-04-22T16:15:42.797Z</time></trkpt><trkpt lat="33.3536617" lon="9.1424133"><ele>83.0</ele><time>2026-04-22T16:15:43.798Z</time></trkpt><trkpt lat="33.3538517" lon="9.1422583"><ele>82.5</ele><time>2026-04-22T16:15:44.797Z</time></trkpt><trkpt lat="33.3540383" lon="9.1421083"><ele>82.0</ele><time>2026-04-22T16:15:45.797Z</time></trkpt><trkpt lat="33.3542233" lon="9.14195"><ele>82.0</ele><time>2026-04-22T16:15:46.797Z</time></trkpt><trkpt lat="33.3544067" lon="9.1417767"><ele>82.0</ele><time>2026-04-22T16:15:47.797Z</time></trkpt><trkpt lat="33.35458" lon="9.1416017"><ele>82.33333333333333</ele><time>2026-04-22T16:15:48.797Z</time></trkpt><trkpt lat="33.3547667" lon="9.1414433"><ele>82.66666666666667</ele><time>2026-04-22T16:15:49.797Z</time></trkpt><trkpt lat="33.354935" lon="9.141275"><ele>83.0</ele><time>2026-04-22T16:15:50.797Z</time></trkpt><trkpt lat="33.3550983" lon="9.1411067"><ele>83.0</ele><time>2026-04-22T16:15:51.797Z</time></trkpt><trkpt lat="33.3552783" lon="9.140955"><ele>83.0</ele><time>2026-04-22T16:15:52.797Z</time></trkpt><trkpt lat="33.3554633" lon="9.1407867"><ele>83.5</ele><time>2026-04-22T16:15:53.797Z</time></trkpt><trkpt lat="33.35565" lon="9.1406167"><ele>84.0</ele><time>2026-04-22T16:15:54.797Z</time></trkpt><trkpt lat="33.3558333" lon="9.14045"><ele>84.0</ele><time>2026-04-22T16:15:55.797Z</time></trkpt><trkpt lat="33.35602" lon="9.1402933"><ele>84.0</ele><time>2026-04-22T16:15:56.797Z</time></trkpt><trkpt lat="33.356195" lon="9.14013"><ele>84.0</ele><time>2026-04-22T16:15:57.797Z</time></trkpt><trkpt lat="33.3563683" lon="9.1399633"><ele>84.0</ele><time>2026-04-22T16:15:58.798Z</time></trkpt><trkpt lat="33.3565433" lon="9.1397917"><ele>84.0</ele><time>2026-04-22T16:15:59.797Z</time></trkpt><trkpt lat="33.35672" lon="9.1396217"><ele>85.0</ele><time>2026-04-22T16:16:00.797Z</time></trkpt><trkpt lat="33.356895" lon="9.1394517"><ele>86.0</ele><time>2026-04-22T16:16:01.797Z</time></trkpt><trkpt lat="33.3570683" lon="9.13927"><ele>86.0</ele><time>2026-04-22T16:16:02.797Z</time></trkpt><trkpt lat="33.35724" lon="9.1390933"><ele>86.0</ele><time>2026-04-22T16:16:03.797Z</time></trkpt><trkpt lat="33.3574183" lon="9.1389183"><ele>86.0</ele><time>2026-04-22T16:16:04.797Z</time></trkpt><trkpt lat="33.3576" lon="9.1387433"><ele>86.0</ele><time>2026-04-22T16:16:05.797Z</time></trkpt><trkpt lat="33.3577783" lon="9.1385633"><ele>86.0</ele><time>2026-04-22T16:16:06.797Z</time></trkpt><trkpt lat="33.3579517" lon="9.1383733"><ele>86.0</ele><time>2026-04-22T16:16:07.797Z</time></trkpt><trkpt lat="33.358125" lon="9.13819"><ele>84.5</ele><time>2026-04-22T16:16:08.797Z</time></trkpt><trkpt lat="33.3582933" lon="9.138005"><ele>83.0</ele><time>2026-04-22T16:16:09.797Z</time></trkpt><trkpt lat="33.358465" lon="9.13782"><ele>83.0</ele><time>2026-04-22T16:16:10.797Z</time></trkpt><trkpt lat="33.3586333" lon="9.1376333"><ele>83.0</ele><time>2026-04-22T16:16:11.797Z</time></trkpt><trkpt lat="33.3588017" lon="9.13744"><ele>81.5</ele><time>2026-04-22T16:16:12.797Z</time></trkpt><trkpt lat="33.3589717" lon="9.137255"><ele>80.0</ele><time>2026-04-22T16:16:13.797Z</time></trkpt><trkpt lat="33.359145" lon="9.13707"><ele>80.0</ele><time>2026-04-22T16:16:14.797Z</time></trkpt><trkpt lat="33.3593183" lon="9.1368783"><ele>80.0</ele><time>2026-04-22T16:16:15.797Z</time></trkpt><trkpt lat="33.359485" lon="9.1367033"><ele>80.0</ele><time>2026-04-22T16:16:16.797Z</time></trkpt><trkpt lat="33.3596417" lon="9.1365183"><ele>80.0</ele><time>2026-04-22T16:16:17.797Z</time></trkpt><trkpt lat="33.359805" lon="9.1363333"><ele>80.0</ele><time>2026-04-22T16:16:18.797Z</time></trkpt><trkpt lat="33.3599733" lon="9.136145"><ele>82.0</ele><time>2026-04-22T16:16:19.797Z</time></trkpt><trkpt lat="33.3601317" lon="9.1359533"><ele>84.0</ele><time>2026-04-22T16:16:20.797Z</time></trkpt><trkpt lat="33.3602933" lon="9.1357617"><ele>83.5</ele><time>2026-04-22T16:16:21.797Z</time></trkpt><trkpt lat="33.36045" lon="9.1355683"><ele>83.0</ele><time>2026-04-22T16:16:22.797Z</time></trkpt><trkpt lat="33.360615" lon="9.1353667"><ele>81.5</ele><time>2026-04-22T16:16:23.797Z</time></trkpt><trkpt lat="33.360775" lon="9.1351683"><ele>80.0</ele><time>2026-04-22T16:16:24.797Z</time></trkpt><trkpt lat="33.360935" lon="9.134975"><ele>81.0</ele><time>2026-04-22T16:16:25.797Z</time></trkpt><trkpt lat="33.3610867" lon="9.1347917"><ele>82.0</ele><time>2026-04-22T16:16:26.797Z</time></trkpt><trkpt lat="33.3612283" lon="9.1346117"><ele>83.0</ele><time>2026-04-22T16:16:27.797Z</time></trkpt><trkpt lat="33.3613733" lon="9.13444"><ele>83.0</ele><time>2026-04-22T16:16:28.797Z</time></trkpt><trkpt lat="33.3615217" lon="9.1342617"><ele>83.0</ele><time>2026-04-22T16:16:29.797Z</time></trkpt><trkpt lat="33.3616783" lon="9.134085"><ele>83.0</ele><time>2026-04-22T16:16:30.797Z</time></trkpt><trkpt lat="33.3618367" lon="9.133905"><ele>81.0</ele><time>2026-04-22T16:16:31.797Z</time></trkpt><trkpt lat="33.3619967" lon="9.1337317"><ele>79.0</ele><time>2026-04-22T16:16:32.797Z</time></trkpt><trkpt lat="33.3621633" lon="9.1335517"><ele>77.0</ele><time>2026-04-22T16:16:33.797Z</time></trkpt><trkpt lat="33.3623233" lon="9.1333783"><ele>77.0</ele><time>2026-04-22T16:16:34.797Z</time></trkpt><trkpt lat="33.3624967" lon="9.133205"><ele>77.0</ele><time>2026-04-22T16:16:35.797Z</time></trkpt><trkpt lat="33.3626617" lon="9.133025"><ele>77.0</ele><time>2026-04-22T16:16:36.797Z</time></trkpt><trkpt lat="33.3628317" lon="9.132855"><ele>77.0</ele><time>2026-04-22T16:16:37.797Z</time></trkpt><trkpt lat="33.3629983" lon="9.132675"><ele>77.0</ele><time>2026-04-22T16:16:38.797Z</time></trkpt><trkpt lat="33.3631767" lon="9.1324917"><ele>78.0</ele><time>2026-04-22T16:16:39.797Z</time></trkpt><trkpt lat="33.3633533" lon="9.132315"><ele>79.0</ele><time>2026-04-22T16:16:40.798Z</time></trkpt><trkpt lat="33.3635317" lon="9.1321367"><ele>79.0</ele><time>2026-04-22T16:16:41.797Z</time></trkpt><trkpt lat="33.3637067" lon="9.1319533"><ele>79.0</ele><time>2026-04-22T16:16:42.797Z</time></trkpt><trkpt lat="33.3638783" lon="9.1317783"><ele>79.0</ele><time>2026-04-22T16:16:43.797Z</time></trkpt><trkpt lat="33.36405" lon="9.1315983"><ele>79.0</ele><time>2026-04-22T16:16:44.797Z</time></trkpt><trkpt lat="33.364225" lon="9.1314217"><ele>79.0</ele><time>2026-04-22T16:16:45.798Z</time></trkpt><trkpt lat="33.364395" lon="9.1312433"><ele>79.0</ele><time>2026-04-22T16:16:46.797Z</time></trkpt><trkpt lat="33.3645633" lon="9.1310683"><ele>79.0</ele><time>2026-04-22T16:16:47.797Z</time></trkpt><trkpt lat="33.3647283" lon="9.1308917"><ele>78.5</ele><time>2026-04-22T16:16:48.797Z</time></trkpt><trkpt lat="33.3649033" lon="9.13072"><ele>78.0</ele><time>2026-04-22T16:16:49.797Z</time></trkpt><trkpt lat="33.3650767" lon="9.130545"><ele>78.0</ele><time>2026-04-22T16:16:50.798Z</time></trkpt><trkpt lat="33.365245" lon="9.1303683"><ele>78.0</ele><time>2026-04-22T16:16:51.797Z</time></trkpt><trkpt lat="33.365415" lon="9.1301933"><ele>78.0</ele><time>2026-04-22T16:16:52.797Z</time></trkpt><trkpt lat="33.3655867" lon="9.1300267"><ele>79.0</ele><time>2026-04-22T16:16:53.797Z</time></trkpt><trkpt lat="33.3657617" lon="9.1298533"><ele>80.0</ele><time>2026-04-22T16:16:54.797Z</time></trkpt><trkpt lat="33.365935" lon="9.1296833"><ele>80.0</ele><time>2026-04-22T16:16:55.797Z</time></trkpt><trkpt lat="33.3661033" lon="9.1295067"><ele>80.0</ele><time>2026-04-22T16:16:56.797Z</time></trkpt><trkpt lat="33.3662683" lon="9.1293383"><ele>80.0</ele><time>2026-04-22T16:16:57.797Z</time></trkpt><trkpt lat="33.3664383" lon="9.1291617"><ele>80.0</ele><time>2026-04-22T16:16:58.797Z</time></trkpt><trkpt lat="33.36661" lon="9.12898"><ele>80.0</ele><time>2026-04-22T16:16:59.797Z</time></trkpt><trkpt lat="33.366785" lon="9.1288067"><ele>80.0</ele><time>2026-04-22T16:17:00.797Z</time></trkpt><trkpt lat="33.3669583" lon="9.1286367"><ele>80.0</ele><time>2026-04-22T16:17:01.797Z</time></trkpt><trkpt lat="33.367135" lon="9.1284533"><ele>79.0</ele><time>2026-04-22T16:17:02.797Z</time></trkpt><trkpt lat="33.36731" lon="9.1282733"><ele>78.0</ele><time>2026-04-22T16:17:03.797Z</time></trkpt><trkpt lat="33.367485" lon="9.1281"><ele>78.0</ele><time>2026-04-22T16:17:04.797Z</time></trkpt><trkpt lat="33.3676567" lon="9.1279233"><ele>78.0</ele><time>2026-04-22T16:17:05.797Z</time></trkpt><trkpt lat="33.36783" lon="9.12774"><ele>78.0</ele><time>2026-04-22T16:17:06.797Z</time></trkpt><trkpt lat="33.3680083" lon="9.1275583"><ele>78.0</ele><time>2026-04-22T16:17:07.797Z</time></trkpt><trkpt lat="33.3681833" lon="9.1273817"><ele>78.0</ele><time>2026-04-22T16:17:08.797Z</time></trkpt><trkpt lat="33.368355" lon="9.127205"><ele>78.0</ele><time>2026-04-22T16:17:09.797Z</time></trkpt><trkpt lat="33.3685283" lon="9.12703"><ele>78.0</ele><time>2026-04-22T16:17:10.797Z</time></trkpt><trkpt lat="33.3687033" lon="9.1268583"><ele>78.0</ele><time>2026-04-22T16:17:11.797Z</time></trkpt><trkpt lat="33.368875" lon="9.1266733"><ele>79.5</ele><time>2026-04-22T16:17:12.797Z</time></trkpt><trkpt lat="33.3690483" lon="9.1264983"><ele>81.0</ele><time>2026-04-22T16:17:13.797Z</time></trkpt><trkpt lat="33.36922" lon="9.1263233"><ele>81.0</ele><time>2026-04-22T16:17:14.797Z</time></trkpt><trkpt lat="33.3693883" lon="9.1261483"><ele>81.0</ele><time>2026-04-22T16:17:15.797Z</time></trkpt><trkpt lat="33.369545" lon="9.1259717"><ele>81.0</ele><time>2026-04-22T16:17:16.797Z</time></trkpt><trkpt lat="33.3697033" lon="9.1257867"><ele>81.33333333333333</ele><time>2026-04-22T16:17:17.797Z</time></trkpt><trkpt lat="33.3698667" lon="9.1256133"><ele>81.66666666666666</ele><time>2026-04-22T16:17:18.797Z</time></trkpt><trkpt lat="33.3700367" lon="9.1254383"><ele>82.0</ele><time>2026-04-22T16:17:19.797Z</time></trkpt><trkpt lat="33.3702" lon="9.1252617"><ele>82.0</ele><time>2026-04-22T16:17:20.797Z</time></trkpt><trkpt lat="33.370365" lon="9.1250833"><ele>82.0</ele><time>2026-04-22T16:17:21.797Z</time></trkpt><trkpt lat="33.37053" lon="9.1249033"><ele>82.0</ele><time>2026-04-22T16:17:22.797Z</time></trkpt><trkpt lat="33.3706967" lon="9.1247183"><ele>81.33333333333333</ele><time>2026-04-22T16:17:23.798Z</time></trkpt><trkpt lat="33.370855" lon="9.1245317"><ele>80.66666666666667</ele><time>2026-04-22T16:17:24.797Z</time></trkpt><trkpt lat="33.37101" lon="9.1243417"><ele>80.0</ele><time>2026-04-22T16:17:25.797Z</time></trkpt><trkpt lat="33.3711667" lon="9.1241583"><ele>79.66666666666667</ele><time>2026-04-22T16:17:26.798Z</time></trkpt><trkpt lat="33.3713217" lon="9.1239783"><ele>79.33333333333333</ele><time>2026-04-22T16:17:27.797Z</time></trkpt><trkpt lat="33.3714783" lon="9.1237733"><ele>79.0</ele><time>2026-04-22T16:17:28.797Z</time></trkpt><trkpt lat="33.3716367" lon="9.1235667"><ele>78.66666666666666</ele><time>2026-04-22T16:17:29.797Z</time></trkpt><trkpt lat="33.3717933" lon="9.1233733"><ele>78.33333333333333</ele><time>2026-04-22T16:17:30.798Z</time></trkpt><trkpt lat="33.3719467" lon="9.1231817"><ele>78.0</ele><time>2026-04-22T16:17:31.797Z</time></trkpt><trkpt lat="33.3721067" lon="9.1229967"><ele>78.0</ele><time>2026-04-22T16:17:32.797Z</time></trkpt><trkpt lat="33.3722633" lon="9.1228033"><ele>78.0</ele><time>2026-04-22T16:17:33.797Z</time></trkpt><trkpt lat="33.3724167" lon="9.1226033"><ele>78.0</ele><time>2026-04-22T16:17:34.797Z</time></trkpt><trkpt lat="33.372575" lon="9.1224"><ele>78.0</ele><time>2026-04-22T16:17:35.797Z</time></trkpt><trkpt lat="33.3727317" lon="9.1221983"><ele>77.5</ele><time>2026-04-22T16:17:36.797Z</time></trkpt><trkpt lat="33.3728883" lon="9.1219983"><ele>77.0</ele><time>2026-04-22T16:17:37.797Z</time></trkpt><trkpt lat="33.3730417" lon="9.1217833"><ele>78.5</ele><time>2026-04-22T16:17:38.797Z</time></trkpt><trkpt lat="33.3732033" lon="9.1215817"><ele>80.0</ele><time>2026-04-22T16:17:39.797Z</time></trkpt><trkpt lat="33.3733567" lon="9.1213817"><ele>80.5</ele><time>2026-04-22T16:17:40.798Z</time></trkpt><trkpt lat="33.373505" lon="9.12118"><ele>81.0</ele><time>2026-04-22T16:17:41.797Z</time></trkpt><trkpt lat="33.3736583" lon="9.1209817"><ele>81.0</ele><time>2026-04-22T16:17:42.797Z</time></trkpt><trkpt lat="33.3738033" lon="9.1207783"><ele>81.0</ele><time>2026-04-22T16:17:43.797Z</time></trkpt><trkpt lat="33.37395" lon="9.120575"><ele>81.0</ele><time>2026-04-22T16:17:44.797Z</time></trkpt><trkpt lat="33.3740967" lon="9.12037"><ele>80.33333333333333</ele><time>2026-04-22T16:17:45.797Z</time></trkpt><trkpt lat="33.3742433" lon="9.1201683"><ele>79.66666666666666</ele><time>2026-04-22T16:17:46.797Z</time></trkpt><trkpt lat="33.3743883" lon="9.119965"><ele>79.0</ele><time>2026-04-22T16:17:47.797Z</time></trkpt><trkpt lat="33.3745383" lon="9.1197617"><ele>78.5</ele><time>2026-04-22T16:17:48.797Z</time></trkpt><trkpt lat="33.3746883" lon="9.1195567"><ele>78.0</ele><time>2026-04-22T16:17:49.797Z</time></trkpt><trkpt lat="33.37483" lon="9.1193483"><ele>78.0</ele><time>2026-04-22T16:17:50.797Z</time></trkpt><trkpt lat="33.3749683" lon="9.1191433"><ele>78.0</ele><time>2026-04-22T16:17:51.797Z</time></trkpt><trkpt lat="33.37511" lon="9.1189383"><ele>78.0</ele><time>2026-04-22T16:17:52.798Z</time></trkpt><trkpt lat="33.3752483" lon="9.1187217"><ele>78.0</ele><time>2026-04-22T16:17:53.797Z</time></trkpt><trkpt lat="33.37537" lon="9.1185"><ele>78.0</ele><time>2026-04-22T16:17:54.797Z</time></trkpt><trkpt lat="33.3755083" lon="9.1182917"><ele>78.0</ele><time>2026-04-22T16:17:55.798Z</time></trkpt><trkpt lat="33.3756383" lon="9.1180867"><ele>77.66666666666667</ele><time>2026-04-22T16:17:56.797Z</time></trkpt><trkpt lat="33.37577" lon="9.1178767"><ele>77.33333333333334</ele><time>2026-04-22T16:17:57.797Z</time></trkpt><trkpt lat="33.3759017" lon="9.1176633"><ele>77.0</ele><time>2026-04-22T16:17:58.796Z</time></trkpt><trkpt lat="33.3760433" lon="9.117445"><ele>77.0</ele><time>2026-04-22T16:17:59.796Z</time></trkpt><trkpt lat="33.3761817" lon="9.1172333"><ele>77.0</ele><time>2026-04-22T16:18:00.796Z</time></trkpt><trkpt lat="33.3763183" lon="9.1170217"><ele>77.0</ele><time>2026-04-22T16:18:01.796Z</time></trkpt><trkpt lat="33.3764517" lon="9.1168033"><ele>77.0</ele><time>2026-04-22T16:18:02.796Z</time></trkpt><trkpt lat="33.376585" lon="9.1165817"><ele>77.0</ele><time>2026-04-22T16:18:03.796Z</time></trkpt><trkpt lat="33.3767067" lon="9.1163533"><ele>77.0</ele><time>2026-04-22T16:18:04.796Z</time></trkpt><trkpt lat="33.37683" lon="9.11613"><ele>77.0</ele><time>2026-04-22T16:18:05.796Z</time></trkpt><trkpt lat="33.376955" lon="9.1159083"><ele>77.0</ele><time>2026-04-22T16:18:06.796Z</time></trkpt><trkpt lat="33.3770767" lon="9.11569"><ele>77.33333333333334</ele><time>2026-04-22T16:18:07.796Z</time></trkpt><trkpt lat="33.3772033" lon="9.11547"><ele>77.66666666666667</ele><time>2026-04-22T16:18:08.796Z</time></trkpt><trkpt lat="33.3773283" lon="9.1152467"><ele>78.0</ele><time>2026-04-22T16:18:09.796Z</time></trkpt><trkpt lat="33.3774533" lon="9.115025"><ele>77.5</ele><time>2026-04-22T16:18:10.796Z</time></trkpt><trkpt lat="33.3775817" lon="9.1148033"><ele>77.0</ele><time>2026-04-22T16:18:11.796Z</time></trkpt><trkpt lat="33.37771" lon="9.1145817"><ele>77.0</ele><time>2026-04-22T16:18:12.796Z</time></trkpt><trkpt lat="33.3778417" lon="9.11436"><ele>77.0</ele><time>2026-04-22T16:18:13.796Z</time></trkpt><trkpt lat="33.377975" lon="9.1141417"><ele>77.0</ele><time>2026-04-22T16:18:14.796Z</time></trkpt><trkpt lat="33.3781" lon="9.1139133"><ele>77.0</ele><time>2026-04-22T16:18:15.796Z</time></trkpt><trkpt lat="33.3782283" lon="9.11368"><ele>77.0</ele><time>2026-04-22T16:18:16.796Z</time></trkpt><trkpt lat="33.3783517" lon="9.1134517"><ele>77.0</ele><time>2026-04-22T16:18:17.796Z</time></trkpt><trkpt lat="33.3784733" lon="9.113225"><ele>77.0</ele><time>2026-04-22T16:18:18.796Z</time></trkpt><trkpt lat="33.37859" lon="9.113"><ele>77.0</ele><time>2026-04-22T16:18:19.796Z</time></trkpt><trkpt lat="33.3787067" lon="9.112755"><ele>77.0</ele><time>2026-04-22T16:18:20.796Z</time></trkpt><trkpt lat="33.378815" lon="9.112515"><ele>77.0</ele><time>2026-04-22T16:18:21.796Z</time></trkpt><trkpt lat="33.378925" lon="9.11228"><ele>76.5</ele><time>2026-04-22T16:18:22.796Z</time></trkpt><trkpt lat="33.3790317" lon="9.1120433"><ele>76.0</ele><time>2026-04-22T16:18:23.797Z</time></trkpt><trkpt lat="33.3791367" lon="9.1118"><ele>75.66666666666666</ele><time>2026-04-22T16:18:24.797Z</time></trkpt><trkpt lat="33.3792383" lon="9.1115617"><ele>75.33333333333333</ele><time>2026-04-22T16:18:25.796Z</time></trkpt><trkpt lat="33.3793333" lon="9.111325"><ele>75.0</ele><time>2026-04-22T16:18:26.796Z</time></trkpt><trkpt lat="33.37942" lon="9.1110767"><ele>75.0</ele><time>2026-04-22T16:18:27.796Z</time></trkpt><trkpt lat="33.379505" lon="9.110835"><ele>75.0</ele><time>2026-04-22T16:18:28.796Z</time></trkpt><trkpt lat="33.3795967" lon="9.11059"><ele>75.0</ele><time>2026-04-22T16:18:29.796Z</time></trkpt><trkpt lat="33.379695" lon="9.1103467"><ele>76.0</ele><time>2026-04-22T16:18:30.796Z</time></trkpt><trkpt lat="33.3797917" lon="9.1101033"><ele>77.0</ele><time>2026-04-22T16:18:31.796Z</time></trkpt><trkpt lat="33.3798883" lon="9.109855"><ele>77.0</ele><time>2026-04-22T16:18:32.796Z</time></trkpt><trkpt lat="33.379985" lon="9.1096067"><ele>77.0</ele><time>2026-04-22T16:18:33.796Z</time></trkpt><trkpt lat="33.38008" lon="9.1093633"><ele>77.0</ele><time>2026-04-22T16:18:34.797Z</time></trkpt><trkpt lat="33.380185" lon="9.10912"><ele>77.0</ele><time>2026-04-22T16:18:35.796Z</time></trkpt><trkpt lat="33.3802833" lon="9.1088717"><ele>77.0</ele><time>2026-04-22T16:18:36.796Z</time></trkpt><trkpt lat="33.380375" lon="9.1086267"><ele>77.0</ele><time>2026-04-22T16:18:37.796Z</time></trkpt><trkpt lat="33.380465" lon="9.10839"><ele>77.0</ele><time>2026-04-22T16:18:38.797Z</time></trkpt><trkpt lat="33.38055" lon="9.108165"><ele>77.0</ele><time>2026-04-22T16:18:39.796Z</time></trkpt><trkpt lat="33.3806283" lon="9.10795"><ele>77.0</ele><time>2026-04-22T16:18:40.796Z</time></trkpt><trkpt lat="33.3807017" lon="9.1077467"><ele>77.0</ele><time>2026-04-22T16:18:41.797Z</time></trkpt><trkpt lat="33.38078" lon="9.10755"><ele>76.33333333333334</ele><time>2026-04-22T16:18:42.796Z</time></trkpt><trkpt lat="33.3808583" lon="9.107365"><ele>75.66666666666667</ele><time>2026-04-22T16:18:43.796Z</time></trkpt><trkpt lat="33.3809317" lon="9.10717"><ele>75.0</ele><time>2026-04-22T16:18:44.796Z</time></trkpt><trkpt lat="33.3810033" lon="9.1069733"><ele>75.0</ele><time>2026-04-22T16:18:45.796Z</time></trkpt><trkpt lat="33.3810767" lon="9.10677"><ele>75.0</ele><time>2026-04-22T16:18:46.796Z</time></trkpt><trkpt lat="33.381155" lon="9.1065717"><ele>75.0</ele><time>2026-04-22T16:18:47.796Z</time></trkpt><trkpt lat="33.3812167" lon="9.1063717"><ele>75.0</ele><time>2026-04-22T16:18:48.796Z</time></trkpt><trkpt lat="33.3812817" lon="9.106165"><ele>75.0</ele><time>2026-04-22T16:18:49.796Z</time></trkpt><trkpt lat="33.3813383" lon="9.105955"><ele>75.0</ele><time>2026-04-22T16:18:50.796Z</time></trkpt><trkpt lat="33.3813833" lon="9.1057333"><ele>75.33333333333333</ele><time>2026-04-22T16:18:51.796Z</time></trkpt><trkpt lat="33.3814233" lon="9.1055033"><ele>75.66666666666666</ele><time>2026-04-22T16:18:52.796Z</time></trkpt><trkpt lat="33.381465" lon="9.1052733"><ele>76.0</ele><time>2026-04-22T16:18:53.796Z</time></trkpt><trkpt lat="33.3815017" lon="9.105035"><ele>75.0</ele><time>2026-04-22T16:18:54.796Z</time></trkpt><trkpt lat="33.3815383" lon="9.1047917"><ele>74.0</ele><time>2026-04-22T16:18:55.796Z</time></trkpt><trkpt lat="33.3815683" lon="9.1045417"><ele>73.0</ele><time>2026-04-22T16:18:56.796Z</time></trkpt><trkpt lat="33.381595" lon="9.1042917"><ele>73.66666666666666</ele><time>2026-04-22T16:18:57.796Z</time></trkpt><trkpt lat="33.381615" lon="9.1040367"><ele>74.33333333333333</ele><time>2026-04-22T16:18:58.796Z</time></trkpt><trkpt lat="33.3816383" lon="9.1037833"><ele>75.0</ele><time>2026-04-22T16:18:59.797Z</time></trkpt><trkpt lat="33.3816617" lon="9.10353"><ele>75.0</ele><time>2026-04-22T16:19:00.796Z</time></trkpt><trkpt lat="33.3816817" lon="9.1032683"><ele>75.0</ele><time>2026-04-22T16:19:01.796Z</time></trkpt><trkpt lat="33.3816883" lon="9.10301"><ele>75.0</ele><time>2026-04-22T16:19:02.797Z</time></trkpt><trkpt lat="33.3816883" lon="9.1027517"><ele>76.0</ele><time>2026-04-22T16:19:03.796Z</time></trkpt><trkpt lat="33.3816783" lon="9.1024933"><ele>77.0</ele><time>2026-04-22T16:19:04.796Z</time></trkpt><trkpt lat="33.3816617" lon="9.1022267"><ele>78.0</ele><time>2026-04-22T16:19:05.796Z</time></trkpt><trkpt lat="33.3816433" lon="9.1019717"><ele>78.0</ele><time>2026-04-22T16:19:06.796Z</time></trkpt><trkpt lat="33.38163" lon="9.10171"><ele>78.0</ele><time>2026-04-22T16:19:07.796Z</time></trkpt><trkpt lat="33.3816083" lon="9.1014467"><ele>78.0</ele><time>2026-04-22T16:19:08.796Z</time></trkpt><trkpt lat="33.3815767" lon="9.1011833"><ele>77.33333333333333</ele><time>2026-04-22T16:19:09.796Z</time></trkpt><trkpt lat="33.3815383" lon="9.1009283"><ele>76.66666666666666</ele><time>2026-04-22T16:19:10.797Z</time></trkpt><trkpt lat="33.381505" lon="9.1006683"><ele>76.0</ele><time>2026-04-22T16:19:11.796Z</time></trkpt><trkpt lat="33.3814583" lon="9.1004117"><ele>76.0</ele><time>2026-04-22T16:19:12.796Z</time></trkpt><trkpt lat="33.3814067" lon="9.1001567"><ele>76.0</ele><time>2026-04-22T16:19:13.796Z</time></trkpt><trkpt lat="33.381355" lon="9.0998967"><ele>76.0</ele><time>2026-04-22T16:19:14.796Z</time></trkpt><trkpt lat="33.3812933" lon="9.0996417"><ele>76.0</ele><time>2026-04-22T16:19:15.796Z</time></trkpt><trkpt lat="33.381225" lon="9.09939"><ele>76.0</ele><time>2026-04-22T16:19:16.796Z</time></trkpt><trkpt lat="33.3811567" lon="9.0991433"><ele>76.0</ele><time>2026-04-22T16:19:17.796Z</time></trkpt><trkpt lat="33.3810767" lon="9.09889"><ele>75.66666666666666</ele><time>2026-04-22T16:19:18.796Z</time></trkpt><trkpt lat="33.3809883" lon="9.09864"><ele>75.33333333333333</ele><time>2026-04-22T16:19:19.796Z</time></trkpt><trkpt lat="33.3809117" lon="9.09839"><ele>75.0</ele><time>2026-04-22T16:19:20.796Z</time></trkpt><trkpt lat="33.3808267" lon="9.0981333"><ele>75.0</ele><time>2026-04-22T16:19:21.796Z</time></trkpt><trkpt lat="33.3807417" lon="9.0978833"><ele>75.0</ele><time>2026-04-22T16:19:22.797Z</time></trkpt><trkpt lat="33.3806617" lon="9.0976267"><ele>75.5</ele><time>2026-04-22T16:19:23.796Z</time></trkpt><trkpt lat="33.3805783" lon="9.0973683"><ele>76.0</ele><time>2026-04-22T16:19:24.796Z</time></trkpt><trkpt lat="33.3804967" lon="9.09711"><ele>76.0</ele><time>2026-04-22T16:19:25.796Z</time></trkpt><trkpt lat="33.3804167" lon="9.096855"><ele>76.0</ele><time>2026-04-22T16:19:26.796Z</time></trkpt><trkpt lat="33.38033" lon="9.0965983"><ele>76.5</ele><time>2026-04-22T16:19:27.796Z</time></trkpt><trkpt lat="33.3802467" lon="9.096345"><ele>77.0</ele><time>2026-04-22T16:19:28.796Z</time></trkpt><trkpt lat="33.38016" lon="9.0960883"><ele>77.0</ele><time>2026-04-22T16:19:29.796Z</time></trkpt><trkpt lat="33.3800733" lon="9.0958333"><ele>77.0</ele><time>2026-04-22T16:19:30.796Z</time></trkpt><trkpt lat="33.3799867" lon="9.0955833"><ele>77.5</ele><time>2026-04-22T16:19:31.796Z</time></trkpt><trkpt lat="33.379895" lon="9.0953317"><ele>78.0</ele><time>2026-04-22T16:19:32.797Z</time></trkpt><trkpt lat="33.3798117" lon="9.09508"><ele>78.33333333333333</ele><time>2026-04-22T16:19:33.796Z</time></trkpt><trkpt lat="33.379725" lon="9.0948267"><ele>78.66666666666666</ele><time>2026-04-22T16:19:34.796Z</time></trkpt><trkpt lat="33.3796433" lon="9.0945817"><ele>79.0</ele><time>2026-04-22T16:19:35.796Z</time></trkpt><trkpt lat="33.3795567" lon="9.0943267"><ele>77.5</ele><time>2026-04-22T16:19:36.796Z</time></trkpt><trkpt lat="33.3794733" lon="9.0940683"><ele>76.0</ele><time>2026-04-22T16:19:37.796Z</time></trkpt><trkpt lat="33.3793867" lon="9.0938083"><ele>76.0</ele><time>2026-04-22T16:19:38.796Z</time></trkpt><trkpt lat="33.3793" lon="9.093555"><ele>76.0</ele><time>2026-04-22T16:19:39.796Z</time></trkpt><trkpt lat="33.3792183" lon="9.0933"><ele>75.0</ele><time>2026-04-22T16:19:40.796Z</time></trkpt><trkpt lat="33.3791317" lon="9.0930433"><ele>74.0</ele><time>2026-04-22T16:19:41.796Z</time></trkpt><trkpt lat="33.3790533" lon="9.0927767"><ele>74.0</ele><time>2026-04-22T16:19:42.796Z</time></trkpt><trkpt lat="33.37899" lon="9.0925133"><ele>74.0</ele><time>2026-04-22T16:19:43.796Z</time></trkpt><trkpt lat="33.3789383" lon="9.0922417"><ele>74.0</ele><time>2026-04-22T16:19:44.796Z</time></trkpt><trkpt lat="33.3788883" lon="9.0919683"><ele>74.0</ele><time>2026-04-22T16:19:45.796Z</time></trkpt><trkpt lat="33.3788467" lon="9.0916933"><ele>75.33333333333334</ele><time>2026-04-22T16:19:46.796Z</time></trkpt><trkpt lat="33.3788167" lon="9.0914333"><ele>76.66666666666667</ele><time>2026-04-22T16:19:47.796Z</time></trkpt><trkpt lat="33.3787883" lon="9.0911633"><ele>78.0</ele><time>2026-04-22T16:19:48.796Z</time></trkpt><trkpt lat="33.3787583" lon="9.0908917"><ele>76.0</ele><time>2026-04-22T16:19:49.796Z</time></trkpt><trkpt lat="33.378725" lon="9.0906233"><ele>74.0</ele><time>2026-04-22T16:19:50.796Z</time></trkpt><trkpt lat="33.3786933" lon="9.09034"><ele>74.0</ele><time>2026-04-22T16:19:51.796Z</time></trkpt><trkpt lat="33.3786733" lon="9.09008"><ele>74.0</ele><time>2026-04-22T16:19:52.796Z</time></trkpt><trkpt lat="33.3786417" lon="9.0898117"><ele>74.0</ele><time>2026-04-22T16:19:53.796Z</time></trkpt><trkpt lat="33.378605" lon="9.0895367"><ele>74.5</ele><time>2026-04-22T16:19:54.796Z</time></trkpt><trkpt lat="33.3785733" lon="9.0892633"><ele>75.0</ele><time>2026-04-22T16:19:55.796Z</time></trkpt><trkpt lat="33.3785333" lon="9.088985"><ele>75.0</ele><time>2026-04-22T16:19:56.796Z</time></trkpt><trkpt lat="33.3784983" lon="9.0887133"><ele>75.0</ele><time>2026-04-22T16:19:57.796Z</time></trkpt><trkpt lat="33.378465" lon="9.0884467"><ele>75.5</ele><time>2026-04-22T16:19:58.796Z</time></trkpt><trkpt lat="33.3784283" lon="9.08818"><ele>76.0</ele><time>2026-04-22T16:19:59.796Z</time></trkpt><trkpt lat="33.3783983" lon="9.087905"><ele>76.0</ele><time>2026-04-22T16:20:00.796Z</time></trkpt><trkpt lat="33.3783717" lon="9.0876283"><ele>76.0</ele><time>2026-04-22T16:20:01.796Z</time></trkpt><trkpt lat="33.37834" lon="9.0873583"><ele>75.66666666666666</ele><time>2026-04-22T16:20:02.797Z</time></trkpt><trkpt lat="33.3783133" lon="9.0870917"><ele>75.33333333333333</ele><time>2026-04-22T16:20:03.796Z</time></trkpt><trkpt lat="33.3782833" lon="9.086825"><ele>75.0</ele><time>2026-04-22T16:20:04.796Z</time></trkpt><trkpt lat="33.37825" lon="9.0865517"><ele>74.0</ele><time>2026-04-22T16:20:05.796Z</time></trkpt><trkpt lat="33.3782133" lon="9.0862783"><ele>73.0</ele><time>2026-04-22T16:20:06.796Z</time></trkpt><trkpt lat="33.3781817" lon="9.086005"><ele>71.5</ele><time>2026-04-22T16:20:07.796Z</time></trkpt><trkpt lat="33.3781583" lon="9.0857333"><ele>70.0</ele><time>2026-04-22T16:20:08.797Z</time></trkpt><trkpt lat="33.378135" lon="9.0854567"><ele>70.0</ele><time>2026-04-22T16:20:09.796Z</time></trkpt><trkpt lat="33.3781067" lon="9.0851817"><ele>70.0</ele><time>2026-04-22T16:20:10.796Z</time></trkpt><trkpt lat="33.37808" lon="9.084905"><ele>71.0</ele><time>2026-04-22T16:20:11.797Z</time></trkpt><trkpt lat="33.3780483" lon="9.0846433"><ele>72.0</ele><time>2026-04-22T16:20:12.796Z</time></trkpt><trkpt lat="33.3780183" lon="9.084365"><ele>74.5</ele><time>2026-04-22T16:20:13.796Z</time></trkpt><trkpt lat="33.3779967" lon="9.0840833"><ele>77.0</ele><time>2026-04-22T16:20:14.796Z</time></trkpt><trkpt lat="33.3779767" lon="9.0838017"><ele>77.0</ele><time>2026-04-22T16:20:15.796Z</time></trkpt><trkpt lat="33.37797" lon="9.083525"><ele>77.0</ele><time>2026-04-22T16:20:16.796Z</time></trkpt><trkpt lat="33.3779717" lon="9.083255"><ele>77.33333333333334</ele><time>2026-04-22T16:20:17.796Z</time></trkpt><trkpt lat="33.3779867" lon="9.08299"><ele>77.66666666666667</ele><time>2026-04-22T16:20:18.796Z</time></trkpt><trkpt lat="33.378015" lon="9.0827317"><ele>78.0</ele><time>2026-04-22T16:20:19.796Z</time></trkpt><trkpt lat="33.378055" lon="9.082465"><ele>78.33333333333333</ele><time>2026-04-22T16:20:20.796Z</time></trkpt><trkpt lat="33.3781083" lon="9.0822117"><ele>78.66666666666666</ele><time>2026-04-22T16:20:21.796Z</time></trkpt><trkpt lat="33.37817" lon="9.0819683"><ele>79.0</ele><time>2026-04-22T16:20:22.796Z</time></trkpt><trkpt lat="33.3782317" lon="9.0817167"><ele>78.66666666666666</ele><time>2026-04-22T16:20:23.796Z</time></trkpt><trkpt lat="33.378305" lon="9.0814683"><ele>78.33333333333333</ele><time>2026-04-22T16:20:24.796Z</time></trkpt><trkpt lat="33.37839" lon="9.0812183"><ele>78.0</ele><time>2026-04-22T16:20:25.796Z</time></trkpt><trkpt lat="33.37848" lon="9.080975"><ele>77.66666666666667</ele><time>2026-04-22T16:20:26.796Z</time></trkpt><trkpt lat="33.3785683" lon="9.080725"><ele>77.33333333333334</ele><time>2026-04-22T16:20:27.796Z</time></trkpt><trkpt lat="33.3786667" lon="9.0804883"><ele>77.0</ele><time>2026-04-22T16:20:28.796Z</time></trkpt><trkpt lat="33.3787633" lon="9.0802483"><ele>77.0</ele><time>2026-04-22T16:20:29.796Z</time></trkpt><trkpt lat="33.378865" lon="9.0799983"><ele>77.0</ele><time>2026-04-22T16:20:30.796Z</time></trkpt><trkpt lat="33.3789583" lon="9.0797517"><ele>78.5</ele><time>2026-04-22T16:20:31.796Z</time></trkpt><trkpt lat="33.3790567" lon="9.07951"><ele>80.0</ele><time>2026-04-22T16:20:32.796Z</time></trkpt><trkpt lat="33.3791567" lon="9.079265"><ele>79.66666666666667</ele><time>2026-04-22T16:20:33.796Z</time></trkpt><trkpt lat="33.37924" lon="9.0790167"><ele>79.33333333333333</ele><time>2026-04-22T16:20:34.796Z</time></trkpt><trkpt lat="33.3793133" lon="9.0787683"><ele>79.0</ele><time>2026-04-22T16:20:35.797Z</time></trkpt><trkpt lat="33.3793717" lon="9.0785083"><ele>78.66666666666666</ele><time>2026-04-22T16:20:36.796Z</time></trkpt><trkpt lat="33.379425" lon="9.0782467"><ele>78.33333333333333</ele><time>2026-04-22T16:20:37.796Z</time></trkpt><trkpt lat="33.3794683" lon="9.077985"><ele>78.0</ele><time>2026-04-22T16:20:38.796Z</time></trkpt><trkpt lat="33.3795117" lon="9.077725"><ele>78.0</ele><time>2026-04-22T16:20:39.796Z</time></trkpt><trkpt lat="33.37954" lon="9.0774617"><ele>78.0</ele><time>2026-04-22T16:20:40.796Z</time></trkpt><trkpt lat="33.3795683" lon="9.0772033"><ele>78.0</ele><time>2026-04-22T16:20:41.796Z</time></trkpt><trkpt lat="33.3795867" lon="9.0769467"><ele>77.33333333333333</ele><time>2026-04-22T16:20:42.796Z</time></trkpt><trkpt lat="33.3796" lon="9.0766883"><ele>76.66666666666666</ele><time>2026-04-22T16:20:43.796Z</time></trkpt><trkpt lat="33.37961" lon="9.076425"><ele>76.0</ele><time>2026-04-22T16:20:44.796Z</time></trkpt><trkpt lat="33.3796083" lon="9.0761583"><ele>74.5</ele><time>2026-04-22T16:20:45.796Z</time></trkpt><trkpt lat="33.3795967" lon="9.07589"><ele>73.0</ele><time>2026-04-22T16:20:46.797Z</time></trkpt><trkpt lat="33.3795783" lon="9.075615"><ele>73.0</ele><time>2026-04-22T16:20:47.796Z</time></trkpt><trkpt lat="33.3795617" lon="9.0753483"><ele>73.0</ele><time>2026-04-22T16:20:48.796Z</time></trkpt><trkpt lat="33.3795483" lon="9.0750933"><ele>73.0</ele><time>2026-04-22T16:20:49.796Z</time></trkpt><trkpt lat="33.3795333" lon="9.0748217"><ele>72.66666666666666</ele><time>2026-04-22T16:20:50.796Z</time></trkpt><trkpt lat="33.3795217" lon="9.0745633"><ele>72.33333333333333</ele><time>2026-04-22T16:20:51.797Z</time></trkpt><trkpt lat="33.3795" lon="9.074295"><ele>72.0</ele><time>2026-04-22T16:20:52.796Z</time></trkpt><trkpt lat="33.37948" lon="9.07403"><ele>73.66666666666667</ele><time>2026-04-22T16:20:53.796Z</time></trkpt><trkpt lat="33.3794667" lon="9.0737667"><ele>75.33333333333334</ele><time>2026-04-22T16:20:54.796Z</time></trkpt><trkpt lat="33.3794433" lon="9.073505"><ele>77.0</ele><time>2026-04-22T16:20:55.796Z</time></trkpt><trkpt lat="33.3794283" lon="9.0732483"><ele>77.33333333333334</ele><time>2026-04-22T16:20:56.796Z</time></trkpt><trkpt lat="33.3794083" lon="9.0729783"><ele>77.66666666666667</ele><time>2026-04-22T16:20:57.796Z</time></trkpt><trkpt lat="33.37939" lon="9.072715"><ele>78.0</ele><time>2026-04-22T16:20:58.796Z</time></trkpt><trkpt lat="33.3793667" lon="9.0724483"><ele>77.0</ele><time>2026-04-22T16:20:59.796Z</time></trkpt><trkpt lat="33.3793467" lon="9.0721783"><ele>76.0</ele><time>2026-04-22T16:21:00.796Z</time></trkpt><trkpt lat="33.3793283" lon="9.0719067"><ele>76.0</ele><time>2026-04-22T16:21:01.796Z</time></trkpt><trkpt lat="33.3793033" lon="9.0716333"><ele>76.0</ele><time>2026-04-22T16:21:02.796Z</time></trkpt><trkpt lat="33.379275" lon="9.0713567"><ele>76.5</ele><time>2026-04-22T16:21:03.796Z</time></trkpt><trkpt lat="33.3792533" lon="9.071085"><ele>77.0</ele><time>2026-04-22T16:21:04.796Z</time></trkpt><trkpt lat="33.379235" lon="9.0708117"><ele>77.33333333333334</ele><time>2026-04-22T16:21:05.796Z</time></trkpt><trkpt lat="33.3792167" lon="9.0705467"><ele>77.66666666666667</ele><time>2026-04-22T16:21:06.797Z</time></trkpt><trkpt lat="33.379195" lon="9.0702833"><ele>78.0</ele><time>2026-04-22T16:21:07.796Z</time></trkpt><trkpt lat="33.3791817" lon="9.0700183"><ele>76.0</ele><time>2026-04-22T16:21:08.796Z</time></trkpt><trkpt lat="33.37916" lon="9.0697533"><ele>74.0</ele><time>2026-04-22T16:21:09.796Z</time></trkpt><trkpt lat="33.3791333" lon="9.06948"><ele>74.0</ele><time>2026-04-22T16:21:10.796Z</time></trkpt><trkpt lat="33.3791133" lon="9.0692117"><ele>74.0</ele><time>2026-04-22T16:21:11.797Z</time></trkpt><trkpt lat="33.3790967" lon="9.0689517"><ele>74.0</ele><time>2026-04-22T16:21:12.796Z</time></trkpt><trkpt lat="33.3790833" lon="9.0687033"><ele>74.0</ele><time>2026-04-22T16:21:13.796Z</time></trkpt><trkpt lat="33.37908" lon="9.06848"><ele>74.0</ele><time>2026-04-22T16:21:14.796Z</time></trkpt><trkpt lat="33.3790767" lon="9.0682533"><ele>74.0</ele><time>2026-04-22T16:21:15.796Z</time></trkpt><trkpt lat="33.37908" lon="9.0680283"><ele>74.0</ele><time>2026-04-22T16:21:16.796Z</time></trkpt><trkpt lat="33.37909" lon="9.0678117"><ele>74.0</ele><time>2026-04-22T16:21:17.796Z</time></trkpt><trkpt lat="33.3790967" lon="9.0675967"><ele>74.0</ele><time>2026-04-22T16:21:18.795Z</time></trkpt><trkpt lat="33.379115" lon="9.0673667"><ele>74.0</ele><time>2026-04-22T16:21:19.795Z</time></trkpt><trkpt lat="33.3791367" lon="9.0671417"><ele>74.0</ele><time>2026-04-22T16:21:20.795Z</time></trkpt><trkpt lat="33.3791683" lon="9.0669133"><ele>74.0</ele><time>2026-04-22T16:21:21.795Z</time></trkpt><trkpt lat="33.3791967" lon="9.066685"><ele>75.0</ele><time>2026-04-22T16:21:22.795Z</time></trkpt><trkpt lat="33.3792367" lon="9.0664617"><ele>76.0</ele><time>2026-04-22T16:21:23.795Z</time></trkpt><trkpt lat="33.37928" lon="9.0662333"><ele>77.0</ele><time>2026-04-22T16:21:24.796Z</time></trkpt><trkpt lat="33.3793333" lon="9.0660083"><ele>77.0</ele><time>2026-04-22T16:21:25.795Z</time></trkpt><trkpt lat="33.37941" lon="9.0657833"><ele>77.0</ele><time>2026-04-22T16:21:26.795Z</time></trkpt><trkpt lat="33.3795" lon="9.0655683"><ele>77.0</ele><time>2026-04-22T16:21:27.795Z</time></trkpt><trkpt lat="33.37959" lon="9.065345"><ele>77.33333333333334</ele><time>2026-04-22T16:21:28.795Z</time></trkpt><trkpt lat="33.379685" lon="9.0651283"><ele>77.66666666666667</ele><time>2026-04-22T16:21:29.795Z</time></trkpt><trkpt lat="33.3797817" lon="9.0649217"><ele>78.0</ele><time>2026-04-22T16:21:30.795Z</time></trkpt><trkpt lat="33.37989" lon="9.0647167"><ele>78.66666666666667</ele><time>2026-04-22T16:21:31.795Z</time></trkpt><trkpt lat="33.38" lon="9.0645167"><ele>79.33333333333334</ele><time>2026-04-22T16:21:32.795Z</time></trkpt><trkpt lat="33.3801133" lon="9.06432"><ele>80.0</ele><time>2026-04-22T16:21:33.795Z</time></trkpt><trkpt lat="33.380235" lon="9.064125"><ele>79.66666666666667</ele><time>2026-04-22T16:21:34.795Z</time></trkpt><trkpt lat="33.3803583" lon="9.0639267"><ele>79.33333333333333</ele><time>2026-04-22T16:21:35.795Z</time></trkpt><trkpt lat="33.3804883" lon="9.0637317"><ele>79.0</ele><time>2026-04-22T16:21:36.795Z</time></trkpt><trkpt lat="33.3806317" lon="9.0635467"><ele>78.66666666666666</ele><time>2026-04-22T16:21:37.795Z</time></trkpt><trkpt lat="33.3807767" lon="9.0633833"><ele>78.33333333333333</ele><time>2026-04-22T16:21:38.795Z</time></trkpt><trkpt lat="33.38093" lon="9.0632167"><ele>78.0</ele><time>2026-04-22T16:21:39.795Z</time></trkpt><trkpt lat="33.3810917" lon="9.0630717"><ele>78.0</ele><time>2026-04-22T16:21:40.796Z</time></trkpt><trkpt lat="33.3812583" lon="9.0629267"><ele>78.0</ele><time>2026-04-22T16:21:41.795Z</time></trkpt><trkpt lat="33.3814217" lon="9.0627717"><ele>78.0</ele><time>2026-04-22T16:21:42.795Z</time></trkpt><trkpt lat="33.3815917" lon="9.0626267"><ele>78.33333333333333</ele><time>2026-04-22T16:21:43.795Z</time></trkpt><trkpt lat="33.38176" lon="9.06247"><ele>78.66666666666666</ele><time>2026-04-22T16:21:44.795Z</time></trkpt><trkpt lat="33.38193" lon="9.0623083"><ele>79.0</ele><time>2026-04-22T16:21:45.795Z</time></trkpt><trkpt lat="33.382115" lon="9.062165"><ele>78.66666666666666</ele><time>2026-04-22T16:21:46.795Z</time></trkpt><trkpt lat="33.382285" lon="9.062025"><ele>78.33333333333333</ele><time>2026-04-22T16:21:47.795Z</time></trkpt><trkpt lat="33.3824667" lon="9.0618817"><ele>78.0</ele><time>2026-04-22T16:21:48.795Z</time></trkpt><trkpt lat="33.3826383" lon="9.061735"><ele>78.33333333333333</ele><time>2026-04-22T16:21:49.795Z</time></trkpt><trkpt lat="33.3828133" lon="9.061595"><ele>78.66666666666666</ele><time>2026-04-22T16:21:50.796Z</time></trkpt><trkpt lat="33.3829917" lon="9.0614467"><ele>79.0</ele><time>2026-04-22T16:21:51.795Z</time></trkpt><trkpt lat="33.3831533" lon="9.06127"><ele>79.0</ele><time>2026-04-22T16:21:52.795Z</time></trkpt><trkpt lat="33.383315" lon="9.0610767"><ele>79.0</ele><time>2026-04-22T16:21:53.795Z</time></trkpt><trkpt lat="33.3834717" lon="9.0608933"><ele>79.0</ele><time>2026-04-22T16:21:54.795Z</time></trkpt><trkpt lat="33.3836133" lon="9.060695"><ele>78.66666666666666</ele><time>2026-04-22T16:21:55.795Z</time></trkpt><trkpt lat="33.3837483" lon="9.06049"><ele>78.33333333333333</ele><time>2026-04-22T16:21:56.795Z</time></trkpt><trkpt lat="33.3838717" lon="9.0602933"><ele>78.0</ele><time>2026-04-22T16:21:57.795Z</time></trkpt><trkpt lat="33.3839867" lon="9.0600733"><ele>77.33333333333333</ele><time>2026-04-22T16:21:58.796Z</time></trkpt><trkpt lat="33.3840767" lon="9.05983"><ele>76.66666666666666</ele><time>2026-04-22T16:21:59.795Z</time></trkpt><trkpt lat="33.384145" lon="9.0595833"><ele>76.0</ele><time>2026-04-22T16:22:00.795Z</time></trkpt><trkpt lat="33.384205" lon="9.0593317"><ele>76.66666666666666</ele><time>2026-04-22T16:22:01.795Z</time></trkpt><trkpt lat="33.3842567" lon="9.0590833"><ele>77.33333333333333</ele><time>2026-04-22T16:22:02.795Z</time></trkpt><trkpt lat="33.3843133" lon="9.058825"><ele>78.0</ele><time>2026-04-22T16:22:03.796Z</time></trkpt><trkpt lat="33.3843717" lon="9.0585767"><ele>78.0</ele><time>2026-04-22T16:22:04.795Z</time></trkpt><trkpt lat="33.3844333" lon="9.0583333"><ele>78.0</ele><time>2026-04-22T16:22:05.795Z</time></trkpt><trkpt lat="33.38449" lon="9.0580833"><ele>78.0</ele><time>2026-04-22T16:22:06.795Z</time></trkpt><trkpt lat="33.3845433" lon="9.057835"><ele>78.0</ele><time>2026-04-22T16:22:07.795Z</time></trkpt><trkpt lat="33.3845967" lon="9.0575833"><ele>78.0</ele><time>2026-04-22T16:22:08.795Z</time></trkpt><trkpt lat="33.384655" lon="9.0573333"><ele>78.0</ele><time>2026-04-22T16:22:09.795Z</time></trkpt><trkpt lat="33.3847083" lon="9.0570817"><ele>78.0</ele><time>2026-04-22T16:22:10.795Z</time></trkpt><trkpt lat="33.384765" lon="9.0568267"><ele>78.0</ele><time>2026-04-22T16:22:11.795Z</time></trkpt><trkpt lat="33.3848317" lon="9.0565733"><ele>78.0</ele><time>2026-04-22T16:22:12.795Z</time></trkpt><trkpt lat="33.3849017" lon="9.056315"><ele>77.5</ele><time>2026-04-22T16:22:13.795Z</time></trkpt><trkpt lat="33.3849683" lon="9.05606"><ele>77.0</ele><time>2026-04-22T16:22:14.795Z</time></trkpt><trkpt lat="33.38504" lon="9.0557983"><ele>77.0</ele><time>2026-04-22T16:22:15.795Z</time></trkpt><trkpt lat="33.3851" lon="9.0555367"><ele>77.0</ele><time>2026-04-22T16:22:16.795Z</time></trkpt><trkpt lat="33.38516" lon="9.05528"><ele>77.0</ele><time>2026-04-22T16:22:17.795Z</time></trkpt><trkpt lat="33.3852133" lon="9.0550183"><ele>75.5</ele><time>2026-04-22T16:22:18.795Z</time></trkpt><trkpt lat="33.38528" lon="9.054755"><ele>74.0</ele><time>2026-04-22T16:22:19.796Z</time></trkpt><trkpt lat="33.3853367" lon="9.054495"><ele>74.0</ele><time>2026-04-22T16:22:20.795Z</time></trkpt><trkpt lat="33.3853933" lon="9.05424"><ele>74.0</ele><time>2026-04-22T16:22:21.795Z</time></trkpt><trkpt lat="33.3854383" lon="9.053985"><ele>74.0</ele><time>2026-04-22T16:22:22.795Z</time></trkpt><trkpt lat="33.3854867" lon="9.0537233"><ele>74.0</ele><time>2026-04-22T16:22:23.795Z</time></trkpt><trkpt lat="33.38553" lon="9.053465"><ele>74.0</ele><time>2026-04-22T16:22:24.795Z</time></trkpt><trkpt lat="33.38557" lon="9.0531983"><ele>74.0</ele><time>2026-04-22T16:22:25.796Z</time></trkpt><trkpt lat="33.38561" lon="9.0529367"><ele>73.66666666666667</ele><time>2026-04-22T16:22:26.795Z</time></trkpt><trkpt lat="33.3856367" lon="9.0526683"><ele>73.33333333333333</ele><time>2026-04-22T16:22:27.795Z</time></trkpt><trkpt lat="33.38566" lon="9.0524083"><ele>73.0</ele><time>2026-04-22T16:22:28.795Z</time></trkpt><trkpt lat="33.3856783" lon="9.052145"><ele>72.5</ele><time>2026-04-22T16:22:29.795Z</time></trkpt><trkpt lat="33.3856917" lon="9.0518817"><ele>72.0</ele><time>2026-04-22T16:22:30.795Z</time></trkpt><trkpt lat="33.3857083" lon="9.0516067"><ele>72.0</ele><time>2026-04-22T16:22:31.795Z</time></trkpt><trkpt lat="33.3857117" lon="9.0513367"><ele>72.0</ele><time>2026-04-22T16:22:32.795Z</time></trkpt><trkpt lat="33.3857133" lon="9.0510667"><ele>72.0</ele><time>2026-04-22T16:22:33.795Z</time></trkpt><trkpt lat="33.385705" lon="9.0507917"><ele>72.0</ele><time>2026-04-22T16:22:34.796Z</time></trkpt><trkpt lat="33.385695" lon="9.0505217"><ele>72.66666666666667</ele><time>2026-04-22T16:22:35.795Z</time></trkpt><trkpt lat="33.385685" lon="9.0502617"><ele>73.33333333333334</ele><time>2026-04-22T16:22:36.795Z</time></trkpt><trkpt lat="33.3856717" lon="9.0499967"><ele>74.0</ele><time>2026-04-22T16:22:37.795Z</time></trkpt><trkpt lat="33.38567" lon="9.0497333"><ele>74.0</ele><time>2026-04-22T16:22:38.795Z</time></trkpt><trkpt lat="33.385665" lon="9.04948"><ele>74.0</ele><time>2026-04-22T16:22:39.796Z</time></trkpt><trkpt lat="33.38563" lon="9.0492083"><ele>74.0</ele><time>2026-04-22T16:22:40.795Z</time></trkpt><trkpt lat="33.3855883" lon="9.04893"><ele>73.5</ele><time>2026-04-22T16:22:41.795Z</time></trkpt><trkpt lat="33.3855533" lon="9.04865"><ele>73.0</ele><time>2026-04-22T16:22:42.795Z</time></trkpt><trkpt lat="33.38551" lon="9.0483733"><ele>72.0</ele><time>2026-04-22T16:22:43.795Z</time></trkpt><trkpt lat="33.3854733" lon="9.0481017"><ele>71.0</ele><time>2026-04-22T16:22:44.795Z</time></trkpt><trkpt lat="33.3854267" lon="9.047825"><ele>71.0</ele><time>2026-04-22T16:22:45.795Z</time></trkpt><trkpt lat="33.3853817" lon="9.0475517"><ele>71.0</ele><time>2026-04-22T16:22:46.795Z</time></trkpt><trkpt lat="33.3853433" lon="9.047265"><ele>70.5</ele><time>2026-04-22T16:22:47.795Z</time></trkpt><trkpt lat="33.3853183" lon="9.0469883"><ele>70.0</ele><time>2026-04-22T16:22:48.795Z</time></trkpt><trkpt lat="33.3853033" lon="9.0467183"><ele>70.0</ele><time>2026-04-22T16:22:49.795Z</time></trkpt><trkpt lat="33.3852933" lon="9.0464433"><ele>70.0</ele><time>2026-04-22T16:22:50.795Z</time></trkpt><trkpt lat="33.3852833" lon="9.04617"><ele>70.0</ele><time>2026-04-22T16:22:51.795Z</time></trkpt><trkpt lat="33.3852783" lon="9.0458933"><ele>70.0</ele><time>2026-04-22T16:22:52.795Z</time></trkpt><trkpt lat="33.3852733" lon="9.045625"><ele>70.5</ele><time>2026-04-22T16:22:53.795Z</time></trkpt><trkpt lat="33.385275" lon="9.0453433"><ele>71.0</ele><time>2026-04-22T16:22:54.795Z</time></trkpt><trkpt lat="33.385285" lon="9.045055"><ele>71.0</ele><time>2026-04-22T16:22:55.795Z</time></trkpt><trkpt lat="33.385305" lon="9.0447733"><ele>71.0</ele><time>2026-04-22T16:22:56.796Z</time></trkpt><trkpt lat="33.3853183" lon="9.044485"><ele>71.0</ele><time>2026-04-22T16:22:57.795Z</time></trkpt><trkpt lat="33.385335" lon="9.044205"><ele>71.0</ele><time>2026-04-22T16:22:58.795Z</time></trkpt><trkpt lat="33.3853517" lon="9.0439167"><ele>70.5</ele><time>2026-04-22T16:22:59.795Z</time></trkpt><trkpt lat="33.3853717" lon="9.0436417"><ele>70.0</ele><time>2026-04-22T16:23:00.795Z</time></trkpt><trkpt lat="33.38539" lon="9.0433667"><ele>70.5</ele><time>2026-04-22T16:23:01.795Z</time></trkpt><trkpt lat="33.3854017" lon="9.0430967"><ele>71.0</ele><time>2026-04-22T16:23:02.795Z</time></trkpt><trkpt lat="33.3854233" lon="9.042825"><ele>71.0</ele><time>2026-04-22T16:23:03.795Z</time></trkpt><trkpt lat="33.38544" lon="9.04255"><ele>71.0</ele><time>2026-04-22T16:23:04.795Z</time></trkpt><trkpt lat="33.38546" lon="9.0422817"><ele>72.5</ele><time>2026-04-22T16:23:05.795Z</time></trkpt><trkpt lat="33.385475" lon="9.042005"><ele>74.0</ele><time>2026-04-22T16:23:06.795Z</time></trkpt><trkpt lat="33.3854933" lon="9.0417283"><ele>72.5</ele><time>2026-04-22T16:23:07.795Z</time></trkpt><trkpt lat="33.38551" lon="9.0414583"><ele>71.0</ele><time>2026-04-22T16:23:08.795Z</time></trkpt><trkpt lat="33.385515" lon="9.04119"><ele>71.0</ele><time>2026-04-22T16:23:09.795Z</time></trkpt><trkpt lat="33.385525" lon="9.040925"><ele>71.0</ele><time>2026-04-22T16:23:10.795Z</time></trkpt><trkpt lat="33.3855417" lon="9.0406533"><ele>71.0</ele><time>2026-04-22T16:23:11.795Z</time></trkpt><trkpt lat="33.3855533" lon="9.0403817"><ele>71.0</ele><time>2026-04-22T16:23:12.795Z</time></trkpt><trkpt lat="33.3855717" lon="9.0401117"><ele>71.0</ele><time>2026-04-22T16:23:13.795Z</time></trkpt><trkpt lat="33.3855883" lon="9.0398483"><ele>71.0</ele><time>2026-04-22T16:23:14.795Z</time></trkpt><trkpt lat="33.3856067" lon="9.0395867"><ele>71.0</ele><time>2026-04-22T16:23:15.795Z</time></trkpt><trkpt lat="33.385625" lon="9.0393283"><ele>71.0</ele><time>2026-04-22T16:23:16.795Z</time></trkpt><trkpt lat="33.3856517" lon="9.0390567"><ele>71.0</ele><time>2026-04-22T16:23:17.795Z</time></trkpt><trkpt lat="33.385675" lon="9.0387883"><ele>71.33333333333334</ele><time>2026-04-22T16:23:18.795Z</time></trkpt><trkpt lat="33.38569" lon="9.0385267"><ele>71.66666666666667</ele><time>2026-04-22T16:23:19.795Z</time></trkpt><trkpt lat="33.3857017" lon="9.0382533"><ele>72.0</ele><time>2026-04-22T16:23:20.795Z</time></trkpt><trkpt lat="33.38572" lon="9.0379783"><ele>72.0</ele><time>2026-04-22T16:23:21.795Z</time></trkpt><trkpt lat="33.3857383" lon="9.03771"><ele>72.0</ele><time>2026-04-22T16:23:22.795Z</time></trkpt><trkpt lat="33.3857633" lon="9.0374383"><ele>71.66666666666667</ele><time>2026-04-22T16:23:23.795Z</time></trkpt><trkpt lat="33.3857883" lon="9.0371717"><ele>71.33333333333334</ele><time>2026-04-22T16:23:24.795Z</time></trkpt><trkpt lat="33.3858167" lon="9.036905"><ele>71.0</ele><time>2026-04-22T16:23:25.793Z</time></trkpt><trkpt lat="33.385835" lon="9.03664"><ele>71.33333333333334</ele><time>2026-04-22T16:23:26.795Z</time></trkpt><trkpt lat="33.3858467" lon="9.0363717"><ele>71.66666666666667</ele><time>2026-04-22T16:23:27.795Z</time></trkpt><trkpt lat="33.3858617" lon="9.0361067"><ele>72.0</ele><time>2026-04-22T16:23:28.796Z</time></trkpt><trkpt lat="33.3858767" lon="9.0358417"><ele>72.5</ele><time>2026-04-22T16:23:29.795Z</time></trkpt><trkpt lat="33.3859" lon="9.0355717"><ele>73.0</ele><time>2026-04-22T16:23:30.795Z</time></trkpt><trkpt lat="33.3859183" lon="9.0352967"><ele>73.0</ele><time>2026-04-22T16:23:31.795Z</time></trkpt><trkpt lat="33.3859283" lon="9.0350233"><ele>73.0</ele><time>2026-04-22T16:23:32.795Z</time></trkpt><trkpt lat="33.38594" lon="9.0347567"><ele>72.0</ele><time>2026-04-22T16:23:33.795Z</time></trkpt><trkpt lat="33.3859567" lon="9.0344833"><ele>71.0</ele><time>2026-04-22T16:23:34.795Z</time></trkpt><trkpt lat="33.3859783" lon="9.03421"><ele>71.0</ele><time>2026-04-22T16:23:35.795Z</time></trkpt><trkpt lat="33.3860033" lon="9.0339317"><ele>71.0</ele><time>2026-04-22T16:23:36.795Z</time></trkpt><trkpt lat="33.38603" lon="9.03366"><ele>71.0</ele><time>2026-04-22T16:23:37.795Z</time></trkpt><trkpt lat="33.3860433" lon="9.0333983"><ele>71.0</ele><time>2026-04-22T16:23:38.795Z</time></trkpt><trkpt lat="33.386065" lon="9.0331333"><ele>71.0</ele><time>2026-04-22T16:23:39.795Z</time></trkpt><trkpt lat="33.3860817" lon="9.0328567"><ele>70.5</ele><time>2026-04-22T16:23:40.795Z</time></trkpt><trkpt lat="33.386085" lon="9.0325783"><ele>70.0</ele><time>2026-04-22T16:23:41.795Z</time></trkpt><trkpt lat="33.3860967" lon="9.0323033"><ele>70.0</ele><time>2026-04-22T16:23:42.795Z</time></trkpt><trkpt lat="33.38613" lon="9.0320383"><ele>70.0</ele><time>2026-04-22T16:23:43.795Z</time></trkpt><trkpt lat="33.3861583" lon="9.0317667"><ele>69.0</ele><time>2026-04-22T16:23:44.795Z</time></trkpt><trkpt lat="33.3861767" lon="9.03149"><ele>68.0</ele><time>2026-04-22T16:23:45.795Z</time></trkpt><trkpt lat="33.3861933" lon="9.03122"><ele>68.0</ele><time>2026-04-22T16:23:46.795Z</time></trkpt><trkpt lat="33.3862133" lon="9.0309567"><ele>68.0</ele><time>2026-04-22T16:23:47.795Z</time></trkpt><trkpt lat="33.3862267" lon="9.0306967"><ele>68.0</ele><time>2026-04-22T16:23:48.796Z</time></trkpt><trkpt lat="33.3862383" lon="9.03043"><ele>69.0</ele><time>2026-04-22T16:23:49.795Z</time></trkpt><trkpt lat="33.386255" lon="9.0301683"><ele>70.0</ele><time>2026-04-22T16:23:50.795Z</time></trkpt><trkpt lat="33.38627" lon="9.0299033"><ele>71.0</ele><time>2026-04-22T16:23:51.795Z</time></trkpt><trkpt lat="33.3862817" lon="9.02965"><ele>71.0</ele><time>2026-04-22T16:23:52.795Z</time></trkpt><trkpt lat="33.3862967" lon="9.0293917"><ele>71.0</ele><time>2026-04-22T16:23:53.795Z</time></trkpt><trkpt lat="33.38631" lon="9.0291317"><ele>71.0</ele><time>2026-04-22T16:23:54.795Z</time></trkpt><trkpt lat="33.3863317" lon="9.0288717"><ele>70.0</ele><time>2026-04-22T16:23:55.795Z</time></trkpt><trkpt lat="33.3863517" lon="9.0286017"><ele>69.0</ele><time>2026-04-22T16:23:56.795Z</time></trkpt><trkpt lat="33.3863683" lon="9.028335"><ele>69.0</ele><time>2026-04-22T16:23:57.795Z</time></trkpt><trkpt lat="33.3863817" lon="9.0280767"><ele>69.0</ele><time>2026-04-22T16:23:58.795Z</time></trkpt><trkpt lat="33.386385" lon="9.0278183"><ele>69.0</ele><time>2026-04-22T16:23:59.795Z</time></trkpt><trkpt lat="33.3863867" lon="9.0275583"><ele>69.33333333333333</ele><time>2026-04-22T16:24:00.795Z</time></trkpt><trkpt lat="33.38638" lon="9.0272983"><ele>69.66666666666666</ele><time>2026-04-22T16:24:01.795Z</time></trkpt><trkpt lat="33.38637" lon="9.0270367"><ele>70.0</ele><time>2026-04-22T16:24:02.795Z</time></trkpt><trkpt lat="33.3863517" lon="9.0267717"><ele>70.0</ele><time>2026-04-22T16:24:03.795Z</time></trkpt><trkpt lat="33.3863333" lon="9.02651"><ele>70.0</ele><time>2026-04-22T16:24:04.795Z</time></trkpt><trkpt lat="33.38631" lon="9.0262533"><ele>70.0</ele><time>2026-04-22T16:24:05.795Z</time></trkpt><trkpt lat="33.3862783" lon="9.0259883"><ele>70.0</ele><time>2026-04-22T16:24:06.795Z</time></trkpt><trkpt lat="33.3862367" lon="9.0257233"><ele>70.0</ele><time>2026-04-22T16:24:07.796Z</time></trkpt><trkpt lat="33.3862017" lon="9.0254633"><ele>70.0</ele><time>2026-04-22T16:24:08.795Z</time></trkpt><trkpt lat="33.3861617" lon="9.025205"><ele>70.0</ele><time>2026-04-22T16:24:09.795Z</time></trkpt><trkpt lat="33.38611" lon="9.0249433"><ele>70.0</ele><time>2026-04-22T16:24:10.795Z</time></trkpt><trkpt lat="33.38606" lon="9.0246767"><ele>70.0</ele><time>2026-04-22T16:24:11.795Z</time></trkpt><trkpt lat="33.385995" lon="9.0244033"><ele>70.0</ele><time>2026-04-22T16:24:12.795Z</time></trkpt><trkpt lat="33.3859567" lon="9.0241467"><ele>69.66666666666666</ele><time>2026-04-22T16:24:13.795Z</time></trkpt><trkpt lat="33.385915" lon="9.0239067"><ele>69.33333333333333</ele><time>2026-04-22T16:24:14.795Z</time></trkpt><trkpt lat="33.3858717" lon="9.0236767"><ele>69.0</ele><time>2026-04-22T16:24:15.795Z</time></trkpt><trkpt lat="33.3858183" lon="9.0234567"><ele>69.33333333333333</ele><time>2026-04-22T16:24:16.796Z</time></trkpt><trkpt lat="33.38578" lon="9.02324"><ele>69.66666666666666</ele><time>2026-04-22T16:24:17.795Z</time></trkpt><trkpt lat="33.3857517" lon="9.0230333"><ele>70.0</ele><time>2026-04-22T16:24:18.795Z</time></trkpt><trkpt lat="33.3857233" lon="9.0228183"><ele>70.0</ele><time>2026-04-22T16:24:19.795Z</time></trkpt><trkpt lat="33.3856933" lon="9.0226017"><ele>70.0</ele><time>2026-04-22T16:24:20.795Z</time></trkpt><trkpt lat="33.3856683" lon="9.0223983"><ele>70.0</ele><time>2026-04-22T16:24:21.795Z</time></trkpt><trkpt lat="33.3856483" lon="9.022185"><ele>69.66666666666666</ele><time>2026-04-22T16:24:22.796Z</time></trkpt><trkpt lat="33.3856367" lon="9.021975"><ele>69.33333333333333</ele><time>2026-04-22T16:24:23.795Z</time></trkpt><trkpt lat="33.3856367" lon="9.02177"><ele>69.0</ele><time>2026-04-22T16:24:24.795Z</time></trkpt><trkpt lat="33.3856317" lon="9.0215733"><ele>68.5</ele><time>2026-04-22T16:24:25.795Z</time></trkpt><trkpt lat="33.3856167" lon="9.0213883"><ele>68.0</ele><time>2026-04-22T16:24:26.795Z</time></trkpt><trkpt lat="33.3856233" lon="9.0212233"><ele>67.5</ele><time>2026-04-22T16:24:27.795Z</time></trkpt><trkpt lat="33.385625" lon="9.0210683"><ele>67.0</ele><time>2026-04-22T16:24:28.795Z</time></trkpt><trkpt lat="33.38563" lon="9.0209083"><ele>67.25</ele><time>2026-04-22T16:24:29.795Z</time></trkpt><trkpt lat="33.3856183" lon="9.02074"><ele>67.5</ele><time>2026-04-22T16:24:30.796Z</time></trkpt><trkpt lat="33.385625" lon="9.0205733"><ele>67.75</ele><time>2026-04-22T16:24:31.796Z</time></trkpt><trkpt lat="33.3856383" lon="9.020415"><ele>68.0</ele><time>2026-04-22T16:24:32.795Z</time></trkpt><trkpt lat="33.3856533" lon="9.0202633"><ele>68.0</ele><time>2026-04-22T16:24:33.795Z</time></trkpt><trkpt lat="33.385665" lon="9.02012"><ele>68.0</ele><time>2026-04-22T16:24:34.795Z</time></trkpt><trkpt lat="33.3856717" lon="9.0199767"><ele>68.0</ele><time>2026-04-22T16:24:35.795Z</time></trkpt><trkpt lat="33.3856817" lon="9.019835"><ele>68.0</ele><time>2026-04-22T16:24:36.795Z</time></trkpt><trkpt lat="33.385695" lon="9.0196933"><ele>68.25</ele><time>2026-04-22T16:24:37.795Z</time></trkpt><trkpt lat="33.385705" lon="9.0195433"><ele>68.5</ele><time>2026-04-22T16:24:38.795Z</time></trkpt><trkpt lat="33.38572" lon="9.0193933"><ele>68.75</ele><time>2026-04-22T16:24:39.795Z</time></trkpt><trkpt lat="33.3857417" lon="9.0192383"><ele>69.0</ele><time>2026-04-22T16:24:40.795Z</time></trkpt><trkpt lat="33.38577" lon="9.0190717"><ele>69.0</ele><time>2026-04-22T16:24:41.795Z</time></trkpt><trkpt lat="33.38581" lon="9.0188983"><ele>69.0</ele><time>2026-04-22T16:24:42.794Z</time></trkpt><trkpt lat="33.3858433" lon="9.018715"><ele>69.0</ele><time>2026-04-22T16:24:43.794Z</time></trkpt><trkpt lat="33.38588" lon="9.0185217"><ele>69.0</ele><time>2026-04-22T16:24:44.794Z</time></trkpt><trkpt lat="33.38592" lon="9.018325"><ele>69.0</ele><time>2026-04-22T16:24:45.794Z</time></trkpt><trkpt lat="33.38597" lon="9.01813"><ele>69.0</ele><time>2026-04-22T16:24:46.794Z</time></trkpt><trkpt lat="33.3860133" lon="9.017935"><ele>69.0</ele><time>2026-04-22T16:24:47.794Z</time></trkpt><trkpt lat="33.3860633" lon="9.0177517"><ele>69.0</ele><time>2026-04-22T16:24:48.794Z</time></trkpt><trkpt lat="33.386105" lon="9.0175633"><ele>69.0</ele><time>2026-04-22T16:24:49.794Z</time></trkpt><trkpt lat="33.3861567" lon="9.017375"><ele>68.0</ele><time>2026-04-22T16:24:50.794Z</time></trkpt><trkpt lat="33.3862067" lon="9.0171917"><ele>67.0</ele><time>2026-04-22T16:24:51.794Z</time></trkpt><trkpt lat="33.3862533" lon="9.0170133"><ele>66.0</ele><time>2026-04-22T16:24:52.794Z</time></trkpt><trkpt lat="33.3862967" lon="9.0168383"><ele>65.75</ele><time>2026-04-22T16:24:53.794Z</time></trkpt><trkpt lat="33.3863483" lon="9.0166767"><ele>65.5</ele><time>2026-04-22T16:24:54.794Z</time></trkpt><trkpt lat="33.3864067" lon="9.0165233"><ele>65.25</ele><time>2026-04-22T16:24:55.794Z</time></trkpt><trkpt lat="33.386455" lon="9.0163783"><ele>65.0</ele><time>2026-04-22T16:24:56.794Z</time></trkpt><trkpt lat="33.386505" lon="9.0162283"><ele>65.0</ele><time>2026-04-22T16:24:57.794Z</time></trkpt><trkpt lat="33.3865717" lon="9.0160783"><ele>65.0</ele><time>2026-04-22T16:24:58.794Z</time></trkpt><trkpt lat="33.3866233" lon="9.0159233"><ele>65.0</ele><time>2026-04-22T16:24:59.794Z</time></trkpt><trkpt lat="33.3866733" lon="9.0157683"><ele>65.0</ele><time>2026-04-22T16:25:00.794Z</time></trkpt><trkpt lat="33.3867367" lon="9.0156133"><ele>65.33333333333334</ele><time>2026-04-22T16:25:01.794Z</time></trkpt><trkpt lat="33.3868" lon="9.0154417"><ele>65.66666666666667</ele><time>2026-04-22T16:25:02.794Z</time></trkpt><trkpt lat="33.3868583" lon="9.0152833"><ele>66.0</ele><time>2026-04-22T16:25:03.794Z</time></trkpt><trkpt lat="33.3869167" lon="9.0151167"><ele>67.0</ele><time>2026-04-22T16:25:04.794Z</time></trkpt><trkpt lat="33.3869783" lon="9.0149417"><ele>68.0</ele><time>2026-04-22T16:25:05.794Z</time></trkpt><trkpt lat="33.387045" lon="9.014765"><ele>69.0</ele><time>2026-04-22T16:25:06.794Z</time></trkpt><trkpt lat="33.3871167" lon="9.0145967"><ele>68.66666666666667</ele><time>2026-04-22T16:25:07.794Z</time></trkpt><trkpt lat="33.3871917" lon="9.014425"><ele>68.33333333333334</ele><time>2026-04-22T16:25:08.794Z</time></trkpt><trkpt lat="33.38726" lon="9.0142467"><ele>68.0</ele><time>2026-04-22T16:25:09.794Z</time></trkpt><trkpt lat="33.387335" lon="9.0140683"><ele>67.0</ele><time>2026-04-22T16:25:10.794Z</time></trkpt><trkpt lat="33.3874133" lon="9.0138983"><ele>66.0</ele><time>2026-04-22T16:25:11.794Z</time></trkpt><trkpt lat="33.3874967" lon="9.01373"><ele>65.0</ele><time>2026-04-22T16:25:12.794Z</time></trkpt><trkpt lat="33.3875783" lon="9.013565"><ele>65.0</ele><time>2026-04-22T16:25:13.794Z</time></trkpt><trkpt lat="33.38766" lon="9.0134033"><ele>65.0</ele><time>2026-04-22T16:25:14.794Z</time></trkpt><trkpt lat="33.3877467" lon="9.0132367"><ele>65.0</ele><time>2026-04-22T16:25:15.794Z</time></trkpt><trkpt lat="33.3878367" lon="9.013075"><ele>65.0</ele><time>2026-04-22T16:25:16.794Z</time></trkpt><trkpt lat="33.3879233" lon="9.0129233"><ele>65.0</ele><time>2026-04-22T16:25:17.794Z</time></trkpt><trkpt lat="33.3880167" lon="9.0127717"><ele>65.0</ele><time>2026-04-22T16:25:18.794Z</time></trkpt><trkpt lat="33.3881117" lon="9.0126267"><ele>64.33333333333334</ele><time>2026-04-22T16:25:19.794Z</time></trkpt><trkpt lat="33.3882133" lon="9.0124783"><ele>63.66666666666667</ele><time>2026-04-22T16:25:20.794Z</time></trkpt><trkpt lat="33.388325" lon="9.01233"><ele>63.0</ele><time>2026-04-22T16:25:21.794Z</time></trkpt><trkpt lat="33.3884417" lon="9.01218"><ele>63.0</ele><time>2026-04-22T16:25:22.794Z</time></trkpt><trkpt lat="33.3885467" lon="9.01203"><ele>63.0</ele><time>2026-04-22T16:25:23.794Z</time></trkpt><trkpt lat="33.388655" lon="9.0118783"><ele>63.0</ele><time>2026-04-22T16:25:24.794Z</time></trkpt><trkpt lat="33.388765" lon="9.0117367"><ele>63.33333333333333</ele><time>2026-04-22T16:25:25.794Z</time></trkpt><trkpt lat="33.3888833" lon="9.0116033"><ele>63.666666666666664</ele><time>2026-04-22T16:25:26.794Z</time></trkpt><trkpt lat="33.389" lon="9.0114733"><ele>64.0</ele><time>2026-04-22T16:25:27.794Z</time></trkpt><trkpt lat="33.3891233" lon="9.0113417"><ele>64.0</ele><time>2026-04-22T16:25:28.794Z</time></trkpt><trkpt lat="33.3892433" lon="9.011215"><ele>64.0</ele><time>2026-04-22T16:25:29.795Z</time></trkpt><trkpt lat="33.3893783" lon="9.0110933"><ele>64.0</ele><time>2026-04-22T16:25:30.794Z</time></trkpt><trkpt lat="33.3895017" lon="9.0109617"><ele>64.0</ele><time>2026-04-22T16:25:31.794Z</time></trkpt><trkpt lat="33.3896333" lon="9.0108317"><ele>64.0</ele><time>2026-04-22T16:25:32.795Z</time></trkpt><trkpt lat="33.38976" lon="9.0106967"><ele>64.0</ele><time>2026-04-22T16:25:33.794Z</time></trkpt><trkpt lat="33.389895" lon="9.01058"><ele>64.33333333333333</ele><time>2026-04-22T16:25:34.794Z</time></trkpt><trkpt lat="33.3900283" lon="9.0104633"><ele>64.66666666666667</ele><time>2026-04-22T16:25:35.794Z</time></trkpt><trkpt lat="33.3901683" lon="9.0103517"><ele>65.0</ele><time>2026-04-22T16:25:36.794Z</time></trkpt><trkpt lat="33.3903117" lon="9.0102533"><ele>65.0</ele><time>2026-04-22T16:25:37.794Z</time></trkpt><trkpt lat="33.3904533" lon="9.0101583"><ele>65.0</ele><time>2026-04-22T16:25:38.795Z</time></trkpt><trkpt lat="33.3906" lon="9.010065"><ele>65.0</ele><time>2026-04-22T16:25:39.794Z</time></trkpt><trkpt lat="33.3907517" lon="9.0099667"><ele>64.0</ele><time>2026-04-22T16:25:40.794Z</time></trkpt><trkpt lat="33.3909083" lon="9.0098733"><ele>63.0</ele><time>2026-04-22T16:25:41.794Z</time></trkpt><trkpt lat="33.391065" lon="9.0097817"><ele>62.0</ele><time>2026-04-22T16:25:42.794Z</time></trkpt><trkpt lat="33.3912217" lon="9.00969"><ele>61.0</ele><time>2026-04-22T16:25:43.794Z</time></trkpt><trkpt lat="33.391375" lon="9.0096167"><ele>60.0</ele><time>2026-04-22T16:25:44.794Z</time></trkpt><trkpt lat="33.3915283" lon="9.0095367"><ele>59.0</ele><time>2026-04-22T16:25:45.794Z</time></trkpt><trkpt lat="33.391685" lon="9.0094567"><ele>59.0</ele><time>2026-04-22T16:25:46.795Z</time></trkpt><trkpt lat="33.3918533" lon="9.0093867"><ele>59.0</ele><time>2026-04-22T16:25:47.794Z</time></trkpt><trkpt lat="33.3920233" lon="9.009315"><ele>59.0</ele><time>2026-04-22T16:25:48.794Z</time></trkpt><trkpt lat="33.3921833" lon="9.0092467"><ele>58.66666666666667</ele><time>2026-04-22T16:25:49.794Z</time></trkpt><trkpt lat="33.39235" lon="9.009185"><ele>58.33333333333333</ele><time>2026-04-22T16:25:50.794Z</time></trkpt><trkpt lat="33.3925133" lon="9.009135"><ele>58.0</ele><time>2026-04-22T16:25:51.795Z</time></trkpt><trkpt lat="33.3926867" lon="9.0090833"><ele>60.33333333333333</ele><time>2026-04-22T16:25:52.794Z</time></trkpt><trkpt lat="33.3928517" lon="9.0090333"><ele>62.66666666666667</ele><time>2026-04-22T16:25:53.794Z</time></trkpt><trkpt lat="33.3930217" lon="9.0089933"><ele>65.0</ele><time>2026-04-22T16:25:54.794Z</time></trkpt><trkpt lat="33.393185" lon="9.0089517"><ele>65.0</ele><time>2026-04-22T16:25:55.794Z</time></trkpt><trkpt lat="33.39335" lon="9.0089267"><ele>65.0</ele><time>2026-04-22T16:25:56.794Z</time></trkpt><trkpt lat="33.3935167" lon="9.0089"><ele>65.0</ele><time>2026-04-22T16:25:57.794Z</time></trkpt><trkpt lat="33.3936833" lon="9.00887"><ele>63.333333333333336</ele><time>2026-04-22T16:25:58.794Z</time></trkpt><trkpt lat="33.39386" lon="9.0088417"><ele>61.66666666666667</ele><time>2026-04-22T16:25:59.794Z</time></trkpt><trkpt lat="33.3940317" lon="9.0088217"><ele>60.0</ele><time>2026-04-22T16:26:00.794Z</time></trkpt><trkpt lat="33.3942067" lon="9.0087983"><ele>60.0</ele><time>2026-04-22T16:26:01.794Z</time></trkpt><trkpt lat="33.394385" lon="9.0087817"><ele>60.0</ele><time>2026-04-22T16:26:02.794Z</time></trkpt><trkpt lat="33.3945567" lon="9.008775"><ele>60.0</ele><time>2026-04-22T16:26:03.794Z</time></trkpt><trkpt lat="33.3947333" lon="9.00877"><ele>60.66666666666667</ele><time>2026-04-22T16:26:04.794Z</time></trkpt><trkpt lat="33.3949117" lon="9.0087767"><ele>61.333333333333336</ele><time>2026-04-22T16:26:05.794Z</time></trkpt><trkpt lat="33.3950917" lon="9.008785"><ele>62.0</ele><time>2026-04-22T16:26:06.794Z</time></trkpt><trkpt lat="33.3952683" lon="9.0087867"><ele>62.0</ele><time>2026-04-22T16:26:07.794Z</time></trkpt><trkpt lat="33.3954417" lon="9.0087783"><ele>62.0</ele><time>2026-04-22T16:26:08.794Z</time></trkpt><trkpt lat="33.39561" lon="9.0087783"><ele>62.0</ele><time>2026-04-22T16:26:09.794Z</time></trkpt><trkpt lat="33.3957817" lon="9.0087767"><ele>63.333333333333336</ele><time>2026-04-22T16:26:10.795Z</time></trkpt><trkpt lat="33.3959583" lon="9.0087817"><ele>64.66666666666667</ele><time>2026-04-22T16:26:11.794Z</time></trkpt><trkpt lat="33.3961317" lon="9.0087867"><ele>66.0</ele><time>2026-04-22T16:26:12.794Z</time></trkpt><trkpt lat="33.39631" lon="9.00879"><ele>65.66666666666667</ele><time>2026-04-22T16:26:13.794Z</time></trkpt><trkpt lat="33.39649" lon="9.0087883"><ele>65.33333333333334</ele><time>2026-04-22T16:26:14.794Z</time></trkpt><trkpt lat="33.39666" lon="9.0087817"><ele>65.0</ele><time>2026-04-22T16:26:15.794Z</time></trkpt><trkpt lat="33.3968333" lon="9.0087917"><ele>65.0</ele><time>2026-04-22T16:26:16.794Z</time></trkpt><trkpt lat="33.3970017" lon="9.0088083"><ele>65.0</ele><time>2026-04-22T16:26:17.794Z</time></trkpt><trkpt lat="33.3971783" lon="9.00882"><ele>65.0</ele><time>2026-04-22T16:26:18.794Z</time></trkpt><trkpt lat="33.3973517" lon="9.00882"><ele>64.66666666666667</ele><time>2026-04-22T16:26:19.794Z</time></trkpt><trkpt lat="33.3975283" lon="9.0088233"><ele>64.33333333333333</ele><time>2026-04-22T16:26:20.794Z</time></trkpt><trkpt lat="33.3977" lon="9.0088217"><ele>64.0</ele><time>2026-04-22T16:26:21.794Z</time></trkpt><trkpt lat="33.39787" lon="9.008825"><ele>63.666666666666664</ele><time>2026-04-22T16:26:22.794Z</time></trkpt><trkpt lat="33.3980483" lon="9.0088217"><ele>63.33333333333333</ele><time>2026-04-22T16:26:23.794Z</time></trkpt><trkpt lat="33.39822" lon="9.0088217"><ele>63.0</ele><time>2026-04-22T16:26:24.794Z</time></trkpt><trkpt lat="33.3983967" lon="9.00883"><ele>63.0</ele><time>2026-04-22T16:26:25.794Z</time></trkpt><trkpt lat="33.3985717" lon="9.0088417"><ele>63.0</ele><time>2026-04-22T16:26:26.795Z</time></trkpt><trkpt lat="33.398755" lon="9.00885"><ele>63.0</ele><time>2026-04-22T16:26:27.794Z</time></trkpt><trkpt lat="33.39894" lon="9.00885"><ele>63.33333333333333</ele><time>2026-04-22T16:26:28.794Z</time></trkpt><trkpt lat="33.399115" lon="9.0088467"><ele>63.666666666666664</ele><time>2026-04-22T16:26:29.794Z</time></trkpt><trkpt lat="33.399295" lon="9.008855"><ele>64.0</ele><time>2026-04-22T16:26:30.794Z</time></trkpt><trkpt lat="33.3994717" lon="9.0088683"><ele>64.0</ele><time>2026-04-22T16:26:31.794Z</time></trkpt><trkpt lat="33.399645" lon="9.008885"><ele>64.0</ele><time>2026-04-22T16:26:32.794Z</time></trkpt><trkpt lat="33.399815" lon="9.0089217"><ele>64.0</ele><time>2026-04-22T16:26:33.794Z</time></trkpt><trkpt lat="33.4" lon="9.00896"><ele>64.0</ele><time>2026-04-22T16:26:34.794Z</time></trkpt><trkpt lat="33.4001833" lon="9.00899"><ele>64.0</ele><time>2026-04-22T16:26:35.794Z</time></trkpt><trkpt lat="33.4003583" lon="9.0090283"><ele>64.0</ele><time>2026-04-22T16:26:36.794Z</time></trkpt><trkpt lat="33.4005433" lon="9.0090567"><ele>64.0</ele><time>2026-04-22T16:26:37.794Z</time></trkpt><trkpt lat="33.4007233" lon="9.0090733"><ele>64.0</ele><time>2026-04-22T16:26:38.794Z</time></trkpt><trkpt lat="33.4009067" lon="9.0090817"><ele>64.0</ele><time>2026-04-22T16:26:39.794Z</time></trkpt><trkpt lat="33.4010817" lon="9.00908"><ele>64.0</ele><time>2026-04-22T16:26:40.794Z</time></trkpt><trkpt lat="33.4012617" lon="9.0090683"><ele>64.0</ele><time>2026-04-22T16:26:41.794Z</time></trkpt><trkpt lat="33.4014483" lon="9.009055"><ele>64.0</ele><time>2026-04-22T16:26:42.794Z</time></trkpt><trkpt lat="33.401635" lon="9.0090383"><ele>63.666666666666664</ele><time>2026-04-22T16:26:43.794Z</time></trkpt><trkpt lat="33.4018217" lon="9.0090233"><ele>63.33333333333333</ele><time>2026-04-22T16:26:44.794Z</time></trkpt><trkpt lat="33.4020017" lon="9.0090133"><ele>63.0</ele><time>2026-04-22T16:26:45.794Z</time></trkpt><trkpt lat="33.402185" lon="9.0090033"><ele>63.66666666666667</ele><time>2026-04-22T16:26:46.795Z</time></trkpt><trkpt lat="33.4023733" lon="9.0089983"><ele>64.33333333333334</ele><time>2026-04-22T16:26:47.794Z</time></trkpt><trkpt lat="33.4025533" lon="9.0089867"><ele>65.0</ele><time>2026-04-22T16:26:48.794Z</time></trkpt><trkpt lat="33.4027333" lon="9.0089833"><ele>65.0</ele><time>2026-04-22T16:26:49.794Z</time></trkpt><trkpt lat="33.402915" lon="9.0089767"><ele>65.0</ele><time>2026-04-22T16:26:50.794Z</time></trkpt><trkpt lat="33.4030867" lon="9.008975"><ele>65.0</ele><time>2026-04-22T16:26:51.794Z</time></trkpt><trkpt lat="33.4032467" lon="9.0089783"><ele>65.0</ele><time>2026-04-22T16:26:52.794Z</time></trkpt><trkpt lat="33.4033967" lon="9.0089867"><ele>65.0</ele><time>2026-04-22T16:26:53.794Z</time></trkpt><trkpt lat="33.4035267" lon="9.0089917"><ele>65.0</ele><time>2026-04-22T16:26:54.794Z</time></trkpt><trkpt lat="33.403655" lon="9.0089767"><ele>65.0</ele><time>2026-04-22T16:26:55.794Z</time></trkpt><trkpt lat="33.40379" lon="9.0089417"><ele>65.0</ele><time>2026-04-22T16:26:56.794Z</time></trkpt><trkpt lat="33.403935" lon="9.0088917"><ele>65.0</ele><time>2026-04-22T16:26:57.794Z</time></trkpt><trkpt lat="33.404075" lon="9.0088283"><ele>65.0</ele><time>2026-04-22T16:26:58.794Z</time></trkpt><trkpt lat="33.4042217" lon="9.0087617"><ele>65.0</ele><time>2026-04-22T16:26:59.794Z</time></trkpt><trkpt lat="33.4043733" lon="9.00869"><ele>65.0</ele><time>2026-04-22T16:27:00.794Z</time></trkpt><trkpt lat="33.4045233" lon="9.0086117"><ele>65.0</ele><time>2026-04-22T16:27:01.794Z</time></trkpt><trkpt lat="33.4046667" lon="9.0085383"><ele>65.0</ele><time>2026-04-22T16:27:02.794Z</time></trkpt><trkpt lat="33.40481" lon="9.00844"><ele>65.0</ele><time>2026-04-22T16:27:03.794Z</time></trkpt><trkpt lat="33.4049333" lon="9.0083217"><ele>65.0</ele><time>2026-04-22T16:27:04.794Z</time></trkpt><trkpt lat="33.4050233" lon="9.0081917"><ele>65.0</ele><time>2026-04-22T16:27:05.794Z</time></trkpt><trkpt lat="33.4050817" lon="9.0080417"><ele>65.0</ele><time>2026-04-22T16:27:06.794Z</time></trkpt><trkpt lat="33.4051117" lon="9.007875"><ele>65.0</ele><time>2026-04-22T16:27:07.795Z</time></trkpt><trkpt lat="33.4051183" lon="9.007695"><ele>65.0</ele><time>2026-04-22T16:27:08.794Z</time></trkpt><trkpt lat="33.4051167" lon="9.0075083"><ele>64.33333333333334</ele><time>2026-04-22T16:27:09.794Z</time></trkpt><trkpt lat="33.40512" lon="9.0073217"><ele>63.66666666666667</ele><time>2026-04-22T16:27:10.794Z</time></trkpt><trkpt lat="33.405155" lon="9.0071417"><ele>63.0</ele><time>2026-04-22T16:27:11.795Z</time></trkpt><trkpt lat="33.4051933" lon="9.0069533"><ele>63.0</ele><time>2026-04-22T16:27:12.794Z</time></trkpt><trkpt lat="33.40524" lon="9.0067783"><ele>63.0</ele><time>2026-04-22T16:27:13.794Z</time></trkpt><trkpt lat="33.4053083" lon="9.0066433"><ele>63.0</ele><time>2026-04-22T16:27:14.794Z</time></trkpt><trkpt lat="33.4054183" lon="9.0065583"><ele>63.0</ele><time>2026-04-22T16:27:15.794Z</time></trkpt><trkpt lat="33.4055433" lon="9.006505"><ele>63.5</ele><time>2026-04-22T16:27:16.795Z</time></trkpt><trkpt lat="33.4056833" lon="9.0065"><ele>64.0</ele><time>2026-04-22T16:27:17.794Z</time></trkpt><trkpt lat="33.4058167" lon="9.0065167"><ele>64.5</ele><time>2026-04-22T16:27:18.794Z</time></trkpt><trkpt lat="33.4059583" lon="9.0065467"><ele>65.0</ele><time>2026-04-22T16:27:19.794Z</time></trkpt><trkpt lat="33.4061033" lon="9.0065933"><ele>65.0</ele><time>2026-04-22T16:27:20.794Z</time></trkpt><trkpt lat="33.4062667" lon="9.0066517"><ele>65.0</ele><time>2026-04-22T16:27:21.794Z</time></trkpt><trkpt lat="33.406435" lon="9.0067017"><ele>65.0</ele><time>2026-04-22T16:27:22.794Z</time></trkpt><trkpt lat="33.4065967" lon="9.0067483"><ele>64.33333333333334</ele><time>2026-04-22T16:27:23.794Z</time></trkpt><trkpt lat="33.40676" lon="9.006805"><ele>63.66666666666667</ele><time>2026-04-22T16:27:24.794Z</time></trkpt><trkpt lat="33.4069283" lon="9.0068583"><ele>63.0</ele><time>2026-04-22T16:27:25.794Z</time></trkpt><trkpt lat="33.4070933" lon="9.0069167"><ele>63.66666666666667</ele><time>2026-04-22T16:27:26.794Z</time></trkpt><trkpt lat="33.4072733" lon="9.0069783"><ele>64.33333333333334</ele><time>2026-04-22T16:27:27.794Z</time></trkpt><trkpt lat="33.4074483" lon="9.0070383"><ele>65.0</ele><time>2026-04-22T16:27:28.795Z</time></trkpt><trkpt lat="33.4076183" lon="9.0071133"><ele>65.0</ele><time>2026-04-22T16:27:29.794Z</time></trkpt><trkpt lat="33.4077867" lon="9.0071817"><ele>65.0</ele><time>2026-04-22T16:27:30.794Z</time></trkpt><trkpt lat="33.4079633" lon="9.0072517"><ele>65.0</ele><time>2026-04-22T16:27:31.795Z</time></trkpt><trkpt lat="33.40813" lon="9.0073267"><ele>65.0</ele><time>2026-04-22T16:27:32.794Z</time></trkpt><trkpt lat="33.4082983" lon="9.00739"><ele>65.0</ele><time>2026-04-22T16:27:33.794Z</time></trkpt><trkpt lat="33.4084733" lon="9.007455"><ele>65.0</ele><time>2026-04-22T16:27:34.794Z</time></trkpt><trkpt lat="33.408645" lon="9.0075183"><ele>65.0</ele><time>2026-04-22T16:27:35.794Z</time></trkpt><trkpt lat="33.4088183" lon="9.007575"><ele>65.0</ele><time>2026-04-22T16:27:36.794Z</time></trkpt><trkpt lat="33.40899" lon="9.00764"><ele>65.0</ele><time>2026-04-22T16:27:37.795Z</time></trkpt><trkpt lat="33.409155" lon="9.0077117"><ele>65.0</ele><time>2026-04-22T16:27:38.794Z</time></trkpt><trkpt lat="33.4093233" lon="9.0077783"><ele>65.0</ele><time>2026-04-22T16:27:39.794Z</time></trkpt><trkpt lat="33.4094917" lon="9.0078417"><ele>65.0</ele><time>2026-04-22T16:27:40.794Z</time></trkpt><trkpt lat="33.4096667" lon="9.0079033"><ele>65.33333333333334</ele><time>2026-04-22T16:27:41.794Z</time></trkpt><trkpt lat="33.40984" lon="9.0079567"><ele>65.66666666666667</ele><time>2026-04-22T16:27:42.794Z</time></trkpt><trkpt lat="33.4100067" lon="9.0080083"><ele>66.0</ele><time>2026-04-22T16:27:43.795Z</time></trkpt><trkpt lat="33.4101767" lon="9.0080667"><ele>66.0</ele><time>2026-04-22T16:27:44.794Z</time></trkpt><trkpt lat="33.4103483" lon="9.008125"><ele>66.0</ele><time>2026-04-22T16:27:45.794Z</time></trkpt><trkpt lat="33.4105167" lon="9.00819"><ele>66.0</ele><time>2026-04-22T16:27:46.794Z</time></trkpt><trkpt lat="33.4106817" lon="9.0082567"><ele>66.0</ele><time>2026-04-22T16:27:47.794Z</time></trkpt><trkpt lat="33.4108483" lon="9.0083233"><ele>66.0</ele><time>2026-04-22T16:27:48.794Z</time></trkpt><trkpt lat="33.41101" lon="9.0083917"><ele>66.0</ele><time>2026-04-22T16:27:49.794Z</time></trkpt><trkpt lat="33.411175" lon="9.0084717"><ele>66.0</ele><time>2026-04-22T16:27:50.794Z</time></trkpt><trkpt lat="33.4113467" lon="9.0085533"><ele>66.0</ele><time>2026-04-22T16:27:51.794Z</time></trkpt><trkpt lat="33.41151" lon="9.0086383"><ele>66.0</ele><time>2026-04-22T16:27:52.794Z</time></trkpt><trkpt lat="33.4116667" lon="9.0087167"><ele>66.0</ele><time>2026-04-22T16:27:53.794Z</time></trkpt><trkpt lat="33.411825" lon="9.008805"><ele>66.0</ele><time>2026-04-22T16:27:54.794Z</time></trkpt><trkpt lat="33.4119833" lon="9.008895"><ele>66.0</ele><time>2026-04-22T16:27:55.794Z</time></trkpt><trkpt lat="33.4121417" lon="9.0089883"><ele>65.66666666666667</ele><time>2026-04-22T16:27:56.794Z</time></trkpt><trkpt lat="33.412305" lon="9.0090767"><ele>65.33333333333334</ele><time>2026-04-22T16:27:57.794Z</time></trkpt><trkpt lat="33.41248" lon="9.0091667"><ele>65.0</ele><time>2026-04-22T16:27:58.794Z</time></trkpt><trkpt lat="33.4126533" lon="9.0092583"><ele>65.0</ele><time>2026-04-22T16:27:59.794Z</time></trkpt><trkpt lat="33.4128183" lon="9.0093567"><ele>65.0</ele><time>2026-04-22T16:28:00.794Z</time></trkpt><trkpt lat="33.4129717" lon="9.0094483"><ele>65.0</ele><time>2026-04-22T16:28:01.794Z</time></trkpt><trkpt lat="33.4131333" lon="9.00954"><ele>65.0</ele><time>2026-04-22T16:28:02.794Z</time></trkpt><trkpt lat="33.4132917" lon="9.009645"><ele>65.0</ele><time>2026-04-22T16:28:03.794Z</time></trkpt><trkpt lat="33.413455" lon="9.0097483"><ele>65.0</ele><time>2026-04-22T16:28:04.794Z</time></trkpt><trkpt lat="33.4136283" lon="9.009855"><ele>65.0</ele><time>2026-04-22T16:28:05.794Z</time></trkpt><trkpt lat="33.4137983" lon="9.00995"><ele>65.0</ele><time>2026-04-22T16:28:06.794Z</time></trkpt><trkpt lat="33.4139633" lon="9.0100383"><ele>65.0</ele><time>2026-04-22T16:28:07.794Z</time></trkpt><trkpt lat="33.414135" lon="9.01011"><ele>65.33333333333334</ele><time>2026-04-22T16:28:08.794Z</time></trkpt><trkpt lat="33.4143067" lon="9.0101833"><ele>65.66666666666667</ele><time>2026-04-22T16:28:09.794Z</time></trkpt><trkpt lat="33.4144833" lon="9.010255"><ele>66.0</ele><time>2026-04-22T16:28:10.793Z</time></trkpt><trkpt lat="33.41466" lon="9.0103217"><ele>66.0</ele><time>2026-04-22T16:28:11.794Z</time></trkpt><trkpt lat="33.4148333" lon="9.0104017"><ele>66.0</ele><time>2026-04-22T16:28:12.793Z</time></trkpt><trkpt lat="33.4150017" lon="9.01048"><ele>66.0</ele><time>2026-04-22T16:28:13.793Z</time></trkpt><trkpt lat="33.4151733" lon="9.0105567"><ele>66.0</ele><time>2026-04-22T16:28:14.793Z</time></trkpt><trkpt lat="33.4153417" lon="9.0106367"><ele>66.0</ele><time>2026-04-22T16:28:15.793Z</time></trkpt><trkpt lat="33.415515" lon="9.010715"><ele>66.0</ele><time>2026-04-22T16:28:16.793Z</time></trkpt><trkpt lat="33.415685" lon="9.0107967"><ele>66.0</ele><time>2026-04-22T16:28:17.793Z</time></trkpt><trkpt lat="33.415845" lon="9.0108767"><ele>66.0</ele><time>2026-04-22T16:28:18.793Z</time></trkpt><trkpt lat="33.4160133" lon="9.01095"><ele>66.0</ele><time>2026-04-22T16:28:19.793Z</time></trkpt><trkpt lat="33.4161783" lon="9.0110217"><ele>65.0</ele><time>2026-04-22T16:28:20.793Z</time></trkpt><trkpt lat="33.416345" lon="9.01109"><ele>64.0</ele><time>2026-04-22T16:28:21.793Z</time></trkpt><trkpt lat="33.416515" lon="9.011155"><ele>63.0</ele><time>2026-04-22T16:28:22.793Z</time></trkpt><trkpt lat="33.4166867" lon="9.0112233"><ele>63.0</ele><time>2026-04-22T16:28:23.793Z</time></trkpt><trkpt lat="33.4168567" lon="9.01129"><ele>63.0</ele><time>2026-04-22T16:28:24.793Z</time></trkpt><trkpt lat="33.4170283" lon="9.0113583"><ele>63.0</ele><time>2026-04-22T16:28:25.793Z</time></trkpt><trkpt lat="33.4172017" lon="9.0114283"><ele>62.66666666666667</ele><time>2026-04-22T16:28:26.793Z</time></trkpt><trkpt lat="33.4173783" lon="9.0114933"><ele>62.333333333333336</ele><time>2026-04-22T16:28:27.793Z</time></trkpt><trkpt lat="33.4175567" lon="9.0115567"><ele>62.0</ele><time>2026-04-22T16:28:28.793Z</time></trkpt><trkpt lat="33.417735" lon="9.0116183"><ele>63.333333333333336</ele><time>2026-04-22T16:28:29.794Z</time></trkpt><trkpt lat="33.4179083" lon="9.011675"><ele>64.66666666666667</ele><time>2026-04-22T16:28:30.793Z</time></trkpt><trkpt lat="33.4180883" lon="9.0117333"><ele>66.0</ele><time>2026-04-22T16:28:31.793Z</time></trkpt><trkpt lat="33.41827" lon="9.0117867"><ele>66.0</ele><time>2026-04-22T16:28:32.793Z</time></trkpt><trkpt lat="33.41845" lon="9.0118433"><ele>66.0</ele><time>2026-04-22T16:28:33.793Z</time></trkpt><trkpt lat="33.4186317" lon="9.0119033"><ele>66.0</ele><time>2026-04-22T16:28:34.793Z</time></trkpt><trkpt lat="33.4188117" lon="9.01197"><ele>65.33333333333333</ele><time>2026-04-22T16:28:35.793Z</time></trkpt><trkpt lat="33.4189933" lon="9.0120283"><ele>64.66666666666666</ele><time>2026-04-22T16:28:36.793Z</time></trkpt><trkpt lat="33.4191767" lon="9.0120883"><ele>64.0</ele><time>2026-04-22T16:28:37.793Z</time></trkpt><trkpt lat="33.4193617" lon="9.012145"><ele>64.0</ele><time>2026-04-22T16:28:38.793Z</time></trkpt><trkpt lat="33.4195533" lon="9.0122"><ele>64.0</ele><time>2026-04-22T16:28:39.794Z</time></trkpt><trkpt lat="33.4197383" lon="9.012245"><ele>64.0</ele><time>2026-04-22T16:28:40.793Z</time></trkpt><trkpt lat="33.4199283" lon="9.0122733"><ele>64.0</ele><time>2026-04-22T16:28:41.793Z</time></trkpt><trkpt lat="33.4201167" lon="9.0122983"><ele>64.0</ele><time>2026-04-22T16:28:42.793Z</time></trkpt><trkpt lat="33.420305" lon="9.0123267"><ele>64.0</ele><time>2026-04-22T16:28:43.793Z</time></trkpt><trkpt lat="33.4204917" lon="9.012335"><ele>64.0</ele><time>2026-04-22T16:28:44.793Z</time></trkpt><trkpt lat="33.4206867" lon="9.01234"><ele>64.0</ele><time>2026-04-22T16:28:45.793Z</time></trkpt><trkpt lat="33.4208767" lon="9.0123483"><ele>64.0</ele><time>2026-04-22T16:28:46.793Z</time></trkpt><trkpt lat="33.4210667" lon="9.0123533"><ele>64.0</ele><time>2026-04-22T16:28:47.793Z</time></trkpt><trkpt lat="33.4212517" lon="9.0123617"><ele>64.0</ele><time>2026-04-22T16:28:48.793Z</time></trkpt><trkpt lat="33.4214383" lon="9.0123683"><ele>64.0</ele><time>2026-04-22T16:28:49.793Z</time></trkpt><trkpt lat="33.4216283" lon="9.0123733"><ele>64.66666666666666</ele><time>2026-04-22T16:28:50.793Z</time></trkpt><trkpt lat="33.4218167" lon="9.0123717"><ele>65.33333333333333</ele><time>2026-04-22T16:28:51.793Z</time></trkpt><trkpt lat="33.4220067" lon="9.0123867"><ele>66.0</ele><time>2026-04-22T16:28:52.793Z</time></trkpt><trkpt lat="33.4221967" lon="9.0124017"><ele>66.66666666666667</ele><time>2026-04-22T16:28:53.793Z</time></trkpt><trkpt lat="33.422385" lon="9.0124217"><ele>67.33333333333334</ele><time>2026-04-22T16:28:54.793Z</time></trkpt><trkpt lat="33.4225733" lon="9.0124517"><ele>68.0</ele><time>2026-04-22T16:28:55.793Z</time></trkpt><trkpt lat="33.4227633" lon="9.01249"><ele>68.0</ele><time>2026-04-22T16:28:56.794Z</time></trkpt><trkpt lat="33.4229567" lon="9.012535"><ele>68.0</ele><time>2026-04-22T16:28:57.793Z</time></trkpt><trkpt lat="33.4231433" lon="9.0125867"><ele>68.0</ele><time>2026-04-22T16:28:58.793Z</time></trkpt><trkpt lat="33.4233317" lon="9.0126433"><ele>68.0</ele><time>2026-04-22T16:28:59.793Z</time></trkpt><trkpt lat="33.4235217" lon="9.0127033"><ele>68.0</ele><time>2026-04-22T16:29:00.793Z</time></trkpt><trkpt lat="33.4237167" lon="9.01276"><ele>68.0</ele><time>2026-04-22T16:29:01.794Z</time></trkpt><trkpt lat="33.4239083" lon="9.012805"><ele>67.66666666666667</ele><time>2026-04-22T16:29:02.793Z</time></trkpt><trkpt lat="33.4240983" lon="9.0128433"><ele>67.33333333333333</ele><time>2026-04-22T16:29:03.793Z</time></trkpt><trkpt lat="33.4242917" lon="9.0128783"><ele>67.0</ele><time>2026-04-22T16:29:04.793Z</time></trkpt><trkpt lat="33.42449" lon="9.0129083"><ele>68.0</ele><time>2026-04-22T16:29:05.793Z</time></trkpt><trkpt lat="33.4246867" lon="9.012935"><ele>69.0</ele><time>2026-04-22T16:29:06.793Z</time></trkpt><trkpt lat="33.4248833" lon="9.0129667"><ele>70.0</ele><time>2026-04-22T16:29:07.793Z</time></trkpt><trkpt lat="33.4250783" lon="9.0129933"><ele>70.0</ele><time>2026-04-22T16:29:08.793Z</time></trkpt><trkpt lat="33.4252783" lon="9.01302"><ele>70.0</ele><time>2026-04-22T16:29:09.793Z</time></trkpt><trkpt lat="33.4254767" lon="9.013055"><ele>70.0</ele><time>2026-04-22T16:29:10.793Z</time></trkpt><trkpt lat="33.425675" lon="9.0130817"><ele>69.0</ele><time>2026-04-22T16:29:11.793Z</time></trkpt><trkpt lat="33.4258683" lon="9.0131017"><ele>68.0</ele><time>2026-04-22T16:29:12.793Z</time></trkpt><trkpt lat="33.4260567" lon="9.0131233"><ele>67.0</ele><time>2026-04-22T16:29:13.793Z</time></trkpt><trkpt lat="33.4262367" lon="9.013145"><ele>67.0</ele><time>2026-04-22T16:29:14.794Z</time></trkpt><trkpt lat="33.4264217" lon="9.0131567"><ele>67.0</ele><time>2026-04-22T16:29:15.793Z</time></trkpt><trkpt lat="33.4266067" lon="9.0131767"><ele>67.0</ele><time>2026-04-22T16:29:16.794Z</time></trkpt><trkpt lat="33.4267833" lon="9.0132"><ele>67.0</ele><time>2026-04-22T16:29:17.793Z</time></trkpt><trkpt lat="33.4269683" lon="9.01323"><ele>67.0</ele><time>2026-04-22T16:29:18.793Z</time></trkpt><trkpt lat="33.4271467" lon="9.0132683"><ele>67.0</ele><time>2026-04-22T16:29:19.794Z</time></trkpt><trkpt lat="33.42733" lon="9.013295"><ele>67.66666666666666</ele><time>2026-04-22T16:29:20.793Z</time></trkpt><trkpt lat="33.4275117" lon="9.013325"><ele>68.33333333333333</ele><time>2026-04-22T16:29:21.793Z</time></trkpt><trkpt lat="33.4276967" lon="9.013355"><ele>69.0</ele><time>2026-04-22T16:29:22.793Z</time></trkpt><trkpt lat="33.4278733" lon="9.0133933"><ele>68.66666666666667</ele><time>2026-04-22T16:29:23.793Z</time></trkpt><trkpt lat="33.42805" lon="9.0134333"><ele>68.33333333333334</ele><time>2026-04-22T16:29:24.793Z</time></trkpt><trkpt lat="33.42823" lon="9.0134683"><ele>68.0</ele><time>2026-04-22T16:29:25.793Z</time></trkpt><trkpt lat="33.42841" lon="9.013505"><ele>68.0</ele><time>2026-04-22T16:29:26.793Z</time></trkpt><trkpt lat="33.42859" lon="9.0135317"><ele>68.0</ele><time>2026-04-22T16:29:27.793Z</time></trkpt><trkpt lat="33.42877" lon="9.0135617"><ele>68.0</ele><time>2026-04-22T16:29:28.793Z</time></trkpt><trkpt lat="33.4289567" lon="9.0135933"><ele>67.0</ele><time>2026-04-22T16:29:29.793Z</time></trkpt><trkpt lat="33.4291333" lon="9.0136167"><ele>66.0</ele><time>2026-04-22T16:29:30.793Z</time></trkpt><trkpt lat="33.4293083" lon="9.0136417"><ele>65.0</ele><time>2026-04-22T16:29:31.793Z</time></trkpt><trkpt lat="33.429485" lon="9.01367"><ele>64.0</ele><time>2026-04-22T16:29:32.793Z</time></trkpt><trkpt lat="33.4296567" lon="9.0136933"><ele>63.0</ele><time>2026-04-22T16:29:33.793Z</time></trkpt><trkpt lat="33.4298383" lon="9.0137167"><ele>62.0</ele><time>2026-04-22T16:29:34.793Z</time></trkpt><trkpt lat="33.4300033" lon="9.0137383"><ele>62.0</ele><time>2026-04-22T16:29:35.793Z</time></trkpt><trkpt lat="33.43016" lon="9.013765"><ele>62.0</ele><time>2026-04-22T16:29:36.793Z</time></trkpt><trkpt lat="33.4303083" lon="9.01379"><ele>62.0</ele><time>2026-04-22T16:29:37.793Z</time></trkpt><trkpt lat="33.4304467" lon="9.0138133"><ele>62.0</ele><time>2026-04-22T16:29:38.793Z</time></trkpt><trkpt lat="33.4305733" lon="9.013825"><ele>62.0</ele><time>2026-04-22T16:29:39.793Z</time></trkpt><trkpt lat="33.430695" lon="9.0138383"><ele>62.0</ele><time>2026-04-22T16:29:40.793Z</time></trkpt><trkpt lat="33.4308033" lon="9.0138617"><ele>62.0</ele><time>2026-04-22T16:29:41.793Z</time></trkpt><trkpt lat="33.4309133" lon="9.0138833"><ele>62.0</ele><time>2026-04-22T16:29:42.793Z</time></trkpt><trkpt lat="33.43103" lon="9.013895"><ele>62.0</ele><time>2026-04-22T16:29:43.793Z</time></trkpt><trkpt lat="33.43115" lon="9.0139033"><ele>62.0</ele><time>2026-04-22T16:29:44.793Z</time></trkpt><trkpt lat="33.4312717" lon="9.0139117"><ele>62.0</ele><time>2026-04-22T16:29:45.793Z</time></trkpt><trkpt lat="33.4313933" lon="9.0139317"><ele>62.0</ele><time>2026-04-22T16:29:46.794Z</time></trkpt><trkpt lat="33.4315133" lon="9.0139517"><ele>61.8</ele><time>2026-04-22T16:29:47.794Z</time></trkpt><trkpt lat="33.4316367" lon="9.0139583"><ele>61.6</ele><time>2026-04-22T16:29:48.793Z</time></trkpt><trkpt lat="33.431745" lon="9.013965"><ele>61.39999999999999</ele><time>2026-04-22T16:29:49.793Z</time></trkpt><trkpt lat="33.43184" lon="9.0139767"><ele>61.199999999999996</ele><time>2026-04-22T16:29:50.794Z</time></trkpt><trkpt lat="33.4319233" lon="9.013995"><ele>61.0</ele><time>2026-04-22T16:29:51.793Z</time></trkpt><trkpt lat="33.432" lon="9.014005"><ele>60.99999999999999</ele><time>2026-04-22T16:29:52.793Z</time></trkpt><trkpt lat="33.4320633" lon="9.014025"><ele>61.0</ele><time>2026-04-22T16:29:53.793Z</time></trkpt><trkpt lat="33.4321467" lon="9.0140817"><ele>61.0</ele><time>2026-04-22T16:29:55.793Z</time></trkpt><trkpt lat="33.432165" lon="9.0141867"><ele>61.0</ele><time>2026-04-22T16:29:57.793Z</time></trkpt><trkpt lat="33.4321567" lon="9.014265"><ele>60.99999999999999</ele><time>2026-04-22T16:29:58.793Z</time></trkpt><trkpt lat="33.4321383" lon="9.0143583"><ele>61.0</ele><time>2026-04-22T16:29:59.793Z</time></trkpt><trkpt lat="33.4321367" lon="9.0144717"><ele>61.4</ele><time>2026-04-22T16:30:00.793Z</time></trkpt><trkpt lat="33.4321317" lon="9.0145883"><ele>61.8</ele><time>2026-04-22T16:30:01.793Z</time></trkpt><trkpt lat="33.432125" lon="9.0147117"><ele>62.199999999999996</ele><time>2026-04-22T16:30:02.793Z</time></trkpt><trkpt lat="33.4321317" lon="9.01484"><ele>62.599999999999994</ele><time>2026-04-22T16:30:03.793Z</time></trkpt><trkpt lat="33.4321367" lon="9.0149733"><ele>63.0</ele><time>2026-04-22T16:30:04.793Z</time></trkpt><trkpt lat="33.4321483" lon="9.0151117"><ele>63.0</ele><time>2026-04-22T16:30:05.793Z</time></trkpt><trkpt lat="33.4321633" lon="9.0152483"><ele>63.0</ele><time>2026-04-22T16:30:06.793Z</time></trkpt><trkpt lat="33.4321933" lon="9.0153833"><ele>63.0</ele><time>2026-04-22T16:30:07.793Z</time></trkpt><trkpt lat="33.4322317" lon="9.0155233"><ele>63.0</ele><time>2026-04-22T16:30:08.793Z</time></trkpt><trkpt lat="33.432285" lon="9.015655"><ele>63.0</ele><time>2026-04-22T16:30:09.793Z</time></trkpt><trkpt lat="33.432345" lon="9.01578"><ele>63.0</ele><time>2026-04-22T16:30:10.793Z</time></trkpt><trkpt lat="33.4324167" lon="9.0159"><ele>63.0</ele><time>2026-04-22T16:30:11.793Z</time></trkpt><trkpt lat="33.4325" lon="9.0160017"><ele>63.0</ele><time>2026-04-22T16:30:12.793Z</time></trkpt><trkpt lat="33.4325933" lon="9.0160967"><ele>63.0</ele><time>2026-04-22T16:30:13.793Z</time></trkpt><trkpt lat="33.4327017" lon="9.01618"><ele>63.0</ele><time>2026-04-22T16:30:14.793Z</time></trkpt><trkpt lat="33.4328083" lon="9.0162567"><ele>63.0</ele><time>2026-04-22T16:30:15.793Z</time></trkpt><trkpt lat="33.4329117" lon="9.0163433"><ele>63.0</ele><time>2026-04-22T16:30:16.794Z</time></trkpt><trkpt lat="33.4330233" lon="9.0164333"><ele>63.0</ele><time>2026-04-22T16:30:17.793Z</time></trkpt><trkpt lat="33.4331333" lon="9.0165267"><ele>63.0</ele><time>2026-04-22T16:30:18.793Z</time></trkpt><trkpt lat="33.43324" lon="9.0166267"><ele>63.0</ele><time>2026-04-22T16:30:19.793Z</time></trkpt><trkpt lat="33.4333483" lon="9.0167333"><ele>63.0</ele><time>2026-04-22T16:30:20.793Z</time></trkpt><trkpt lat="33.4334533" lon="9.016845"><ele>63.0</ele><time>2026-04-22T16:30:21.793Z</time></trkpt><trkpt lat="33.4335567" lon="9.0169633"><ele>63.0</ele><time>2026-04-22T16:30:22.793Z</time></trkpt><trkpt lat="33.433665" lon="9.0170833"><ele>63.0</ele><time>2026-04-22T16:30:23.793Z</time></trkpt><trkpt lat="33.4337583" lon="9.0172017"><ele>63.0</ele><time>2026-04-22T16:30:24.793Z</time></trkpt><trkpt lat="33.4338467" lon="9.0173317"><ele>62.75</ele><time>2026-04-22T16:30:25.793Z</time></trkpt><trkpt lat="33.43393" lon="9.0174533"><ele>62.5</ele><time>2026-04-22T16:30:26.794Z</time></trkpt><trkpt lat="33.4340017" lon="9.0175667"><ele>62.25</ele><time>2026-04-22T16:30:27.793Z</time></trkpt><trkpt lat="33.434065" lon="9.01767"><ele>62.0</ele><time>2026-04-22T16:30:28.793Z</time></trkpt><trkpt lat="33.4341283" lon="9.01777"><ele>62.0</ele><time>2026-04-22T16:30:29.793Z</time></trkpt><trkpt lat="33.434185" lon="9.01788"><ele>62.0</ele><time>2026-04-22T16:30:30.793Z</time></trkpt><trkpt lat="33.4342317" lon="9.0179833"><ele>62.0</ele><time>2026-04-22T16:30:31.793Z</time></trkpt><trkpt lat="33.43426" lon="9.0180833"><ele>62.0</ele><time>2026-04-22T16:30:32.793Z</time></trkpt><trkpt lat="33.4342883" lon="9.0181783"><ele>62.0</ele><time>2026-04-22T16:30:33.794Z</time></trkpt><trkpt lat="33.4343167" lon="9.0182633"><ele>62.0</ele><time>2026-04-22T16:30:34.793Z</time></trkpt><trkpt lat="33.43438" lon="9.01836"><ele>62.0</ele><time>2026-04-22T16:30:36.793Z</time></trkpt><trkpt lat="33.4344717" lon="9.018305"><ele>62.0</ele><time>2026-04-22T16:30:39.793Z</time></trkpt><trkpt lat="33.4345383" lon="9.0181833"><ele>62.0</ele><time>2026-04-22T16:30:41.793Z</time></trkpt><trkpt lat="33.434595" lon="9.0181233"><ele>62.0</ele><time>2026-04-22T16:30:42.793Z</time></trkpt><trkpt lat="33.4346633" lon="9.0180733"><ele>61.50000000000001</ele><time>2026-04-22T16:30:43.793Z</time></trkpt><trkpt lat="33.434735" lon="9.0180367"><ele>61.0</ele><time>2026-04-22T16:30:44.793Z</time></trkpt><trkpt lat="33.43481" lon="9.017995"><ele>60.5</ele><time>2026-04-22T16:30:45.793Z</time></trkpt><trkpt lat="33.434875" lon="9.0179417"><ele>60.0</ele><time>2026-04-22T16:30:46.793Z</time></trkpt><trkpt lat="33.4349183" lon="9.0178833"><ele>59.50000000000001</ele><time>2026-04-22T16:30:47.793Z</time></trkpt><trkpt lat="33.434945" lon="9.0178133"><ele>59.0</ele><time>2026-04-22T16:30:48.793Z</time></trkpt><trkpt lat="33.43493" lon="9.0177017"><ele>59.0</ele><time>2026-04-22T16:30:50.793Z</time></trkpt><trkpt lat="33.43489" lon="9.0176183"><ele>59.00000000000001</ele><time>2026-04-22T16:30:52.793Z</time></trkpt><trkpt lat="33.4348517" lon="9.01754"><ele>59.00000000000001</ele><time>2026-04-22T16:30:54.793Z</time></trkpt><trkpt lat="33.4348017" lon="9.0174433"><ele>59.0</ele><time>2026-04-22T16:30:56.794Z</time></trkpt><trkpt lat="33.4347267" lon="9.0173217"><ele>59.0</ele><time>2026-04-22T16:30:58.793Z</time></trkpt><trkpt lat="33.43469" lon="9.0172467"><ele>59.50000000000001</ele><time>2026-04-22T16:30:59.793Z</time></trkpt><trkpt lat="33.4346483" lon="9.0171617"><ele>60.0</ele><time>2026-04-22T16:31:00.793Z</time></trkpt><trkpt lat="33.4345967" lon="9.0170767"><ele>60.5</ele><time>2026-04-22T16:31:01.793Z</time></trkpt><trkpt lat="33.4345483" lon="9.017"><ele>61.0</ele><time>2026-04-22T16:31:02.793Z</time></trkpt><trkpt lat="33.4345133" lon="9.0169267"><ele>61.50000000000001</ele><time>2026-04-22T16:31:03.789Z</time></trkpt><trkpt lat="33.4344867" lon="9.0168483"><ele>62.0</ele><time>2026-04-22T16:31:04.793Z</time></trkpt><trkpt lat="33.4344867" lon="9.01671"><ele>65.0</ele><time>2026-04-22T16:31:06.793Z</time></trkpt><trkpt lat="33.4345267" lon="9.0166017"><ele>66.0</ele><time>2026-04-22T16:31:08.793Z</time></trkpt><trkpt lat="33.4345667" lon="9.0165383"><ele>66.0</ele><time>2026-04-22T16:31:10.793Z</time></trkpt></trkseg></trk></gpx>